<?xml version='1.0' encoding='UTF-8'?><gpx version="1.1" creator="JPX - https://github.com/jenetics/jpx" xmlns="http://www.topografix.com/GPX/1/1"><trk><trkseg><trkpt lat="45.0033268" lon="9.6127261"><ele>83.33333333333334</ele><time>2026-04-07T13:36:43.991Z</time></trkpt><trkpt lat="45.003337" lon="9.6128452"><ele>83.66666666666667</ele><time>2026-04-07T13:36:48.987Z</time></trkpt><trkpt lat="45.0033297" lon="9.612974"><ele>84.0</ele><time>2026-04-07T13:36:51.888Z</time></trkpt><trkpt lat="45.0033157" lon="9.6130963"><ele>84.33333333333333</ele><time>2026-04-07T13:36:53.99Z</time></trkpt><trkpt lat="45.0033202" lon="9.6132104"><ele>84.66666666666666</ele><time>2026-04-07T13:36:55.994Z</time></trkpt><trkpt lat="45.0033124" lon="9.6133222"><ele>85.0</ele><time>2026-04-07T13:36:57.998Z</time></trkpt><trkpt lat="45.0032938" lon="9.6134436"><ele>85.0</ele><time>2026-04-07T13:36:59.991Z</time></trkpt><trkpt lat="45.0032792" lon="9.6135689"><ele>85.0</ele><time>2026-04-07T13:37:02.071Z</time></trkpt><trkpt lat="45.003255" lon="9.6136783"><ele>85.0</ele><time>2026-04-07T13:37:03.988Z</time></trkpt><trkpt lat="45.003245" lon="9.613775"><ele>85.0</ele><time>2026-04-07T13:37:05.994Z</time></trkpt><trkpt lat="45.0032317" lon="9.6138817"><ele>85.0</ele><time>2026-04-07T13:37:07.998Z</time></trkpt><trkpt lat="45.003205" lon="9.61399"><ele>85.0</ele><time>2026-04-07T13:37:09.993Z</time></trkpt><trkpt lat="45.0031367" lon="9.6140583"><ele>85.0</ele><time>2026-04-07T13:37:11.993Z</time></trkpt><trkpt lat="45.0030433" lon="9.6140483"><ele>85.0</ele><time>2026-04-07T13:37:13.991Z</time></trkpt><trkpt lat="45.0029367" lon="9.61402"><ele>85.0</ele><time>2026-04-07T13:37:15.996Z</time></trkpt><trkpt lat="45.002825" lon="9.6139967"><ele>85.0</ele><time>2026-04-07T13:37:17.997Z</time></trkpt><trkpt lat="45.0027067" lon="9.6139733"><ele>85.0</ele><time>2026-04-07T13:37:19.988Z</time></trkpt><trkpt lat="45.0025867" lon="9.61394"><ele>85.25</ele><time>2026-04-07T13:37:21.993Z</time></trkpt><trkpt lat="45.0024717" lon="9.6139017"><ele>85.5</ele><time>2026-04-07T13:37:23.993Z</time></trkpt><trkpt lat="45.0023533" lon="9.613865"><ele>85.75</ele><time>2026-04-07T13:37:25.991Z</time></trkpt><trkpt lat="45.0022383" lon="9.613825"><ele>86.0</ele><time>2026-04-07T13:37:27.992Z</time></trkpt><trkpt lat="45.0021283" lon="9.61377"><ele>86.0</ele><time>2026-04-07T13:37:29.99Z</time></trkpt><trkpt lat="45.0020217" lon="9.613715"><ele>86.0</ele><time>2026-04-07T13:37:31.997Z</time></trkpt><trkpt lat="45.0019133" lon="9.6136633"><ele>86.0</ele><time>2026-04-07T13:37:33.989Z</time></trkpt><trkpt lat="45.0018067" lon="9.6136267"><ele>86.0</ele><time>2026-04-07T13:37:35.991Z</time></trkpt><trkpt lat="45.001705" lon="9.6136133"><ele>86.0</ele><time>2026-04-07T13:37:37.994Z</time></trkpt><trkpt lat="45.0016083" lon="9.6136083"><ele>86.0</ele><time>2026-04-07T13:37:39.995Z</time></trkpt><trkpt lat="45.00153" lon="9.6135667"><ele>86.0</ele><time>2026-04-07T13:37:41.992Z</time></trkpt><trkpt lat="45.0015" lon="9.613465"><ele>86.0</ele><time>2026-04-07T13:37:43.991Z</time></trkpt><trkpt lat="45.0015133" lon="9.6133283"><ele>86.0</ele><time>2026-04-07T13:37:45.992Z</time></trkpt><trkpt lat="45.001525" lon="9.6131833"><ele>86.0</ele><time>2026-04-07T13:37:47.991Z</time></trkpt><trkpt lat="45.0015333" lon="9.613025"><ele>86.0</ele><time>2026-04-07T13:37:49.992Z</time></trkpt><trkpt lat="45.0015317" lon="9.612865"><ele>86.0</ele><time>2026-04-07T13:37:51.988Z</time></trkpt><trkpt lat="45.0015333" lon="9.6127033"><ele>86.0</ele><time>2026-04-07T13:37:53.992Z</time></trkpt><trkpt lat="45.0015367" lon="9.6125433"><ele>86.0</ele><time>2026-04-07T13:37:55.992Z</time></trkpt><trkpt lat="45.00154" lon="9.612385"><ele>85.83333333333334</ele><time>2026-04-07T13:37:57.987Z</time></trkpt><trkpt lat="45.0015433" lon="9.6122367"><ele>85.66666666666667</ele><time>2026-04-07T13:37:59.993Z</time></trkpt><trkpt lat="45.00155" lon="9.61211"><ele>85.5</ele><time>2026-04-07T13:38:01.994Z</time></trkpt><trkpt lat="45.00154" lon="9.6120083"><ele>85.33333333333333</ele><time>2026-04-07T13:38:03.996Z</time></trkpt><trkpt lat="45.0014767" lon="9.6119417"><ele>85.16666666666666</ele><time>2026-04-07T13:38:05.994Z</time></trkpt><trkpt lat="45.0013833" lon="9.6118983"><ele>85.0</ele><time>2026-04-07T13:38:07.99Z</time></trkpt><trkpt lat="45.0012833" lon="9.611875"><ele>85.0</ele><time>2026-04-07T13:38:09.993Z</time></trkpt><trkpt lat="45.0011733" lon="9.61187"><ele>85.0</ele><time>2026-04-07T13:38:11.991Z</time></trkpt><trkpt lat="45.0010667" lon="9.6118617"><ele>85.0</ele><time>2026-04-07T13:38:13.993Z</time></trkpt><trkpt lat="45.0009533" lon="9.6118717"><ele>85.0</ele><time>2026-04-07T13:38:15.998Z</time></trkpt><trkpt lat="45.0008383" lon="9.6118867"><ele>85.0</ele><time>2026-04-07T13:38:17.99Z</time></trkpt><trkpt lat="45.00072" lon="9.611905"><ele>85.0</ele><time>2026-04-07T13:38:19.993Z</time></trkpt><trkpt lat="45.0006" lon="9.61192"><ele>85.0</ele><time>2026-04-07T13:38:21.992Z</time></trkpt><trkpt lat="45.0004783" lon="9.6119217"><ele>85.0</ele><time>2026-04-07T13:38:23.993Z</time></trkpt><trkpt lat="45.0003617" lon="9.6119233"><ele>85.0</ele><time>2026-04-07T13:38:25.993Z</time></trkpt><trkpt lat="45.00024" lon="9.6119367"><ele>85.0</ele><time>2026-04-07T13:38:27.989Z</time></trkpt><trkpt lat="45.00012" lon="9.611955"><ele>85.0</ele><time>2026-04-07T13:38:29.99Z</time></trkpt><trkpt lat="45.0" lon="9.6119633"><ele>85.0</ele><time>2026-04-07T13:38:31.996Z</time></trkpt><trkpt lat="44.9998783" lon="9.6119717"><ele>85.0</ele><time>2026-04-07T13:38:33.992Z</time></trkpt><trkpt lat="44.9997567" lon="9.6119783"><ele>85.0</ele><time>2026-04-07T13:38:35.991Z</time></trkpt><trkpt lat="44.9996367" lon="9.6119817"><ele>85.0</ele><time>2026-04-07T13:38:37.994Z</time></trkpt><trkpt lat="44.999525" lon="9.6119867"><ele>85.0</ele><time>2026-04-07T13:38:40.02Z</time></trkpt><trkpt lat="44.9994233" lon="9.6119883"><ele>85.0</ele><time>2026-04-07T13:38:41.99Z</time></trkpt><trkpt lat="44.9993233" lon="9.6120017"><ele>85.0</ele><time>2026-04-07T13:38:43.995Z</time></trkpt><trkpt lat="44.99922" lon="9.6120167"><ele>85.2</ele><time>2026-04-07T13:38:46.002Z</time></trkpt><trkpt lat="44.99913" lon="9.6120133"><ele>85.4</ele><time>2026-04-07T13:38:47.992Z</time></trkpt><trkpt lat="44.99906" lon="9.6119517"><ele>85.6</ele><time>2026-04-07T13:38:49.996Z</time></trkpt><trkpt lat="44.9990117" lon="9.6118333"><ele>85.8</ele><time>2026-04-07T13:38:51.998Z</time></trkpt><trkpt lat="44.9989717" lon="9.6116933"><ele>86.0</ele><time>2026-04-07T13:38:53.991Z</time></trkpt><trkpt lat="44.9989217" lon="9.6115533"><ele>86.0</ele><time>2026-04-07T13:38:55.992Z</time></trkpt><trkpt lat="44.99887" lon="9.611415"><ele>86.0</ele><time>2026-04-07T13:38:57.996Z</time></trkpt><trkpt lat="44.998815" lon="9.6112717"><ele>86.0</ele><time>2026-04-07T13:38:59.995Z</time></trkpt><trkpt lat="44.9987617" lon="9.61113"><ele>86.0</ele><time>2026-04-07T13:39:01.998Z</time></trkpt><trkpt lat="44.9987017" lon="9.6109883"><ele>85.5</ele><time>2026-04-07T13:39:03.997Z</time></trkpt><trkpt lat="44.9986383" lon="9.6108517"><ele>85.0</ele><time>2026-04-07T13:39:05.992Z</time></trkpt><trkpt lat="44.9985767" lon="9.6107133"><ele>84.5</ele><time>2026-04-07T13:39:07.993Z</time></trkpt><trkpt lat="44.9985183" lon="9.610575"><ele>84.0</ele><time>2026-04-07T13:39:09.992Z</time></trkpt><trkpt lat="44.99846" lon="9.6104367"><ele>84.0</ele><time>2026-04-07T13:39:11.986Z</time></trkpt><trkpt lat="44.9983967" lon="9.6103017"><ele>84.0</ele><time>2026-04-07T13:39:13.995Z</time></trkpt><trkpt lat="44.9983367" lon="9.6101683"><ele>84.0</ele><time>2026-04-07T13:39:15.992Z</time></trkpt><trkpt lat="44.9982783" lon="9.6100333"><ele>84.0</ele><time>2026-04-07T13:39:18.001Z</time></trkpt><trkpt lat="44.99822" lon="9.609895"><ele>84.5</ele><time>2026-04-07T13:39:19.991Z</time></trkpt><trkpt lat="44.99816" lon="9.6097533"><ele>85.0</ele><time>2026-04-07T13:39:22.002Z</time></trkpt><trkpt lat="44.9980983" lon="9.6096167"><ele>85.5</ele><time>2026-04-07T13:39:23.994Z</time></trkpt><trkpt lat="44.9980367" lon="9.6094817"><ele>86.0</ele><time>2026-04-07T13:39:25.992Z</time></trkpt><trkpt lat="44.99797" lon="9.6093517"><ele>86.25</ele><time>2026-04-07T13:39:27.993Z</time></trkpt><trkpt lat="44.997905" lon="9.60922"><ele>86.5</ele><time>2026-04-07T13:39:29.994Z</time></trkpt><trkpt lat="44.9978483" lon="9.609085"><ele>86.75</ele><time>2026-04-07T13:39:31.992Z</time></trkpt><trkpt lat="44.9977867" lon="9.608945"><ele>87.0</ele><time>2026-04-07T13:39:33.991Z</time></trkpt><trkpt lat="44.99772" lon="9.6088083"><ele>87.0</ele><time>2026-04-07T13:39:35.989Z</time></trkpt><trkpt lat="44.9976583" lon="9.6086667"><ele>87.0</ele><time>2026-04-07T13:39:37.99Z</time></trkpt><trkpt lat="44.9975967" lon="9.6085217"><ele>87.0</ele><time>2026-04-07T13:39:39.992Z</time></trkpt><trkpt lat="44.9975317" lon="9.608385"><ele>87.0</ele><time>2026-04-07T13:39:41.989Z</time></trkpt><trkpt lat="44.9974733" lon="9.608245"><ele>87.25</ele><time>2026-04-07T13:39:43.991Z</time></trkpt><trkpt lat="44.9974133" lon="9.6080917"><ele>87.5</ele><time>2026-04-07T13:39:45.997Z</time></trkpt><trkpt lat="44.997355" lon="9.607945"><ele>87.75</ele><time>2026-04-07T13:39:47.989Z</time></trkpt><trkpt lat="44.9973017" lon="9.6078"><ele>88.0</ele><time>2026-04-07T13:39:49.994Z</time></trkpt><trkpt lat="44.99725" lon="9.6076667"><ele>87.60000000000001</ele><time>2026-04-07T13:39:51.997Z</time></trkpt><trkpt lat="44.9971967" lon="9.6075367"><ele>87.2</ele><time>2026-04-07T13:39:53.993Z</time></trkpt><trkpt lat="44.9971383" lon="9.6074017"><ele>86.8</ele><time>2026-04-07T13:39:55.991Z</time></trkpt><trkpt lat="44.9970783" lon="9.607265"><ele>86.4</ele><time>2026-04-07T13:39:57.992Z</time></trkpt><trkpt lat="44.9970217" lon="9.6071217"><ele>86.0</ele><time>2026-04-07T13:39:59.994Z</time></trkpt><trkpt lat="44.996965" lon="9.60698"><ele>85.75</ele><time>2026-04-07T13:40:01.993Z</time></trkpt><trkpt lat="44.996915" lon="9.6068367"><ele>85.5</ele><time>2026-04-07T13:40:03.99Z</time></trkpt><trkpt lat="44.9968583" lon="9.6066917"><ele>85.25</ele><time>2026-04-07T13:40:05.996Z</time></trkpt><trkpt lat="44.9968017" lon="9.6065483"><ele>85.0</ele><time>2026-04-07T13:40:07.997Z</time></trkpt><trkpt lat="44.9967467" lon="9.6064117"><ele>85.0</ele><time>2026-04-07T13:40:09.992Z</time></trkpt><trkpt lat="44.9966933" lon="9.6062717"><ele>85.0</ele><time>2026-04-07T13:40:11.993Z</time></trkpt><trkpt lat="44.9966383" lon="9.606135"><ele>85.0</ele><time>2026-04-07T13:40:13.99Z</time></trkpt><trkpt lat="44.99658" lon="9.6059967"><ele>85.0</ele><time>2026-04-07T13:40:15.997Z</time></trkpt><trkpt lat="44.9965167" lon="9.60586"><ele>85.5</ele><time>2026-04-07T13:40:17.993Z</time></trkpt><trkpt lat="44.9964433" lon="9.6057183"><ele>86.0</ele><time>2026-04-07T13:40:19.989Z</time></trkpt><trkpt lat="44.996405" lon="9.6056467"><ele>86.5</ele><time>2026-04-07T13:40:20.996Z</time></trkpt><trkpt lat="44.9963667" lon="9.6055733"><ele>87.0</ele><time>2026-04-07T13:40:21.993Z</time></trkpt><trkpt lat="44.9963317" lon="9.6054967"><ele>87.5</ele><time>2026-04-07T13:40:22.996Z</time></trkpt><trkpt lat="44.9962933" lon="9.605415"><ele>88.0</ele><time>2026-04-07T13:40:23.99Z</time></trkpt><trkpt lat="44.9962567" lon="9.6053333"><ele>87.85714285714286</ele><time>2026-04-07T13:40:24.992Z</time></trkpt><trkpt lat="44.9962183" lon="9.605255"><ele>87.71428571428571</ele><time>2026-04-07T13:40:25.989Z</time></trkpt><trkpt lat="44.99618" lon="9.6051767"><ele>87.57142857142857</ele><time>2026-04-07T13:40:26.998Z</time></trkpt><trkpt lat="44.9961467" lon="9.6051"><ele>87.42857142857143</ele><time>2026-04-07T13:40:27.994Z</time></trkpt><trkpt lat="44.99611" lon="9.605025"><ele>87.28571428571429</ele><time>2026-04-07T13:40:28.99Z</time></trkpt><trkpt lat="44.99607" lon="9.604955"><ele>87.14285714285714</ele><time>2026-04-07T13:40:29.996Z</time></trkpt><trkpt lat="44.9960283" lon="9.6048883"><ele>87.0</ele><time>2026-04-07T13:40:30.99Z</time></trkpt><trkpt lat="44.9959867" lon="9.6048183"><ele>87.0</ele><time>2026-04-07T13:40:31.988Z</time></trkpt><trkpt lat="44.9959467" lon="9.6047483"><ele>87.0</ele><time>2026-04-07T13:40:33.002Z</time></trkpt><trkpt lat="44.99587" lon="9.6046117"><ele>87.0</ele><time>2026-04-07T13:40:34.991Z</time></trkpt><trkpt lat="44.9958283" lon="9.604545"><ele>87.0</ele><time>2026-04-07T13:40:35.992Z</time></trkpt><trkpt lat="44.995735" lon="9.604435"><ele>87.0</ele><time>2026-04-07T13:40:37.993Z</time></trkpt><trkpt lat="44.99562" lon="9.6043767"><ele>86.8</ele><time>2026-04-07T13:40:39.987Z</time></trkpt><trkpt lat="44.9955033" lon="9.6043867"><ele>86.6</ele><time>2026-04-07T13:40:41.99Z</time></trkpt><trkpt lat="44.9953917" lon="9.6043933"><ele>86.39999999999999</ele><time>2026-04-07T13:40:43.989Z</time></trkpt><trkpt lat="44.9952867" lon="9.60438"><ele>86.19999999999999</ele><time>2026-04-07T13:40:45.991Z</time></trkpt><trkpt lat="44.9951817" lon="9.60436"><ele>86.0</ele><time>2026-04-07T13:40:47.99Z</time></trkpt><trkpt lat="44.9950683" lon="9.6043517"><ele>85.8</ele><time>2026-04-07T13:40:49.994Z</time></trkpt><trkpt lat="44.99495" lon="9.604365"><ele>85.6</ele><time>2026-04-07T13:40:51.994Z</time></trkpt><trkpt lat="44.9948867" lon="9.604375"><ele>85.4</ele><time>2026-04-07T13:40:52.999Z</time></trkpt><trkpt lat="44.9947633" lon="9.6043917"><ele>85.2</ele><time>2026-04-07T13:40:54.991Z</time></trkpt><trkpt lat="44.9947" lon="9.6044083"><ele>85.0</ele><time>2026-04-07T13:40:55.993Z</time></trkpt><trkpt lat="44.9945817" lon="9.60445"><ele>85.0</ele><time>2026-04-07T13:40:57.992Z</time></trkpt><trkpt lat="44.9944617" lon="9.6044867"><ele>85.0</ele><time>2026-04-07T13:40:59.989Z</time></trkpt><trkpt lat="44.9943983" lon="9.6044933"><ele>85.0</ele><time>2026-04-07T13:41:01.002Z</time></trkpt><trkpt lat="44.994275" lon="9.6045167"><ele>85.0</ele><time>2026-04-07T13:41:03.004Z</time></trkpt><trkpt lat="44.9942117" lon="9.60454"><ele>85.0</ele><time>2026-04-07T13:41:03.995Z</time></trkpt><trkpt lat="44.99415" lon="9.60457"><ele>85.0</ele><time>2026-04-07T13:41:04.996Z</time></trkpt><trkpt lat="44.9940267" lon="9.604615"><ele>84.83333333333333</ele><time>2026-04-07T13:41:06.995Z</time></trkpt><trkpt lat="44.9939617" lon="9.6046317"><ele>84.66666666666666</ele><time>2026-04-07T13:41:07.991Z</time></trkpt><trkpt lat="44.9938383" lon="9.6046617"><ele>84.5</ele><time>2026-04-07T13:41:09.986Z</time></trkpt><trkpt lat="44.9937733" lon="9.6046667"><ele>84.33333333333333</ele><time>2026-04-07T13:41:10.996Z</time></trkpt><trkpt lat="44.9937083" lon="9.6046683"><ele>84.16666666666667</ele><time>2026-04-07T13:41:11.992Z</time></trkpt><trkpt lat="44.993645" lon="9.6046783"><ele>84.0</ele><time>2026-04-07T13:41:12.992Z</time></trkpt><trkpt lat="44.99358" lon="9.6046933"><ele>84.0</ele><time>2026-04-07T13:41:13.992Z</time></trkpt><trkpt lat="44.9934583" lon="9.604725"><ele>84.0</ele><time>2026-04-07T13:41:15.993Z</time></trkpt><trkpt lat="44.9933383" lon="9.6047567"><ele>84.0</ele><time>2026-04-07T13:41:17.994Z</time></trkpt><trkpt lat="44.9932167" lon="9.6047933"><ele>84.0</ele><time>2026-04-07T13:41:19.998Z</time></trkpt><trkpt lat="44.9930967" lon="9.6047883"><ele>84.83333333333333</ele><time>2026-04-07T13:41:21.991Z</time></trkpt><trkpt lat="44.9929733" lon="9.6047767"><ele>85.66666666666667</ele><time>2026-04-07T13:41:23.993Z</time></trkpt><trkpt lat="44.99291" lon="9.60478"><ele>86.5</ele><time>2026-04-07T13:41:24.993Z</time></trkpt><trkpt lat="44.9928467" lon="9.60478"><ele>87.33333333333334</ele><time>2026-04-07T13:41:25.99Z</time></trkpt><trkpt lat="44.9927833" lon="9.6047817"><ele>88.16666666666667</ele><time>2026-04-07T13:41:26.993Z</time></trkpt><trkpt lat="44.99272" lon="9.604785"><ele>89.0</ele><time>2026-04-07T13:41:27.99Z</time></trkpt><trkpt lat="44.992595" lon="9.6047833"><ele>88.6</ele><time>2026-04-07T13:41:29.99Z</time></trkpt><trkpt lat="44.99247" lon="9.60478"><ele>88.2</ele><time>2026-04-07T13:41:31.992Z</time></trkpt><trkpt lat="44.9924067" lon="9.60478"><ele>87.8</ele><time>2026-04-07T13:41:32.988Z</time></trkpt><trkpt lat="44.9922833" lon="9.604775"><ele>87.39999999999999</ele><time>2026-04-07T13:41:34.998Z</time></trkpt><trkpt lat="44.99216" lon="9.6047517"><ele>87.0</ele><time>2026-04-07T13:41:36.998Z</time></trkpt><trkpt lat="44.992035" lon="9.6047533"><ele>87.0</ele><time>2026-04-07T13:41:39.003Z</time></trkpt><trkpt lat="44.9919717" lon="9.6047533"><ele>87.0</ele><time>2026-04-07T13:41:39.992Z</time></trkpt><trkpt lat="44.99185" lon="9.6047283"><ele>87.0</ele><time>2026-04-07T13:41:41.989Z</time></trkpt><trkpt lat="44.9917267" lon="9.604705"><ele>87.0</ele><time>2026-04-07T13:41:43.993Z</time></trkpt><trkpt lat="44.9916633" lon="9.6046967"><ele>87.0</ele><time>2026-04-07T13:41:45.002Z</time></trkpt><trkpt lat="44.99154" lon="9.6046817"><ele>87.25</ele><time>2026-04-07T13:41:46.993Z</time></trkpt><trkpt lat="44.9914217" lon="9.6046617"><ele>87.5</ele><time>2026-04-07T13:41:48.989Z</time></trkpt><trkpt lat="44.9913033" lon="9.6046467"><ele>87.75</ele><time>2026-04-07T13:41:50.997Z</time></trkpt><trkpt lat="44.99118" lon="9.6046283"><ele>88.0</ele><time>2026-04-07T13:41:52.999Z</time></trkpt><trkpt lat="44.991055" lon="9.60461"><ele>88.0</ele><time>2026-04-07T13:41:54.988Z</time></trkpt><trkpt lat="44.9909367" lon="9.60458"><ele>88.0</ele><time>2026-04-07T13:41:56.991Z</time></trkpt><trkpt lat="44.9908183" lon="9.6045517"><ele>88.0</ele><time>2026-04-07T13:41:58.995Z</time></trkpt><trkpt lat="44.9907033" lon="9.6045183"><ele>88.0</ele><time>2026-04-07T13:42:00.994Z</time></trkpt><trkpt lat="44.9905867" lon="9.6044917"><ele>88.0</ele><time>2026-04-07T13:42:02.994Z</time></trkpt><trkpt lat="44.99047" lon="9.6044983"><ele>88.0</ele><time>2026-04-07T13:42:05.004Z</time></trkpt><trkpt lat="44.990355" lon="9.6045"><ele>88.0</ele><time>2026-04-07T13:42:06.991Z</time></trkpt><trkpt lat="44.9902433" lon="9.6044833"><ele>88.0</ele><time>2026-04-07T13:42:08.997Z</time></trkpt><trkpt lat="44.9901267" lon="9.60447"><ele>88.0</ele><time>2026-04-07T13:42:11.005Z</time></trkpt><trkpt lat="44.9900067" lon="9.6044583"><ele>88.0</ele><time>2026-04-07T13:42:13.003Z</time></trkpt><trkpt lat="44.989885" lon="9.6044517"><ele>88.0</ele><time>2026-04-07T13:42:14.994Z</time></trkpt><trkpt lat="44.9897633" lon="9.6044383"><ele>88.0</ele><time>2026-04-07T13:42:16.99Z</time></trkpt><trkpt lat="44.989645" lon="9.6044267"><ele>88.0</ele><time>2026-04-07T13:42:19.003Z</time></trkpt><trkpt lat="44.9895233" lon="9.604415"><ele>88.0</ele><time>2026-04-07T13:42:20.993Z</time></trkpt><trkpt lat="44.9894" lon="9.6044017"><ele>88.0</ele><time>2026-04-07T13:42:22.992Z</time></trkpt><trkpt lat="44.989275" lon="9.6043967"><ele>88.0</ele><time>2026-04-07T13:42:24.999Z</time></trkpt><trkpt lat="44.9891517" lon="9.6043933"><ele>88.25</ele><time>2026-04-07T13:42:26.996Z</time></trkpt><trkpt lat="44.98903" lon="9.6043883"><ele>88.5</ele><time>2026-04-07T13:42:28.998Z</time></trkpt><trkpt lat="44.9889083" lon="9.6043983"><ele>88.75</ele><time>2026-04-07T13:42:30.99Z</time></trkpt><trkpt lat="44.98879" lon="9.604415"><ele>89.0</ele><time>2026-04-07T13:42:33.002Z</time></trkpt><trkpt lat="44.988675" lon="9.6044217"><ele>89.0</ele><time>2026-04-07T13:42:35.006Z</time></trkpt><trkpt lat="44.9885567" lon="9.60442"><ele>89.0</ele><time>2026-04-07T13:42:37.002Z</time></trkpt><trkpt lat="44.98844" lon="9.6044133"><ele>89.0</ele><time>2026-04-07T13:42:38.997Z</time></trkpt><trkpt lat="44.9883233" lon="9.6043967"><ele>89.0</ele><time>2026-04-07T13:42:40.991Z</time></trkpt><trkpt lat="44.988205" lon="9.6043917"><ele>89.25</ele><time>2026-04-07T13:42:42.994Z</time></trkpt><trkpt lat="44.9880867" lon="9.604385"><ele>89.5</ele><time>2026-04-07T13:42:45Z</time></trkpt><trkpt lat="44.9879683" lon="9.604375"><ele>89.75</ele><time>2026-04-07T13:42:47.001Z</time></trkpt><trkpt lat="44.9878517" lon="9.6043667"><ele>90.0</ele><time>2026-04-07T13:42:48.992Z</time></trkpt><trkpt lat="44.987735" lon="9.6043633"><ele>90.0</ele><time>2026-04-07T13:42:50.992Z</time></trkpt><trkpt lat="44.9876167" lon="9.604375"><ele>90.0</ele><time>2026-04-07T13:42:52.992Z</time></trkpt><trkpt lat="44.9875533" lon="9.6043783"><ele>90.0</ele><time>2026-04-07T13:42:53.998Z</time></trkpt><trkpt lat="44.9874333" lon="9.6043883"><ele>90.0</ele><time>2026-04-07T13:42:55.994Z</time></trkpt><trkpt lat="44.987315" lon="9.604395"><ele>90.0</ele><time>2026-04-07T13:42:57.988Z</time></trkpt><trkpt lat="44.9871967" lon="9.6044067"><ele>90.25</ele><time>2026-04-07T13:42:59.991Z</time></trkpt><trkpt lat="44.9870733" lon="9.6044233"><ele>90.5</ele><time>2026-04-07T13:43:01.994Z</time></trkpt><trkpt lat="44.9869517" lon="9.6044467"><ele>90.75</ele><time>2026-04-07T13:43:03.991Z</time></trkpt><trkpt lat="44.9868283" lon="9.6044667"><ele>91.0</ele><time>2026-04-07T13:43:05.989Z</time></trkpt><trkpt lat="44.986705" lon="9.6044867"><ele>91.0</ele><time>2026-04-07T13:43:07.992Z</time></trkpt><trkpt lat="44.9865883" lon="9.60451"><ele>91.0</ele><time>2026-04-07T13:43:09.991Z</time></trkpt><trkpt lat="44.98647" lon="9.604525"><ele>91.0</ele><time>2026-04-07T13:43:11.998Z</time></trkpt><trkpt lat="44.9863533" lon="9.6045467"><ele>91.0</ele><time>2026-04-07T13:43:13.999Z</time></trkpt><trkpt lat="44.9862483" lon="9.6045733"><ele>91.0</ele><time>2026-04-07T13:43:15.993Z</time></trkpt><trkpt lat="44.9861483" lon="9.6045967"><ele>91.0</ele><time>2026-04-07T13:43:17.992Z</time></trkpt><trkpt lat="44.9860583" lon="9.6046233"><ele>91.0</ele><time>2026-04-07T13:43:19.989Z</time></trkpt><trkpt lat="44.985985" lon="9.6046767"><ele>91.0</ele><time>2026-04-07T13:43:21.992Z</time></trkpt><trkpt lat="44.9859367" lon="9.6047717"><ele>91.0</ele><time>2026-04-07T13:43:23.994Z</time></trkpt><trkpt lat="44.9859033" lon="9.6049033"><ele>91.0</ele><time>2026-04-07T13:43:25.994Z</time></trkpt><trkpt lat="44.985865" lon="9.6050483"><ele>91.0</ele><time>2026-04-07T13:43:27.993Z</time></trkpt><trkpt lat="44.98583" lon="9.6052033"><ele>91.0</ele><time>2026-04-07T13:43:29.989Z</time></trkpt><trkpt lat="44.985805" lon="9.605365"><ele>91.0</ele><time>2026-04-07T13:43:31.991Z</time></trkpt><trkpt lat="44.98578" lon="9.6055283"><ele>91.4</ele><time>2026-04-07T13:43:33.993Z</time></trkpt><trkpt lat="44.9857533" lon="9.605685"><ele>91.8</ele><time>2026-04-07T13:43:36.019Z</time></trkpt><trkpt lat="44.985735" lon="9.6058467"><ele>92.2</ele><time>2026-04-07T13:43:37.991Z</time></trkpt><trkpt lat="44.98572" lon="9.6059333"><ele>92.60000000000001</ele><time>2026-04-07T13:43:38.992Z</time></trkpt><trkpt lat="44.98569" lon="9.6061"><ele>93.0</ele><time>2026-04-07T13:43:40.994Z</time></trkpt><trkpt lat="44.985655" lon="9.60625"><ele>93.0</ele><time>2026-04-07T13:43:42.99Z</time></trkpt><trkpt lat="44.9856167" lon="9.6063967"><ele>93.0</ele><time>2026-04-07T13:43:44.998Z</time></trkpt><trkpt lat="44.9855833" lon="9.6065417"><ele>93.0</ele><time>2026-04-07T13:43:46.998Z</time></trkpt><trkpt lat="44.9855567" lon="9.60668"><ele>93.0</ele><time>2026-04-07T13:43:48.997Z</time></trkpt><trkpt lat="44.9855383" lon="9.60681"><ele>93.0</ele><time>2026-04-07T13:43:50.996Z</time></trkpt><trkpt lat="44.98549" lon="9.6069117"><ele>93.0</ele><time>2026-04-07T13:43:52.991Z</time></trkpt><trkpt lat="44.9854" lon="9.6069433"><ele>93.0</ele><time>2026-04-07T13:43:54.993Z</time></trkpt><trkpt lat="44.98529" lon="9.6069417"><ele>93.0</ele><time>2026-04-07T13:43:56.997Z</time></trkpt><trkpt lat="44.9851733" lon="9.606925"><ele>93.0</ele><time>2026-04-07T13:43:58.997Z</time></trkpt><trkpt lat="44.985055" lon="9.606915"><ele>93.0</ele><time>2026-04-07T13:44:00.991Z</time></trkpt><trkpt lat="44.9849383" lon="9.6069017"><ele>93.25</ele><time>2026-04-07T13:44:02.993Z</time></trkpt><trkpt lat="44.9848233" lon="9.606895"><ele>93.5</ele><time>2026-04-07T13:44:04.99Z</time></trkpt><trkpt lat="44.9847033" lon="9.6068983"><ele>93.75</ele><time>2026-04-07T13:44:06.992Z</time></trkpt><trkpt lat="44.984585" lon="9.606895"><ele>94.0</ele><time>2026-04-07T13:44:08.992Z</time></trkpt><trkpt lat="44.984475" lon="9.6068817"><ele>94.0</ele><time>2026-04-07T13:44:10.991Z</time></trkpt><trkpt lat="44.984355" lon="9.6068867"><ele>94.0</ele><time>2026-04-07T13:44:12.994Z</time></trkpt><trkpt lat="44.9842333" lon="9.6068917"><ele>94.0</ele><time>2026-04-07T13:44:14.992Z</time></trkpt><trkpt lat="44.98411" lon="9.6068967"><ele>94.0</ele><time>2026-04-07T13:44:16.996Z</time></trkpt><trkpt lat="44.98399" lon="9.6069033"><ele>94.25</ele><time>2026-04-07T13:44:19.002Z</time></trkpt><trkpt lat="44.9838683" lon="9.6069117"><ele>94.5</ele><time>2026-04-07T13:44:20.997Z</time></trkpt><trkpt lat="44.9837483" lon="9.6069217"><ele>94.75</ele><time>2026-04-07T13:44:22.987Z</time></trkpt><trkpt lat="44.9836233" lon="9.6069217"><ele>95.0</ele><time>2026-04-07T13:44:24.996Z</time></trkpt><trkpt lat="44.983505" lon="9.6069183"><ele>95.0</ele><time>2026-04-07T13:44:26.991Z</time></trkpt><trkpt lat="44.9834417" lon="9.60692"><ele>95.0</ele><time>2026-04-07T13:44:27.992Z</time></trkpt><trkpt lat="44.9833783" lon="9.6069217"><ele>95.0</ele><time>2026-04-07T13:44:28.999Z</time></trkpt><trkpt lat="44.9833133" lon="9.6069283"><ele>95.0</ele><time>2026-04-07T13:44:29.989Z</time></trkpt><trkpt lat="44.98319" lon="9.606935"><ele>95.0</ele><time>2026-04-07T13:44:31.991Z</time></trkpt><trkpt lat="44.9830667" lon="9.60694"><ele>95.0</ele><time>2026-04-07T13:44:33.992Z</time></trkpt><trkpt lat="44.9830033" lon="9.6069467"><ele>95.0</ele><time>2026-04-07T13:44:35.001Z</time></trkpt><trkpt lat="44.98288" lon="9.6069467"><ele>95.0</ele><time>2026-04-07T13:44:36.989Z</time></trkpt><trkpt lat="44.982815" lon="9.6069467"><ele>95.0</ele><time>2026-04-07T13:44:37.992Z</time></trkpt><trkpt lat="44.9827517" lon="9.6069533"><ele>95.0</ele><time>2026-04-07T13:44:38.993Z</time></trkpt><trkpt lat="44.9826867" lon="9.60696"><ele>95.0</ele><time>2026-04-07T13:44:39.988Z</time></trkpt><trkpt lat="44.9826233" lon="9.6069667"><ele>95.0</ele><time>2026-04-07T13:44:40.996Z</time></trkpt><trkpt lat="44.98256" lon="9.6069683"><ele>95.0</ele><time>2026-04-07T13:44:41.991Z</time></trkpt><trkpt lat="44.982495" lon="9.6069733"><ele>95.0</ele><time>2026-04-07T13:44:42.993Z</time></trkpt><trkpt lat="44.9823717" lon="9.6069767"><ele>95.0</ele><time>2026-04-07T13:44:44.997Z</time></trkpt><trkpt lat="44.982245" lon="9.606985"><ele>95.0</ele><time>2026-04-07T13:44:46.989Z</time></trkpt><trkpt lat="44.98218" lon="9.6069783"><ele>95.0</ele><time>2026-04-07T13:44:47.998Z</time></trkpt><trkpt lat="44.9821167" lon="9.6069617"><ele>95.0</ele><time>2026-04-07T13:44:48.99Z</time></trkpt><trkpt lat="44.9819983" lon="9.606915"><ele>95.0</ele><time>2026-04-07T13:44:50.989Z</time></trkpt><trkpt lat="44.9818817" lon="9.6068867"><ele>95.0</ele><time>2026-04-07T13:44:52.999Z</time></trkpt><trkpt lat="44.9817633" lon="9.6068633"><ele>95.0</ele><time>2026-04-07T13:44:54.995Z</time></trkpt><trkpt lat="44.981645" lon="9.60685"><ele>95.0</ele><time>2026-04-07T13:44:56.992Z</time></trkpt><trkpt lat="44.981525" lon="9.60684"><ele>94.5</ele><time>2026-04-07T13:44:58.988Z</time></trkpt><trkpt lat="44.9814067" lon="9.6068233"><ele>94.0</ele><time>2026-04-07T13:45:00.991Z</time></trkpt><trkpt lat="44.981295" lon="9.606795"><ele>93.5</ele><time>2026-04-07T13:45:02.992Z</time></trkpt><trkpt lat="44.9811783" lon="9.606765"><ele>93.0</ele><time>2026-04-07T13:45:04.989Z</time></trkpt><trkpt lat="44.9810617" lon="9.6067467"><ele>93.0</ele><time>2026-04-07T13:45:06.99Z</time></trkpt><trkpt lat="44.9809517" lon="9.6067217"><ele>93.0</ele><time>2026-04-07T13:45:08.997Z</time></trkpt><trkpt lat="44.9808333" lon="9.6067117"><ele>93.0</ele><time>2026-04-07T13:45:10.994Z</time></trkpt><trkpt lat="44.9807133" lon="9.6066983"><ele>93.0</ele><time>2026-04-07T13:45:12.99Z</time></trkpt><trkpt lat="44.9805967" lon="9.6066867"><ele>93.75</ele><time>2026-04-07T13:45:15Z</time></trkpt><trkpt lat="44.9804783" lon="9.606675"><ele>94.5</ele><time>2026-04-07T13:45:16.991Z</time></trkpt><trkpt lat="44.980365" lon="9.6066633"><ele>95.25</ele><time>2026-04-07T13:45:18.996Z</time></trkpt><trkpt lat="44.9802533" lon="9.6066417"><ele>96.0</ele><time>2026-04-07T13:45:21.001Z</time></trkpt><trkpt lat="44.9801417" lon="9.6066167"><ele>96.0</ele><time>2026-04-07T13:45:23.009Z</time></trkpt><trkpt lat="44.98003" lon="9.6065933"><ele>96.0</ele><time>2026-04-07T13:45:24.989Z</time></trkpt><trkpt lat="44.9799183" lon="9.6065733"><ele>96.0</ele><time>2026-04-07T13:45:26.991Z</time></trkpt><trkpt lat="44.9798067" lon="9.6065517"><ele>96.0</ele><time>2026-04-07T13:45:28.995Z</time></trkpt><trkpt lat="44.9796983" lon="9.6065333"><ele>96.0</ele><time>2026-04-07T13:45:30.998Z</time></trkpt><trkpt lat="44.97959" lon="9.60654"><ele>96.19999999999999</ele><time>2026-04-07T13:45:33.001Z</time></trkpt><trkpt lat="44.979485" lon="9.6065583"><ele>96.39999999999999</ele><time>2026-04-07T13:45:34.992Z</time></trkpt><trkpt lat="44.9793717" lon="9.6065967"><ele>96.6</ele><time>2026-04-07T13:45:36.989Z</time></trkpt><trkpt lat="44.9792667" lon="9.6066317"><ele>96.8</ele><time>2026-04-07T13:45:38.998Z</time></trkpt><trkpt lat="44.9791633" lon="9.606655"><ele>97.0</ele><time>2026-04-07T13:45:41.002Z</time></trkpt><trkpt lat="44.979075" lon="9.6066083"><ele>96.6</ele><time>2026-04-07T13:45:42.99Z</time></trkpt><trkpt lat="44.9790233" lon="9.6064933"><ele>96.19999999999999</ele><time>2026-04-07T13:45:45.001Z</time></trkpt><trkpt lat="44.9789383" lon="9.6064167"><ele>95.8</ele><time>2026-04-07T13:45:46.99Z</time></trkpt><trkpt lat="44.978825" lon="9.6063933"><ele>95.4</ele><time>2026-04-07T13:45:48.994Z</time></trkpt><trkpt lat="44.9787117" lon="9.6063733"><ele>95.0</ele><time>2026-04-07T13:45:51.003Z</time></trkpt><trkpt lat="44.9785983" lon="9.6063433"><ele>95.0</ele><time>2026-04-07T13:45:52.997Z</time></trkpt><trkpt lat="44.9784867" lon="9.60632"><ele>95.0</ele><time>2026-04-07T13:45:54.998Z</time></trkpt><trkpt lat="44.97838" lon="9.6062817"><ele>95.0</ele><time>2026-04-07T13:45:56.998Z</time></trkpt><trkpt lat="44.9782733" lon="9.6062433"><ele>95.0</ele><time>2026-04-07T13:45:58.997Z</time></trkpt><trkpt lat="44.978165" lon="9.6062133"><ele>95.0</ele><time>2026-04-07T13:46:01.003Z</time></trkpt><trkpt lat="44.978055" lon="9.606185"><ele>95.2</ele><time>2026-04-07T13:46:02.994Z</time></trkpt><trkpt lat="44.977955" lon="9.60614"><ele>95.4</ele><time>2026-04-07T13:46:04.989Z</time></trkpt><trkpt lat="44.9778517" lon="9.6061"><ele>95.6</ele><time>2026-04-07T13:46:06.994Z</time></trkpt><trkpt lat="44.97775" lon="9.6060683"><ele>95.8</ele><time>2026-04-07T13:46:09.003Z</time></trkpt><trkpt lat="44.977645" lon="9.60604"><ele>96.0</ele><time>2026-04-07T13:46:11.007Z</time></trkpt><trkpt lat="44.9775433" lon="9.6060133"><ele>96.19999999999999</ele><time>2026-04-07T13:46:12.998Z</time></trkpt><trkpt lat="44.9774417" lon="9.605985"><ele>96.39999999999999</ele><time>2026-04-07T13:46:14.996Z</time></trkpt><trkpt lat="44.9773367" lon="9.6059667"><ele>96.6</ele><time>2026-04-07T13:46:16.993Z</time></trkpt><trkpt lat="44.9772267" lon="9.60596"><ele>96.8</ele><time>2026-04-07T13:46:18.994Z</time></trkpt><trkpt lat="44.97712" lon="9.605955"><ele>97.0</ele><time>2026-04-07T13:46:20.998Z</time></trkpt><trkpt lat="44.9770117" lon="9.6059433"><ele>97.0</ele><time>2026-04-07T13:46:22.995Z</time></trkpt><trkpt lat="44.9769" lon="9.60593"><ele>97.0</ele><time>2026-04-07T13:46:24.997Z</time></trkpt><trkpt lat="44.97679" lon="9.605915"><ele>97.0</ele><time>2026-04-07T13:46:27Z</time></trkpt><trkpt lat="44.9766833" lon="9.6058933"><ele>97.0</ele><time>2026-04-07T13:46:28.995Z</time></trkpt><trkpt lat="44.9765817" lon="9.6058617"><ele>97.0</ele><time>2026-04-07T13:46:30.995Z</time></trkpt><trkpt lat="44.9764767" lon="9.6058367"><ele>97.19999999999999</ele><time>2026-04-07T13:46:33.006Z</time></trkpt><trkpt lat="44.97637" lon="9.60582"><ele>97.4</ele><time>2026-04-07T13:46:34.997Z</time></trkpt><trkpt lat="44.9762617" lon="9.6058083"><ele>97.6</ele><time>2026-04-07T13:46:36.996Z</time></trkpt><trkpt lat="44.9761517" lon="9.6058033"><ele>97.80000000000001</ele><time>2026-04-07T13:46:39.005Z</time></trkpt><trkpt lat="44.9760433" lon="9.6057933"><ele>98.0</ele><time>2026-04-07T13:46:40.998Z</time></trkpt><trkpt lat="44.9759367" lon="9.6057633"><ele>97.80000000000001</ele><time>2026-04-07T13:46:42.988Z</time></trkpt><trkpt lat="44.9758317" lon="9.60572"><ele>97.6</ele><time>2026-04-07T13:46:44.999Z</time></trkpt><trkpt lat="44.97573" lon="9.6056633"><ele>97.4</ele><time>2026-04-07T13:46:46.995Z</time></trkpt><trkpt lat="44.9756367" lon="9.6055817"><ele>97.19999999999999</ele><time>2026-04-07T13:46:48.997Z</time></trkpt><trkpt lat="44.9755383" lon="9.605505"><ele>97.0</ele><time>2026-04-07T13:46:50.996Z</time></trkpt><trkpt lat="44.9754367" lon="9.6054433"><ele>97.0</ele><time>2026-04-07T13:46:52.993Z</time></trkpt><trkpt lat="44.9753317" lon="9.6054017"><ele>97.0</ele><time>2026-04-07T13:46:54.997Z</time></trkpt><trkpt lat="44.97522" lon="9.6053983"><ele>97.0</ele><time>2026-04-07T13:46:57.002Z</time></trkpt><trkpt lat="44.97511" lon="9.6054167"><ele>97.0</ele><time>2026-04-07T13:46:58.992Z</time></trkpt><trkpt lat="44.9750033" lon="9.6054533"><ele>97.0</ele><time>2026-04-07T13:47:00.991Z</time></trkpt><trkpt lat="44.9748983" lon="9.6054867"><ele>97.8</ele><time>2026-04-07T13:47:02.991Z</time></trkpt><trkpt lat="44.974795" lon="9.605495"><ele>98.6</ele><time>2026-04-07T13:47:04.995Z</time></trkpt><trkpt lat="44.9746883" lon="9.6054883"><ele>99.39999999999999</ele><time>2026-04-07T13:47:06.994Z</time></trkpt><trkpt lat="44.9745833" lon="9.6054833"><ele>100.19999999999999</ele><time>2026-04-07T13:47:09Z</time></trkpt><trkpt lat="44.9744733" lon="9.605485"><ele>101.0</ele><time>2026-04-07T13:47:10.988Z</time></trkpt><trkpt lat="44.9743633" lon="9.6054767"><ele>101.0</ele><time>2026-04-07T13:47:12.998Z</time></trkpt><trkpt lat="44.9742517" lon="9.6054817"><ele>101.0</ele><time>2026-04-07T13:47:14.987Z</time></trkpt><trkpt lat="44.9741433" lon="9.6054717"><ele>101.0</ele><time>2026-04-07T13:47:16.994Z</time></trkpt><trkpt lat="44.9740333" lon="9.6054683"><ele>101.0</ele><time>2026-04-07T13:47:18.992Z</time></trkpt><trkpt lat="44.9739233" lon="9.6054583"><ele>101.0</ele><time>2026-04-07T13:47:21.006Z</time></trkpt><trkpt lat="44.9738117" lon="9.60545"><ele>101.0</ele><time>2026-04-07T13:47:23.002Z</time></trkpt><trkpt lat="44.9736983" lon="9.6054467"><ele>101.0</ele><time>2026-04-07T13:47:24.996Z</time></trkpt><trkpt lat="44.9735867" lon="9.6054483"><ele>101.0</ele><time>2026-04-07T13:47:26.996Z</time></trkpt><trkpt lat="44.973475" lon="9.6054533"><ele>101.0</ele><time>2026-04-07T13:47:28.998Z</time></trkpt><trkpt lat="44.9733667" lon="9.6054517"><ele>101.0</ele><time>2026-04-07T13:47:31Z</time></trkpt><trkpt lat="44.9732583" lon="9.605445"><ele>100.8</ele><time>2026-04-07T13:47:32.989Z</time></trkpt><trkpt lat="44.973155" lon="9.6054133"><ele>100.6</ele><time>2026-04-07T13:47:34.993Z</time></trkpt><trkpt lat="44.97306" lon="9.6053483"><ele>100.4</ele><time>2026-04-07T13:47:36.995Z</time></trkpt><trkpt lat="44.9729533" lon="9.605345"><ele>100.2</ele><time>2026-04-07T13:47:38.993Z</time></trkpt><trkpt lat="44.972845" lon="9.6053967"><ele>100.0</ele><time>2026-04-07T13:47:40.996Z</time></trkpt><trkpt lat="44.97273" lon="9.6054183"><ele>100.0</ele><time>2026-04-07T13:47:42.996Z</time></trkpt><trkpt lat="44.9726167" lon="9.6054083"><ele>100.0</ele><time>2026-04-07T13:47:44.994Z</time></trkpt><trkpt lat="44.972515" lon="9.6053783"><ele>100.0</ele><time>2026-04-07T13:47:46.99Z</time></trkpt><trkpt lat="44.97241" lon="9.6053533"><ele>100.0</ele><time>2026-04-07T13:47:48.993Z</time></trkpt><trkpt lat="44.9723033" lon="9.605335"><ele>100.0</ele><time>2026-04-07T13:47:50.989Z</time></trkpt><trkpt lat="44.972195" lon="9.6053083"><ele>100.0</ele><time>2026-04-07T13:47:52.996Z</time></trkpt><trkpt lat="44.97209" lon="9.60528"><ele>100.0</ele><time>2026-04-07T13:47:54.99Z</time></trkpt><trkpt lat="44.9719817" lon="9.6052533"><ele>100.0</ele><time>2026-04-07T13:47:56.994Z</time></trkpt><trkpt lat="44.9718683" lon="9.6052333"><ele>100.0</ele><time>2026-04-07T13:47:58.992Z</time></trkpt><trkpt lat="44.97177" lon="9.60521"><ele>100.0</ele><time>2026-04-07T13:48:00.993Z</time></trkpt><trkpt lat="44.9716917" lon="9.6052067"><ele>100.16666666666667</ele><time>2026-04-07T13:48:02.99Z</time></trkpt><trkpt lat="44.97166" lon="9.6053283"><ele>100.33333333333334</ele><time>2026-04-07T13:48:05.997Z</time></trkpt><trkpt lat="44.9716033" lon="9.6053767"><ele>100.5</ele><time>2026-04-07T13:48:09Z</time></trkpt><trkpt lat="44.9715367" lon="9.6053533"><ele>100.66666666666666</ele><time>2026-04-07T13:48:10.991Z</time></trkpt><trkpt lat="44.97146" lon="9.6053333"><ele>100.83333333333333</ele><time>2026-04-07T13:48:12.998Z</time></trkpt><trkpt lat="44.97138" lon="9.6053167"><ele>101.0</ele><time>2026-04-07T13:48:14.997Z</time></trkpt><trkpt lat="44.9712967" lon="9.605305"><ele>100.99999999999999</ele><time>2026-04-07T13:48:16.993Z</time></trkpt><trkpt lat="44.97121" lon="9.6052967"><ele>101.0</ele><time>2026-04-07T13:48:18.997Z</time></trkpt><trkpt lat="44.9711233" lon="9.605295"><ele>101.0</ele><time>2026-04-07T13:48:21Z</time></trkpt><trkpt lat="44.9710367" lon="9.6052967"><ele>101.0</ele><time>2026-04-07T13:48:22.997Z</time></trkpt><trkpt lat="44.9709483" lon="9.6053133"><ele>100.99999999999999</ele><time>2026-04-07T13:48:24.997Z</time></trkpt><trkpt lat="44.9708633" lon="9.605335"><ele>101.0</ele><time>2026-04-07T13:48:27.004Z</time></trkpt><trkpt lat="44.9707767" lon="9.6053667"><ele>101.0</ele><time>2026-04-07T13:48:28.99Z</time></trkpt><trkpt lat="44.9706983" lon="9.6054017"><ele>101.0</ele><time>2026-04-07T13:48:30.996Z</time></trkpt><trkpt lat="44.9706167" lon="9.6054483"><ele>101.0</ele><time>2026-04-07T13:48:32.995Z</time></trkpt><trkpt lat="44.9705317" lon="9.6055"><ele>101.0</ele><time>2026-04-07T13:48:34.997Z</time></trkpt><trkpt lat="44.9704433" lon="9.6055517"><ele>101.0</ele><time>2026-04-07T13:48:36.996Z</time></trkpt><trkpt lat="44.9703483" lon="9.60557"><ele>101.0</ele><time>2026-04-07T13:48:38.999Z</time></trkpt><trkpt lat="44.9702483" lon="9.6055633"><ele>101.0</ele><time>2026-04-07T13:48:40.993Z</time></trkpt><trkpt lat="44.970155" lon="9.6055017"><ele>101.0</ele><time>2026-04-07T13:48:42.991Z</time></trkpt><trkpt lat="44.9700717" lon="9.60541"><ele>101.0</ele><time>2026-04-07T13:48:44.997Z</time></trkpt><trkpt lat="44.9699933" lon="9.6053117"><ele>101.0</ele><time>2026-04-07T13:48:46.994Z</time></trkpt><trkpt lat="44.9699217" lon="9.6052083"><ele>101.6</ele><time>2026-04-07T13:48:49.003Z</time></trkpt><trkpt lat="44.9698533" lon="9.6051033"><ele>102.19999999999999</ele><time>2026-04-07T13:48:50.996Z</time></trkpt><trkpt lat="44.96978" lon="9.6049983"><ele>102.80000000000001</ele><time>2026-04-07T13:48:53.006Z</time></trkpt><trkpt lat="44.9697033" lon="9.6048983"><ele>103.4</ele><time>2026-04-07T13:48:54.991Z</time></trkpt><trkpt lat="44.969625" lon="9.6048033"><ele>104.0</ele><time>2026-04-07T13:48:56.996Z</time></trkpt><trkpt lat="44.9695483" lon="9.60471"><ele>104.0</ele><time>2026-04-07T13:48:58.991Z</time></trkpt><trkpt lat="44.9694683" lon="9.60462"><ele>104.0</ele><time>2026-04-07T13:49:00.991Z</time></trkpt><trkpt lat="44.969385" lon="9.6045333"><ele>104.0</ele><time>2026-04-07T13:49:02.998Z</time></trkpt><trkpt lat="44.9693" lon="9.60445"><ele>104.0</ele><time>2026-04-07T13:49:04.992Z</time></trkpt><trkpt lat="44.969215" lon="9.6043683"><ele>104.0</ele><time>2026-04-07T13:49:06.996Z</time></trkpt><trkpt lat="44.9691267" lon="9.6042867"><ele>104.4</ele><time>2026-04-07T13:49:08.998Z</time></trkpt><trkpt lat="44.9690367" lon="9.6042117"><ele>104.80000000000001</ele><time>2026-04-07T13:49:10.996Z</time></trkpt><trkpt lat="44.9689433" lon="9.6041467"><ele>105.19999999999999</ele><time>2026-04-07T13:49:12.993Z</time></trkpt><trkpt lat="44.96885" lon="9.60408"><ele>105.6</ele><time>2026-04-07T13:49:14.992Z</time></trkpt><trkpt lat="44.9687533" lon="9.6040167"><ele>106.0</ele><time>2026-04-07T13:49:16.992Z</time></trkpt><trkpt lat="44.9686567" lon="9.6039567"><ele>106.0</ele><time>2026-04-07T13:49:18.998Z</time></trkpt><trkpt lat="44.9685567" lon="9.6039"><ele>106.0</ele><time>2026-04-07T13:49:21Z</time></trkpt><trkpt lat="44.9684583" lon="9.6038467"><ele>106.0</ele><time>2026-04-07T13:49:22.995Z</time></trkpt><trkpt lat="44.96836" lon="9.603795"><ele>106.0</ele><time>2026-04-07T13:49:24.993Z</time></trkpt><trkpt lat="44.9682583" lon="9.6037583"><ele>106.0</ele><time>2026-04-07T13:49:26.997Z</time></trkpt><trkpt lat="44.9681617" lon="9.60371"><ele>105.6</ele><time>2026-04-07T13:49:28.987Z</time></trkpt><trkpt lat="44.9680533" lon="9.6036783"><ele>105.19999999999999</ele><time>2026-04-07T13:49:30.994Z</time></trkpt><trkpt lat="44.9679467" lon="9.603645"><ele>104.80000000000001</ele><time>2026-04-07T13:49:32.99Z</time></trkpt><trkpt lat="44.967845" lon="9.6036167"><ele>104.4</ele><time>2026-04-07T13:49:34.986Z</time></trkpt><trkpt lat="44.967745" lon="9.6035867"><ele>104.0</ele><time>2026-04-07T13:49:36.991Z</time></trkpt><trkpt lat="44.9676367" lon="9.60356"><ele>104.2</ele><time>2026-04-07T13:49:38.994Z</time></trkpt><trkpt lat="44.9675217" lon="9.60354"><ele>104.4</ele><time>2026-04-07T13:49:40.999Z</time></trkpt><trkpt lat="44.9673967" lon="9.6035283"><ele>104.6</ele><time>2026-04-07T13:49:42.995Z</time></trkpt><trkpt lat="44.9673333" lon="9.6035217"><ele>104.8</ele><time>2026-04-07T13:49:43.991Z</time></trkpt><trkpt lat="44.9672083" lon="9.6035133"><ele>105.0</ele><time>2026-04-07T13:49:45.989Z</time></trkpt><trkpt lat="44.967085" lon="9.6035117"><ele>105.0</ele><time>2026-04-07T13:49:47.989Z</time></trkpt><trkpt lat="44.9669633" lon="9.6035133"><ele>105.0</ele><time>2026-04-07T13:49:49.992Z</time></trkpt><trkpt lat="44.9669" lon="9.6035233"><ele>105.0</ele><time>2026-04-07T13:49:50.999Z</time></trkpt><trkpt lat="44.9668367" lon="9.6035317"><ele>105.0</ele><time>2026-04-07T13:49:51.991Z</time></trkpt><trkpt lat="44.9667133" lon="9.6035467"><ele>105.0</ele><time>2026-04-07T13:49:53.991Z</time></trkpt><trkpt lat="44.96659" lon="9.60357"><ele>105.2</ele><time>2026-04-07T13:49:55.991Z</time></trkpt><trkpt lat="44.9664683" lon="9.603585"><ele>105.4</ele><time>2026-04-07T13:49:57.99Z</time></trkpt><trkpt lat="44.9663483" lon="9.6036067"><ele>105.6</ele><time>2026-04-07T13:49:59.989Z</time></trkpt><trkpt lat="44.966225" lon="9.6036317"><ele>105.8</ele><time>2026-04-07T13:50:01.991Z</time></trkpt><trkpt lat="44.9661617" lon="9.603645"><ele>106.0</ele><time>2026-04-07T13:50:02.994Z</time></trkpt><trkpt lat="44.96604" lon="9.6036567"><ele>105.8</ele><time>2026-04-07T13:50:04.992Z</time></trkpt><trkpt lat="44.96592" lon="9.6036733"><ele>105.6</ele><time>2026-04-07T13:50:06.996Z</time></trkpt><trkpt lat="44.9657983" lon="9.6036833"><ele>105.4</ele><time>2026-04-07T13:50:08.997Z</time></trkpt><trkpt lat="44.9656767" lon="9.60368"><ele>105.2</ele><time>2026-04-07T13:50:10.99Z</time></trkpt><trkpt lat="44.9656133" lon="9.6036833"><ele>105.0</ele><time>2026-04-07T13:50:11.987Z</time></trkpt><trkpt lat="44.9655483" lon="9.6036867"><ele>105.0</ele><time>2026-04-07T13:50:12.993Z</time></trkpt><trkpt lat="44.9654267" lon="9.6036817"><ele>105.0</ele><time>2026-04-07T13:50:14.992Z</time></trkpt><trkpt lat="44.9653033" lon="9.60367"><ele>105.0</ele><time>2026-04-07T13:50:16.987Z</time></trkpt><trkpt lat="44.9651817" lon="9.603645"><ele>105.0</ele><time>2026-04-07T13:50:18.996Z</time></trkpt><trkpt lat="44.965065" lon="9.60361"><ele>105.0</ele><time>2026-04-07T13:50:20.994Z</time></trkpt><trkpt lat="44.9649483" lon="9.60357"><ele>105.0</ele><time>2026-04-07T13:50:22.993Z</time></trkpt><trkpt lat="44.96483" lon="9.6035183"><ele>105.0</ele><time>2026-04-07T13:50:24.994Z</time></trkpt><trkpt lat="44.9647183" lon="9.6034567"><ele>105.0</ele><time>2026-04-07T13:50:26.993Z</time></trkpt><trkpt lat="44.964605" lon="9.6033917"><ele>105.0</ele><time>2026-04-07T13:50:29Z</time></trkpt><trkpt lat="44.9644983" lon="9.6033167"><ele>105.0</ele><time>2026-04-07T13:50:31.002Z</time></trkpt><trkpt lat="44.9644" lon="9.6032283"><ele>105.0</ele><time>2026-04-07T13:50:32.999Z</time></trkpt><trkpt lat="44.964305" lon="9.603135"><ele>105.0</ele><time>2026-04-07T13:50:34.999Z</time></trkpt><trkpt lat="44.9642133" lon="9.6030317"><ele>105.0</ele><time>2026-04-07T13:50:37.005Z</time></trkpt><trkpt lat="44.9641267" lon="9.6029183"><ele>105.0</ele><time>2026-04-07T13:50:39.007Z</time></trkpt><trkpt lat="44.9640517" lon="9.602795"><ele>105.0</ele><time>2026-04-07T13:50:40.992Z</time></trkpt><trkpt lat="44.9639833" lon="9.60266"><ele>105.0</ele><time>2026-04-07T13:50:42.996Z</time></trkpt><trkpt lat="44.9639217" lon="9.6025267"><ele>105.0</ele><time>2026-04-07T13:50:44.999Z</time></trkpt><trkpt lat="44.9638633" lon="9.602385"><ele>105.0</ele><time>2026-04-07T13:50:46.994Z</time></trkpt><trkpt lat="44.9638083" lon="9.6022383"><ele>105.0</ele><time>2026-04-07T13:50:49.006Z</time></trkpt><trkpt lat="44.9637617" lon="9.6020917"><ele>105.0</ele><time>2026-04-07T13:50:50.993Z</time></trkpt><trkpt lat="44.96372" lon="9.6019383"><ele>104.5</ele><time>2026-04-07T13:50:52.994Z</time></trkpt><trkpt lat="44.9636967" lon="9.6017767"><ele>104.0</ele><time>2026-04-07T13:50:54.991Z</time></trkpt><trkpt lat="44.9636767" lon="9.6016183"><ele>103.5</ele><time>2026-04-07T13:50:56.996Z</time></trkpt><trkpt lat="44.963655" lon="9.6014533"><ele>103.0</ele><time>2026-04-07T13:50:58.987Z</time></trkpt><trkpt lat="44.9636433" lon="9.601285"><ele>103.0</ele><time>2026-04-07T13:51:00.987Z</time></trkpt><trkpt lat="44.9636333" lon="9.6011967"><ele>103.0</ele><time>2026-04-07T13:51:01.988Z</time></trkpt><trkpt lat="44.96363" lon="9.6010233"><ele>103.0</ele><time>2026-04-07T13:51:03.993Z</time></trkpt><trkpt lat="44.9636283" lon="9.60085"><ele>103.0</ele><time>2026-04-07T13:51:05.99Z</time></trkpt><trkpt lat="44.96363" lon="9.600675"><ele>103.0</ele><time>2026-04-07T13:51:07.992Z</time></trkpt><trkpt lat="44.96363" lon="9.6004967"><ele>103.25</ele><time>2026-04-07T13:51:09.994Z</time></trkpt><trkpt lat="44.9636367" lon="9.6003217"><ele>103.5</ele><time>2026-04-07T13:51:11.991Z</time></trkpt><trkpt lat="44.96365" lon="9.6001517"><ele>103.75</ele><time>2026-04-07T13:51:13.99Z</time></trkpt><trkpt lat="44.9636633" lon="9.5999767"><ele>104.0</ele><time>2026-04-07T13:51:15.994Z</time></trkpt><trkpt lat="44.9636683" lon="9.5998067"><ele>104.0</ele><time>2026-04-07T13:51:17.993Z</time></trkpt><trkpt lat="44.9636767" lon="9.5996417"><ele>104.0</ele><time>2026-04-07T13:51:20.001Z</time></trkpt><trkpt lat="44.96369" lon="9.599475"><ele>104.0</ele><time>2026-04-07T13:51:21.995Z</time></trkpt><trkpt lat="44.9637017" lon="9.599315"><ele>104.0</ele><time>2026-04-07T13:51:23.997Z</time></trkpt><trkpt lat="44.9637133" lon="9.5991533"><ele>104.25</ele><time>2026-04-07T13:51:25.997Z</time></trkpt><trkpt lat="44.9637267" lon="9.5989917"><ele>104.5</ele><time>2026-04-07T13:51:27.992Z</time></trkpt><trkpt lat="44.9637383" lon="9.5988317"><ele>104.75</ele><time>2026-04-07T13:51:29.992Z</time></trkpt><trkpt lat="44.96375" lon="9.5986733"><ele>105.0</ele><time>2026-04-07T13:51:31.991Z</time></trkpt><trkpt lat="44.9637617" lon="9.59851"><ele>104.5</ele><time>2026-04-07T13:51:33.993Z</time></trkpt><trkpt lat="44.96377" lon="9.598345"><ele>104.0</ele><time>2026-04-07T13:51:35.993Z</time></trkpt><trkpt lat="44.963785" lon="9.5981733"><ele>103.5</ele><time>2026-04-07T13:51:38Z</time></trkpt><trkpt lat="44.9637933" lon="9.5979967"><ele>103.0</ele><time>2026-04-07T13:51:39.992Z</time></trkpt><trkpt lat="44.9638033" lon="9.5978217"><ele>102.60000000000001</ele><time>2026-04-07T13:51:41.995Z</time></trkpt><trkpt lat="44.9638167" lon="9.597645"><ele>102.2</ele><time>2026-04-07T13:51:43.994Z</time></trkpt><trkpt lat="44.9638183" lon="9.597555"><ele>101.8</ele><time>2026-04-07T13:51:44.995Z</time></trkpt><trkpt lat="44.963825" lon="9.59738"><ele>101.4</ele><time>2026-04-07T13:51:47.001Z</time></trkpt><trkpt lat="44.963835" lon="9.5972067"><ele>101.0</ele><time>2026-04-07T13:51:48.995Z</time></trkpt><trkpt lat="44.963845" lon="9.59704"><ele>101.0</ele><time>2026-04-07T13:51:50.999Z</time></trkpt><trkpt lat="44.96386" lon="9.5968717"><ele>101.0</ele><time>2026-04-07T13:51:52.992Z</time></trkpt><trkpt lat="44.9638717" lon="9.5967"><ele>101.0</ele><time>2026-04-07T13:51:55.001Z</time></trkpt><trkpt lat="44.9638833" lon="9.5965283"><ele>101.0</ele><time>2026-04-07T13:51:57.002Z</time></trkpt><trkpt lat="44.9638983" lon="9.59636"><ele>101.0</ele><time>2026-04-07T13:51:58.999Z</time></trkpt><trkpt lat="44.96391" lon="9.596185"><ele>101.0</ele><time>2026-04-07T13:52:01.013Z</time></trkpt><trkpt lat="44.9639183" lon="9.5960083"><ele>101.0</ele><time>2026-04-07T13:52:03.008Z</time></trkpt><trkpt lat="44.9639317" lon="9.5958367"><ele>101.0</ele><time>2026-04-07T13:52:04.993Z</time></trkpt><trkpt lat="44.96394" lon="9.59566"><ele>100.75</ele><time>2026-04-07T13:52:06.992Z</time></trkpt><trkpt lat="44.9639533" lon="9.5954833"><ele>100.5</ele><time>2026-04-07T13:52:08.992Z</time></trkpt><trkpt lat="44.963965" lon="9.5953133"><ele>100.25</ele><time>2026-04-07T13:52:11.002Z</time></trkpt><trkpt lat="44.963975" lon="9.5951483"><ele>100.0</ele><time>2026-04-07T13:52:13.005Z</time></trkpt><trkpt lat="44.9639883" lon="9.5949733"><ele>100.0</ele><time>2026-04-07T13:52:14.994Z</time></trkpt><trkpt lat="44.9639983" lon="9.5947983"><ele>100.0</ele><time>2026-04-07T13:52:16.988Z</time></trkpt><trkpt lat="44.9640083" lon="9.594625"><ele>100.0</ele><time>2026-04-07T13:52:18.992Z</time></trkpt><trkpt lat="44.9640183" lon="9.5944517"><ele>100.0</ele><time>2026-04-07T13:52:21.004Z</time></trkpt><trkpt lat="44.96403" lon="9.5942833"><ele>100.0</ele><time>2026-04-07T13:52:22.996Z</time></trkpt><trkpt lat="44.9640333" lon="9.5941133"><ele>100.0</ele><time>2026-04-07T13:52:24.989Z</time></trkpt><trkpt lat="44.964045" lon="9.593945"><ele>100.0</ele><time>2026-04-07T13:52:26.997Z</time></trkpt><trkpt lat="44.9640533" lon="9.5937733"><ele>100.0</ele><time>2026-04-07T13:52:29.004Z</time></trkpt><trkpt lat="44.9640633" lon="9.5936067"><ele>100.25</ele><time>2026-04-07T13:52:30.994Z</time></trkpt><trkpt lat="44.964075" lon="9.59344"><ele>100.5</ele><time>2026-04-07T13:52:32.996Z</time></trkpt><trkpt lat="44.9640883" lon="9.5932733"><ele>100.75</ele><time>2026-04-07T13:52:34.994Z</time></trkpt><trkpt lat="44.9640983" lon="9.5931033"><ele>101.0</ele><time>2026-04-07T13:52:36.998Z</time></trkpt><trkpt lat="44.96411" lon="9.5929333"><ele>100.75</ele><time>2026-04-07T13:52:39.004Z</time></trkpt><trkpt lat="44.9641233" lon="9.5927617"><ele>100.5</ele><time>2026-04-07T13:52:40.995Z</time></trkpt><trkpt lat="44.9641333" lon="9.5925917"><ele>100.25</ele><time>2026-04-07T13:52:43Z</time></trkpt><trkpt lat="44.964145" lon="9.59242"><ele>100.0</ele><time>2026-04-07T13:52:45.004Z</time></trkpt><trkpt lat="44.9641567" lon="9.5922567"><ele>100.0</ele><time>2026-04-07T13:52:46.996Z</time></trkpt><trkpt lat="44.964165" lon="9.5920917"><ele>100.0</ele><time>2026-04-07T13:52:48.996Z</time></trkpt><trkpt lat="44.9641783" lon="9.5919233"><ele>100.0</ele><time>2026-04-07T13:52:50.997Z</time></trkpt><trkpt lat="44.9641883" lon="9.5917517"><ele>100.0</ele><time>2026-04-07T13:52:52.997Z</time></trkpt><trkpt lat="44.9642033" lon="9.5915833"><ele>100.25</ele><time>2026-04-07T13:52:54.995Z</time></trkpt><trkpt lat="44.9642133" lon="9.5914117"><ele>100.5</ele><time>2026-04-07T13:52:56.994Z</time></trkpt><trkpt lat="44.964225" lon="9.59124"><ele>100.75</ele><time>2026-04-07T13:52:58.994Z</time></trkpt><trkpt lat="44.964235" lon="9.5910667"><ele>101.0</ele><time>2026-04-07T13:53:00.998Z</time></trkpt><trkpt lat="44.964245" lon="9.5908933"><ele>101.25</ele><time>2026-04-07T13:53:03.002Z</time></trkpt><trkpt lat="44.964255" lon="9.5907233"><ele>101.5</ele><time>2026-04-07T13:53:04.998Z</time></trkpt><trkpt lat="44.9642683" lon="9.5905567"><ele>101.75</ele><time>2026-04-07T13:53:06.999Z</time></trkpt><trkpt lat="44.96428" lon="9.5903933"><ele>102.0</ele><time>2026-04-07T13:53:09.007Z</time></trkpt><trkpt lat="44.96429" lon="9.59023"><ele>102.0</ele><time>2026-04-07T13:53:10.997Z</time></trkpt><trkpt lat="44.9643" lon="9.5900667"><ele>102.0</ele><time>2026-04-07T13:53:12.993Z</time></trkpt><trkpt lat="44.9643133" lon="9.5899033"><ele>102.0</ele><time>2026-04-07T13:53:14.994Z</time></trkpt><trkpt lat="44.9643217" lon="9.5897367"><ele>102.0</ele><time>2026-04-07T13:53:16.995Z</time></trkpt><trkpt lat="44.9643317" lon="9.5895733"><ele>102.5</ele><time>2026-04-07T13:53:18.994Z</time></trkpt><trkpt lat="44.9643383" lon="9.5894067"><ele>103.0</ele><time>2026-04-07T13:53:21.002Z</time></trkpt><trkpt lat="44.964345" lon="9.5892383"><ele>103.5</ele><time>2026-04-07T13:53:22.99Z</time></trkpt><trkpt lat="44.9643517" lon="9.58907"><ele>104.0</ele><time>2026-04-07T13:53:24.991Z</time></trkpt><trkpt lat="44.96436" lon="9.5889017"><ele>104.0</ele><time>2026-04-07T13:53:26.992Z</time></trkpt><trkpt lat="44.9643717" lon="9.5887383"><ele>104.0</ele><time>2026-04-07T13:53:28.994Z</time></trkpt><trkpt lat="44.964385" lon="9.5885783"><ele>104.0</ele><time>2026-04-07T13:53:30.995Z</time></trkpt><trkpt lat="44.9643933" lon="9.5884167"><ele>104.0</ele><time>2026-04-07T13:53:33.004Z</time></trkpt><trkpt lat="44.9644083" lon="9.58826"><ele>104.4</ele><time>2026-04-07T13:53:34.991Z</time></trkpt><trkpt lat="44.9644233" lon="9.5881067"><ele>104.80000000000001</ele><time>2026-04-07T13:53:36.995Z</time></trkpt><trkpt lat="44.9644317" lon="9.5879517"><ele>105.19999999999999</ele><time>2026-04-07T13:53:38.998Z</time></trkpt><trkpt lat="44.96444" lon="9.5877933"><ele>105.6</ele><time>2026-04-07T13:53:40.991Z</time></trkpt><trkpt lat="44.96445" lon="9.5876383"><ele>106.0</ele><time>2026-04-07T13:53:42.993Z</time></trkpt><trkpt lat="44.9644583" lon="9.58748"><ele>106.5</ele><time>2026-04-07T13:53:45.001Z</time></trkpt><trkpt lat="44.964465" lon="9.5873233"><ele>107.0</ele><time>2026-04-07T13:53:46.99Z</time></trkpt><trkpt lat="44.964475" lon="9.5871633"><ele>107.5</ele><time>2026-04-07T13:53:48.997Z</time></trkpt><trkpt lat="44.9644883" lon="9.5870067"><ele>108.0</ele><time>2026-04-07T13:53:50.995Z</time></trkpt><trkpt lat="44.9644983" lon="9.586845"><ele>108.80000000000001</ele><time>2026-04-07T13:53:52.991Z</time></trkpt><trkpt lat="44.9645083" lon="9.5866867"><ele>109.60000000000001</ele><time>2026-04-07T13:53:54.991Z</time></trkpt><trkpt lat="44.9645183" lon="9.586535"><ele>110.39999999999999</ele><time>2026-04-07T13:53:57.008Z</time></trkpt><trkpt lat="44.9645267" lon="9.58638"><ele>111.19999999999999</ele><time>2026-04-07T13:53:58.996Z</time></trkpt><trkpt lat="44.9645433" lon="9.5862333"><ele>112.0</ele><time>2026-04-07T13:54:00.993Z</time></trkpt><trkpt lat="44.9645667" lon="9.5861017"><ele>112.0</ele><time>2026-04-07T13:54:03.001Z</time></trkpt><trkpt lat="44.964585" lon="9.585975"><ele>111.99999999999999</ele><time>2026-04-07T13:54:05Z</time></trkpt><trkpt lat="44.964585" lon="9.5858583"><ele>111.99999999999999</ele><time>2026-04-07T13:54:06.991Z</time></trkpt><trkpt lat="44.96455" lon="9.585755"><ele>112.0</ele><time>2026-04-07T13:54:08.993Z</time></trkpt><trkpt lat="44.9644583" lon="9.5857117"><ele>112.0</ele><time>2026-04-07T13:54:11.001Z</time></trkpt><trkpt lat="44.9643483" lon="9.5857283"><ele>112.0</ele><time>2026-04-07T13:54:12.991Z</time></trkpt><trkpt lat="44.964245" lon="9.5857533"><ele>111.99999999999999</ele><time>2026-04-07T13:54:14.99Z</time></trkpt><trkpt lat="44.96414" lon="9.5857817"><ele>111.99999999999999</ele><time>2026-04-07T13:54:16.994Z</time></trkpt><trkpt lat="44.9640317" lon="9.5858167"><ele>112.0</ele><time>2026-04-07T13:54:18.995Z</time></trkpt><trkpt lat="44.9639233" lon="9.58585"><ele>112.0</ele><time>2026-04-07T13:54:20.995Z</time></trkpt><trkpt lat="44.9638117" lon="9.5858883"><ele>112.6</ele><time>2026-04-07T13:54:23.001Z</time></trkpt><trkpt lat="44.9637017" lon="9.5859183"><ele>113.19999999999999</ele><time>2026-04-07T13:54:24.994Z</time></trkpt><trkpt lat="44.9635967" lon="9.5859533"><ele>113.8</ele><time>2026-04-07T13:54:26.992Z</time></trkpt><trkpt lat="44.9634933" lon="9.5859833"><ele>114.4</ele><time>2026-04-07T13:54:28.996Z</time></trkpt><trkpt lat="44.9633867" lon="9.5860133"><ele>115.0</ele><time>2026-04-07T13:54:30.998Z</time></trkpt><trkpt lat="44.9632833" lon="9.58605"><ele>115.2</ele><time>2026-04-07T13:54:32.988Z</time></trkpt><trkpt lat="44.9631817" lon="9.5860867"><ele>115.4</ele><time>2026-04-07T13:54:34.992Z</time></trkpt><trkpt lat="44.9630767" lon="9.5861183"><ele>115.6</ele><time>2026-04-07T13:54:36.99Z</time></trkpt><trkpt lat="44.9629717" lon="9.5861433"><ele>115.8</ele><time>2026-04-07T13:54:38.991Z</time></trkpt><trkpt lat="44.9628683" lon="9.5861733"><ele>116.0</ele><time>2026-04-07T13:54:40.988Z</time></trkpt><trkpt lat="44.9627667" lon="9.58621"><ele>116.0</ele><time>2026-04-07T13:54:42.992Z</time></trkpt><trkpt lat="44.9626583" lon="9.5862417"><ele>116.0</ele><time>2026-04-07T13:54:45.012Z</time></trkpt><trkpt lat="44.9625517" lon="9.5862683"><ele>116.0</ele><time>2026-04-07T13:54:46.999Z</time></trkpt><trkpt lat="44.96245" lon="9.5862933"><ele>116.0</ele><time>2026-04-07T13:54:48.993Z</time></trkpt><trkpt lat="44.9623483" lon="9.586325"><ele>116.0</ele><time>2026-04-07T13:54:50.994Z</time></trkpt><trkpt lat="44.962245" lon="9.5863567"><ele>117.0</ele><time>2026-04-07T13:54:52.99Z</time></trkpt><trkpt lat="44.9621333" lon="9.5863917"><ele>118.0</ele><time>2026-04-07T13:54:55Z</time></trkpt><trkpt lat="44.96202" lon="9.586425"><ele>119.0</ele><time>2026-04-07T13:54:56.997Z</time></trkpt><trkpt lat="44.961905" lon="9.5864583"><ele>120.0</ele><time>2026-04-07T13:54:58.997Z</time></trkpt><trkpt lat="44.96179" lon="9.58649"><ele>120.5</ele><time>2026-04-07T13:55:00.998Z</time></trkpt><trkpt lat="44.9616733" lon="9.5865233"><ele>121.0</ele><time>2026-04-07T13:55:03.004Z</time></trkpt><trkpt lat="44.9615583" lon="9.5865567"><ele>121.5</ele><time>2026-04-07T13:55:04.991Z</time></trkpt><trkpt lat="44.96145" lon="9.58659"><ele>122.0</ele><time>2026-04-07T13:55:06.992Z</time></trkpt><trkpt lat="44.9613383" lon="9.5866217"><ele>122.0</ele><time>2026-04-07T13:55:08.991Z</time></trkpt><trkpt lat="44.9612283" lon="9.5866517"><ele>122.0</ele><time>2026-04-07T13:55:10.991Z</time></trkpt><trkpt lat="44.961115" lon="9.5866867"><ele>122.0</ele><time>2026-04-07T13:55:12.989Z</time></trkpt><trkpt lat="44.961005" lon="9.5867217"><ele>122.0</ele><time>2026-04-07T13:55:14.991Z</time></trkpt><trkpt lat="44.9608967" lon="9.5867567"><ele>121.75</ele><time>2026-04-07T13:55:16.995Z</time></trkpt><trkpt lat="44.9607867" lon="9.5867883"><ele>121.5</ele><time>2026-04-07T13:55:18.987Z</time></trkpt><trkpt lat="44.960675" lon="9.5868233"><ele>121.25</ele><time>2026-04-07T13:55:20.993Z</time></trkpt><trkpt lat="44.960565" lon="9.58686"><ele>121.0</ele><time>2026-04-07T13:55:22.998Z</time></trkpt><trkpt lat="44.960455" lon="9.5868967"><ele>121.0</ele><time>2026-04-07T13:55:25.007Z</time></trkpt><trkpt lat="44.96035" lon="9.5869267"><ele>121.0</ele><time>2026-04-07T13:55:26.996Z</time></trkpt><trkpt lat="44.9602383" lon="9.5869617"><ele>121.0</ele><time>2026-04-07T13:55:28.991Z</time></trkpt><trkpt lat="44.960125" lon="9.5869933"><ele>121.0</ele><time>2026-04-07T13:55:30.988Z</time></trkpt><trkpt lat="44.9600117" lon="9.5870283"><ele>121.4</ele><time>2026-04-07T13:55:32.991Z</time></trkpt><trkpt lat="44.9599017" lon="9.587065"><ele>121.8</ele><time>2026-04-07T13:55:34.991Z</time></trkpt><trkpt lat="44.9597933" lon="9.5871067"><ele>122.20000000000002</ele><time>2026-04-07T13:55:36.994Z</time></trkpt><trkpt lat="44.9596833" lon="9.58715"><ele>122.60000000000001</ele><time>2026-04-07T13:55:38.991Z</time></trkpt><trkpt lat="44.9595767" lon="9.5871833"><ele>123.0</ele><time>2026-04-07T13:55:40.989Z</time></trkpt><trkpt lat="44.95947" lon="9.5872217"><ele>123.0</ele><time>2026-04-07T13:55:42.999Z</time></trkpt><trkpt lat="44.9593617" lon="9.5872633"><ele>123.0</ele><time>2026-04-07T13:55:44.997Z</time></trkpt><trkpt lat="44.9592533" lon="9.5873083"><ele>123.0</ele><time>2026-04-07T13:55:46.993Z</time></trkpt><trkpt lat="44.9591433" lon="9.587355"><ele>123.0</ele><time>2026-04-07T13:55:48.994Z</time></trkpt><trkpt lat="44.959035" lon="9.5873983"><ele>123.25</ele><time>2026-04-07T13:55:51.001Z</time></trkpt><trkpt lat="44.9589233" lon="9.5874467"><ele>123.5</ele><time>2026-04-07T13:55:52.995Z</time></trkpt><trkpt lat="44.95881" lon="9.587495"><ele>123.75</ele><time>2026-04-07T13:55:54.991Z</time></trkpt><trkpt lat="44.958695" lon="9.5875367"><ele>124.0</ele><time>2026-04-07T13:55:56.993Z</time></trkpt><trkpt lat="44.9585833" lon="9.5875717"><ele>124.0</ele><time>2026-04-07T13:55:58.994Z</time></trkpt><trkpt lat="44.9584717" lon="9.587615"><ele>124.0</ele><time>2026-04-07T13:56:00.997Z</time></trkpt><trkpt lat="44.9583567" lon="9.5876567"><ele>124.0</ele><time>2026-04-07T13:56:02.998Z</time></trkpt><trkpt lat="44.9582367" lon="9.5876883"><ele>124.0</ele><time>2026-04-07T13:56:04.993Z</time></trkpt><trkpt lat="44.9581133" lon="9.5877033"><ele>124.5</ele><time>2026-04-07T13:56:06.993Z</time></trkpt><trkpt lat="44.95799" lon="9.587695"><ele>125.0</ele><time>2026-04-07T13:56:08.993Z</time></trkpt><trkpt lat="44.9578683" lon="9.5876783"><ele>125.5</ele><time>2026-04-07T13:56:10.993Z</time></trkpt><trkpt lat="44.9577533" lon="9.58765"><ele>126.0</ele><time>2026-04-07T13:56:12.993Z</time></trkpt><trkpt lat="44.9576367" lon="9.5876233"><ele>126.0</ele><time>2026-04-07T13:56:14.99Z</time></trkpt><trkpt lat="44.9575183" lon="9.5875917"><ele>126.0</ele><time>2026-04-07T13:56:16.996Z</time></trkpt><trkpt lat="44.9574" lon="9.5875633"><ele>126.0</ele><time>2026-04-07T13:56:19Z</time></trkpt><trkpt lat="44.95728" lon="9.5875383"><ele>126.0</ele><time>2026-04-07T13:56:20.99Z</time></trkpt><trkpt lat="44.95716" lon="9.5875133"><ele>126.0</ele><time>2026-04-07T13:56:22.992Z</time></trkpt><trkpt lat="44.9570417" lon="9.5874867"><ele>126.0</ele><time>2026-04-07T13:56:24.994Z</time></trkpt><trkpt lat="44.9569233" lon="9.5874667"><ele>126.0</ele><time>2026-04-07T13:56:26.997Z</time></trkpt><trkpt lat="44.9568067" lon="9.5874533"><ele>126.0</ele><time>2026-04-07T13:56:28.988Z</time></trkpt><trkpt lat="44.9566917" lon="9.5874483"><ele>126.5</ele><time>2026-04-07T13:56:30.992Z</time></trkpt><trkpt lat="44.956575" lon="9.587455"><ele>127.0</ele><time>2026-04-07T13:56:32.994Z</time></trkpt><trkpt lat="44.9564533" lon="9.5874767"><ele>127.5</ele><time>2026-04-07T13:56:34.988Z</time></trkpt><trkpt lat="44.956335" lon="9.5875033"><ele>128.0</ele><time>2026-04-07T13:56:37.002Z</time></trkpt><trkpt lat="44.9562217" lon="9.5875333"><ele>128.0</ele><time>2026-04-07T13:56:38.998Z</time></trkpt><trkpt lat="44.9561083" lon="9.5875683"><ele>128.0</ele><time>2026-04-07T13:56:41.002Z</time></trkpt><trkpt lat="44.956" lon="9.58759"><ele>128.0</ele><time>2026-04-07T13:56:42.992Z</time></trkpt><trkpt lat="44.95589" lon="9.5876117"><ele>128.0</ele><time>2026-04-07T13:56:44.992Z</time></trkpt><trkpt lat="44.9557833" lon="9.5876333"><ele>128.0</ele><time>2026-04-07T13:56:46.997Z</time></trkpt><trkpt lat="44.9556767" lon="9.5876583"><ele>128.0</ele><time>2026-04-07T13:56:48.99Z</time></trkpt><trkpt lat="44.9555633" lon="9.5876817"><ele>128.0</ele><time>2026-04-07T13:56:50.994Z</time></trkpt><trkpt lat="44.95545" lon="9.5876933"><ele>128.0</ele><time>2026-04-07T13:56:52.994Z</time></trkpt><trkpt lat="44.955335" lon="9.587705"><ele>128.0</ele><time>2026-04-07T13:56:54.994Z</time></trkpt><trkpt lat="44.9552233" lon="9.5877017"><ele>128.0</ele><time>2026-04-07T13:56:56.994Z</time></trkpt><trkpt lat="44.9551133" lon="9.58768"><ele>128.0</ele><time>2026-04-07T13:56:58.992Z</time></trkpt><trkpt lat="44.955005" lon="9.5876467"><ele>128.0</ele><time>2026-04-07T13:57:00.995Z</time></trkpt><trkpt lat="44.9548967" lon="9.58761"><ele>128.0</ele><time>2026-04-07T13:57:02.997Z</time></trkpt><trkpt lat="44.9547883" lon="9.58757"><ele>128.0</ele><time>2026-04-07T13:57:04.995Z</time></trkpt><trkpt lat="44.95468" lon="9.587515"><ele>128.5</ele><time>2026-04-07T13:57:06.992Z</time></trkpt><trkpt lat="44.9545717" lon="9.5874633"><ele>129.0</ele><time>2026-04-07T13:57:08.993Z</time></trkpt><trkpt lat="44.9544617" lon="9.5874183"><ele>129.5</ele><time>2026-04-07T13:57:10.987Z</time></trkpt><trkpt lat="44.9543533" lon="9.5873667"><ele>130.0</ele><time>2026-04-07T13:57:13.007Z</time></trkpt><trkpt lat="44.9542417" lon="9.5873267"><ele>130.0</ele><time>2026-04-07T13:57:14.994Z</time></trkpt><trkpt lat="44.95413" lon="9.5872867"><ele>130.0</ele><time>2026-04-07T13:57:17Z</time></trkpt><trkpt lat="44.9540183" lon="9.58724"><ele>130.0</ele><time>2026-04-07T13:57:18.997Z</time></trkpt><trkpt lat="44.9539083" lon="9.5871883"><ele>130.0</ele><time>2026-04-07T13:57:20.998Z</time></trkpt><trkpt lat="44.9538017" lon="9.5871417"><ele>130.0</ele><time>2026-04-07T13:57:22.988Z</time></trkpt><trkpt lat="44.953695" lon="9.5871"><ele>130.0</ele><time>2026-04-07T13:57:24.995Z</time></trkpt><trkpt lat="44.9535833" lon="9.5870567"><ele>130.0</ele><time>2026-04-07T13:57:27.001Z</time></trkpt><trkpt lat="44.9534733" lon="9.5870217"><ele>130.0</ele><time>2026-04-07T13:57:28.997Z</time></trkpt><trkpt lat="44.9533617" lon="9.5869983"><ele>130.0</ele><time>2026-04-07T13:57:31.001Z</time></trkpt><trkpt lat="44.95325" lon="9.5869833"><ele>130.0</ele><time>2026-04-07T13:57:32.993Z</time></trkpt><trkpt lat="44.953135" lon="9.586995"><ele>130.0</ele><time>2026-04-07T13:57:34.999Z</time></trkpt><trkpt lat="44.9530167" lon="9.58702"><ele>130.0</ele><time>2026-04-07T13:57:36.991Z</time></trkpt><trkpt lat="44.952955" lon="9.58704"><ele>130.0</ele><time>2026-04-07T13:57:37.999Z</time></trkpt><trkpt lat="44.95284" lon="9.5870867"><ele>130.0</ele><time>2026-04-07T13:57:39.993Z</time></trkpt><trkpt lat="44.9527267" lon="9.5871467"><ele>130.0</ele><time>2026-04-07T13:57:41.989Z</time></trkpt><trkpt lat="44.952615" lon="9.587215"><ele>130.0</ele><time>2026-04-07T13:57:43.989Z</time></trkpt><trkpt lat="44.9525017" lon="9.5872533"><ele>130.0</ele><time>2026-04-07T13:57:45.991Z</time></trkpt><trkpt lat="44.9523867" lon="9.5872217"><ele>130.8</ele><time>2026-04-07T13:57:47.994Z</time></trkpt><trkpt lat="44.952305" lon="9.5871133"><ele>131.6</ele><time>2026-04-07T13:57:49.992Z</time></trkpt><trkpt lat="44.9522783" lon="9.5869667"><ele>132.4</ele><time>2026-04-07T13:57:51.991Z</time></trkpt><trkpt lat="44.9522867" lon="9.5868133"><ele>133.2</ele><time>2026-04-07T13:57:53.993Z</time></trkpt><trkpt lat="44.9522917" lon="9.58667"><ele>134.0</ele><time>2026-04-07T13:57:55.989Z</time></trkpt><trkpt lat="44.952305" lon="9.5865317"><ele>134.4</ele><time>2026-04-07T13:57:57.989Z</time></trkpt><trkpt lat="44.9523117" lon="9.586395"><ele>134.8</ele><time>2026-04-07T13:57:59.998Z</time></trkpt><trkpt lat="44.9523167" lon="9.5862567"><ele>135.2</ele><time>2026-04-07T13:58:01.988Z</time></trkpt><trkpt lat="44.952315" lon="9.5861133"><ele>135.6</ele><time>2026-04-07T13:58:03.99Z</time></trkpt><trkpt lat="44.9523233" lon="9.585975"><ele>136.0</ele><time>2026-04-07T13:58:05.987Z</time></trkpt><trkpt lat="44.9523267" lon="9.5858383"><ele>136.2</ele><time>2026-04-07T13:58:07.989Z</time></trkpt><trkpt lat="44.9523283" lon="9.585705"><ele>136.39999999999998</ele><time>2026-04-07T13:58:09.989Z</time></trkpt><trkpt lat="44.9523367" lon="9.5855717"><ele>136.6</ele><time>2026-04-07T13:58:11.989Z</time></trkpt><trkpt lat="44.9523567" lon="9.5854417"><ele>136.79999999999998</ele><time>2026-04-07T13:58:13.989Z</time></trkpt><trkpt lat="44.9523633" lon="9.5853033"><ele>137.0</ele><time>2026-04-07T13:58:15.997Z</time></trkpt><trkpt lat="44.9523617" lon="9.58516"><ele>137.4</ele><time>2026-04-07T13:58:17.991Z</time></trkpt><trkpt lat="44.9523633" lon="9.58501"><ele>137.79999999999998</ele><time>2026-04-07T13:58:19.99Z</time></trkpt><trkpt lat="44.9523683" lon="9.58487"><ele>138.2</ele><time>2026-04-07T13:58:21.994Z</time></trkpt><trkpt lat="44.9523817" lon="9.5847233"><ele>138.6</ele><time>2026-04-07T13:58:23.989Z</time></trkpt><trkpt lat="44.952405" lon="9.58458"><ele>139.0</ele><time>2026-04-07T13:58:25.989Z</time></trkpt><trkpt lat="44.9524383" lon="9.58444"><ele>138.8</ele><time>2026-04-07T13:58:27.988Z</time></trkpt><trkpt lat="44.9524683" lon="9.5842967"><ele>138.60000000000002</ele><time>2026-04-07T13:58:29.993Z</time></trkpt><trkpt lat="44.9525017" lon="9.5841583"><ele>138.4</ele><time>2026-04-07T13:58:31.993Z</time></trkpt><trkpt lat="44.9525317" lon="9.5840167"><ele>138.20000000000002</ele><time>2026-04-07T13:58:33.993Z</time></trkpt><trkpt lat="44.9525617" lon="9.5838717"><ele>138.0</ele><time>2026-04-07T13:58:35.998Z</time></trkpt><trkpt lat="44.9525967" lon="9.58373"><ele>138.4</ele><time>2026-04-07T13:58:38.005Z</time></trkpt><trkpt lat="44.95264" lon="9.5835867"><ele>138.8</ele><time>2026-04-07T13:58:39.992Z</time></trkpt><trkpt lat="44.95268" lon="9.583435"><ele>139.2</ele><time>2026-04-07T13:58:41.995Z</time></trkpt><trkpt lat="44.9527183" lon="9.58327"><ele>139.6</ele><time>2026-04-07T13:58:43.99Z</time></trkpt><trkpt lat="44.9527367" lon="9.5831833"><ele>140.0</ele><time>2026-04-07T13:58:44.996Z</time></trkpt><trkpt lat="44.9527533" lon="9.58309"><ele>140.0</ele><time>2026-04-07T13:58:45.994Z</time></trkpt><trkpt lat="44.9527683" lon="9.5829933"><ele>140.0</ele><time>2026-04-07T13:58:46.999Z</time></trkpt><trkpt lat="44.9527767" lon="9.5828933"><ele>140.0</ele><time>2026-04-07T13:58:47.993Z</time></trkpt><trkpt lat="44.952785" lon="9.5827883"><ele>140.0</ele><time>2026-04-07T13:58:48.993Z</time></trkpt><trkpt lat="44.9527933" lon="9.5826817"><ele>140.0</ele><time>2026-04-07T13:58:49.989Z</time></trkpt><trkpt lat="44.9528017" lon="9.5825683"><ele>140.0</ele><time>2026-04-07T13:58:50.995Z</time></trkpt><trkpt lat="44.9528067" lon="9.5824517"><ele>139.83333333333331</ele><time>2026-04-07T13:58:51.993Z</time></trkpt><trkpt lat="44.9528117" lon="9.5823367"><ele>139.66666666666666</ele><time>2026-04-07T13:58:53.003Z</time></trkpt><trkpt lat="44.9528133" lon="9.5822167"><ele>139.5</ele><time>2026-04-07T13:58:53.997Z</time></trkpt><trkpt lat="44.952815" lon="9.5820933"><ele>139.33333333333334</ele><time>2026-04-07T13:58:54.985Z</time></trkpt><trkpt lat="44.9528217" lon="9.58197"><ele>139.16666666666669</ele><time>2026-04-07T13:58:55.993Z</time></trkpt><trkpt lat="44.952825" lon="9.58185"><ele>139.0</ele><time>2026-04-07T13:58:56.992Z</time></trkpt><trkpt lat="44.952825" lon="9.5817367"><ele>138.33333333333334</ele><time>2026-04-07T13:58:57.995Z</time></trkpt><trkpt lat="44.952825" lon="9.58162"><ele>137.66666666666669</ele><time>2026-04-07T13:58:58.991Z</time></trkpt><trkpt lat="44.9528283" lon="9.5815083"><ele>137.0</ele><time>2026-04-07T13:58:59.99Z</time></trkpt><trkpt lat="44.952835" lon="9.5814017"><ele>136.33333333333334</ele><time>2026-04-07T13:59:00.994Z</time></trkpt><trkpt lat="44.9528417" lon="9.581295"><ele>135.66666666666666</ele><time>2026-04-07T13:59:01.986Z</time></trkpt><trkpt lat="44.9528483" lon="9.5811933"><ele>135.0</ele><time>2026-04-07T13:59:03.001Z</time></trkpt><trkpt lat="44.9528533" lon="9.5810983"><ele>134.75</ele><time>2026-04-07T13:59:03.993Z</time></trkpt><trkpt lat="44.9528683" lon="9.5809267"><ele>134.5</ele><time>2026-04-07T13:59:05.998Z</time></trkpt><trkpt lat="44.952885" lon="9.5807683"><ele>134.25</ele><time>2026-04-07T13:59:07.989Z</time></trkpt><trkpt lat="44.9528983" lon="9.5806117"><ele>134.0</ele><time>2026-04-07T13:59:09.992Z</time></trkpt><trkpt lat="44.9529083" lon="9.5804567"><ele>135.0</ele><time>2026-04-07T13:59:11.992Z</time></trkpt><trkpt lat="44.9529217" lon="9.5803033"><ele>136.0</ele><time>2026-04-07T13:59:13.993Z</time></trkpt><trkpt lat="44.95294" lon="9.5801517"><ele>137.0</ele><time>2026-04-07T13:59:15.986Z</time></trkpt><trkpt lat="44.9529533" lon="9.5800033"><ele>138.0</ele><time>2026-04-07T13:59:17.992Z</time></trkpt><trkpt lat="44.9529733" lon="9.5798567"><ele>139.0</ele><time>2026-04-07T13:59:19.996Z</time></trkpt><trkpt lat="44.953" lon="9.5797083"><ele>139.0</ele><time>2026-04-07T13:59:21.994Z</time></trkpt><trkpt lat="44.953025" lon="9.5795533"><ele>139.0</ele><time>2026-04-07T13:59:23.988Z</time></trkpt><trkpt lat="44.9530517" lon="9.5793883"><ele>139.0</ele><time>2026-04-07T13:59:25.989Z</time></trkpt><trkpt lat="44.9530767" lon="9.5792217"><ele>139.0</ele><time>2026-04-07T13:59:27.989Z</time></trkpt><trkpt lat="44.9531017" lon="9.57906"><ele>139.0</ele><time>2026-04-07T13:59:29.988Z</time></trkpt><trkpt lat="44.953125" lon="9.5788983"><ele>139.0</ele><time>2026-04-07T13:59:31.994Z</time></trkpt><trkpt lat="44.9531317" lon="9.5787317"><ele>139.0</ele><time>2026-04-07T13:59:33.99Z</time></trkpt><trkpt lat="44.95315" lon="9.5785683"><ele>139.0</ele><time>2026-04-07T13:59:35.991Z</time></trkpt><trkpt lat="44.9531717" lon="9.5784217"><ele>139.0</ele><time>2026-04-07T13:59:37.99Z</time></trkpt><trkpt lat="44.9531417" lon="9.578305"><ele>139.0</ele><time>2026-04-07T13:59:39.991Z</time></trkpt><trkpt lat="44.9530483" lon="9.5782633"><ele>139.0</ele><time>2026-04-07T13:59:41.994Z</time></trkpt><trkpt lat="44.952935" lon="9.578255"><ele>139.0</ele><time>2026-04-07T13:59:43.993Z</time></trkpt><trkpt lat="44.95282" lon="9.578245"><ele>139.0</ele><time>2026-04-07T13:59:45.988Z</time></trkpt><trkpt lat="44.952705" lon="9.578235"><ele>139.0</ele><time>2026-04-07T13:59:47.993Z</time></trkpt><trkpt lat="44.95259" lon="9.57822"><ele>139.0</ele><time>2026-04-07T13:59:49.991Z</time></trkpt><trkpt lat="44.9524783" lon="9.5782067"><ele>139.0</ele><time>2026-04-07T13:59:51.99Z</time></trkpt><trkpt lat="44.952365" lon="9.5781983"><ele>139.0</ele><time>2026-04-07T13:59:53.996Z</time></trkpt><trkpt lat="44.9522517" lon="9.578185"><ele>139.75</ele><time>2026-04-07T13:59:55.99Z</time></trkpt><trkpt lat="44.9521383" lon="9.57817"><ele>140.5</ele><time>2026-04-07T13:59:57.99Z</time></trkpt><trkpt lat="44.9520233" lon="9.5781583"><ele>141.25</ele><time>2026-04-07T13:59:59.993Z</time></trkpt><trkpt lat="44.9519067" lon="9.5781667"><ele>142.0</ele><time>2026-04-07T14:00:01.993Z</time></trkpt><trkpt lat="44.951795" lon="9.5781883"><ele>143.0</ele><time>2026-04-07T14:00:03.997Z</time></trkpt><trkpt lat="44.9516883" lon="9.57823"><ele>144.0</ele><time>2026-04-07T14:00:05.994Z</time></trkpt><trkpt lat="44.951595" lon="9.5782717"><ele>145.0</ele><time>2026-04-07T14:00:07.995Z</time></trkpt><trkpt lat="44.9515067" lon="9.5783083"><ele>146.0</ele><time>2026-04-07T14:00:09.99Z</time></trkpt><trkpt lat="44.9514233" lon="9.5783483"><ele>147.0</ele><time>2026-04-07T14:00:11.993Z</time></trkpt><trkpt lat="44.9513367" lon="9.5784017"><ele>147.0</ele><time>2026-04-07T14:00:13.993Z</time></trkpt><trkpt lat="44.9512467" lon="9.5784533"><ele>147.0</ele><time>2026-04-07T14:00:15.992Z</time></trkpt><trkpt lat="44.9511567" lon="9.5785067"><ele>147.0</ele><time>2026-04-07T14:00:17.99Z</time></trkpt><trkpt lat="44.951065" lon="9.5785617"><ele>147.0</ele><time>2026-04-07T14:00:19.99Z</time></trkpt><trkpt lat="44.9509733" lon="9.5786117"><ele>147.0</ele><time>2026-04-07T14:00:21.992Z</time></trkpt><trkpt lat="44.9508783" lon="9.578665"><ele>147.6</ele><time>2026-04-07T14:00:23.989Z</time></trkpt><trkpt lat="44.9507867" lon="9.57872"><ele>148.2</ele><time>2026-04-07T14:00:25.986Z</time></trkpt><trkpt lat="44.9506933" lon="9.5787733"><ele>148.8</ele><time>2026-04-07T14:00:27.99Z</time></trkpt><trkpt lat="44.9505983" lon="9.57883"><ele>149.4</ele><time>2026-04-07T14:00:29.994Z</time></trkpt><trkpt lat="44.950505" lon="9.5788717"><ele>150.0</ele><time>2026-04-07T14:00:31.988Z</time></trkpt><trkpt lat="44.95041" lon="9.578915"><ele>150.0</ele><time>2026-04-07T14:00:33.994Z</time></trkpt><trkpt lat="44.95031" lon="9.57895"><ele>150.0</ele><time>2026-04-07T14:00:35.993Z</time></trkpt><trkpt lat="44.9502067" lon="9.578975"><ele>150.0</ele><time>2026-04-07T14:00:37.991Z</time></trkpt><trkpt lat="44.9500917" lon="9.5789883"><ele>150.0</ele><time>2026-04-07T14:00:39.994Z</time></trkpt><trkpt lat="44.9499717" lon="9.5789867"><ele>150.0</ele><time>2026-04-07T14:00:41.991Z</time></trkpt><trkpt lat="44.9498483" lon="9.5789817"><ele>150.42857142857142</ele><time>2026-04-07T14:00:43.992Z</time></trkpt><trkpt lat="44.9497833" lon="9.5789817"><ele>150.85714285714286</ele><time>2026-04-07T14:00:44.997Z</time></trkpt><trkpt lat="44.94972" lon="9.5789783"><ele>151.28571428571428</ele><time>2026-04-07T14:00:45.992Z</time></trkpt><trkpt lat="44.9496567" lon="9.5789767"><ele>151.71428571428572</ele><time>2026-04-07T14:00:46.995Z</time></trkpt><trkpt lat="44.94959" lon="9.5789783"><ele>152.14285714285714</ele><time>2026-04-07T14:00:47.995Z</time></trkpt><trkpt lat="44.949525" lon="9.5789783"><ele>152.57142857142856</ele><time>2026-04-07T14:00:48.992Z</time></trkpt><trkpt lat="44.9494" lon="9.578975"><ele>153.0</ele><time>2026-04-07T14:00:51Z</time></trkpt><trkpt lat="44.949335" lon="9.5789717"><ele>153.0</ele><time>2026-04-07T14:00:51.993Z</time></trkpt><trkpt lat="44.949215" lon="9.5789567"><ele>153.0</ele><time>2026-04-07T14:00:53.99Z</time></trkpt><trkpt lat="44.949095" lon="9.5789567"><ele>153.0</ele><time>2026-04-07T14:00:55.995Z</time></trkpt><trkpt lat="44.9490317" lon="9.5789617"><ele>153.0</ele><time>2026-04-07T14:00:56.991Z</time></trkpt><trkpt lat="44.9489083" lon="9.578955"><ele>153.0</ele><time>2026-04-07T14:00:58.993Z</time></trkpt><trkpt lat="44.9487833" lon="9.578955"><ele>153.16666666666666</ele><time>2026-04-07T14:01:00.997Z</time></trkpt><trkpt lat="44.9486567" lon="9.57896"><ele>153.33333333333334</ele><time>2026-04-07T14:01:03.004Z</time></trkpt><trkpt lat="44.9485933" lon="9.5789617"><ele>153.5</ele><time>2026-04-07T14:01:03.993Z</time></trkpt><trkpt lat="44.94853" lon="9.578965"><ele>153.66666666666669</ele><time>2026-04-07T14:01:04.997Z</time></trkpt><trkpt lat="44.9484667" lon="9.5789667"><ele>153.83333333333334</ele><time>2026-04-07T14:01:05.996Z</time></trkpt><trkpt lat="44.9483417" lon="9.5789617"><ele>154.0</ele><time>2026-04-07T14:01:07.989Z</time></trkpt><trkpt lat="44.9482167" lon="9.57894"><ele>154.0</ele><time>2026-04-07T14:01:09.994Z</time></trkpt><trkpt lat="44.9480933" lon="9.5789117"><ele>154.0</ele><time>2026-04-07T14:01:11.99Z</time></trkpt><trkpt lat="44.947975" lon="9.5788567"><ele>154.0</ele><time>2026-04-07T14:01:13.988Z</time></trkpt><trkpt lat="44.9478617" lon="9.5787833"><ele>154.0</ele><time>2026-04-07T14:01:15.992Z</time></trkpt><trkpt lat="44.94775" lon="9.5787067"><ele>154.5</ele><time>2026-04-07T14:01:17.992Z</time></trkpt><trkpt lat="44.9476433" lon="9.5786267"><ele>155.0</ele><time>2026-04-07T14:01:19.992Z</time></trkpt><trkpt lat="44.9475317" lon="9.5785533"><ele>155.5</ele><time>2026-04-07T14:01:21.99Z</time></trkpt><trkpt lat="44.9474183" lon="9.57848"><ele>156.0</ele><time>2026-04-07T14:01:23.992Z</time></trkpt><trkpt lat="44.9473067" lon="9.5784033"><ele>156.6</ele><time>2026-04-07T14:01:25.992Z</time></trkpt><trkpt lat="44.9472483" lon="9.5783683"><ele>157.2</ele><time>2026-04-07T14:01:26.997Z</time></trkpt><trkpt lat="44.9471367" lon="9.578295"><ele>157.8</ele><time>2026-04-07T14:01:28.991Z</time></trkpt><trkpt lat="44.9470217" lon="9.5782233"><ele>158.4</ele><time>2026-04-07T14:01:30.997Z</time></trkpt><trkpt lat="44.9469633" lon="9.57819"><ele>159.0</ele><time>2026-04-07T14:01:31.986Z</time></trkpt><trkpt lat="44.9468467" lon="9.5781333"><ele>159.0</ele><time>2026-04-07T14:01:33.994Z</time></trkpt><trkpt lat="44.9467317" lon="9.5780783"><ele>159.0</ele><time>2026-04-07T14:01:35.989Z</time></trkpt><trkpt lat="44.9466717" lon="9.57805"><ele>159.0</ele><time>2026-04-07T14:01:36.992Z</time></trkpt><trkpt lat="44.9466067" lon="9.5780217"><ele>159.0</ele><time>2026-04-07T14:01:37.994Z</time></trkpt><trkpt lat="44.9465433" lon="9.577995"><ele>159.0</ele><time>2026-04-07T14:01:38.99Z</time></trkpt><trkpt lat="44.9464817" lon="9.5779717"><ele>159.0</ele><time>2026-04-07T14:01:39.99Z</time></trkpt><trkpt lat="44.94642" lon="9.5779483"><ele>159.0</ele><time>2026-04-07T14:01:40.988Z</time></trkpt><trkpt lat="44.9463017" lon="9.5779033"><ele>159.33333333333334</ele><time>2026-04-07T14:01:42.995Z</time></trkpt><trkpt lat="44.9462383" lon="9.57788"><ele>159.66666666666666</ele><time>2026-04-07T14:01:43.989Z</time></trkpt><trkpt lat="44.9461767" lon="9.5778567"><ele>160.0</ele><time>2026-04-07T14:01:44.998Z</time></trkpt><trkpt lat="44.946115" lon="9.5778367"><ele>160.33333333333331</ele><time>2026-04-07T14:01:45.99Z</time></trkpt><trkpt lat="44.9460033" lon="9.5777883"><ele>160.66666666666666</ele><time>2026-04-07T14:01:47.99Z</time></trkpt><trkpt lat="44.945885" lon="9.5777383"><ele>161.0</ele><time>2026-04-07T14:01:49.991Z</time></trkpt><trkpt lat="44.9457633" lon="9.5776933"><ele>162.4</ele><time>2026-04-07T14:01:51.991Z</time></trkpt><trkpt lat="44.9457017" lon="9.57767"><ele>163.8</ele><time>2026-04-07T14:01:52.998Z</time></trkpt><trkpt lat="44.9455817" lon="9.5776217"><ele>165.20000000000002</ele><time>2026-04-07T14:01:54.991Z</time></trkpt><trkpt lat="44.9454617" lon="9.5775717"><ele>166.60000000000002</ele><time>2026-04-07T14:01:56.994Z</time></trkpt><trkpt lat="44.9453483" lon="9.57752"><ele>168.0</ele><time>2026-04-07T14:01:58.992Z</time></trkpt><trkpt lat="44.9452283" lon="9.5774783"><ele>168.0</ele><time>2026-04-07T14:02:01.001Z</time></trkpt><trkpt lat="44.9451083" lon="9.577435"><ele>168.0</ele><time>2026-04-07T14:02:02.994Z</time></trkpt><trkpt lat="44.9449867" lon="9.5773917"><ele>168.0</ele><time>2026-04-07T14:02:04.995Z</time></trkpt><trkpt lat="44.944925" lon="9.5773683"><ele>168.0</ele><time>2026-04-07T14:02:05.996Z</time></trkpt><trkpt lat="44.9448017" lon="9.5773333"><ele>168.0</ele><time>2026-04-07T14:02:07.993Z</time></trkpt><trkpt lat="44.9447383" lon="9.5773167"><ele>168.5</ele><time>2026-04-07T14:02:08.998Z</time></trkpt><trkpt lat="44.9446767" lon="9.5772983"><ele>169.0</ele><time>2026-04-07T14:02:09.995Z</time></trkpt><trkpt lat="44.9446133" lon="9.57728"><ele>169.5</ele><time>2026-04-07T14:02:11.003Z</time></trkpt><trkpt lat="44.9444883" lon="9.5772417"><ele>170.0</ele><time>2026-04-07T14:02:12.992Z</time></trkpt><trkpt lat="44.944425" lon="9.5772233"><ele>170.5</ele><time>2026-04-07T14:02:13.99Z</time></trkpt><trkpt lat="44.9443033" lon="9.5771833"><ele>171.0</ele><time>2026-04-07T14:02:15.987Z</time></trkpt><trkpt lat="44.9441817" lon="9.5771483"><ele>171.0</ele><time>2026-04-07T14:02:17.989Z</time></trkpt><trkpt lat="44.9440583" lon="9.577115"><ele>171.0</ele><time>2026-04-07T14:02:19.99Z</time></trkpt><trkpt lat="44.9439383" lon="9.5770717"><ele>171.0</ele><time>2026-04-07T14:02:21.989Z</time></trkpt><trkpt lat="44.9438767" lon="9.57705"><ele>171.0</ele><time>2026-04-07T14:02:22.99Z</time></trkpt><trkpt lat="44.9437533" lon="9.577015"><ele>171.0</ele><time>2026-04-07T14:02:24.992Z</time></trkpt><trkpt lat="44.94363" lon="9.57698"><ele>171.0</ele><time>2026-04-07T14:02:26.993Z</time></trkpt><trkpt lat="44.9435067" lon="9.5769417"><ele>171.0</ele><time>2026-04-07T14:02:28.993Z</time></trkpt><trkpt lat="44.943445" lon="9.5769217"><ele>171.0</ele><time>2026-04-07T14:02:29.988Z</time></trkpt><trkpt lat="44.9433233" lon="9.5768833"><ele>171.0</ele><time>2026-04-07T14:02:31.99Z</time></trkpt><trkpt lat="44.943205" lon="9.5768483"><ele>171.0</ele><time>2026-04-07T14:02:33.997Z</time></trkpt><trkpt lat="44.94309" lon="9.5768167"><ele>171.60000000000002</ele><time>2026-04-07T14:02:35.991Z</time></trkpt><trkpt lat="44.9429683" lon="9.5767833"><ele>172.2</ele><time>2026-04-07T14:02:37.991Z</time></trkpt><trkpt lat="44.9429067" lon="9.5767633"><ele>172.8</ele><time>2026-04-07T14:02:38.997Z</time></trkpt><trkpt lat="44.9427883" lon="9.5767167"><ele>173.39999999999998</ele><time>2026-04-07T14:02:40.987Z</time></trkpt><trkpt lat="44.9426683" lon="9.5766667"><ele>174.0</ele><time>2026-04-07T14:02:42.993Z</time></trkpt><trkpt lat="44.9426067" lon="9.576645"><ele>174.2</ele><time>2026-04-07T14:02:43.988Z</time></trkpt><trkpt lat="44.942545" lon="9.576625"><ele>174.39999999999998</ele><time>2026-04-07T14:02:45.002Z</time></trkpt><trkpt lat="44.9424267" lon="9.576585"><ele>174.6</ele><time>2026-04-07T14:02:46.992Z</time></trkpt><trkpt lat="44.942315" lon="9.57654"><ele>174.8</ele><time>2026-04-07T14:02:48.993Z</time></trkpt><trkpt lat="44.9421983" lon="9.5764883"><ele>175.0</ele><time>2026-04-07T14:02:51.001Z</time></trkpt><trkpt lat="44.94208" lon="9.5764367"><ele>175.0</ele><time>2026-04-07T14:02:52.992Z</time></trkpt><trkpt lat="44.9420183" lon="9.5764183"><ele>175.0</ele><time>2026-04-07T14:02:53.99Z</time></trkpt><trkpt lat="44.941955" lon="9.5764"><ele>175.0</ele><time>2026-04-07T14:02:54.991Z</time></trkpt><trkpt lat="44.9418333" lon="9.576355"><ele>175.0</ele><time>2026-04-07T14:02:56.992Z</time></trkpt><trkpt lat="44.9417717" lon="9.57633"><ele>175.0</ele><time>2026-04-07T14:02:57.992Z</time></trkpt><trkpt lat="44.9417083" lon="9.5763117"><ele>175.0</ele><time>2026-04-07T14:02:58.997Z</time></trkpt><trkpt lat="44.941645" lon="9.5762983"><ele>175.0</ele><time>2026-04-07T14:02:59.989Z</time></trkpt><trkpt lat="44.9415817" lon="9.5762883"><ele>175.4</ele><time>2026-04-07T14:03:01.001Z</time></trkpt><trkpt lat="44.9414567" lon="9.5762883"><ele>175.8</ele><time>2026-04-07T14:03:02.994Z</time></trkpt><trkpt lat="44.9413933" lon="9.5762967"><ele>176.2</ele><time>2026-04-07T14:03:03.991Z</time></trkpt><trkpt lat="44.94133" lon="9.5763017"><ele>176.6</ele><time>2026-04-07T14:03:04.996Z</time></trkpt><trkpt lat="44.9412083" lon="9.5763117"><ele>177.0</ele><time>2026-04-07T14:03:06.996Z</time></trkpt><trkpt lat="44.9410933" lon="9.5763167"><ele>177.0</ele><time>2026-04-07T14:03:08.992Z</time></trkpt><trkpt lat="44.9409767" lon="9.57634"><ele>177.0</ele><time>2026-04-07T14:03:10.999Z</time></trkpt><trkpt lat="44.9409133" lon="9.5763483"><ele>177.0</ele><time>2026-04-07T14:03:11.988Z</time></trkpt><trkpt lat="44.9407883" lon="9.576375"><ele>177.0</ele><time>2026-04-07T14:03:13.989Z</time></trkpt><trkpt lat="44.9407233" lon="9.5763867"><ele>177.0</ele><time>2026-04-07T14:03:14.992Z</time></trkpt><trkpt lat="44.94066" lon="9.5763983"><ele>177.0</ele><time>2026-04-07T14:03:15.988Z</time></trkpt><trkpt lat="44.9405383" lon="9.5764083"><ele>177.2</ele><time>2026-04-07T14:03:17.986Z</time></trkpt><trkpt lat="44.9404167" lon="9.5764233"><ele>177.39999999999998</ele><time>2026-04-07T14:03:19.993Z</time></trkpt><trkpt lat="44.940295" lon="9.57644"><ele>177.60000000000002</ele><time>2026-04-07T14:03:21.99Z</time></trkpt><trkpt lat="44.9401717" lon="9.57646"><ele>177.8</ele><time>2026-04-07T14:03:23.994Z</time></trkpt><trkpt lat="44.9401083" lon="9.57647"><ele>178.0</ele><time>2026-04-07T14:03:24.994Z</time></trkpt><trkpt lat="44.940045" lon="9.576485"><ele>178.42857142857142</ele><time>2026-04-07T14:03:25.99Z</time></trkpt><trkpt lat="44.9399817" lon="9.5764983"><ele>178.85714285714286</ele><time>2026-04-07T14:03:26.992Z</time></trkpt><trkpt lat="44.9399183" lon="9.5765133"><ele>179.28571428571428</ele><time>2026-04-07T14:03:27.989Z</time></trkpt><trkpt lat="44.939855" lon="9.5765267"><ele>179.71428571428572</ele><time>2026-04-07T14:03:28.992Z</time></trkpt><trkpt lat="44.93979" lon="9.5765383"><ele>180.14285714285714</ele><time>2026-04-07T14:03:29.996Z</time></trkpt><trkpt lat="44.9397267" lon="9.5765533"><ele>180.57142857142856</ele><time>2026-04-07T14:03:30.992Z</time></trkpt><trkpt lat="44.9396033" lon="9.576575"><ele>181.0</ele><time>2026-04-07T14:03:32.997Z</time></trkpt><trkpt lat="44.9394817" lon="9.5765933"><ele>181.0</ele><time>2026-04-07T14:03:34.997Z</time></trkpt><trkpt lat="44.9393583" lon="9.5766117"><ele>181.0</ele><time>2026-04-07T14:03:36.998Z</time></trkpt><trkpt lat="44.939235" lon="9.5766283"><ele>181.0</ele><time>2026-04-07T14:03:38.993Z</time></trkpt><trkpt lat="44.9391717" lon="9.57664"><ele>181.0</ele><time>2026-04-07T14:03:39.998Z</time></trkpt><trkpt lat="44.93905" lon="9.5766617"><ele>181.0</ele><time>2026-04-07T14:03:41.991Z</time></trkpt><trkpt lat="44.9389267" lon="9.5766867"><ele>181.75</ele><time>2026-04-07T14:03:43.989Z</time></trkpt><trkpt lat="44.9388033" lon="9.57671"><ele>182.5</ele><time>2026-04-07T14:03:45.994Z</time></trkpt><trkpt lat="44.9386867" lon="9.5767267"><ele>183.25</ele><time>2026-04-07T14:03:47.99Z</time></trkpt><trkpt lat="44.9385683" lon="9.57675"><ele>184.0</ele><time>2026-04-07T14:03:49.991Z</time></trkpt><trkpt lat="44.938445" lon="9.576765"><ele>184.79999999999998</ele><time>2026-04-07T14:03:51.994Z</time></trkpt><trkpt lat="44.9383217" lon="9.5767583"><ele>185.6</ele><time>2026-04-07T14:03:53.993Z</time></trkpt><trkpt lat="44.9381983" lon="9.5767267"><ele>186.4</ele><time>2026-04-07T14:03:55.991Z</time></trkpt><trkpt lat="44.938135" lon="9.576705"><ele>187.2</ele><time>2026-04-07T14:03:56.995Z</time></trkpt><trkpt lat="44.9380733" lon="9.576685"><ele>188.0</ele><time>2026-04-07T14:03:57.989Z</time></trkpt><trkpt lat="44.9379533" lon="9.5766333"><ele>188.0</ele><time>2026-04-07T14:03:59.991Z</time></trkpt><trkpt lat="44.9378317" lon="9.576585"><ele>188.0</ele><time>2026-04-07T14:04:01.991Z</time></trkpt><trkpt lat="44.93777" lon="9.5765617"><ele>188.0</ele><time>2026-04-07T14:04:02.998Z</time></trkpt><trkpt lat="44.9377083" lon="9.5765383"><ele>188.0</ele><time>2026-04-07T14:04:03.989Z</time></trkpt><trkpt lat="44.9376467" lon="9.5765167"><ele>188.0</ele><time>2026-04-07T14:04:04.993Z</time></trkpt><trkpt lat="44.9375267" lon="9.5764683"><ele>188.0</ele><time>2026-04-07T14:04:06.995Z</time></trkpt><trkpt lat="44.937465" lon="9.5764433"><ele>188.4</ele><time>2026-04-07T14:04:07.995Z</time></trkpt><trkpt lat="44.9373433" lon="9.5764"><ele>188.8</ele><time>2026-04-07T14:04:09.994Z</time></trkpt><trkpt lat="44.9372817" lon="9.5763767"><ele>189.2</ele><time>2026-04-07T14:04:10.99Z</time></trkpt><trkpt lat="44.9371583" lon="9.576335"><ele>189.6</ele><time>2026-04-07T14:04:12.991Z</time></trkpt><trkpt lat="44.9370433" lon="9.5763033"><ele>190.0</ele><time>2026-04-07T14:04:15.003Z</time></trkpt><trkpt lat="44.9369283" lon="9.576275"><ele>190.0</ele><time>2026-04-07T14:04:16.992Z</time></trkpt><trkpt lat="44.936865" lon="9.5762633"><ele>190.0</ele><time>2026-04-07T14:04:17.994Z</time></trkpt><trkpt lat="44.9368" lon="9.576255"><ele>190.0</ele><time>2026-04-07T14:04:18.997Z</time></trkpt><trkpt lat="44.9367367" lon="9.57625"><ele>190.0</ele><time>2026-04-07T14:04:19.995Z</time></trkpt><trkpt lat="44.9366117" lon="9.5762383"><ele>190.0</ele><time>2026-04-07T14:04:21.99Z</time></trkpt><trkpt lat="44.93649" lon="9.5762167"><ele>190.0</ele><time>2026-04-07T14:04:23.997Z</time></trkpt><trkpt lat="44.936365" lon="9.5761933"><ele>190.0</ele><time>2026-04-07T14:04:25.995Z</time></trkpt><trkpt lat="44.9363" lon="9.576185"><ele>190.0</ele><time>2026-04-07T14:04:26.996Z</time></trkpt><trkpt lat="44.9362367" lon="9.576175"><ele>190.0</ele><time>2026-04-07T14:04:27.992Z</time></trkpt><trkpt lat="44.9361717" lon="9.576175"><ele>190.0</ele><time>2026-04-07T14:04:28.994Z</time></trkpt><trkpt lat="44.9361067" lon="9.5761717"><ele>190.0</ele><time>2026-04-07T14:04:29.993Z</time></trkpt><trkpt lat="44.9360417" lon="9.57617"><ele>190.0</ele><time>2026-04-07T14:04:30.99Z</time></trkpt><trkpt lat="44.9359783" lon="9.576165"><ele>190.0</ele><time>2026-04-07T14:04:31.991Z</time></trkpt><trkpt lat="44.9358533" lon="9.5761533"><ele>190.8</ele><time>2026-04-07T14:04:33.997Z</time></trkpt><trkpt lat="44.93579" lon="9.5761467"><ele>191.6</ele><time>2026-04-07T14:04:34.989Z</time></trkpt><trkpt lat="44.935665" lon="9.5761367"><ele>192.39999999999998</ele><time>2026-04-07T14:04:36.996Z</time></trkpt><trkpt lat="44.9356017" lon="9.57613"><ele>193.2</ele><time>2026-04-07T14:04:37.991Z</time></trkpt><trkpt lat="44.9354783" lon="9.576105"><ele>194.0</ele><time>2026-04-07T14:04:39.991Z</time></trkpt><trkpt lat="44.935355" lon="9.5760833"><ele>194.0</ele><time>2026-04-07T14:04:41.99Z</time></trkpt><trkpt lat="44.9352317" lon="9.5760583"><ele>194.0</ele><time>2026-04-07T14:04:43.99Z</time></trkpt><trkpt lat="44.9351083" lon="9.5760367"><ele>194.0</ele><time>2026-04-07T14:04:45.994Z</time></trkpt><trkpt lat="44.9349833" lon="9.576025"><ele>194.0</ele><time>2026-04-07T14:04:47.989Z</time></trkpt><trkpt lat="44.93492" lon="9.5760167"><ele>194.0</ele><time>2026-04-07T14:04:48.989Z</time></trkpt><trkpt lat="44.9348567" lon="9.57601"><ele>194.125</ele><time>2026-04-07T14:04:49.998Z</time></trkpt><trkpt lat="44.9347917" lon="9.576005"><ele>194.25</ele><time>2026-04-07T14:04:50.999Z</time></trkpt><trkpt lat="44.9347283" lon="9.5759983"><ele>194.375</ele><time>2026-04-07T14:04:51.989Z</time></trkpt><trkpt lat="44.934665" lon="9.575995"><ele>194.5</ele><time>2026-04-07T14:04:52.999Z</time></trkpt><trkpt lat="44.9346017" lon="9.5759917"><ele>194.625</ele><time>2026-04-07T14:04:53.991Z</time></trkpt><trkpt lat="44.9345367" lon="9.5759883"><ele>194.75</ele><time>2026-04-07T14:04:54.998Z</time></trkpt><trkpt lat="44.9344733" lon="9.575985"><ele>194.875</ele><time>2026-04-07T14:04:55.991Z</time></trkpt><trkpt lat="44.93441" lon="9.5759767"><ele>195.0</ele><time>2026-04-07T14:04:56.993Z</time></trkpt><trkpt lat="44.93429" lon="9.5759567"><ele>195.5</ele><time>2026-04-07T14:04:58.993Z</time></trkpt><trkpt lat="44.93417" lon="9.5759283"><ele>196.0</ele><time>2026-04-07T14:05:00.993Z</time></trkpt><trkpt lat="44.93405" lon="9.575905"><ele>196.5</ele><time>2026-04-07T14:05:02.992Z</time></trkpt><trkpt lat="44.9339283" lon="9.5758733"><ele>197.0</ele><time>2026-04-07T14:05:04.988Z</time></trkpt><trkpt lat="44.9338067" lon="9.5758483"><ele>197.0</ele><time>2026-04-07T14:05:06.992Z</time></trkpt><trkpt lat="44.9336833" lon="9.575825"><ele>197.0</ele><time>2026-04-07T14:05:08.989Z</time></trkpt><trkpt lat="44.9335583" lon="9.57581"><ele>197.0</ele><time>2026-04-07T14:05:11Z</time></trkpt><trkpt lat="44.9334333" lon="9.5757917"><ele>197.0</ele><time>2026-04-07T14:05:13.007Z</time></trkpt><trkpt lat="44.9333117" lon="9.5757667"><ele>197.2</ele><time>2026-04-07T14:05:14.996Z</time></trkpt><trkpt lat="44.9331917" lon="9.57574"><ele>197.39999999999998</ele><time>2026-04-07T14:05:16.995Z</time></trkpt><trkpt lat="44.9330733" lon="9.5757117"><ele>197.60000000000002</ele><time>2026-04-07T14:05:18.995Z</time></trkpt><trkpt lat="44.9329517" lon="9.5756867"><ele>197.8</ele><time>2026-04-07T14:05:20.996Z</time></trkpt><trkpt lat="44.9328883" lon="9.575675"><ele>198.0</ele><time>2026-04-07T14:05:21.996Z</time></trkpt><trkpt lat="44.9327667" lon="9.5756517"><ele>198.0</ele><time>2026-04-07T14:05:23.996Z</time></trkpt><trkpt lat="44.9326467" lon="9.575625"><ele>198.0</ele><time>2026-04-07T14:05:25.991Z</time></trkpt><trkpt lat="44.932525" lon="9.575605"><ele>198.0</ele><time>2026-04-07T14:05:27.996Z</time></trkpt><trkpt lat="44.9324017" lon="9.5755833"><ele>198.0</ele><time>2026-04-07T14:05:29.987Z</time></trkpt><trkpt lat="44.93228" lon="9.5755583"><ele>198.75</ele><time>2026-04-07T14:05:31.99Z</time></trkpt><trkpt lat="44.9321567" lon="9.5755333"><ele>199.5</ele><time>2026-04-07T14:05:33.99Z</time></trkpt><trkpt lat="44.9320333" lon="9.5755117"><ele>200.25</ele><time>2026-04-07T14:05:35.994Z</time></trkpt><trkpt lat="44.93191" lon="9.5754867"><ele>201.0</ele><time>2026-04-07T14:05:37.991Z</time></trkpt><trkpt lat="44.9317883" lon="9.5754617"><ele>201.4</ele><time>2026-04-07T14:05:39.992Z</time></trkpt><trkpt lat="44.9316667" lon="9.5754383"><ele>201.8</ele><time>2026-04-07T14:05:41.991Z</time></trkpt><trkpt lat="44.9315467" lon="9.575405"><ele>202.20000000000002</ele><time>2026-04-07T14:05:43.994Z</time></trkpt><trkpt lat="44.9314233" lon="9.57538"><ele>202.60000000000002</ele><time>2026-04-07T14:05:45.99Z</time></trkpt><trkpt lat="44.93136" lon="9.5753667"><ele>203.0</ele><time>2026-04-07T14:05:46.993Z</time></trkpt><trkpt lat="44.9312383" lon="9.5753433"><ele>203.25</ele><time>2026-04-07T14:05:48.994Z</time></trkpt><trkpt lat="44.9311183" lon="9.5753217"><ele>203.5</ele><time>2026-04-07T14:05:50.995Z</time></trkpt><trkpt lat="44.9309983" lon="9.5752983"><ele>203.75</ele><time>2026-04-07T14:05:53.004Z</time></trkpt><trkpt lat="44.9308833" lon="9.57527"><ele>204.0</ele><time>2026-04-07T14:05:54.989Z</time></trkpt><trkpt lat="44.930765" lon="9.5752367"><ele>204.75</ele><time>2026-04-07T14:05:56.992Z</time></trkpt><trkpt lat="44.9306483" lon="9.5752033"><ele>205.5</ele><time>2026-04-07T14:05:58.991Z</time></trkpt><trkpt lat="44.9305383" lon="9.575165"><ele>206.25</ele><time>2026-04-07T14:06:00.99Z</time></trkpt><trkpt lat="44.9304283" lon="9.5751217"><ele>207.0</ele><time>2026-04-07T14:06:02.992Z</time></trkpt><trkpt lat="44.9303183" lon="9.575065"><ele>207.0</ele><time>2026-04-07T14:06:04.994Z</time></trkpt><trkpt lat="44.9302117" lon="9.575"><ele>207.0</ele><time>2026-04-07T14:06:07.002Z</time></trkpt><trkpt lat="44.9301067" lon="9.57494"><ele>207.0</ele><time>2026-04-07T14:06:08.995Z</time></trkpt><trkpt lat="44.9300017" lon="9.5748833"><ele>207.0</ele><time>2026-04-07T14:06:10.99Z</time></trkpt><trkpt lat="44.9299" lon="9.57482"><ele>207.75</ele><time>2026-04-07T14:06:12.989Z</time></trkpt><trkpt lat="44.929795" lon="9.57476"><ele>208.5</ele><time>2026-04-07T14:06:15.004Z</time></trkpt><trkpt lat="44.9296883" lon="9.5746983"><ele>209.25</ele><time>2026-04-07T14:06:16.992Z</time></trkpt><trkpt lat="44.92958" lon="9.5746417"><ele>210.0</ele><time>2026-04-07T14:06:18.995Z</time></trkpt><trkpt lat="44.9294767" lon="9.5745817"><ele>210.0</ele><time>2026-04-07T14:06:20.994Z</time></trkpt><trkpt lat="44.9293733" lon="9.574525"><ele>210.0</ele><time>2026-04-07T14:06:22.988Z</time></trkpt><trkpt lat="44.9292667" lon="9.5744717"><ele>210.0</ele><time>2026-04-07T14:06:24.987Z</time></trkpt><trkpt lat="44.9291633" lon="9.5744083"><ele>210.0</ele><time>2026-04-07T14:06:26.999Z</time></trkpt><trkpt lat="44.9290567" lon="9.5743417"><ele>210.6</ele><time>2026-04-07T14:06:28.997Z</time></trkpt><trkpt lat="44.92895" lon="9.5742817"><ele>211.2</ele><time>2026-04-07T14:06:30.996Z</time></trkpt><trkpt lat="44.9288417" lon="9.5742267"><ele>211.8</ele><time>2026-04-07T14:06:32.998Z</time></trkpt><trkpt lat="44.928745" lon="9.574165"><ele>212.4</ele><time>2026-04-07T14:06:34.998Z</time></trkpt><trkpt lat="44.9286567" lon="9.5741183"><ele>213.0</ele><time>2026-04-07T14:06:36.991Z</time></trkpt><trkpt lat="44.9285583" lon="9.5740633"><ele>213.0</ele><time>2026-04-07T14:06:38.996Z</time></trkpt><trkpt lat="44.928455" lon="9.5740033"><ele>213.0</ele><time>2026-04-07T14:06:40.993Z</time></trkpt><trkpt lat="44.9283483" lon="9.573945"><ele>213.0</ele><time>2026-04-07T14:06:42.994Z</time></trkpt><trkpt lat="44.92824" lon="9.5738867"><ele>213.0</ele><time>2026-04-07T14:06:44.991Z</time></trkpt><trkpt lat="44.928135" lon="9.5738283"><ele>213.2</ele><time>2026-04-07T14:06:47Z</time></trkpt><trkpt lat="44.9280317" lon="9.57377"><ele>213.4</ele><time>2026-04-07T14:06:48.992Z</time></trkpt><trkpt lat="44.9279317" lon="9.57371"><ele>213.59999999999997</ele><time>2026-04-07T14:06:50.992Z</time></trkpt><trkpt lat="44.9278383" lon="9.5736417"><ele>213.79999999999998</ele><time>2026-04-07T14:06:52.997Z</time></trkpt><trkpt lat="44.9277617" lon="9.5735267"><ele>214.0</ele><time>2026-04-07T14:06:54.99Z</time></trkpt><trkpt lat="44.9277383" lon="9.5733683"><ele>214.0</ele><time>2026-04-07T14:06:56.993Z</time></trkpt><trkpt lat="44.9277667" lon="9.5732067"><ele>214.0</ele><time>2026-04-07T14:06:58.992Z</time></trkpt><trkpt lat="44.9277933" lon="9.5730433"><ele>214.0</ele><time>2026-04-07T14:07:00.991Z</time></trkpt><trkpt lat="44.9278167" lon="9.572875"><ele>214.0</ele><time>2026-04-07T14:07:02.992Z</time></trkpt><trkpt lat="44.9278367" lon="9.572705"><ele>214.5</ele><time>2026-04-07T14:07:04.991Z</time></trkpt><trkpt lat="44.927855" lon="9.5725317"><ele>215.0</ele><time>2026-04-07T14:07:07Z</time></trkpt><trkpt lat="44.9278783" lon="9.57236"><ele>215.5</ele><time>2026-04-07T14:07:08.989Z</time></trkpt><trkpt lat="44.927895" lon="9.5721917"><ele>216.0</ele><time>2026-04-07T14:07:10.991Z</time></trkpt><trkpt lat="44.9279117" lon="9.57203"><ele>216.4</ele><time>2026-04-07T14:07:12.99Z</time></trkpt><trkpt lat="44.9279267" lon="9.5718717"><ele>216.8</ele><time>2026-04-07T14:07:14.988Z</time></trkpt><trkpt lat="44.9279417" lon="9.571715"><ele>217.20000000000002</ele><time>2026-04-07T14:07:16.994Z</time></trkpt><trkpt lat="44.9279583" lon="9.57156"><ele>217.60000000000002</ele><time>2026-04-07T14:07:18.992Z</time></trkpt><trkpt lat="44.9279733" lon="9.571405"><ele>218.0</ele><time>2026-04-07T14:07:20.993Z</time></trkpt><trkpt lat="44.9279683" lon="9.5712433"><ele>218.0</ele><time>2026-04-07T14:07:22.995Z</time></trkpt><trkpt lat="44.9279367" lon="9.571085"><ele>218.0</ele><time>2026-04-07T14:07:24.994Z</time></trkpt><trkpt lat="44.927875" lon="9.5709617"><ele>218.0</ele><time>2026-04-07T14:07:26.998Z</time></trkpt><trkpt lat="44.927785" lon="9.570855"><ele>218.0</ele><time>2026-04-07T14:07:28.997Z</time></trkpt><trkpt lat="44.9276883" lon="9.5707383"><ele>218.00000000000003</ele><time>2026-04-07T14:07:30.993Z</time></trkpt><trkpt lat="44.9276417" lon="9.570675"><ele>218.0</ele><time>2026-04-07T14:07:31.991Z</time></trkpt><trkpt lat="44.9275983" lon="9.5706083"><ele>218.0</ele><time>2026-04-07T14:07:32.99Z</time></trkpt><trkpt lat="44.9275567" lon="9.57054"><ele>218.0</ele><time>2026-04-07T14:07:33.998Z</time></trkpt><trkpt lat="44.9274733" lon="9.57042"><ele>218.00000000000003</ele><time>2026-04-07T14:07:35.991Z</time></trkpt><trkpt lat="44.9274" lon="9.5702883"><ele>218.0</ele><time>2026-04-07T14:07:37.99Z</time></trkpt><trkpt lat="44.9273317" lon="9.57015"><ele>218.75</ele><time>2026-04-07T14:07:39.99Z</time></trkpt><trkpt lat="44.92726" lon="9.57001"><ele>219.5</ele><time>2026-04-07T14:07:41.989Z</time></trkpt><trkpt lat="44.9271867" lon="9.5698783"><ele>220.25</ele><time>2026-04-07T14:07:43.992Z</time></trkpt><trkpt lat="44.9271233" lon="9.5697483"><ele>221.0</ele><time>2026-04-07T14:07:45.995Z</time></trkpt><trkpt lat="44.9270583" lon="9.5696333"><ele>221.20000000000002</ele><time>2026-04-07T14:07:47.99Z</time></trkpt><trkpt lat="44.9269883" lon="9.569515"><ele>221.40000000000003</ele><time>2026-04-07T14:07:49.991Z</time></trkpt><trkpt lat="44.9269133" lon="9.569395"><ele>221.6</ele><time>2026-04-07T14:07:51.996Z</time></trkpt><trkpt lat="44.92685" lon="9.569275"><ele>221.8</ele><time>2026-04-07T14:07:53.991Z</time></trkpt><trkpt lat="44.9267817" lon="9.5691517"><ele>222.0</ele><time>2026-04-07T14:07:55.989Z</time></trkpt><trkpt lat="44.9267283" lon="9.5690117"><ele>222.2</ele><time>2026-04-07T14:07:57.994Z</time></trkpt><trkpt lat="44.9267017" lon="9.56886"><ele>222.39999999999998</ele><time>2026-04-07T14:07:59.993Z</time></trkpt><trkpt lat="44.92668" lon="9.5687017"><ele>222.60000000000002</ele><time>2026-04-07T14:08:01.99Z</time></trkpt><trkpt lat="44.9266783" lon="9.5685483"><ele>222.8</ele><time>2026-04-07T14:08:03.988Z</time></trkpt><trkpt lat="44.926675" lon="9.56839"><ele>223.0</ele><time>2026-04-07T14:08:05.99Z</time></trkpt><trkpt lat="44.9266667" lon="9.568235"><ele>223.0</ele><time>2026-04-07T14:08:07.998Z</time></trkpt><trkpt lat="44.926665" lon="9.568075"><ele>223.0</ele><time>2026-04-07T14:08:09.995Z</time></trkpt><trkpt lat="44.926665" lon="9.5679117"><ele>223.0</ele><time>2026-04-07T14:08:11.987Z</time></trkpt><trkpt lat="44.92666" lon="9.5677567"><ele>223.0</ele><time>2026-04-07T14:08:13.989Z</time></trkpt><trkpt lat="44.9266583" lon="9.5676017"><ele>223.0</ele><time>2026-04-07T14:08:15.987Z</time></trkpt><trkpt lat="44.926655" lon="9.5674567"><ele>223.60000000000002</ele><time>2026-04-07T14:08:17.988Z</time></trkpt><trkpt lat="44.9266483" lon="9.5673117"><ele>224.20000000000002</ele><time>2026-04-07T14:08:19.99Z</time></trkpt><trkpt lat="44.92664" lon="9.5671667"><ele>224.8</ele><time>2026-04-07T14:08:21.988Z</time></trkpt><trkpt lat="44.926635" lon="9.5670167"><ele>225.4</ele><time>2026-04-07T14:08:23.991Z</time></trkpt><trkpt lat="44.9266267" lon="9.5668633"><ele>226.0</ele><time>2026-04-07T14:08:25.986Z</time></trkpt><trkpt lat="44.9266217" lon="9.5667117"><ele>226.49999999999997</ele><time>2026-04-07T14:08:27.988Z</time></trkpt><trkpt lat="44.9266167" lon="9.5665733"><ele>227.0</ele><time>2026-04-07T14:08:29.991Z</time></trkpt><trkpt lat="44.9266133" lon="9.5664483"><ele>227.5</ele><time>2026-04-07T14:08:31.994Z</time></trkpt><trkpt lat="44.926605" lon="9.5663517"><ele>228.0</ele><time>2026-04-07T14:08:33.991Z</time></trkpt><trkpt lat="44.9265833" lon="9.566255"><ele>228.49999999999997</ele><time>2026-04-07T14:08:36.992Z</time></trkpt><trkpt lat="44.92651" lon="9.566305"><ele>229.0</ele><time>2026-04-07T14:08:39.993Z</time></trkpt><trkpt lat="44.9264233" lon="9.56639"><ele>229.0</ele><time>2026-04-07T14:08:41.991Z</time></trkpt><trkpt lat="44.9263283" lon="9.5664433"><ele>228.99999999999997</ele><time>2026-04-07T14:08:43.991Z</time></trkpt><trkpt lat="44.9262283" lon="9.56648"><ele>228.99999999999997</ele><time>2026-04-07T14:08:45.989Z</time></trkpt><trkpt lat="44.9261167" lon="9.5665133"><ele>229.0</ele><time>2026-04-07T14:08:47.989Z</time></trkpt><trkpt lat="44.9260083" lon="9.5665533"><ele>229.0</ele><time>2026-04-07T14:08:49.986Z</time></trkpt><trkpt lat="44.9258967" lon="9.5665917"><ele>229.75</ele><time>2026-04-07T14:08:51.99Z</time></trkpt><trkpt lat="44.9257867" lon="9.5666233"><ele>230.5</ele><time>2026-04-07T14:08:53.991Z</time></trkpt><trkpt lat="44.9256717" lon="9.5666583"><ele>231.25</ele><time>2026-04-07T14:08:55.987Z</time></trkpt><trkpt lat="44.9255583" lon="9.5666867"><ele>232.0</ele><time>2026-04-07T14:08:57.988Z</time></trkpt><trkpt lat="44.9254467" lon="9.56672"><ele>232.0</ele><time>2026-04-07T14:08:59.988Z</time></trkpt><trkpt lat="44.9253333" lon="9.5667583"><ele>232.0</ele><time>2026-04-07T14:09:01.991Z</time></trkpt><trkpt lat="44.9252183" lon="9.5667833"><ele>232.0</ele><time>2026-04-07T14:09:03.997Z</time></trkpt><trkpt lat="44.9251067" lon="9.5668217"><ele>232.0</ele><time>2026-04-07T14:09:05.991Z</time></trkpt><trkpt lat="44.924995" lon="9.5668517"><ele>232.25</ele><time>2026-04-07T14:09:07.99Z</time></trkpt><trkpt lat="44.9248867" lon="9.5668767"><ele>232.5</ele><time>2026-04-07T14:09:09.994Z</time></trkpt><trkpt lat="44.9247767" lon="9.5669133"><ele>232.75</ele><time>2026-04-07T14:09:11.993Z</time></trkpt><trkpt lat="44.9246633" lon="9.5669533"><ele>233.0</ele><time>2026-04-07T14:09:13.988Z</time></trkpt><trkpt lat="44.9245533" lon="9.5669867"><ele>233.0</ele><time>2026-04-07T14:09:15.988Z</time></trkpt><trkpt lat="44.9244433" lon="9.5670233"><ele>233.0</ele><time>2026-04-07T14:09:17.988Z</time></trkpt><trkpt lat="44.9243333" lon="9.56706"><ele>233.0</ele><time>2026-04-07T14:09:19.997Z</time></trkpt><trkpt lat="44.9242217" lon="9.5670983"><ele>233.0</ele><time>2026-04-07T14:09:21.989Z</time></trkpt><trkpt lat="44.9241083" lon="9.5671367"><ele>232.5</ele><time>2026-04-07T14:09:23.991Z</time></trkpt><trkpt lat="44.9239983" lon="9.5671867"><ele>232.0</ele><time>2026-04-07T14:09:25.994Z</time></trkpt><trkpt lat="44.9255583" lon="9.5666867"><ele>232.0</ele><time>2026-04-07T14:08:57.988Z</time></trkpt><trkpt lat="44.9254467" lon="9.56672"><ele>232.0</ele><time>2026-04-07T14:08:59.988Z</time></trkpt><trkpt lat="44.9253333" lon="9.5667583"><ele>232.0</ele><time>2026-04-07T14:09:01.991Z</time></trkpt><trkpt lat="44.9252183" lon="9.5667833"><ele>232.0</ele><time>2026-04-07T14:09:03.997Z</time></trkpt><trkpt lat="44.9251067" lon="9.5668217"><ele>232.25</ele><time>2026-04-07T14:09:05.991Z</time></trkpt><trkpt lat="44.924995" lon="9.5668517"><ele>232.5</ele><time>2026-04-07T14:09:07.99Z</time></trkpt><trkpt lat="44.9248867" lon="9.5668767"><ele>232.75</ele><time>2026-04-07T14:09:09.994Z</time></trkpt><trkpt lat="44.9247767" lon="9.5669133"><ele>233.0</ele><time>2026-04-07T14:09:11.993Z</time></trkpt><trkpt lat="44.9246633" lon="9.5669533"><ele>233.0</ele><time>2026-04-07T14:09:13.988Z</time></trkpt><trkpt lat="44.9245533" lon="9.5669867"><ele>233.0</ele><time>2026-04-07T14:09:15.988Z</time></trkpt><trkpt lat="44.9244433" lon="9.5670233"><ele>233.0</ele><time>2026-04-07T14:09:17.988Z</time></trkpt><trkpt lat="44.9243333" lon="9.56706"><ele>233.0</ele><time>2026-04-07T14:09:19.997Z</time></trkpt><trkpt lat="44.9242217" lon="9.5670983"><ele>234.0</ele><time>2026-04-07T14:09:21.989Z</time></trkpt><trkpt lat="44.9241083" lon="9.5671367"><ele>235.0</ele><time>2026-04-07T14:09:23.991Z</time></trkpt><trkpt lat="44.9239983" lon="9.5671867"><ele>236.0</ele><time>2026-04-07T14:09:25.994Z</time></trkpt><trkpt lat="44.9238883" lon="9.5672317"><ele>237.0</ele><time>2026-04-07T14:09:27.989Z</time></trkpt><trkpt lat="44.9237867" lon="9.567295"><ele>237.0</ele><time>2026-04-07T14:09:29.993Z</time></trkpt><trkpt lat="44.92369" lon="9.5673833"><ele>237.0</ele><time>2026-04-07T14:09:31.991Z</time></trkpt><trkpt lat="44.9236067" lon="9.567485"><ele>237.0</ele><time>2026-04-07T14:09:33.992Z</time></trkpt><trkpt lat="44.923525" lon="9.56759"><ele>237.0</ele><time>2026-04-07T14:09:35.993Z</time></trkpt><trkpt lat="44.9234367" lon="9.5676983"><ele>237.2</ele><time>2026-04-07T14:09:37.988Z</time></trkpt><trkpt lat="44.9233517" lon="9.5678017"><ele>237.39999999999998</ele><time>2026-04-07T14:09:39.993Z</time></trkpt><trkpt lat="44.9232733" lon="9.567905"><ele>237.60000000000002</ele><time>2026-04-07T14:09:41.993Z</time></trkpt><trkpt lat="44.9231917" lon="9.5680117"><ele>237.8</ele><time>2026-04-07T14:09:43.991Z</time></trkpt><trkpt lat="44.92311" lon="9.568125"><ele>238.0</ele><time>2026-04-07T14:09:45.996Z</time></trkpt><trkpt lat="44.9230333" lon="9.56823"><ele>238.0</ele><time>2026-04-07T14:09:47.99Z</time></trkpt><trkpt lat="44.9229483" lon="9.5683417"><ele>238.0</ele><time>2026-04-07T14:09:49.99Z</time></trkpt><trkpt lat="44.9228583" lon="9.568465"><ele>238.0</ele><time>2026-04-07T14:09:51.991Z</time></trkpt><trkpt lat="44.9227717" lon="9.5685783"><ele>238.0</ele><time>2026-04-07T14:09:53.988Z</time></trkpt><trkpt lat="44.9226883" lon="9.5686917"><ele>237.8</ele><time>2026-04-07T14:09:55.989Z</time></trkpt><trkpt lat="44.92261" lon="9.5688"><ele>237.60000000000002</ele><time>2026-04-07T14:09:57.988Z</time></trkpt><trkpt lat="44.92254" lon="9.568915"><ele>237.39999999999998</ele><time>2026-04-07T14:09:59.988Z</time></trkpt><trkpt lat="44.9224583" lon="9.5690267"><ele>237.2</ele><time>2026-04-07T14:10:01.998Z</time></trkpt><trkpt lat="44.9223717" lon="9.5691167"><ele>237.0</ele><time>2026-04-07T14:10:03.986Z</time></trkpt><trkpt lat="44.922285" lon="9.5691833"><ele>237.8</ele><time>2026-04-07T14:10:05.994Z</time></trkpt><trkpt lat="44.922185" lon="9.5692167"><ele>238.6</ele><time>2026-04-07T14:10:07.991Z</time></trkpt><trkpt lat="44.9220783" lon="9.56925"><ele>239.40000000000003</ele><time>2026-04-07T14:10:09.989Z</time></trkpt><trkpt lat="44.92197" lon="9.5692833"><ele>240.20000000000002</ele><time>2026-04-07T14:10:11.99Z</time></trkpt><trkpt lat="44.9218617" lon="9.5693267"><ele>241.0</ele><time>2026-04-07T14:10:13.993Z</time></trkpt><trkpt lat="44.9217533" lon="9.5693567"><ele>241.25</ele><time>2026-04-07T14:10:15.991Z</time></trkpt><trkpt lat="44.9216333" lon="9.5693917"><ele>241.5</ele><time>2026-04-07T14:10:17.991Z</time></trkpt><trkpt lat="44.9215183" lon="9.5694283"><ele>241.75</ele><time>2026-04-07T14:10:19.988Z</time></trkpt><trkpt lat="44.9214083" lon="9.56945"><ele>242.0</ele><time>2026-04-07T14:10:21.993Z</time></trkpt><trkpt lat="44.921295" lon="9.5694883"><ele>242.0</ele><time>2026-04-07T14:10:23.991Z</time></trkpt><trkpt lat="44.92118" lon="9.5695417"><ele>242.0</ele><time>2026-04-07T14:10:25.99Z</time></trkpt><trkpt lat="44.9210733" lon="9.5696067"><ele>242.0</ele><time>2026-04-07T14:10:27.99Z</time></trkpt><trkpt lat="44.92099" lon="9.5696633"><ele>242.0</ele><time>2026-04-07T14:10:29.992Z</time></trkpt><trkpt lat="44.9208983" lon="9.5697383"><ele>242.0</ele><time>2026-04-07T14:10:31.986Z</time></trkpt><trkpt lat="44.920805" lon="9.5698317"><ele>242.00000000000003</ele><time>2026-04-07T14:10:33.99Z</time></trkpt><trkpt lat="44.9207083" lon="9.569925"><ele>242.0</ele><time>2026-04-07T14:10:35.99Z</time></trkpt><trkpt lat="44.9206133" lon="9.5700167"><ele>242.0</ele><time>2026-04-07T14:10:37.99Z</time></trkpt><trkpt lat="44.920565" lon="9.570075"><ele>242.0</ele><time>2026-04-07T14:10:38.993Z</time></trkpt><trkpt lat="44.9205167" lon="9.5701383"><ele>242.00000000000003</ele><time>2026-04-07T14:10:39.989Z</time></trkpt><trkpt lat="44.92047" lon="9.5702"><ele>242.0</ele><time>2026-04-07T14:10:40.996Z</time></trkpt><trkpt lat="44.9204183" lon="9.5702633"><ele>242.0</ele><time>2026-04-07T14:10:41.989Z</time></trkpt><trkpt lat="44.9203667" lon="9.5703267"><ele>241.99999999999997</ele><time>2026-04-07T14:10:42.991Z</time></trkpt><trkpt lat="44.9203167" lon="9.57039"><ele>242.0</ele><time>2026-04-07T14:10:43.989Z</time></trkpt><trkpt lat="44.9202617" lon="9.570455"><ele>242.0</ele><time>2026-04-07T14:10:44.996Z</time></trkpt><trkpt lat="44.9202067" lon="9.57052"><ele>241.99999999999997</ele><time>2026-04-07T14:10:45.991Z</time></trkpt><trkpt lat="44.9201567" lon="9.5705933"><ele>242.0</ele><time>2026-04-07T14:10:46.998Z</time></trkpt><trkpt lat="44.9201017" lon="9.5706617"><ele>242.0</ele><time>2026-04-07T14:10:47.989Z</time></trkpt><trkpt lat="44.9200483" lon="9.5707233"><ele>242.2</ele><time>2026-04-07T14:10:48.991Z</time></trkpt><trkpt lat="44.919995" lon="9.57079"><ele>242.39999999999998</ele><time>2026-04-07T14:10:49.994Z</time></trkpt><trkpt lat="44.9199183" lon="9.5708833"><ele>242.60000000000002</ele><time>2026-04-07T14:10:51.993Z</time></trkpt><trkpt lat="44.91984" lon="9.5709983"><ele>242.8</ele><time>2026-04-07T14:10:53.989Z</time></trkpt><trkpt lat="44.9197633" lon="9.5711117"><ele>243.0</ele><time>2026-04-07T14:10:55.989Z</time></trkpt><trkpt lat="44.9196867" lon="9.5712283"><ele>243.60000000000002</ele><time>2026-04-07T14:10:57.993Z</time></trkpt><trkpt lat="44.9195983" lon="9.571345"><ele>244.20000000000002</ele><time>2026-04-07T14:10:59.991Z</time></trkpt><trkpt lat="44.919545" lon="9.571405"><ele>244.8</ele><time>2026-04-07T14:11:00.988Z</time></trkpt><trkpt lat="44.9195" lon="9.5714683"><ele>245.4</ele><time>2026-04-07T14:11:01.989Z</time></trkpt><trkpt lat="44.9194067" lon="9.5715533"><ele>246.0</ele><time>2026-04-07T14:11:03.992Z</time></trkpt><trkpt lat="44.9193217" lon="9.57165"><ele>246.0</ele><time>2026-04-07T14:11:05.99Z</time></trkpt><trkpt lat="44.919235" lon="9.5717383"><ele>246.00000000000003</ele><time>2026-04-07T14:11:07.991Z</time></trkpt><trkpt lat="44.9191517" lon="9.5718233"><ele>246.00000000000003</ele><time>2026-04-07T14:11:09.987Z</time></trkpt><trkpt lat="44.919065" lon="9.5718967"><ele>246.0</ele><time>2026-04-07T14:11:11.992Z</time></trkpt><trkpt lat="44.9189817" lon="9.5719433"><ele>246.0</ele><time>2026-04-07T14:11:13.988Z</time></trkpt><trkpt lat="44.9188967" lon="9.5719767"><ele>246.0</ele><time>2026-04-07T14:11:15.987Z</time></trkpt><trkpt lat="44.9188083" lon="9.571985"><ele>246.00000000000003</ele><time>2026-04-07T14:11:17.991Z</time></trkpt><trkpt lat="44.9187183" lon="9.5720117"><ele>246.00000000000003</ele><time>2026-04-07T14:11:19.991Z</time></trkpt><trkpt lat="44.91863" lon="9.57202"><ele>246.0</ele><time>2026-04-07T14:11:21.994Z</time></trkpt><trkpt lat="44.91854" lon="9.5720333"><ele>246.0</ele><time>2026-04-07T14:11:23.997Z</time></trkpt><trkpt lat="44.9184483" lon="9.5720567"><ele>246.20000000000002</ele><time>2026-04-07T14:11:25.996Z</time></trkpt><trkpt lat="44.9183583" lon="9.5720683"><ele>246.40000000000003</ele><time>2026-04-07T14:11:27.99Z</time></trkpt><trkpt lat="44.9182667" lon="9.5720733"><ele>246.6</ele><time>2026-04-07T14:11:29.991Z</time></trkpt><trkpt lat="44.9181733" lon="9.5720783"><ele>246.8</ele><time>2026-04-07T14:11:31.99Z</time></trkpt><trkpt lat="44.9180733" lon="9.572075"><ele>247.0</ele><time>2026-04-07T14:11:33.991Z</time></trkpt><trkpt lat="44.9179733" lon="9.572085"><ele>247.0</ele><time>2026-04-07T14:11:35.994Z</time></trkpt><trkpt lat="44.9178767" lon="9.572105"><ele>247.0</ele><time>2026-04-07T14:11:37.996Z</time></trkpt><trkpt lat="44.9177883" lon="9.5721567"><ele>247.0</ele><time>2026-04-07T14:11:39.991Z</time></trkpt><trkpt lat="44.9176983" lon="9.57222"><ele>247.0</ele><time>2026-04-07T14:11:41.988Z</time></trkpt><trkpt lat="44.917605" lon="9.5722717"><ele>247.0</ele><time>2026-04-07T14:11:43.992Z</time></trkpt><trkpt lat="44.917505" lon="9.5723283"><ele>247.25</ele><time>2026-04-07T14:11:45.99Z</time></trkpt><trkpt lat="44.9173967" lon="9.5723817"><ele>247.5</ele><time>2026-04-07T14:11:47.994Z</time></trkpt><trkpt lat="44.9172817" lon="9.572435"><ele>247.75</ele><time>2026-04-07T14:11:49.99Z</time></trkpt><trkpt lat="44.9171733" lon="9.5725133"><ele>248.0</ele><time>2026-04-07T14:11:51.991Z</time></trkpt><trkpt lat="44.9170733" lon="9.5726083"><ele>248.0</ele><time>2026-04-07T14:11:53.993Z</time></trkpt><trkpt lat="44.916985" lon="9.5726933"><ele>248.0</ele><time>2026-04-07T14:11:55.99Z</time></trkpt><trkpt lat="44.916905" lon="9.572785"><ele>248.0</ele><time>2026-04-07T14:11:57.989Z</time></trkpt><trkpt lat="44.9168183" lon="9.5728783"><ele>248.0</ele><time>2026-04-07T14:11:59.991Z</time></trkpt><trkpt lat="44.9167317" lon="9.5729483"><ele>248.0</ele><time>2026-04-07T14:12:01.99Z</time></trkpt><trkpt lat="44.916645" lon="9.57298"><ele>247.83333333333334</ele><time>2026-04-07T14:12:03.991Z</time></trkpt><trkpt lat="44.9165483" lon="9.5729933"><ele>247.66666666666669</ele><time>2026-04-07T14:12:05.988Z</time></trkpt><trkpt lat="44.91645" lon="9.572995"><ele>247.5</ele><time>2026-04-07T14:12:07.994Z</time></trkpt><trkpt lat="44.9163683" lon="9.5729983"><ele>247.33333333333331</ele><time>2026-04-07T14:12:09.998Z</time></trkpt><trkpt lat="44.916295" lon="9.57299"><ele>247.16666666666666</ele><time>2026-04-07T14:12:12.994Z</time></trkpt><trkpt lat="44.9162233" lon="9.57298"><ele>247.0</ele><time>2026-04-07T14:12:15.992Z</time></trkpt><trkpt lat="44.91615" lon="9.57304"><ele>246.99999999999997</ele><time>2026-04-07T14:12:18.993Z</time></trkpt><trkpt lat="44.9160733" lon="9.573115"><ele>247.0</ele><time>2026-04-07T14:12:21.991Z</time></trkpt><trkpt lat="44.9159867" lon="9.5731583"><ele>247.0</ele><time>2026-04-07T14:12:25.002Z</time></trkpt><trkpt lat="44.9159183" lon="9.5731917"><ele>247.0</ele><time>2026-04-07T14:12:26.99Z</time></trkpt><trkpt lat="44.91585" lon="9.57323"><ele>246.99999999999997</ele><time>2026-04-07T14:12:28.991Z</time></trkpt><trkpt lat="44.915775" lon="9.5732683"><ele>247.0</ele><time>2026-04-07T14:12:30.996Z</time></trkpt><trkpt lat="44.9156917" lon="9.5733"><ele>246.83333333333331</ele><time>2026-04-07T14:12:32.994Z</time></trkpt><trkpt lat="44.9156083" lon="9.573305"><ele>246.66666666666666</ele><time>2026-04-07T14:12:34.993Z</time></trkpt><trkpt lat="44.91554" lon="9.5732967"><ele>246.5</ele><time>2026-04-07T14:12:36.99Z</time></trkpt><trkpt lat="44.91547" lon="9.5732417"><ele>246.33333333333331</ele><time>2026-04-07T14:12:38.993Z</time></trkpt><trkpt lat="44.9154167" lon="9.5731517"><ele>246.16666666666666</ele><time>2026-04-07T14:12:40.989Z</time></trkpt><trkpt lat="44.9153833" lon="9.57306"><ele>246.0</ele><time>2026-04-07T14:12:42.991Z</time></trkpt><trkpt lat="44.9153567" lon="9.5729717"><ele>246.00000000000003</ele><time>2026-04-07T14:12:44.996Z</time></trkpt><trkpt lat="44.91534" lon="9.5728767"><ele>246.0</ele><time>2026-04-07T14:12:47.001Z</time></trkpt><trkpt lat="44.9153333" lon="9.5727733"><ele>246.00000000000003</ele><time>2026-04-07T14:12:48.996Z</time></trkpt><trkpt lat="44.9153417" lon="9.5726617"><ele>246.00000000000003</ele><time>2026-04-07T14:12:51.005Z</time></trkpt><trkpt lat="44.915355" lon="9.57256"><ele>246.0</ele><time>2026-04-07T14:12:52.989Z</time></trkpt><trkpt lat="44.9153783" lon="9.5724667"><ele>246.00000000000003</ele><time>2026-04-07T14:12:54.99Z</time></trkpt><trkpt lat="44.915395" lon="9.57237"><ele>246.00000000000003</ele><time>2026-04-07T14:12:56.993Z</time></trkpt><trkpt lat="44.9154133" lon="9.5722783"><ele>247.4</ele><time>2026-04-07T14:12:58.994Z</time></trkpt><trkpt lat="44.9154433" lon="9.5721533"><ele>248.8</ele><time>2026-04-07T14:13:01.996Z</time></trkpt><trkpt lat="44.9154783" lon="9.57204"><ele>250.20000000000002</ele><time>2026-04-07T14:13:04.991Z</time></trkpt><trkpt lat="44.9155117" lon="9.5719217"><ele>251.60000000000002</ele><time>2026-04-07T14:13:07.991Z</time></trkpt><trkpt lat="44.91554" lon="9.5717983"><ele>253.0</ele><time>2026-04-07T14:13:10.994Z</time></trkpt><trkpt lat="44.9155417" lon="9.57167"><ele>254.16666666666666</ele><time>2026-04-07T14:13:13.993Z</time></trkpt><trkpt lat="44.9155233" lon="9.5715367"><ele>255.33333333333331</ele><time>2026-04-07T14:13:16.992Z</time></trkpt><trkpt lat="44.9155083" lon="9.5714433"><ele>256.5</ele><time>2026-04-07T14:13:18.989Z</time></trkpt><trkpt lat="44.9154933" lon="9.571355"><ele>257.6666666666667</ele><time>2026-04-07T14:13:21Z</time></trkpt><trkpt lat="44.9154733" lon="9.5712233"><ele>258.83333333333337</ele><time>2026-04-07T14:13:23.992Z</time></trkpt><trkpt lat="44.9154633" lon="9.571135"><ele>260.0</ele><time>2026-04-07T14:13:25.991Z</time></trkpt><trkpt lat="44.9154533" lon="9.571045"><ele>261.0</ele><time>2026-04-07T14:13:27.993Z</time></trkpt><trkpt lat="44.915435" lon="9.5709517"><ele>262.0</ele><time>2026-04-07T14:13:29.991Z</time></trkpt><trkpt lat="44.915425" lon="9.57086"><ele>263.0</ele><time>2026-04-07T14:13:31.987Z</time></trkpt><trkpt lat="44.9154067" lon="9.5707383"><ele>264.0</ele><time>2026-04-07T14:13:34.99Z</time></trkpt><trkpt lat="44.9153917" lon="9.5706167"><ele>265.0</ele><time>2026-04-07T14:13:37.991Z</time></trkpt><trkpt lat="44.9153733" lon="9.57049"><ele>266.0</ele><time>2026-04-07T14:13:40.993Z</time></trkpt><trkpt lat="44.9153567" lon="9.5703667"><ele>267.1666666666667</ele><time>2026-04-07T14:13:43.988Z</time></trkpt><trkpt lat="44.91535" lon="9.5702433"><ele>268.33333333333337</ele><time>2026-04-07T14:13:46.993Z</time></trkpt><trkpt lat="44.915335" lon="9.5701183"><ele>269.5</ele><time>2026-04-07T14:13:49.99Z</time></trkpt><trkpt lat="44.9153383" lon="9.5699967"><ele>270.6666666666667</ele><time>2026-04-07T14:13:52.999Z</time></trkpt><trkpt lat="44.9153517" lon="9.569905"><ele>271.8333333333333</ele><time>2026-04-07T14:13:54.997Z</time></trkpt><trkpt lat="44.91537" lon="9.5698167"><ele>273.0</ele><time>2026-04-07T14:13:57.005Z</time></trkpt><trkpt lat="44.9153817" lon="9.5696867"><ele>273.0</ele><time>2026-04-07T14:13:59.99Z</time></trkpt><trkpt lat="44.9153617" lon="9.5695583"><ele>273.0</ele><time>2026-04-07T14:14:02.996Z</time></trkpt><trkpt lat="44.9153083" lon="9.5694517"><ele>273.0</ele><time>2026-04-07T14:14:05.992Z</time></trkpt><trkpt lat="44.9152467" lon="9.5693617"><ele>273.0</ele><time>2026-04-07T14:14:09.002Z</time></trkpt><trkpt lat="44.9151783" lon="9.5692767"><ele>273.0</ele><time>2026-04-07T14:14:11.993Z</time></trkpt><trkpt lat="44.9151283" lon="9.5692133"><ele>273.0</ele><time>2026-04-07T14:14:13.991Z</time></trkpt><trkpt lat="44.915085" lon="9.5691467"><ele>274.14285714285717</ele><time>2026-04-07T14:14:15.989Z</time></trkpt><trkpt lat="44.9150383" lon="9.569085"><ele>275.2857142857143</ele><time>2026-04-07T14:14:17.988Z</time></trkpt><trkpt lat="44.9149933" lon="9.5690217"><ele>276.42857142857144</ele><time>2026-04-07T14:14:19.993Z</time></trkpt><trkpt lat="44.9149483" lon="9.5689583"><ele>277.57142857142856</ele><time>2026-04-07T14:14:21.992Z</time></trkpt><trkpt lat="44.9149017" lon="9.56889"><ele>278.7142857142857</ele><time>2026-04-07T14:14:23.986Z</time></trkpt><trkpt lat="44.9148583" lon="9.5688233"><ele>279.8571428571429</ele><time>2026-04-07T14:14:25.991Z</time></trkpt><trkpt lat="44.9148167" lon="9.5687533"><ele>281.0</ele><time>2026-04-07T14:14:27.993Z</time></trkpt><trkpt lat="44.9147783" lon="9.5686817"><ele>281.6666666666667</ele><time>2026-04-07T14:14:29.992Z</time></trkpt><trkpt lat="44.9147333" lon="9.5686083"><ele>282.33333333333337</ele><time>2026-04-07T14:14:31.992Z</time></trkpt><trkpt lat="44.9146933" lon="9.5685383"><ele>283.0</ele><time>2026-04-07T14:14:33.989Z</time></trkpt><trkpt lat="44.9146417" lon="9.5684283"><ele>283.6666666666667</ele><time>2026-04-07T14:14:37.001Z</time></trkpt><trkpt lat="44.9146067" lon="9.5683533"><ele>284.3333333333333</ele><time>2026-04-07T14:14:38.989Z</time></trkpt><trkpt lat="44.9145533" lon="9.5682417"><ele>285.0</ele><time>2026-04-07T14:14:41.991Z</time></trkpt><trkpt lat="44.9145017" lon="9.5681333"><ele>285.0</ele><time>2026-04-07T14:14:44.993Z</time></trkpt><trkpt lat="44.914455" lon="9.5680267"><ele>285.0</ele><time>2026-04-07T14:14:47.99Z</time></trkpt><trkpt lat="44.9144083" lon="9.567935"><ele>285.0</ele><time>2026-04-07T14:14:50.988Z</time></trkpt><trkpt lat="44.9143633" lon="9.5678383"><ele>285.0</ele><time>2026-04-07T14:14:53.991Z</time></trkpt><trkpt lat="44.9143183" lon="9.5677417"><ele>285.0</ele><time>2026-04-07T14:14:56.993Z</time></trkpt><trkpt lat="44.9142817" lon="9.5676567"><ele>285.0</ele><time>2026-04-07T14:14:59.991Z</time></trkpt><trkpt lat="44.9142417" lon="9.5675617"><ele>287.5</ele><time>2026-04-07T14:15:02.996Z</time></trkpt><trkpt lat="44.914205" lon="9.5674717"><ele>290.0</ele><time>2026-04-07T14:15:05.99Z</time></trkpt><trkpt lat="44.9141633" lon="9.56738"><ele>292.5</ele><time>2026-04-07T14:15:08.991Z</time></trkpt><trkpt lat="44.91412" lon="9.5672983"><ele>295.0</ele><time>2026-04-07T14:15:11.994Z</time></trkpt><trkpt lat="44.9140617" lon="9.5672283"><ele>297.5</ele><time>2026-04-07T14:15:14.988Z</time></trkpt><trkpt lat="44.914005" lon="9.5671533"><ele>300.0</ele><time>2026-04-07T14:15:17.992Z</time></trkpt><trkpt lat="44.9139617" lon="9.5670683"><ele>300.99999999999994</ele><time>2026-04-07T14:15:20.988Z</time></trkpt><trkpt lat="44.9139183" lon="9.56697"><ele>302.0</ele><time>2026-04-07T14:15:23.994Z</time></trkpt><trkpt lat="44.9139" lon="9.56687"><ele>303.0</ele><time>2026-04-07T14:15:26.99Z</time></trkpt><trkpt lat="44.91389" lon="9.5667817"><ele>304.0</ele><time>2026-04-07T14:15:30.991Z</time></trkpt><trkpt lat="44.9138833" lon="9.5666783"><ele>305.0</ele><time>2026-04-07T14:15:33.994Z</time></trkpt><trkpt lat="44.913835" lon="9.5666183"><ele>305.99999999999994</ele><time>2026-04-07T14:15:35.993Z</time></trkpt><trkpt lat="44.9137767" lon="9.5665667"><ele>307.0</ele><time>2026-04-07T14:15:37.988Z</time></trkpt><trkpt lat="44.91372" lon="9.5665"><ele>306.99999999999994</ele><time>2026-04-07T14:15:39.989Z</time></trkpt><trkpt lat="44.913695" lon="9.56641"><ele>307.0</ele><time>2026-04-07T14:15:41.986Z</time></trkpt><trkpt lat="44.913695" lon="9.56632"><ele>307.0</ele><time>2026-04-07T14:15:43.994Z</time></trkpt><trkpt lat="44.9137033" lon="9.566225"><ele>307.0</ele><time>2026-04-07T14:15:45.993Z</time></trkpt><trkpt lat="44.9137133" lon="9.5661217"><ele>307.0</ele><time>2026-04-07T14:15:47.995Z</time></trkpt><trkpt lat="44.9137117" lon="9.56602"><ele>306.99999999999994</ele><time>2026-04-07T14:15:49.993Z</time></trkpt><trkpt lat="44.9136933" lon="9.5659133"><ele>307.0</ele><time>2026-04-07T14:15:51.994Z</time></trkpt><trkpt lat="44.9136717" lon="9.5658017"><ele>307.66666666666663</ele><time>2026-04-07T14:15:53.989Z</time></trkpt><trkpt lat="44.91365" lon="9.5656783"><ele>308.3333333333333</ele><time>2026-04-07T14:15:55.992Z</time></trkpt><trkpt lat="44.9136267" lon="9.565555"><ele>309.0</ele><time>2026-04-07T14:15:57.994Z</time></trkpt><trkpt lat="44.9136067" lon="9.5654333"><ele>309.6666666666667</ele><time>2026-04-07T14:15:59.994Z</time></trkpt><trkpt lat="44.91359" lon="9.565315"><ele>310.33333333333337</ele><time>2026-04-07T14:16:01.987Z</time></trkpt><trkpt lat="44.9135783" lon="9.5652083"><ele>311.0</ele><time>2026-04-07T14:16:03.989Z</time></trkpt><trkpt lat="44.913565" lon="9.5651"><ele>311.33333333333337</ele><time>2026-04-07T14:16:05.99Z</time></trkpt><trkpt lat="44.9135533" lon="9.56499"><ele>311.6666666666667</ele><time>2026-04-07T14:16:07.991Z</time></trkpt><trkpt lat="44.91354" lon="9.5648817"><ele>312.0</ele><time>2026-04-07T14:16:10Z</time></trkpt><trkpt lat="44.9135283" lon="9.5647717"><ele>312.3333333333333</ele><time>2026-04-07T14:16:11.991Z</time></trkpt><trkpt lat="44.9135183" lon="9.564655"><ele>312.66666666666663</ele><time>2026-04-07T14:16:13.992Z</time></trkpt><trkpt lat="44.913495" lon="9.564545"><ele>313.0</ele><time>2026-04-07T14:16:15.992Z</time></trkpt><trkpt lat="44.9134533" lon="9.5644383"><ele>314.3333333333333</ele><time>2026-04-07T14:16:17.991Z</time></trkpt><trkpt lat="44.913405" lon="9.5643417"><ele>315.66666666666663</ele><time>2026-04-07T14:16:19.989Z</time></trkpt><trkpt lat="44.913345" lon="9.564255"><ele>317.0</ele><time>2026-04-07T14:16:21.99Z</time></trkpt><trkpt lat="44.913285" lon="9.56417"><ele>318.3333333333333</ele><time>2026-04-07T14:16:23.99Z</time></trkpt><trkpt lat="44.913225" lon="9.5640833"><ele>319.6666666666667</ele><time>2026-04-07T14:16:25.989Z</time></trkpt><trkpt lat="44.9131633" lon="9.5639933"><ele>321.0</ele><time>2026-04-07T14:16:27.993Z</time></trkpt><trkpt lat="44.9131033" lon="9.563895"><ele>321.0</ele><time>2026-04-07T14:16:29.989Z</time></trkpt><trkpt lat="44.913045" lon="9.563795"><ele>321.0</ele><time>2026-04-07T14:16:31.991Z</time></trkpt><trkpt lat="44.9129883" lon="9.5636917"><ele>321.0</ele><time>2026-04-07T14:16:33.988Z</time></trkpt><trkpt lat="44.9129367" lon="9.5635967"><ele>321.0</ele><time>2026-04-07T14:16:35.988Z</time></trkpt><trkpt lat="44.9128983" lon="9.5634917"><ele>321.0</ele><time>2026-04-07T14:16:37.99Z</time></trkpt><trkpt lat="44.91287" lon="9.56338"><ele>321.0</ele><time>2026-04-07T14:16:39.991Z</time></trkpt><trkpt lat="44.9128533" lon="9.5632617"><ele>321.6666666666667</ele><time>2026-04-07T14:16:41.994Z</time></trkpt><trkpt lat="44.9128367" lon="9.5631467"><ele>322.3333333333333</ele><time>2026-04-07T14:16:43.997Z</time></trkpt><trkpt lat="44.9128267" lon="9.5630367"><ele>323.0</ele><time>2026-04-07T14:16:45.989Z</time></trkpt><trkpt lat="44.9128133" lon="9.5629383"><ele>323.66666666666663</ele><time>2026-04-07T14:16:47.991Z</time></trkpt><trkpt lat="44.9128033" lon="9.5628317"><ele>324.3333333333333</ele><time>2026-04-07T14:16:49.997Z</time></trkpt><trkpt lat="44.9127933" lon="9.562725"><ele>325.0</ele><time>2026-04-07T14:16:51.997Z</time></trkpt><trkpt lat="44.91278" lon="9.5626167"><ele>325.1428571428571</ele><time>2026-04-07T14:16:54.001Z</time></trkpt><trkpt lat="44.912765" lon="9.562515"><ele>325.28571428571433</ele><time>2026-04-07T14:16:55.992Z</time></trkpt><trkpt lat="44.912755" lon="9.56241"><ele>325.42857142857144</ele><time>2026-04-07T14:16:57.991Z</time></trkpt><trkpt lat="44.9127417" lon="9.5623067"><ele>325.57142857142856</ele><time>2026-04-07T14:16:59.993Z</time></trkpt><trkpt lat="44.9127233" lon="9.5622067"><ele>325.71428571428567</ele><time>2026-04-07T14:17:01.991Z</time></trkpt><trkpt lat="44.9126917" lon="9.5621067"><ele>325.8571428571429</ele><time>2026-04-07T14:17:03.993Z</time></trkpt><trkpt lat="44.91265" lon="9.5620217"><ele>326.0</ele><time>2026-04-07T14:17:05.995Z</time></trkpt><trkpt lat="44.9126" lon="9.56194"><ele>328.0</ele><time>2026-04-07T14:17:07.991Z</time></trkpt><trkpt lat="44.9125567" lon="9.5618567"><ele>330.0</ele><time>2026-04-07T14:17:09.991Z</time></trkpt><trkpt lat="44.912515" lon="9.5617817"><ele>332.0</ele><time>2026-04-07T14:17:11.996Z</time></trkpt><trkpt lat="44.912455" lon="9.561685"><ele>334.0</ele><time>2026-04-07T14:17:14.997Z</time></trkpt><trkpt lat="44.912385" lon="9.5616"><ele>336.0</ele><time>2026-04-07T14:17:17.993Z</time></trkpt><trkpt lat="44.91232" lon="9.561525"><ele>338.0</ele><time>2026-04-07T14:17:20.99Z</time></trkpt><trkpt lat="44.912235" lon="9.5614933"><ele>338.0</ele><time>2026-04-07T14:17:23.993Z</time></trkpt><trkpt lat="44.9121667" lon="9.5615217"><ele>338.0</ele><time>2026-04-07T14:17:25.99Z</time></trkpt><trkpt lat="44.9120967" lon="9.5615467"><ele>338.0</ele><time>2026-04-07T14:17:27.99Z</time></trkpt><trkpt lat="44.9120233" lon="9.5615733"><ele>338.0</ele><time>2026-04-07T14:17:29.991Z</time></trkpt><trkpt lat="44.9119467" lon="9.5615883"><ele>338.0</ele><time>2026-04-07T14:17:31.988Z</time></trkpt><trkpt lat="44.9118717" lon="9.56159"><ele>338.0</ele><time>2026-04-07T14:17:33.996Z</time></trkpt><trkpt lat="44.9117983" lon="9.5615833"><ele>338.0</ele><time>2026-04-07T14:17:35.991Z</time></trkpt><trkpt lat="44.9117267" lon="9.5615883"><ele>338.0</ele><time>2026-04-07T14:17:37.991Z</time></trkpt><trkpt lat="44.91167" lon="9.5616433"><ele>338.0</ele><time>2026-04-07T14:17:39.993Z</time></trkpt><trkpt lat="44.911605" lon="9.56166"><ele>338.0</ele><time>2026-04-07T14:17:42.989Z</time></trkpt><trkpt lat="44.911595" lon="9.5615683"><ele>338.0</ele><time>2026-04-07T14:17:45.994Z</time></trkpt><trkpt lat="44.9116483" lon="9.561495"><ele>338.0</ele><time>2026-04-07T14:17:48.99Z</time></trkpt><trkpt lat="44.9117133" lon="9.56147"><ele>338.0</ele><time>2026-04-07T14:17:51.989Z</time></trkpt><trkpt lat="44.9117867" lon="9.5614367"><ele>338.0</ele><time>2026-04-07T14:17:54.994Z</time></trkpt><trkpt lat="44.9118483" lon="9.5613617"><ele>338.0</ele><time>2026-04-07T14:17:57.989Z</time></trkpt><trkpt lat="44.9118867" lon="9.5612633"><ele>338.0</ele><time>2026-04-07T14:18:00.993Z</time></trkpt><trkpt lat="44.9119233" lon="9.5611683"><ele>338.0</ele><time>2026-04-07T14:18:03.989Z</time></trkpt><trkpt lat="44.9119233" lon="9.56106"><ele>338.0</ele><time>2026-04-07T14:18:06.988Z</time></trkpt><trkpt lat="44.911885" lon="9.5609533"><ele>338.0</ele><time>2026-04-07T14:18:10.987Z</time></trkpt><trkpt lat="44.9118283" lon="9.5608733"><ele>338.0</ele><time>2026-04-07T14:18:13.995Z</time></trkpt><trkpt lat="44.9117717" lon="9.5608117"><ele>340.0</ele><time>2026-04-07T14:18:16.995Z</time></trkpt><trkpt lat="44.9117183" lon="9.5607383"><ele>342.0</ele><time>2026-04-07T14:18:19.988Z</time></trkpt><trkpt lat="44.9116683" lon="9.5606683"><ele>344.0</ele><time>2026-04-07T14:18:22.997Z</time></trkpt><trkpt lat="44.9116217" lon="9.56058"><ele>346.0</ele><time>2026-04-07T14:18:25.99Z</time></trkpt><trkpt lat="44.9115917" lon="9.5605"><ele>348.0</ele><time>2026-04-07T14:18:28.989Z</time></trkpt><trkpt lat="44.9115667" lon="9.5604183"><ele>350.0</ele><time>2026-04-07T14:18:31.987Z</time></trkpt><trkpt lat="44.9115533" lon="9.560325"><ele>352.0</ele><time>2026-04-07T14:18:35Z</time></trkpt><trkpt lat="44.9115467" lon="9.560235"><ele>353.0</ele><time>2026-04-07T14:18:37.988Z</time></trkpt><trkpt lat="44.9115567" lon="9.5601367"><ele>354.0</ele><time>2026-04-07T14:18:41Z</time></trkpt><trkpt lat="44.9115583" lon="9.5600267"><ele>355.0</ele><time>2026-04-07T14:18:43.99Z</time></trkpt><trkpt lat="44.9115633" lon="9.5599183"><ele>356.0</ele><time>2026-04-07T14:18:46.991Z</time></trkpt><trkpt lat="44.91155" lon="9.5598033"><ele>357.0</ele><time>2026-04-07T14:18:49.994Z</time></trkpt><trkpt lat="44.9115383" lon="9.55969"><ele>358.0</ele><time>2026-04-07T14:18:52.985Z</time></trkpt><trkpt lat="44.91152" lon="9.5595817"><ele>359.0</ele><time>2026-04-07T14:18:55.991Z</time></trkpt><trkpt lat="44.91151" lon="9.55947"><ele>360.0</ele><time>2026-04-07T14:18:58.988Z</time></trkpt><trkpt lat="44.91151" lon="9.559365"><ele>361.0</ele><time>2026-04-07T14:19:01.989Z</time></trkpt><trkpt lat="44.9115033" lon="9.5592533"><ele>362.0</ele><time>2026-04-07T14:19:04.992Z</time></trkpt><trkpt lat="44.9114983" lon="9.5591467"><ele>363.0</ele><time>2026-04-07T14:19:07.992Z</time></trkpt><trkpt lat="44.91149" lon="9.5590283"><ele>364.0</ele><time>2026-04-07T14:19:11Z</time></trkpt><trkpt lat="44.9114717" lon="9.55892"><ele>364.0</ele><time>2026-04-07T14:19:13.987Z</time></trkpt><trkpt lat="44.9114517" lon="9.5588033"><ele>364.0</ele><time>2026-04-07T14:19:16.989Z</time></trkpt><trkpt lat="44.9114333" lon="9.5586883"><ele>364.0</ele><time>2026-04-07T14:19:19.99Z</time></trkpt><trkpt lat="44.911415" lon="9.5585667"><ele>364.0</ele><time>2026-04-07T14:19:23Z</time></trkpt><trkpt lat="44.91141" lon="9.5584767"><ele>364.0</ele><time>2026-04-07T14:19:24.992Z</time></trkpt><trkpt lat="44.9114117" lon="9.558345"><ele>364.0</ele><time>2026-04-07T14:19:27.995Z</time></trkpt><trkpt lat="44.9114083" lon="9.55821"><ele>364.85714285714283</ele><time>2026-04-07T14:19:30.988Z</time></trkpt><trkpt lat="44.9114017" lon="9.5581167"><ele>365.7142857142857</ele><time>2026-04-07T14:19:32.995Z</time></trkpt><trkpt lat="44.9113933" lon="9.5580267"><ele>366.57142857142856</ele><time>2026-04-07T14:19:34.987Z</time></trkpt><trkpt lat="44.91139" lon="9.5579333"><ele>367.42857142857144</ele><time>2026-04-07T14:19:36.99Z</time></trkpt><trkpt lat="44.911385" lon="9.5578"><ele>368.2857142857143</ele><time>2026-04-07T14:19:39.99Z</time></trkpt><trkpt lat="44.91139" lon="9.5577083"><ele>369.1428571428571</ele><time>2026-04-07T14:19:41.995Z</time></trkpt><trkpt lat="44.9114167" lon="9.5575983"><ele>370.0</ele><time>2026-04-07T14:19:44.997Z</time></trkpt><trkpt lat="44.9114567" lon="9.5574983"><ele>371.16666666666663</ele><time>2026-04-07T14:19:47.99Z</time></trkpt><trkpt lat="44.9114967" lon="9.5574033"><ele>372.3333333333333</ele><time>2026-04-07T14:19:50.992Z</time></trkpt><trkpt lat="44.91152" lon="9.5572967"><ele>373.5</ele><time>2026-04-07T14:19:53.99Z</time></trkpt><trkpt lat="44.911515" lon="9.55719"><ele>374.6666666666667</ele><time>2026-04-07T14:19:56.992Z</time></trkpt><trkpt lat="44.9115117" lon="9.557075"><ele>375.83333333333337</ele><time>2026-04-07T14:19:59.992Z</time></trkpt><trkpt lat="44.9115117" lon="9.5569567"><ele>377.0</ele><time>2026-04-07T14:20:03.004Z</time></trkpt><trkpt lat="44.9115167" lon="9.5568417"><ele>378.1428571428571</ele><time>2026-04-07T14:20:05.988Z</time></trkpt><trkpt lat="44.9115167" lon="9.5567367"><ele>379.2857142857143</ele><time>2026-04-07T14:20:09.006Z</time></trkpt><trkpt lat="44.9114867" lon="9.5566433"><ele>380.42857142857144</ele><time>2026-04-07T14:20:11.994Z</time></trkpt><trkpt lat="44.9114617" lon="9.55655"><ele>381.57142857142856</ele><time>2026-04-07T14:20:14.996Z</time></trkpt><trkpt lat="44.911435" lon="9.5564467"><ele>382.7142857142857</ele><time>2026-04-07T14:20:17.989Z</time></trkpt><trkpt lat="44.9113717" lon="9.5563767"><ele>383.85714285714283</ele><time>2026-04-07T14:20:20.994Z</time></trkpt><trkpt lat="44.9113083" lon="9.55638"><ele>385.0</ele><time>2026-04-07T14:20:23.002Z</time></trkpt><trkpt lat="44.9112183" lon="9.5563667"><ele>385.00000000000006</ele><time>2026-04-07T14:20:25.997Z</time></trkpt><trkpt lat="44.911125" lon="9.5563517"><ele>385.0</ele><time>2026-04-07T14:20:28.994Z</time></trkpt><trkpt lat="44.9110533" lon="9.5563433"><ele>385.0</ele><time>2026-04-07T14:20:30.998Z</time></trkpt><trkpt lat="44.9109783" lon="9.5563317"><ele>385.0</ele><time>2026-04-07T14:20:32.995Z</time></trkpt><trkpt lat="44.9109017" lon="9.5563183"><ele>385.00000000000006</ele><time>2026-04-07T14:20:34.998Z</time></trkpt><trkpt lat="44.9108283" lon="9.5563033"><ele>385.0</ele><time>2026-04-07T14:20:36.998Z</time></trkpt><trkpt lat="44.910765" lon="9.5562967"><ele>384.6666666666667</ele><time>2026-04-07T14:20:38.993Z</time></trkpt><trkpt lat="44.91067" lon="9.556305"><ele>384.33333333333337</ele><time>2026-04-07T14:20:41.993Z</time></trkpt><trkpt lat="44.9106" lon="9.5562917"><ele>384.0</ele><time>2026-04-07T14:20:43.989Z</time></trkpt><trkpt lat="44.9105183" lon="9.5562683"><ele>383.6666666666667</ele><time>2026-04-07T14:20:45.989Z</time></trkpt><trkpt lat="44.9104267" lon="9.556265"><ele>383.33333333333337</ele><time>2026-04-07T14:20:47.992Z</time></trkpt><trkpt lat="44.91033" lon="9.55627"><ele>383.0</ele><time>2026-04-07T14:20:49.989Z</time></trkpt><trkpt lat="44.9102383" lon="9.5562767"><ele>383.0</ele><time>2026-04-07T14:20:51.988Z</time></trkpt><trkpt lat="44.910145" lon="9.5562783"><ele>383.0</ele><time>2026-04-07T14:20:53.991Z</time></trkpt><trkpt lat="44.9100533" lon="9.5562633"><ele>383.0</ele><time>2026-04-07T14:20:55.989Z</time></trkpt><trkpt lat="44.90996" lon="9.55626"><ele>383.0</ele><time>2026-04-07T14:20:57.989Z</time></trkpt><trkpt lat="44.90987" lon="9.556255"><ele>383.0</ele><time>2026-04-07T14:20:59.991Z</time></trkpt><trkpt lat="44.9097883" lon="9.5562383"><ele>384.5</ele><time>2026-04-07T14:21:01.991Z</time></trkpt><trkpt lat="44.9097083" lon="9.5561817"><ele>386.0</ele><time>2026-04-07T14:21:03.987Z</time></trkpt><trkpt lat="44.9096567" lon="9.5560767"><ele>387.5</ele><time>2026-04-07T14:21:05.992Z</time></trkpt><trkpt lat="44.9096017" lon="9.5559983"><ele>389.0</ele><time>2026-04-07T14:21:07.991Z</time></trkpt><trkpt lat="44.90951" lon="9.555975"><ele>390.49999999999994</ele><time>2026-04-07T14:21:09.995Z</time></trkpt><trkpt lat="44.90942" lon="9.556005"><ele>392.0</ele><time>2026-04-07T14:21:11.992Z</time></trkpt><trkpt lat="44.909335" lon="9.5560433"><ele>392.0</ele><time>2026-04-07T14:21:13.987Z</time></trkpt><trkpt lat="44.9092433" lon="9.5560783"><ele>392.0</ele><time>2026-04-07T14:21:15.987Z</time></trkpt><trkpt lat="44.9091517" lon="9.5561017"><ele>392.0</ele><time>2026-04-07T14:21:17.991Z</time></trkpt><trkpt lat="44.9090617" lon="9.5561333"><ele>392.0</ele><time>2026-04-07T14:21:19.99Z</time></trkpt><trkpt lat="44.908975" lon="9.55619"><ele>392.0</ele><time>2026-04-07T14:21:21.988Z</time></trkpt><trkpt lat="44.9088933" lon="9.5562433"><ele>391.20000000000005</ele><time>2026-04-07T14:21:23.994Z</time></trkpt><trkpt lat="44.90882" lon="9.5563233"><ele>390.4</ele><time>2026-04-07T14:21:25.99Z</time></trkpt><trkpt lat="44.908745" lon="9.5564017"><ele>389.6</ele><time>2026-04-07T14:21:27.988Z</time></trkpt><trkpt lat="44.9086633" lon="9.556465"><ele>388.79999999999995</ele><time>2026-04-07T14:21:29.99Z</time></trkpt><trkpt lat="44.9085817" lon="9.556545"><ele>388.0</ele><time>2026-04-07T14:21:31.994Z</time></trkpt><trkpt lat="44.90849" lon="9.556595"><ele>390.4</ele><time>2026-04-07T14:21:33.992Z</time></trkpt><trkpt lat="44.9083933" lon="9.556605"><ele>392.79999999999995</ele><time>2026-04-07T14:21:35.992Z</time></trkpt><trkpt lat="44.9082983" lon="9.5565783"><ele>395.2</ele><time>2026-04-07T14:21:37.993Z</time></trkpt><trkpt lat="44.9082083" lon="9.55653"><ele>397.6</ele><time>2026-04-07T14:21:39.99Z</time></trkpt><trkpt lat="44.9081133" lon="9.5565"><ele>400.0</ele><time>2026-04-07T14:21:41.987Z</time></trkpt><trkpt lat="44.908025" lon="9.5564683"><ele>400.0</ele><time>2026-04-07T14:21:43.991Z</time></trkpt><trkpt lat="44.9079367" lon="9.55644"><ele>400.0</ele><time>2026-04-07T14:21:45.986Z</time></trkpt><trkpt lat="44.907845" lon="9.556425"><ele>400.0</ele><time>2026-04-07T14:21:47.991Z</time></trkpt><trkpt lat="44.9077533" lon="9.5564133"><ele>400.0</ele><time>2026-04-07T14:21:49.994Z</time></trkpt><trkpt lat="44.9076633" lon="9.5564"><ele>400.0</ele><time>2026-04-07T14:21:51.994Z</time></trkpt><trkpt lat="44.9075717" lon="9.5563867"><ele>400.4</ele><time>2026-04-07T14:21:53.991Z</time></trkpt><trkpt lat="44.9074783" lon="9.5563733"><ele>400.8</ele><time>2026-04-07T14:21:55.993Z</time></trkpt><trkpt lat="44.907385" lon="9.55635"><ele>401.20000000000005</ele><time>2026-04-07T14:21:57.989Z</time></trkpt><trkpt lat="44.9073033" lon="9.5563067"><ele>401.6</ele><time>2026-04-07T14:21:59.998Z</time></trkpt><trkpt lat="44.9072467" lon="9.5562017"><ele>402.0</ele><time>2026-04-07T14:22:01.993Z</time></trkpt><trkpt lat="44.9072283" lon="9.5560683"><ele>403.40000000000003</ele><time>2026-04-07T14:22:03.991Z</time></trkpt><trkpt lat="44.9072617" lon="9.5559467"><ele>404.8</ele><time>2026-04-07T14:22:05.989Z</time></trkpt><trkpt lat="44.9073317" lon="9.555855"><ele>406.2</ele><time>2026-04-07T14:22:07.988Z</time></trkpt><trkpt lat="44.9074217" lon="9.5558"><ele>407.6</ele><time>2026-04-07T14:22:09.986Z</time></trkpt><trkpt lat="44.9075217" lon="9.55576"><ele>409.0</ele><time>2026-04-07T14:22:11.989Z</time></trkpt><trkpt lat="44.9076167" lon="9.5557217"><ele>409.0</ele><time>2026-04-07T14:22:13.994Z</time></trkpt><trkpt lat="44.9077067" lon="9.5556883"><ele>409.0</ele><time>2026-04-07T14:22:15.992Z</time></trkpt><trkpt lat="44.9077933" lon="9.5556583"><ele>409.0</ele><time>2026-04-07T14:22:17.991Z</time></trkpt><trkpt lat="44.90788" lon="9.55562"><ele>409.0</ele><time>2026-04-07T14:22:19.989Z</time></trkpt><trkpt lat="44.9079633" lon="9.5555833"><ele>409.0</ele><time>2026-04-07T14:22:21.993Z</time></trkpt><trkpt lat="44.9080533" lon="9.5555433"><ele>409.00000000000006</ele><time>2026-04-07T14:22:23.992Z</time></trkpt><trkpt lat="44.908135" lon="9.5555083"><ele>409.0</ele><time>2026-04-07T14:22:25.987Z</time></trkpt><trkpt lat="44.908215" lon="9.5554783"><ele>409.0</ele><time>2026-04-07T14:22:27.989Z</time></trkpt><trkpt lat="44.9082967" lon="9.5554433"><ele>409.0</ele><time>2026-04-07T14:22:29.989Z</time></trkpt><trkpt lat="44.9083817" lon="9.555405"><ele>409.00000000000006</ele><time>2026-04-07T14:22:31.993Z</time></trkpt><trkpt lat="44.9084567" lon="9.5553467"><ele>409.0</ele><time>2026-04-07T14:22:33.989Z</time></trkpt><trkpt lat="44.908515" lon="9.5552367"><ele>409.6</ele><time>2026-04-07T14:22:35.996Z</time></trkpt><trkpt lat="44.9085333" lon="9.5550983"><ele>410.2</ele><time>2026-04-07T14:22:37.993Z</time></trkpt><trkpt lat="44.9085033" lon="9.5549833"><ele>410.8</ele><time>2026-04-07T14:22:39.99Z</time></trkpt><trkpt lat="44.9084433" lon="9.5549067"><ele>411.40000000000003</ele><time>2026-04-07T14:22:41.988Z</time></trkpt><trkpt lat="44.9083817" lon="9.5548117"><ele>412.0</ele><time>2026-04-07T14:22:43.99Z</time></trkpt><trkpt lat="44.908315" lon="9.5547167"><ele>413.1666666666667</ele><time>2026-04-07T14:22:45.993Z</time></trkpt><trkpt lat="44.9082517" lon="9.5546233"><ele>414.33333333333337</ele><time>2026-04-07T14:22:47.99Z</time></trkpt><trkpt lat="44.9081933" lon="9.5545383"><ele>415.5</ele><time>2026-04-07T14:22:49.993Z</time></trkpt><trkpt lat="44.9081283" lon="9.5544483"><ele>416.66666666666663</ele><time>2026-04-07T14:22:51.993Z</time></trkpt><trkpt lat="44.9080733" lon="9.5543567"><ele>417.8333333333333</ele><time>2026-04-07T14:22:53.989Z</time></trkpt><trkpt lat="44.908005" lon="9.5542617"><ele>419.0</ele><time>2026-04-07T14:22:55.994Z</time></trkpt><trkpt lat="44.9079317" lon="9.5541667"><ele>421.2</ele><time>2026-04-07T14:22:57.989Z</time></trkpt><trkpt lat="44.9078417" lon="9.554105"><ele>423.4</ele><time>2026-04-07T14:22:59.993Z</time></trkpt><trkpt lat="44.9077583" lon="9.5540733"><ele>425.6</ele><time>2026-04-07T14:23:01.99Z</time></trkpt><trkpt lat="44.9076783" lon="9.5540717"><ele>427.8</ele><time>2026-04-07T14:23:03.991Z</time></trkpt><trkpt lat="44.9075883" lon="9.55409"><ele>430.0</ele><time>2026-04-07T14:23:05.989Z</time></trkpt><trkpt lat="44.907495" lon="9.55412"><ele>430.83333333333337</ele><time>2026-04-07T14:23:07.993Z</time></trkpt><trkpt lat="44.9074083" lon="9.5541383"><ele>431.6666666666667</ele><time>2026-04-07T14:23:09.989Z</time></trkpt><trkpt lat="44.9073233" lon="9.5541533"><ele>432.5</ele><time>2026-04-07T14:23:11.99Z</time></trkpt><trkpt lat="44.9072433" lon="9.55417"><ele>433.33333333333337</ele><time>2026-04-07T14:23:13.994Z</time></trkpt><trkpt lat="44.9071583" lon="9.554185"><ele>434.1666666666667</ele><time>2026-04-07T14:23:15.992Z</time></trkpt><trkpt lat="44.9070683" lon="9.5542033"><ele>435.0</ele><time>2026-04-07T14:23:17.991Z</time></trkpt><trkpt lat="44.90698" lon="9.554215"><ele>435.0</ele><time>2026-04-07T14:23:19.992Z</time></trkpt><trkpt lat="44.9068867" lon="9.5542417"><ele>435.0</ele><time>2026-04-07T14:23:21.993Z</time></trkpt><trkpt lat="44.9067967" lon="9.55426"><ele>435.0</ele><time>2026-04-07T14:23:23.997Z</time></trkpt><trkpt lat="44.906705" lon="9.5542333"><ele>435.0</ele><time>2026-04-07T14:23:25.992Z</time></trkpt><trkpt lat="44.9066133" lon="9.5541983"><ele>435.0</ele><time>2026-04-07T14:23:27.996Z</time></trkpt><trkpt lat="44.9065517" lon="9.5540883"><ele>435.8333333333333</ele><time>2026-04-07T14:23:29.99Z</time></trkpt><trkpt lat="44.9064883" lon="9.554"><ele>436.66666666666663</ele><time>2026-04-07T14:23:31.997Z</time></trkpt><trkpt lat="44.9064333" lon="9.55392"><ele>437.5</ele><time>2026-04-07T14:23:33.987Z</time></trkpt><trkpt lat="44.90637" lon="9.5538533"><ele>438.3333333333333</ele><time>2026-04-07T14:23:35.989Z</time></trkpt><trkpt lat="44.906295" lon="9.553805"><ele>439.16666666666663</ele><time>2026-04-07T14:23:37.992Z</time></trkpt><trkpt lat="44.9062" lon="9.55378"><ele>440.0</ele><time>2026-04-07T14:23:39.991Z</time></trkpt><trkpt lat="44.9061083" lon="9.5537567"><ele>440.0</ele><time>2026-04-07T14:23:41.992Z</time></trkpt><trkpt lat="44.9060267" lon="9.5537233"><ele>440.0</ele><time>2026-04-07T14:23:43.994Z</time></trkpt><trkpt lat="44.9059367" lon="9.55369"><ele>440.0</ele><time>2026-04-07T14:23:45.994Z</time></trkpt><trkpt lat="44.905845" lon="9.5536667"><ele>440.0</ele><time>2026-04-07T14:23:47.993Z</time></trkpt><trkpt lat="44.90575" lon="9.553635"><ele>440.0</ele><time>2026-04-07T14:23:49.993Z</time></trkpt><trkpt lat="44.9056583" lon="9.553605"><ele>441.66666666666663</ele><time>2026-04-07T14:23:51.993Z</time></trkpt><trkpt lat="44.905575" lon="9.5535833"><ele>443.3333333333333</ele><time>2026-04-07T14:23:53.987Z</time></trkpt><trkpt lat="44.9054983" lon="9.5535583"><ele>445.0</ele><time>2026-04-07T14:23:55.995Z</time></trkpt><trkpt lat="44.9054233" lon="9.5535267"><ele>446.66666666666663</ele><time>2026-04-07T14:23:57.998Z</time></trkpt><trkpt lat="44.9053417" lon="9.5535017"><ele>448.3333333333333</ele><time>2026-04-07T14:23:59.992Z</time></trkpt><trkpt lat="44.90526" lon="9.5534933"><ele>450.0</ele><time>2026-04-07T14:24:01.989Z</time></trkpt><trkpt lat="44.9051783" lon="9.5535167"><ele>450.0</ele><time>2026-04-07T14:24:03.995Z</time></trkpt><trkpt lat="44.9051067" lon="9.5535667"><ele>450.0</ele><time>2026-04-07T14:24:05.991Z</time></trkpt><trkpt lat="44.9050467" lon="9.5536567"><ele>450.0</ele><time>2026-04-07T14:24:08.001Z</time></trkpt><trkpt lat="44.9049967" lon="9.5537483"><ele>450.0</ele><time>2026-04-07T14:24:09.997Z</time></trkpt><trkpt lat="44.9049417" lon="9.5538383"><ele>450.0</ele><time>2026-04-07T14:24:11.989Z</time></trkpt><trkpt lat="44.90489" lon="9.5539217"><ele>450.0</ele><time>2026-04-07T14:24:13.989Z</time></trkpt><trkpt lat="44.9048367" lon="9.5539983"><ele>449.6666666666667</ele><time>2026-04-07T14:24:15.994Z</time></trkpt><trkpt lat="44.9047733" lon="9.5540733"><ele>449.33333333333337</ele><time>2026-04-07T14:24:17.99Z</time></trkpt><trkpt lat="44.90471" lon="9.55415"><ele>449.0</ele><time>2026-04-07T14:24:19.996Z</time></trkpt><trkpt lat="44.9046467" lon="9.5542333"><ele>448.6666666666667</ele><time>2026-04-07T14:24:21.99Z</time></trkpt><trkpt lat="44.9045817" lon="9.5543067"><ele>448.33333333333337</ele><time>2026-04-07T14:24:23.99Z</time></trkpt><trkpt lat="44.9045116" lon="9.554375"><ele>448.0</ele><time>2026-04-07T14:24:25.993Z</time></trkpt><trkpt lat="44.9044408" lon="9.5544466"><ele>448.00000000000006</ele><time>2026-04-07T14:24:27.991Z</time></trkpt><trkpt lat="44.90437" lon="9.5545167"><ele>448.0</ele><time>2026-04-07T14:24:29.995Z</time></trkpt><trkpt lat="44.9043033" lon="9.554575"><ele>448.0</ele><time>2026-04-07T14:24:31.988Z</time></trkpt><trkpt lat="44.904235" lon="9.5546383"><ele>448.0</ele><time>2026-04-07T14:24:33.992Z</time></trkpt><trkpt lat="44.9041783" lon="9.5547"><ele>448.00000000000006</ele><time>2026-04-07T14:24:35.988Z</time></trkpt><trkpt lat="44.9041117" lon="9.554755"><ele>448.0</ele><time>2026-04-07T14:24:37.996Z</time></trkpt><trkpt lat="44.9040367" lon="9.5547783"><ele>449.83333333333337</ele><time>2026-04-07T14:24:39.992Z</time></trkpt><trkpt lat="44.9039583" lon="9.5548"><ele>451.6666666666667</ele><time>2026-04-07T14:24:41.989Z</time></trkpt><trkpt lat="44.9038717" lon="9.55482"><ele>453.5</ele><time>2026-04-07T14:24:43.991Z</time></trkpt><trkpt lat="44.9037917" lon="9.5548233"><ele>455.33333333333337</ele><time>2026-04-07T14:24:45.989Z</time></trkpt><trkpt lat="44.9037233" lon="9.55484"><ele>457.1666666666667</ele><time>2026-04-07T14:24:47.99Z</time></trkpt><trkpt lat="44.9036367" lon="9.55482"><ele>459.0</ele><time>2026-04-07T14:24:51.001Z</time></trkpt><trkpt lat="44.9036117" lon="9.55473"><ele>459.0</ele><time>2026-04-07T14:24:52.992Z</time></trkpt><trkpt lat="44.9036017" lon="9.5546333"><ele>459.0</ele><time>2026-04-07T14:24:54.99Z</time></trkpt><trkpt lat="44.90359" lon="9.5545317"><ele>459.0</ele><time>2026-04-07T14:24:56.992Z</time></trkpt><trkpt lat="44.9035733" lon="9.55443"><ele>459.0</ele><time>2026-04-07T14:24:58.994Z</time></trkpt><trkpt lat="44.9035383" lon="9.5543333"><ele>459.0</ele><time>2026-04-07T14:25:00.988Z</time></trkpt><trkpt lat="44.903495" lon="9.5542683"><ele>459.0</ele><time>2026-04-07T14:25:02.993Z</time></trkpt><trkpt lat="44.9034483" lon="9.5541933"><ele>459.0</ele><time>2026-04-07T14:25:04.997Z</time></trkpt><trkpt lat="44.9033967" lon="9.5541333"><ele>460.28571428571433</ele><time>2026-04-07T14:25:06.992Z</time></trkpt><trkpt lat="44.903335" lon="9.5540767"><ele>461.57142857142856</ele><time>2026-04-07T14:25:08.993Z</time></trkpt><trkpt lat="44.90327" lon="9.55403"><ele>462.8571428571429</ele><time>2026-04-07T14:25:10.999Z</time></trkpt><trkpt lat="44.90321" lon="9.55397"><ele>464.14285714285717</ele><time>2026-04-07T14:25:13.001Z</time></trkpt><trkpt lat="44.9031533" lon="9.5539"><ele>465.42857142857144</ele><time>2026-04-07T14:25:14.993Z</time></trkpt><trkpt lat="44.9030933" lon="9.55384"><ele>466.7142857142857</ele><time>2026-04-07T14:25:16.991Z</time></trkpt><trkpt lat="44.9030367" lon="9.5537733"><ele>468.0</ele><time>2026-04-07T14:25:18.99Z</time></trkpt><trkpt lat="44.9029967" lon="9.55369"><ele>470.0</ele><time>2026-04-07T14:25:20.995Z</time></trkpt><trkpt lat="44.9029667" lon="9.553605"><ele>472.0</ele><time>2026-04-07T14:25:23.004Z</time></trkpt><trkpt lat="44.9029383" lon="9.55348"><ele>474.0</ele><time>2026-04-07T14:25:25.986Z</time></trkpt><trkpt lat="44.9029033" lon="9.553385"><ele>476.0</ele><time>2026-04-07T14:25:27.99Z</time></trkpt><trkpt lat="44.9028833" lon="9.5532767"><ele>478.0</ele><time>2026-04-07T14:25:30.995Z</time></trkpt><trkpt lat="44.902855" lon="9.5531867"><ele>480.0</ele><time>2026-04-07T14:25:33.003Z</time></trkpt><trkpt lat="44.9028217" lon="9.553095"><ele>480.0</ele><time>2026-04-07T14:25:34.99Z</time></trkpt><trkpt lat="44.9027917" lon="9.5530117"><ele>480.0</ele><time>2026-04-07T14:25:36.991Z</time></trkpt><trkpt lat="44.9027683" lon="9.5529183"><ele>480.0</ele><time>2026-04-07T14:25:38.997Z</time></trkpt><trkpt lat="44.9027417" lon="9.552815"><ele>480.0</ele><time>2026-04-07T14:25:40.989Z</time></trkpt><trkpt lat="44.9027117" lon="9.552715"><ele>480.0</ele><time>2026-04-07T14:25:42.999Z</time></trkpt><trkpt lat="44.9026867" lon="9.5526233"><ele>480.0</ele><time>2026-04-07T14:25:44.992Z</time></trkpt><trkpt lat="44.902665" lon="9.5525167"><ele>480.0</ele><time>2026-04-07T14:25:46.991Z</time></trkpt><trkpt lat="44.90263" lon="9.552405"><ele>479.2</ele><time>2026-04-07T14:25:48.992Z</time></trkpt><trkpt lat="44.9025817" lon="9.5522967"><ele>478.4</ele><time>2026-04-07T14:25:51.003Z</time></trkpt><trkpt lat="44.9025267" lon="9.5521817"><ele>477.6</ele><time>2026-04-07T14:25:52.987Z</time></trkpt><trkpt lat="44.90247" lon="9.552065"><ele>476.8</ele><time>2026-04-07T14:25:54.987Z</time></trkpt><trkpt lat="44.9024167" lon="9.55196"><ele>476.0</ele><time>2026-04-07T14:25:56.99Z</time></trkpt><trkpt lat="44.9023617" lon="9.5518433"><ele>477.6</ele><time>2026-04-07T14:25:58.999Z</time></trkpt><trkpt lat="44.9023" lon="9.551735"><ele>479.20000000000005</ele><time>2026-04-07T14:26:00.991Z</time></trkpt><trkpt lat="44.9022383" lon="9.551625"><ele>480.79999999999995</ele><time>2026-04-07T14:26:02.993Z</time></trkpt><trkpt lat="44.9021833" lon="9.5515133"><ele>482.4</ele><time>2026-04-07T14:26:04.993Z</time></trkpt><trkpt lat="44.9021283" lon="9.5514083"><ele>484.0</ele><time>2026-04-07T14:26:06.997Z</time></trkpt><trkpt lat="44.9020617" lon="9.5513117"><ele>484.0</ele><time>2026-04-07T14:26:08.995Z</time></trkpt><trkpt lat="44.9019883" lon="9.5512133"><ele>484.0</ele><time>2026-04-07T14:26:11.002Z</time></trkpt><trkpt lat="44.9019133" lon="9.5511117"><ele>484.0</ele><time>2026-04-07T14:26:12.995Z</time></trkpt><trkpt lat="44.9018433" lon="9.5510033"><ele>484.0</ele><time>2026-04-07T14:26:14.992Z</time></trkpt><trkpt lat="44.9017733" lon="9.5508967"><ele>484.0</ele><time>2026-04-07T14:26:16.989Z</time></trkpt><trkpt lat="44.9017" lon="9.55079"><ele>483.6</ele><time>2026-04-07T14:26:18.996Z</time></trkpt><trkpt lat="44.901635" lon="9.5506933"><ele>483.2</ele><time>2026-04-07T14:26:20.999Z</time></trkpt><trkpt lat="44.9015767" lon="9.5505933"><ele>482.80000000000007</ele><time>2026-04-07T14:26:22.989Z</time></trkpt><trkpt lat="44.901515" lon="9.5504883"><ele>482.40000000000003</ele><time>2026-04-07T14:26:24.991Z</time></trkpt><trkpt lat="44.901455" lon="9.5503817"><ele>482.0</ele><time>2026-04-07T14:26:27.002Z</time></trkpt><trkpt lat="44.9013917" lon="9.5502817"><ele>483.40000000000003</ele><time>2026-04-07T14:26:28.991Z</time></trkpt><trkpt lat="44.9013333" lon="9.5501817"><ele>484.80000000000007</ele><time>2026-04-07T14:26:30.993Z</time></trkpt><trkpt lat="44.9012683" lon="9.550085"><ele>486.2</ele><time>2026-04-07T14:26:32.999Z</time></trkpt><trkpt lat="44.9011967" lon="9.54998"><ele>487.6</ele><time>2026-04-07T14:26:34.998Z</time></trkpt><trkpt lat="44.9011367" lon="9.549875"><ele>489.0</ele><time>2026-04-07T14:26:36.991Z</time></trkpt><trkpt lat="44.9010717" lon="9.54976"><ele>489.0</ele><time>2026-04-07T14:26:38.995Z</time></trkpt><trkpt lat="44.90102" lon="9.54965"><ele>489.0</ele><time>2026-04-07T14:26:40.999Z</time></trkpt><trkpt lat="44.9009883" lon="9.5495583"><ele>489.0</ele><time>2026-04-07T14:26:43.001Z</time></trkpt><trkpt lat="44.9009383" lon="9.5494817"><ele>489.0</ele><time>2026-04-07T14:26:45.991Z</time></trkpt><trkpt lat="44.900865" lon="9.54946"><ele>489.0</ele><time>2026-04-07T14:26:49.001Z</time></trkpt><trkpt lat="44.9007933" lon="9.5494667"><ele>489.0</ele><time>2026-04-07T14:26:50.995Z</time></trkpt><trkpt lat="44.90072" lon="9.5494983"><ele>489.0</ele><time>2026-04-07T14:26:52.992Z</time></trkpt><trkpt lat="44.9006533" lon="9.5495283"><ele>489.0</ele><time>2026-04-07T14:26:54.994Z</time></trkpt><trkpt lat="44.90057" lon="9.5495783"><ele>489.0</ele><time>2026-04-07T14:26:57.991Z</time></trkpt><trkpt lat="44.900475" lon="9.5496233"><ele>489.0</ele><time>2026-04-07T14:27:00.994Z</time></trkpt><trkpt lat="44.90039" lon="9.54965"><ele>489.0</ele><time>2026-04-07T14:27:02.994Z</time></trkpt><trkpt lat="44.9003" lon="9.5496817"><ele>489.0</ele><time>2026-04-07T14:27:04.99Z</time></trkpt><trkpt lat="44.9002183" lon="9.5496933"><ele>489.0</ele><time>2026-04-07T14:27:06.989Z</time></trkpt><trkpt lat="44.90013" lon="9.5497083"><ele>489.0</ele><time>2026-04-07T14:27:09.004Z</time></trkpt><trkpt lat="44.9000467" lon="9.5497217"><ele>489.0</ele><time>2026-04-07T14:27:10.99Z</time></trkpt><trkpt lat="44.8999733" lon="9.5497183"><ele>489.0</ele><time>2026-04-07T14:27:12.993Z</time></trkpt><trkpt lat="44.89991" lon="9.5497067"><ele>489.0</ele><time>2026-04-07T14:27:14.99Z</time></trkpt><trkpt lat="44.8998433" lon="9.54966"><ele>489.0</ele><time>2026-04-07T14:27:17.002Z</time></trkpt><trkpt lat="44.8997683" lon="9.549575"><ele>488.6</ele><time>2026-04-07T14:27:18.994Z</time></trkpt><trkpt lat="44.8996833" lon="9.54946"><ele>488.2</ele><time>2026-04-07T14:27:20.996Z</time></trkpt><trkpt lat="44.8996017" lon="9.5493817"><ele>487.80000000000007</ele><time>2026-04-07T14:27:22.994Z</time></trkpt><trkpt lat="44.8995133" lon="9.5492767"><ele>487.40000000000003</ele><time>2026-04-07T14:27:24.994Z</time></trkpt><trkpt lat="44.8994617" lon="9.5492217"><ele>487.0</ele><time>2026-04-07T14:27:25.994Z</time></trkpt><trkpt lat="44.8994067" lon="9.5491717"><ele>487.00000000000006</ele><time>2026-04-07T14:27:27.006Z</time></trkpt><trkpt lat="44.8993483" lon="9.5491317"><ele>487.0</ele><time>2026-04-07T14:27:27.993Z</time></trkpt><trkpt lat="44.8992817" lon="9.54907"><ele>487.0</ele><time>2026-04-07T14:27:28.995Z</time></trkpt><trkpt lat="44.8992183" lon="9.5490067"><ele>487.0</ele><time>2026-04-07T14:27:29.991Z</time></trkpt><trkpt lat="44.899155" lon="9.548925"><ele>487.00000000000006</ele><time>2026-04-07T14:27:30.988Z</time></trkpt><trkpt lat="44.89909" lon="9.5488383"><ele>487.0</ele><time>2026-04-07T14:27:31.989Z</time></trkpt><trkpt lat="44.8990317" lon="9.54875"><ele>486.83333333333337</ele><time>2026-04-07T14:27:32.998Z</time></trkpt><trkpt lat="44.89897" lon="9.5486683"><ele>486.6666666666667</ele><time>2026-04-07T14:27:33.993Z</time></trkpt><trkpt lat="44.8989083" lon="9.5486067"><ele>486.5</ele><time>2026-04-07T14:27:34.997Z</time></trkpt><trkpt lat="44.8988367" lon="9.5485917"><ele>486.33333333333337</ele><time>2026-04-07T14:27:35.998Z</time></trkpt><trkpt lat="44.898765" lon="9.5486033"><ele>486.1666666666667</ele><time>2026-04-07T14:27:36.994Z</time></trkpt><trkpt lat="44.898685" lon="9.54866"><ele>486.0</ele><time>2026-04-07T14:27:37.99Z</time></trkpt><trkpt lat="44.8986017" lon="9.5487433"><ele>486.0</ele><time>2026-04-07T14:27:38.994Z</time></trkpt><trkpt lat="44.89853" lon="9.5488483"><ele>486.0</ele><time>2026-04-07T14:27:39.989Z</time></trkpt><trkpt lat="44.89846" lon="9.5489733"><ele>486.0</ele><time>2026-04-07T14:27:40.992Z</time></trkpt><trkpt lat="44.8983817" lon="9.5490933"><ele>486.0</ele><time>2026-04-07T14:27:41.988Z</time></trkpt><trkpt lat="44.89829" lon="9.54921"><ele>482.75</ele><time>2026-04-07T14:27:42.991Z</time></trkpt><trkpt lat="44.89819" lon="9.5493283"><ele>479.5</ele><time>2026-04-07T14:27:43.99Z</time></trkpt><trkpt lat="44.8980817" lon="9.5494333"><ele>476.25</ele><time>2026-04-07T14:27:44.997Z</time></trkpt><trkpt lat="44.8979717" lon="9.5495217"><ele>473.0</ele><time>2026-04-07T14:27:45.99Z</time></trkpt><trkpt lat="44.89786" lon="9.5496083"><ele>473.0</ele><time>2026-04-07T14:27:46.999Z</time></trkpt><trkpt lat="44.8977517" lon="9.5497033"><ele>473.0</ele><time>2026-04-07T14:27:47.989Z</time></trkpt><trkpt lat="44.89765" lon="9.5497917"><ele>473.0</ele><time>2026-04-07T14:27:48.993Z</time></trkpt><trkpt lat="44.8975483" lon="9.5498817"><ele>473.0</ele><time>2026-04-07T14:27:49.993Z</time></trkpt><trkpt lat="44.8974533" lon="9.54994"><ele>470.0</ele><time>2026-04-07T14:27:50.993Z</time></trkpt><trkpt lat="44.897355" lon="9.54998"><ele>466.99999999999994</ele><time>2026-04-07T14:27:51.995Z</time></trkpt><trkpt lat="44.8972517" lon="9.55"><ele>463.99999999999994</ele><time>2026-04-07T14:27:52.991Z</time></trkpt><trkpt lat="44.8971517" lon="9.550015"><ele>461.0</ele><time>2026-04-07T14:27:53.992Z</time></trkpt><trkpt lat="44.8970567" lon="9.5500383"><ele>458.0</ele><time>2026-04-07T14:27:54.99Z</time></trkpt><trkpt lat="44.8969633" lon="9.550065"><ele>457.99999999999994</ele><time>2026-04-07T14:27:55.994Z</time></trkpt><trkpt lat="44.896875" lon="9.5501033"><ele>458.0</ele><time>2026-04-07T14:27:57.006Z</time></trkpt><trkpt lat="44.8967983" lon="9.5501367"><ele>458.0</ele><time>2026-04-07T14:27:57.987Z</time></trkpt><trkpt lat="44.8967267" lon="9.55017"><ele>458.0</ele><time>2026-04-07T14:27:58.99Z</time></trkpt><trkpt lat="44.89666" lon="9.5502017"><ele>457.99999999999994</ele><time>2026-04-07T14:27:59.989Z</time></trkpt><trkpt lat="44.8965933" lon="9.550225"><ele>458.0</ele><time>2026-04-07T14:28:00.99Z</time></trkpt><trkpt lat="44.8965267" lon="9.5502533"><ele>457.79999999999995</ele><time>2026-04-07T14:28:01.995Z</time></trkpt><trkpt lat="44.896465" lon="9.5502833"><ele>457.59999999999997</ele><time>2026-04-07T14:28:02.991Z</time></trkpt><trkpt lat="44.8964017" lon="9.550315"><ele>457.40000000000003</ele><time>2026-04-07T14:28:03.989Z</time></trkpt><trkpt lat="44.896285" lon="9.5503783"><ele>457.20000000000005</ele><time>2026-04-07T14:28:05.99Z</time></trkpt><trkpt lat="44.8961767" lon="9.550425"><ele>457.0</ele><time>2026-04-07T14:28:07.992Z</time></trkpt><trkpt lat="44.8960717" lon="9.55047"><ele>456.50000000000006</ele><time>2026-04-07T14:28:09.992Z</time></trkpt><trkpt lat="44.8959783" lon="9.5504983"><ele>456.0</ele><time>2026-04-07T14:28:11.993Z</time></trkpt><trkpt lat="44.8959017" lon="9.5504717"><ele>455.5</ele><time>2026-04-07T14:28:13.99Z</time></trkpt><trkpt lat="44.8958483" lon="9.5504133"><ele>455.0</ele><time>2026-04-07T14:28:15.99Z</time></trkpt><trkpt lat="44.895795" lon="9.550335"><ele>454.50000000000006</ele><time>2026-04-07T14:28:17.988Z</time></trkpt><trkpt lat="44.8957417" lon="9.5502467"><ele>454.0</ele><time>2026-04-07T14:28:19.993Z</time></trkpt><trkpt lat="44.895675" lon="9.5501333"><ele>453.1666666666667</ele><time>2026-04-07T14:28:21.992Z</time></trkpt><trkpt lat="44.8956117" lon="9.5500233"><ele>452.33333333333337</ele><time>2026-04-07T14:28:23.995Z</time></trkpt><trkpt lat="44.8955583" lon="9.5499267"><ele>451.5</ele><time>2026-04-07T14:28:25.993Z</time></trkpt><trkpt lat="44.89552" lon="9.5498317"><ele>450.66666666666663</ele><time>2026-04-07T14:28:27.989Z</time></trkpt><trkpt lat="44.8954733" lon="9.54972"><ele>449.8333333333333</ele><time>2026-04-07T14:28:30.994Z</time></trkpt><trkpt lat="44.8954383" lon="9.5496183"><ele>449.0</ele><time>2026-04-07T14:28:33.988Z</time></trkpt><trkpt lat="44.8954133" lon="9.5494917"><ele>449.0</ele><time>2026-04-07T14:28:35.997Z</time></trkpt><trkpt lat="44.8954267" lon="9.5493217"><ele>449.0</ele><time>2026-04-07T14:28:37.997Z</time></trkpt><trkpt lat="44.8954367" lon="9.5492283"><ele>449.0</ele><time>2026-04-07T14:28:38.996Z</time></trkpt><trkpt lat="44.8954417" lon="9.5491333"><ele>449.0</ele><time>2026-04-07T14:28:39.989Z</time></trkpt><trkpt lat="44.8954483" lon="9.5489683"><ele>449.0</ele><time>2026-04-07T14:28:41.991Z</time></trkpt><trkpt lat="44.89547" lon="9.5488133"><ele>448.99999999999994</ele><time>2026-04-07T14:28:43.988Z</time></trkpt><trkpt lat="44.8954767" lon="9.54872"><ele>449.0</ele><time>2026-04-07T14:28:44.993Z</time></trkpt><trkpt lat="44.8954917" lon="9.5485583"><ele>449.0</ele><time>2026-04-07T14:28:46.991Z</time></trkpt><trkpt lat="44.895495" lon="9.5484283"><ele>449.0</ele><time>2026-04-07T14:28:48.999Z</time></trkpt><trkpt lat="44.8954817" lon="9.54832"><ele>448.99999999999994</ele><time>2026-04-07T14:28:50.992Z</time></trkpt><trkpt lat="44.8954383" lon="9.5482333"><ele>449.0</ele><time>2026-04-07T14:28:52.994Z</time></trkpt><trkpt lat="44.895355" lon="9.548145"><ele>446.99999999999994</ele><time>2026-04-07T14:28:55.002Z</time></trkpt><trkpt lat="44.8953033" lon="9.5480767"><ele>445.0</ele><time>2026-04-07T14:28:55.989Z</time></trkpt><trkpt lat="44.89525" lon="9.5480017"><ele>443.0</ele><time>2026-04-07T14:28:56.989Z</time></trkpt><trkpt lat="44.8951983" lon="9.547925"><ele>441.0</ele><time>2026-04-07T14:28:57.989Z</time></trkpt><trkpt lat="44.8951383" lon="9.5478383"><ele>438.99999999999994</ele><time>2026-04-07T14:28:58.993Z</time></trkpt><trkpt lat="44.8950883" lon="9.54775"><ele>437.0</ele><time>2026-04-07T14:28:59.99Z</time></trkpt><trkpt lat="44.895045" lon="9.5476783"><ele>436.57142857142856</ele><time>2026-04-07T14:29:00.989Z</time></trkpt><trkpt lat="44.89499" lon="9.54761"><ele>436.14285714285717</ele><time>2026-04-07T14:29:01.992Z</time></trkpt><trkpt lat="44.894935" lon="9.54756"><ele>435.7142857142857</ele><time>2026-04-07T14:29:02.995Z</time></trkpt><trkpt lat="44.8948783" lon="9.5475117"><ele>435.2857142857143</ele><time>2026-04-07T14:29:03.99Z</time></trkpt><trkpt lat="44.89482" lon="9.5474683"><ele>434.8571428571429</ele><time>2026-04-07T14:29:04.986Z</time></trkpt><trkpt lat="44.8947633" lon="9.5474233"><ele>434.42857142857144</ele><time>2026-04-07T14:29:05.988Z</time></trkpt><trkpt lat="44.8947017" lon="9.5473733"><ele>434.0</ele><time>2026-04-07T14:29:06.99Z</time></trkpt><trkpt lat="44.8946467" lon="9.54732"><ele>434.0</ele><time>2026-04-07T14:29:08.004Z</time></trkpt><trkpt lat="44.8945883" lon="9.5472617"><ele>434.0</ele><time>2026-04-07T14:29:08.996Z</time></trkpt><trkpt lat="44.8945267" lon="9.5472117"><ele>434.0</ele><time>2026-04-07T14:29:09.992Z</time></trkpt><trkpt lat="44.89446" lon="9.5471767"><ele>434.0</ele><time>2026-04-07T14:29:10.992Z</time></trkpt><trkpt lat="44.8943917" lon="9.547155"><ele>434.0</ele><time>2026-04-07T14:29:11.992Z</time></trkpt><trkpt lat="44.89432" lon="9.547145"><ele>434.0</ele><time>2026-04-07T14:29:12.99Z</time></trkpt><trkpt lat="44.8942467" lon="9.5471467"><ele>434.0</ele><time>2026-04-07T14:29:13.988Z</time></trkpt><trkpt lat="44.8941733" lon="9.5471667"><ele>436.2</ele><time>2026-04-07T14:29:14.997Z</time></trkpt><trkpt lat="44.8941033" lon="9.5471867"><ele>438.4</ele><time>2026-04-07T14:29:15.989Z</time></trkpt><trkpt lat="44.89404" lon="9.54719"><ele>440.6</ele><time>2026-04-07T14:29:17.004Z</time></trkpt><trkpt lat="44.8939283" lon="9.547135"><ele>442.8</ele><time>2026-04-07T14:29:18.991Z</time></trkpt><trkpt lat="44.8938417" lon="9.54704"><ele>445.0</ele><time>2026-04-07T14:29:20.99Z</time></trkpt><trkpt lat="44.893745" lon="9.5469467"><ele>443.0</ele><time>2026-04-07T14:29:23Z</time></trkpt><trkpt lat="44.893645" lon="9.5468517"><ele>441.0</ele><time>2026-04-07T14:29:24.994Z</time></trkpt><trkpt lat="44.89355" lon="9.546745"><ele>439.0</ele><time>2026-04-07T14:29:26.988Z</time></trkpt><trkpt lat="44.893455" lon="9.5466683"><ele>437.0</ele><time>2026-04-07T14:29:28.993Z</time></trkpt><trkpt lat="44.89336" lon="9.546625"><ele>437.0</ele><time>2026-04-07T14:29:30.993Z</time></trkpt><trkpt lat="44.89327" lon="9.5465483"><ele>437.0</ele><time>2026-04-07T14:29:32.989Z</time></trkpt><trkpt lat="44.8932333" lon="9.5464033"><ele>437.0</ele><time>2026-04-07T14:29:34.99Z</time></trkpt><trkpt lat="44.8931717" lon="9.54626"><ele>437.0</ele><time>2026-04-07T14:29:36.997Z</time></trkpt><trkpt lat="44.89309" lon="9.5461333"><ele>431.8</ele><time>2026-04-07T14:29:38.994Z</time></trkpt><trkpt lat="44.8930417" lon="9.5460667"><ele>426.6</ele><time>2026-04-07T14:29:39.995Z</time></trkpt><trkpt lat="44.892995" lon="9.546005"><ele>421.40000000000003</ele><time>2026-04-07T14:29:40.992Z</time></trkpt><trkpt lat="44.892915" lon="9.5458783"><ele>416.20000000000005</ele><time>2026-04-07T14:29:42.992Z</time></trkpt><trkpt lat="44.8928383" lon="9.5457383"><ele>411.0</ele><time>2026-04-07T14:29:44.999Z</time></trkpt><trkpt lat="44.8927417" lon="9.5456133"><ele>411.0</ele><time>2026-04-07T14:29:46.992Z</time></trkpt><trkpt lat="44.892685" lon="9.5455483"><ele>411.0</ele><time>2026-04-07T14:29:47.99Z</time></trkpt><trkpt lat="44.892635" lon="9.5454733"><ele>411.0</ele><time>2026-04-07T14:29:48.992Z</time></trkpt><trkpt lat="44.89259" lon="9.5453833"><ele>411.0</ele><time>2026-04-07T14:29:49.993Z</time></trkpt><trkpt lat="44.89255" lon="9.545285"><ele>411.0</ele><time>2026-04-07T14:29:50.994Z</time></trkpt><trkpt lat="44.8925117" lon="9.545185"><ele>411.0</ele><time>2026-04-07T14:29:51.989Z</time></trkpt><trkpt lat="44.89248" lon="9.5450817"><ele>410.42857142857144</ele><time>2026-04-07T14:29:53.002Z</time></trkpt><trkpt lat="44.8924583" lon="9.5449783"><ele>409.85714285714283</ele><time>2026-04-07T14:29:53.991Z</time></trkpt><trkpt lat="44.892435" lon="9.544875"><ele>409.28571428571433</ele><time>2026-04-07T14:29:54.997Z</time></trkpt><trkpt lat="44.892415" lon="9.54478"><ele>408.7142857142857</ele><time>2026-04-07T14:29:55.993Z</time></trkpt><trkpt lat="44.8923983" lon="9.5446867"><ele>408.14285714285717</ele><time>2026-04-07T14:29:56.995Z</time></trkpt><trkpt lat="44.8923833" lon="9.54459"><ele>407.5714285714286</ele><time>2026-04-07T14:29:57.991Z</time></trkpt><trkpt lat="44.8923583" lon="9.544495"><ele>407.0</ele><time>2026-04-07T14:29:58.994Z</time></trkpt><trkpt lat="44.8923217" lon="9.5443933"><ele>406.99999999999994</ele><time>2026-04-07T14:29:59.991Z</time></trkpt><trkpt lat="44.89229" lon="9.5442933"><ele>407.0</ele><time>2026-04-07T14:30:00.998Z</time></trkpt><trkpt lat="44.892255" lon="9.54419"><ele>407.0</ele><time>2026-04-07T14:30:01.993Z</time></trkpt><trkpt lat="44.8922083" lon="9.5440833"><ele>407.0</ele><time>2026-04-07T14:30:03.002Z</time></trkpt><trkpt lat="44.8921567" lon="9.5439867"><ele>406.99999999999994</ele><time>2026-04-07T14:30:03.992Z</time></trkpt><trkpt lat="44.8921083" lon="9.543885"><ele>407.0</ele><time>2026-04-07T14:30:04.992Z</time></trkpt><trkpt lat="44.8920583" lon="9.5437867"><ele>403.49999999999994</ele><time>2026-04-07T14:30:05.99Z</time></trkpt><trkpt lat="44.89201" lon="9.5436867"><ele>400.0</ele><time>2026-04-07T14:30:06.994Z</time></trkpt><trkpt lat="44.8919667" lon="9.543585"><ele>396.5</ele><time>2026-04-07T14:30:07.988Z</time></trkpt><trkpt lat="44.8919283" lon="9.5434783"><ele>393.0</ele><time>2026-04-07T14:30:08.993Z</time></trkpt><trkpt lat="44.8918833" lon="9.5433867"><ele>389.49999999999994</ele><time>2026-04-07T14:30:09.995Z</time></trkpt><trkpt lat="44.891835" lon="9.5433083"><ele>386.0</ele><time>2026-04-07T14:30:10.994Z</time></trkpt><trkpt lat="44.8917733" lon="9.5432483"><ele>389.49999999999994</ele><time>2026-04-07T14:30:11.995Z</time></trkpt><trkpt lat="44.891705" lon="9.5432017"><ele>393.0</ele><time>2026-04-07T14:30:12.997Z</time></trkpt><trkpt lat="44.8916383" lon="9.5431717"><ele>396.5</ele><time>2026-04-07T14:30:13.994Z</time></trkpt><trkpt lat="44.891575" lon="9.5431533"><ele>400.0</ele><time>2026-04-07T14:30:14.999Z</time></trkpt><trkpt lat="44.8915083" lon="9.5431333"><ele>403.49999999999994</ele><time>2026-04-07T14:30:15.998Z</time></trkpt><trkpt lat="44.8914433" lon="9.543115"><ele>407.0</ele><time>2026-04-07T14:30:16.999Z</time></trkpt><trkpt lat="44.8913233" lon="9.5430633"><ele>407.0</ele><time>2026-04-07T14:30:18.997Z</time></trkpt><trkpt lat="44.8912267" lon="9.5429633"><ele>407.0</ele><time>2026-04-07T14:30:20.999Z</time></trkpt><trkpt lat="44.8911283" lon="9.5429133"><ele>407.0</ele><time>2026-04-07T14:30:22.992Z</time></trkpt><trkpt lat="44.8910483" lon="9.5428917"><ele>407.0</ele><time>2026-04-07T14:30:24.987Z</time></trkpt><trkpt lat="44.89097" lon="9.5428467"><ele>407.0</ele><time>2026-04-07T14:30:27.99Z</time></trkpt><trkpt lat="44.8908917" lon="9.542815"><ele>407.20000000000005</ele><time>2026-04-07T14:30:31.988Z</time></trkpt><trkpt lat="44.8908217" lon="9.5428817"><ele>407.4</ele><time>2026-04-07T14:30:34.998Z</time></trkpt><trkpt lat="44.8907783" lon="9.5429833"><ele>407.6</ele><time>2026-04-07T14:30:37Z</time></trkpt><trkpt lat="44.8907367" lon="9.543095"><ele>407.79999999999995</ele><time>2026-04-07T14:30:39.001Z</time></trkpt><trkpt lat="44.8906817" lon="9.5432"><ele>408.0</ele><time>2026-04-07T14:30:40.995Z</time></trkpt><trkpt lat="44.8905983" lon="9.5432767"><ele>408.0</ele><time>2026-04-07T14:30:42.991Z</time></trkpt><trkpt lat="44.89049" lon="9.5433167"><ele>408.0</ele><time>2026-04-07T14:30:44.994Z</time></trkpt><trkpt lat="44.890375" lon="9.54336"><ele>408.0</ele><time>2026-04-07T14:30:46.994Z</time></trkpt><trkpt lat="44.8902733" lon="9.5433967"><ele>408.0</ele><time>2026-04-07T14:30:48.993Z</time></trkpt><trkpt lat="44.8901883" lon="9.5434067"><ele>408.0</ele><time>2026-04-07T14:30:50.998Z</time></trkpt><trkpt lat="44.890105" lon="9.543415"><ele>407.0</ele><time>2026-04-07T14:30:52.998Z</time></trkpt><trkpt lat="44.8900183" lon="9.5434167"><ele>406.0</ele><time>2026-04-07T14:30:54.992Z</time></trkpt><trkpt lat="44.8899367" lon="9.5434067"><ele>405.0</ele><time>2026-04-07T14:30:56.992Z</time></trkpt><trkpt lat="44.8898567" lon="9.5433767"><ele>404.0</ele><time>2026-04-07T14:30:58.994Z</time></trkpt><trkpt lat="44.889785" lon="9.5433317"><ele>403.0</ele><time>2026-04-07T14:31:00.994Z</time></trkpt><trkpt lat="44.8897133" lon="9.5433"><ele>402.0</ele><time>2026-04-07T14:31:02.992Z</time></trkpt><trkpt lat="44.8896417" lon="9.5432517"><ele>402.0</ele><time>2026-04-07T14:31:04.992Z</time></trkpt><trkpt lat="44.8895667" lon="9.54321"><ele>402.0</ele><time>2026-04-07T14:31:06.998Z</time></trkpt><trkpt lat="44.8894983" lon="9.5431717"><ele>402.0</ele><time>2026-04-07T14:31:09.004Z</time></trkpt><trkpt lat="44.8894267" lon="9.54315"><ele>402.0</ele><time>2026-04-07T14:31:10.991Z</time></trkpt><trkpt lat="44.88936" lon="9.5431217"><ele>402.0</ele><time>2026-04-07T14:31:12.993Z</time></trkpt><trkpt lat="44.8892767" lon="9.5430833"><ele>402.0</ele><time>2026-04-07T14:31:15.988Z</time></trkpt><trkpt lat="44.8892283" lon="9.5430033"><ele>401.8333333333333</ele><time>2026-04-07T14:31:18.991Z</time></trkpt><trkpt lat="44.8891767" lon="9.54292"><ele>401.66666666666663</ele><time>2026-04-07T14:31:21.989Z</time></trkpt><trkpt lat="44.8891233" lon="9.5428217"><ele>401.5</ele><time>2026-04-07T14:31:24.997Z</time></trkpt><trkpt lat="44.8890633" lon="9.5427367"><ele>401.3333333333333</ele><time>2026-04-07T14:31:27.99Z</time></trkpt><trkpt lat="44.8889983" lon="9.54264"><ele>401.16666666666663</ele><time>2026-04-07T14:31:30.998Z</time></trkpt><trkpt lat="44.88893" lon="9.5426083"><ele>401.0</ele><time>2026-04-07T14:31:32.992Z</time></trkpt><trkpt lat="44.8888433" lon="9.5426317"><ele>400.99999999999994</ele><time>2026-04-07T14:31:35.993Z</time></trkpt><trkpt lat="44.8887683" lon="9.542685"><ele>401.0</ele><time>2026-04-07T14:31:38.99Z</time></trkpt><trkpt lat="44.8886967" lon="9.5427317"><ele>401.0</ele><time>2026-04-07T14:31:41.989Z</time></trkpt><trkpt lat="44.8886467" lon="9.542795"><ele>401.0</ele><time>2026-04-07T14:31:43.985Z</time></trkpt><trkpt lat="44.8885933" lon="9.54289"><ele>400.99999999999994</ele><time>2026-04-07T14:31:46.985Z</time></trkpt><trkpt lat="44.8885967" lon="9.5429933"><ele>401.0</ele><time>2026-04-07T14:31:49.989Z</time></trkpt><trkpt lat="44.888595" lon="9.5431017"><ele>404.3333333333333</ele><time>2026-04-07T14:31:52.992Z</time></trkpt><trkpt lat="44.888585" lon="9.5432017"><ele>407.66666666666663</ele><time>2026-04-07T14:31:55.992Z</time></trkpt><trkpt lat="44.888575" lon="9.5433133"><ele>411.0</ele><time>2026-04-07T14:31:58.989Z</time></trkpt><trkpt lat="44.8885767" lon="9.5434283"><ele>414.33333333333337</ele><time>2026-04-07T14:32:01.988Z</time></trkpt><trkpt lat="44.8885783" lon="9.54355"><ele>417.6666666666667</ele><time>2026-04-07T14:32:04.994Z</time></trkpt><trkpt lat="44.8885633" lon="9.5436483"><ele>421.0</ele><time>2026-04-07T14:32:07.994Z</time></trkpt><trkpt lat="44.8885367" lon="9.543765"><ele>423.1666666666667</ele><time>2026-04-07T14:32:10.99Z</time></trkpt><trkpt lat="44.8884967" lon="9.543885"><ele>425.33333333333337</ele><time>2026-04-07T14:32:13.992Z</time></trkpt><trkpt lat="44.8884567" lon="9.5439633"><ele>427.5</ele><time>2026-04-07T14:32:15.996Z</time></trkpt><trkpt lat="44.8884" lon="9.5440067"><ele>429.66666666666663</ele><time>2026-04-07T14:32:17.987Z</time></trkpt><trkpt lat="44.8883367" lon="9.5440517"><ele>431.8333333333333</ele><time>2026-04-07T14:32:19.999Z</time></trkpt><trkpt lat="44.8882667" lon="9.54411"><ele>434.0</ele><time>2026-04-07T14:32:21.993Z</time></trkpt><trkpt lat="44.888215" lon="9.5441917"><ele>434.0</ele><time>2026-04-07T14:32:23.99Z</time></trkpt><trkpt lat="44.8881767" lon="9.544275"><ele>434.0</ele><time>2026-04-07T14:32:25.996Z</time></trkpt><trkpt lat="44.8881483" lon="9.5443567"><ele>434.0</ele><time>2026-04-07T14:32:27.993Z</time></trkpt><trkpt lat="44.8881167" lon="9.5444383"><ele>434.0</ele><time>2026-04-07T14:32:29.995Z</time></trkpt><trkpt lat="44.888075" lon="9.5445333"><ele>434.0</ele><time>2026-04-07T14:32:31.991Z</time></trkpt><trkpt lat="44.8880483" lon="9.5446283"><ele>434.0</ele><time>2026-04-07T14:32:33.992Z</time></trkpt><trkpt lat="44.8879867" lon="9.5446983"><ele>434.0</ele><time>2026-04-07T14:32:37.004Z</time></trkpt><trkpt lat="44.8879" lon="9.5446517"><ele>434.0</ele><time>2026-04-07T14:32:39.991Z</time></trkpt><trkpt lat="44.8878483" lon="9.54459"><ele>434.0</ele><time>2026-04-07T14:32:41.994Z</time></trkpt><trkpt lat="44.8877917" lon="9.5445317"><ele>434.0</ele><time>2026-04-07T14:32:43.992Z</time></trkpt><trkpt lat="44.8877117" lon="9.5445233"><ele>434.0</ele><time>2026-04-07T14:32:45.989Z</time></trkpt><trkpt lat="44.88765" lon="9.5445483"><ele>434.0</ele><time>2026-04-07T14:32:47.986Z</time></trkpt><trkpt lat="44.88758" lon="9.5445517"><ele>434.0</ele><time>2026-04-07T14:32:49.988Z</time></trkpt><trkpt lat="44.88749" lon="9.5445483"><ele>434.0</ele><time>2026-04-07T14:32:51.987Z</time></trkpt><trkpt lat="44.8874033" lon="9.5445367"><ele>433.3333333333333</ele><time>2026-04-07T14:32:53.99Z</time></trkpt><trkpt lat="44.8873333" lon="9.5444833"><ele>432.66666666666663</ele><time>2026-04-07T14:32:55.992Z</time></trkpt><trkpt lat="44.8872833" lon="9.5443933"><ele>432.0</ele><time>2026-04-07T14:32:57.995Z</time></trkpt><trkpt lat="44.8872317" lon="9.5443217"><ele>431.33333333333337</ele><time>2026-04-07T14:32:59.992Z</time></trkpt><trkpt lat="44.8871783" lon="9.5442483"><ele>430.6666666666667</ele><time>2026-04-07T14:33:01.994Z</time></trkpt><trkpt lat="44.8871267" lon="9.5441917"><ele>430.0</ele><time>2026-04-07T14:33:03.989Z</time></trkpt><trkpt lat="44.887055" lon="9.5440967"><ele>430.00000000000006</ele><time>2026-04-07T14:33:06.993Z</time></trkpt><trkpt lat="44.887005" lon="9.544035"><ele>430.0</ele><time>2026-04-07T14:33:09.002Z</time></trkpt><trkpt lat="44.8869233" lon="9.5439883"><ele>430.0</ele><time>2026-04-07T14:33:11.987Z</time></trkpt><trkpt lat="44.88683" lon="9.543965"><ele>430.0</ele><time>2026-04-07T14:33:14.985Z</time></trkpt><trkpt lat="44.8867433" lon="9.5439767"><ele>430.00000000000006</ele><time>2026-04-07T14:33:17.987Z</time></trkpt><trkpt lat="44.8866733" lon="9.544045"><ele>430.0</ele><time>2026-04-07T14:33:21.002Z</time></trkpt><trkpt lat="44.88661" lon="9.5441483"><ele>431.1428571428571</ele><time>2026-04-07T14:33:23.999Z</time></trkpt><trkpt lat="44.8865717" lon="9.54422"><ele>432.28571428571433</ele><time>2026-04-07T14:33:25.99Z</time></trkpt><trkpt lat="44.8865233" lon="9.54429"><ele>433.42857142857144</ele><time>2026-04-07T14:33:27.99Z</time></trkpt><trkpt lat="44.8864767" lon="9.54437"><ele>434.57142857142856</ele><time>2026-04-07T14:33:29.989Z</time></trkpt><trkpt lat="44.886435" lon="9.5444483"><ele>435.71428571428567</ele><time>2026-04-07T14:33:31.99Z</time></trkpt><trkpt lat="44.8863783" lon="9.5445283"><ele>436.8571428571429</ele><time>2026-04-07T14:33:33.991Z</time></trkpt><trkpt lat="44.886315" lon="9.5446183"><ele>438.0</ele><time>2026-04-07T14:33:35.991Z</time></trkpt><trkpt lat="44.8862383" lon="9.5447217"><ele>444.25</ele><time>2026-04-07T14:33:37.991Z</time></trkpt><trkpt lat="44.88619" lon="9.5448633"><ele>450.5</ele><time>2026-04-07T14:33:39.99Z</time></trkpt><trkpt lat="44.8861367" lon="9.545015"><ele>456.75</ele><time>2026-04-07T14:33:41.99Z</time></trkpt><trkpt lat="44.8860817" lon="9.5451767"><ele>463.0</ele><time>2026-04-07T14:33:43.994Z</time></trkpt><trkpt lat="44.88604" lon="9.5453183"><ele>465.50000000000006</ele><time>2026-04-07T14:33:45.997Z</time></trkpt><trkpt lat="44.8860183" lon="9.5454217"><ele>468.0</ele><time>2026-04-07T14:33:47.992Z</time></trkpt><trkpt lat="44.8859883" lon="9.545535"><ele>470.5</ele><time>2026-04-07T14:33:50.989Z</time></trkpt><trkpt lat="44.8859633" lon="9.5456317"><ele>473.0</ele><time>2026-04-07T14:33:52.997Z</time></trkpt><trkpt lat="44.885935" lon="9.545745"><ele>475.50000000000006</ele><time>2026-04-07T14:33:55.015Z</time></trkpt><trkpt lat="44.885905" lon="9.545835"><ele>478.0</ele><time>2026-04-07T14:33:56.996Z</time></trkpt><trkpt lat="44.8858633" lon="9.5459367"><ele>474.79999999999995</ele><time>2026-04-07T14:33:58.988Z</time></trkpt><trkpt lat="44.8858067" lon="9.546035"><ele>471.59999999999997</ele><time>2026-04-07T14:34:00.993Z</time></trkpt><trkpt lat="44.88575" lon="9.5461167"><ele>468.40000000000003</ele><time>2026-04-07T14:34:03.002Z</time></trkpt><trkpt lat="44.8856917" lon="9.5462117"><ele>465.20000000000005</ele><time>2026-04-07T14:34:04.999Z</time></trkpt><trkpt lat="44.8856283" lon="9.5463217"><ele>462.0</ele><time>2026-04-07T14:34:06.991Z</time></trkpt><trkpt lat="44.8855583" lon="9.5464367"><ele>462.0</ele><time>2026-04-07T14:34:09.002Z</time></trkpt><trkpt lat="44.8855067" lon="9.5465367"><ele>462.00000000000006</ele><time>2026-04-07T14:34:10.994Z</time></trkpt><trkpt lat="44.885455" lon="9.54664"><ele>462.00000000000006</ele><time>2026-04-07T14:34:12.991Z</time></trkpt><trkpt lat="44.8854" lon="9.54674"><ele>462.0</ele><time>2026-04-07T14:34:14.997Z</time></trkpt><trkpt lat="44.8853433" lon="9.54683"><ele>462.0</ele><time>2026-04-07T14:34:17.003Z</time></trkpt><trkpt lat="44.8852733" lon="9.546935"><ele>462.0</ele><time>2026-04-07T14:34:18.994Z</time></trkpt><trkpt lat="44.8852083" lon="9.547035"><ele>462.00000000000006</ele><time>2026-04-07T14:34:20.992Z</time></trkpt><trkpt lat="44.88514" lon="9.5471483"><ele>462.00000000000006</ele><time>2026-04-07T14:34:22.998Z</time></trkpt><trkpt lat="44.885065" lon="9.5472633"><ele>462.0</ele><time>2026-04-07T14:34:24.989Z</time></trkpt><trkpt lat="44.8849817" lon="9.5473683"><ele>462.0</ele><time>2026-04-07T14:34:26.994Z</time></trkpt><trkpt lat="44.8849083" lon="9.5474833"><ele>459.0</ele><time>2026-04-07T14:34:29.001Z</time></trkpt><trkpt lat="44.8848417" lon="9.5476133"><ele>456.00000000000006</ele><time>2026-04-07T14:34:30.994Z</time></trkpt><trkpt lat="44.8847667" lon="9.5477567"><ele>453.00000000000006</ele><time>2026-04-07T14:34:32.992Z</time></trkpt><trkpt lat="44.884725" lon="9.547835"><ele>450.0</ele><time>2026-04-07T14:34:33.991Z</time></trkpt><trkpt lat="44.8846583" lon="9.5479467"><ele>447.0</ele><time>2026-04-07T14:34:35.993Z</time></trkpt><trkpt lat="44.8845817" lon="9.5480267"><ele>447.0</ele><time>2026-04-07T14:34:37.993Z</time></trkpt><trkpt lat="44.8844917" lon="9.548085"><ele>447.00000000000006</ele><time>2026-04-07T14:34:39.991Z</time></trkpt><trkpt lat="44.884385" lon="9.5481267"><ele>447.00000000000006</ele><time>2026-04-07T14:34:41.996Z</time></trkpt><trkpt lat="44.88427" lon="9.548175"><ele>447.0</ele><time>2026-04-07T14:34:43.988Z</time></trkpt><trkpt lat="44.88418" lon="9.5482583"><ele>447.0</ele><time>2026-04-07T14:34:45.993Z</time></trkpt><trkpt lat="44.8841483" lon="9.5484233"><ele>446.85714285714283</ele><time>2026-04-07T14:34:47.993Z</time></trkpt><trkpt lat="44.88415" lon="9.5485283"><ele>446.7142857142857</ele><time>2026-04-07T14:34:48.992Z</time></trkpt><trkpt lat="44.8841567" lon="9.5486367"><ele>446.57142857142856</ele><time>2026-04-07T14:34:49.988Z</time></trkpt><trkpt lat="44.8841683" lon="9.5487367"><ele>446.42857142857144</ele><time>2026-04-07T14:34:50.99Z</time></trkpt><trkpt lat="44.884185" lon="9.548835"><ele>446.2857142857143</ele><time>2026-04-07T14:34:51.989Z</time></trkpt><trkpt lat="44.8842033" lon="9.54893"><ele>446.1428571428571</ele><time>2026-04-07T14:34:53.004Z</time></trkpt><trkpt lat="44.8842233" lon="9.5490167"><ele>446.0</ele><time>2026-04-07T14:34:53.994Z</time></trkpt><trkpt lat="44.8842683" lon="9.54916"><ele>445.99999999999994</ele><time>2026-04-07T14:34:55.99Z</time></trkpt><trkpt lat="44.8843067" lon="9.5492733"><ele>446.0</ele><time>2026-04-07T14:34:57.987Z</time></trkpt><trkpt lat="44.884355" lon="9.54938"><ele>446.0</ele><time>2026-04-07T14:34:59.997Z</time></trkpt><trkpt lat="44.884385" lon="9.549465"><ele>446.0</ele><time>2026-04-07T14:35:01.992Z</time></trkpt><trkpt lat="44.8844333" lon="9.5495667"><ele>445.99999999999994</ele><time>2026-04-07T14:35:03.998Z</time></trkpt><trkpt lat="44.8844817" lon="9.549665"><ele>446.0</ele><time>2026-04-07T14:35:06.009Z</time></trkpt><trkpt lat="44.884525" lon="9.549765"><ele>445.3333333333333</ele><time>2026-04-07T14:35:07.989Z</time></trkpt><trkpt lat="44.8845517" lon="9.5498683"><ele>444.66666666666663</ele><time>2026-04-07T14:35:09.996Z</time></trkpt><trkpt lat="44.8845983" lon="9.5499767"><ele>444.0</ele><time>2026-04-07T14:35:11.988Z</time></trkpt><trkpt lat="44.884635" lon="9.5501017"><ele>443.33333333333337</ele><time>2026-04-07T14:35:13.988Z</time></trkpt><trkpt lat="44.8846683" lon="9.5502033"><ele>442.6666666666667</ele><time>2026-04-07T14:35:15.991Z</time></trkpt><trkpt lat="44.8847033" lon="9.5502933"><ele>442.0</ele><time>2026-04-07T14:35:17.991Z</time></trkpt><trkpt lat="44.884745" lon="9.55038"><ele>443.33333333333337</ele><time>2026-04-07T14:35:19.99Z</time></trkpt><trkpt lat="44.8847867" lon="9.5504767"><ele>444.6666666666667</ele><time>2026-04-07T14:35:21.989Z</time></trkpt><trkpt lat="44.884845" lon="9.5505733"><ele>446.0</ele><time>2026-04-07T14:35:23.988Z</time></trkpt><trkpt lat="44.8849083" lon="9.5506567"><ele>447.33333333333337</ele><time>2026-04-07T14:35:25.991Z</time></trkpt><trkpt lat="44.88498" lon="9.55075"><ele>448.6666666666667</ele><time>2026-04-07T14:35:27.987Z</time></trkpt><trkpt lat="44.885045" lon="9.5508233"><ele>450.0</ele><time>2026-04-07T14:35:29.989Z</time></trkpt><trkpt lat="44.8851067" lon="9.5508767"><ele>450.0</ele><time>2026-04-07T14:35:31.994Z</time></trkpt><trkpt lat="44.8851217" lon="9.5509717"><ele>450.0</ele><time>2026-04-07T14:35:33.991Z</time></trkpt><trkpt lat="44.8851067" lon="9.5511083"><ele>450.0</ele><time>2026-04-07T14:35:35.993Z</time></trkpt><trkpt lat="44.8850717" lon="9.55125"><ele>450.0</ele><time>2026-04-07T14:35:37.992Z</time></trkpt><trkpt lat="44.8850167" lon="9.5513683"><ele>450.0</ele><time>2026-04-07T14:35:39.99Z</time></trkpt><trkpt lat="44.8849583" lon="9.5514867"><ele>445.1666666666667</ele><time>2026-04-07T14:35:41.99Z</time></trkpt><trkpt lat="44.8849017" lon="9.55157"><ele>440.33333333333337</ele><time>2026-04-07T14:35:43.993Z</time></trkpt><trkpt lat="44.8848183" lon="9.5516017"><ele>435.5</ele><time>2026-04-07T14:35:46.988Z</time></trkpt><trkpt lat="44.8847533" lon="9.5516633"><ele>430.6666666666667</ele><time>2026-04-07T14:35:49.992Z</time></trkpt><trkpt lat="44.88473" lon="9.5517467"><ele>425.83333333333337</ele><time>2026-04-07T14:35:51.989Z</time></trkpt><trkpt lat="44.884795" lon="9.551905"><ele>421.0</ele><time>2026-04-07T14:35:53.992Z</time></trkpt><trkpt lat="44.8848333" lon="9.5520183"><ele>420.00000000000006</ele><time>2026-04-07T14:35:54.992Z</time></trkpt><trkpt lat="44.8848617" lon="9.5521417"><ele>419.0</ele><time>2026-04-07T14:35:55.992Z</time></trkpt><trkpt lat="44.8848783" lon="9.5522667"><ele>418.0</ele><time>2026-04-07T14:35:57.004Z</time></trkpt><trkpt lat="44.8849" lon="9.55239"><ele>417.0</ele><time>2026-04-07T14:35:57.99Z</time></trkpt><trkpt lat="44.8849233" lon="9.552505"><ele>416.00000000000006</ele><time>2026-04-07T14:35:58.991Z</time></trkpt><trkpt lat="44.8849433" lon="9.5526033"><ele>415.0</ele><time>2026-04-07T14:35:59.99Z</time></trkpt><trkpt lat="44.884985" lon="9.5527383"><ele>415.00000000000006</ele><time>2026-04-07T14:36:01.994Z</time></trkpt><trkpt lat="44.8850583" lon="9.552775"><ele>415.0</ele><time>2026-04-07T14:36:03.992Z</time></trkpt><trkpt lat="44.885155" lon="9.5527683"><ele>415.0</ele><time>2026-04-07T14:36:05.988Z</time></trkpt><trkpt lat="44.8852517" lon="9.55278"><ele>415.0</ele><time>2026-04-07T14:36:07.999Z</time></trkpt><trkpt lat="44.88531" lon="9.5528483"><ele>415.00000000000006</ele><time>2026-04-07T14:36:09.995Z</time></trkpt><trkpt lat="44.8853367" lon="9.55293"><ele>415.0</ele><time>2026-04-07T14:36:11.991Z</time></trkpt><trkpt lat="44.8853017" lon="9.5530367"><ele>415.0</ele><time>2026-04-07T14:36:13.988Z</time></trkpt><trkpt lat="44.885225" lon="9.5531383"><ele>415.0</ele><time>2026-04-07T14:36:15.991Z</time></trkpt><trkpt lat="44.8851467" lon="9.5532183"><ele>415.0</ele><time>2026-04-07T14:36:17.989Z</time></trkpt><trkpt lat="44.8850733" lon="9.5533233"><ele>415.0</ele><time>2026-04-07T14:36:19.992Z</time></trkpt><trkpt lat="44.8850483" lon="9.553425"><ele>415.0</ele><time>2026-04-07T14:36:21.996Z</time></trkpt><trkpt lat="44.885035" lon="9.553525"><ele>415.00000000000006</ele><time>2026-04-07T14:36:22.994Z</time></trkpt><trkpt lat="44.8850217" lon="9.5536283"><ele>415.0</ele><time>2026-04-07T14:36:23.992Z</time></trkpt><trkpt lat="44.885005" lon="9.5537183"><ele>415.0</ele><time>2026-04-07T14:36:24.988Z</time></trkpt><trkpt lat="44.8849883" lon="9.5538133"><ele>415.0</ele><time>2026-04-07T14:36:25.989Z</time></trkpt><trkpt lat="44.8849617" lon="9.5539067"><ele>415.00000000000006</ele><time>2026-04-07T14:36:26.998Z</time></trkpt><trkpt lat="44.88487" lon="9.5540067"><ele>415.0</ele><time>2026-04-07T14:36:29Z</time></trkpt><trkpt lat="44.88481" lon="9.5540633"><ele>416.1666666666667</ele><time>2026-04-07T14:36:29.994Z</time></trkpt><trkpt lat="44.8847517" lon="9.5541"><ele>417.33333333333337</ele><time>2026-04-07T14:36:30.994Z</time></trkpt><trkpt lat="44.884695" lon="9.5541417"><ele>418.5</ele><time>2026-04-07T14:36:31.989Z</time></trkpt><trkpt lat="44.8845933" lon="9.5542467"><ele>419.66666666666663</ele><time>2026-04-07T14:36:33.991Z</time></trkpt><trkpt lat="44.88455" lon="9.5543167"><ele>420.8333333333333</ele><time>2026-04-07T14:36:35.002Z</time></trkpt><trkpt lat="44.88451" lon="9.5543883"><ele>422.0</ele><time>2026-04-07T14:36:35.994Z</time></trkpt><trkpt lat="44.8844633" lon="9.55454"><ele>421.99999999999994</ele><time>2026-04-07T14:36:37.995Z</time></trkpt><trkpt lat="44.88447" lon="9.5547033"><ele>422.0</ele><time>2026-04-07T14:36:39.989Z</time></trkpt><trkpt lat="44.8845033" lon="9.5547833"><ele>422.0</ele><time>2026-04-07T14:36:40.995Z</time></trkpt><trkpt lat="44.8845483" lon="9.5548583"><ele>422.0</ele><time>2026-04-07T14:36:41.994Z</time></trkpt><trkpt lat="44.884595" lon="9.5549317"><ele>421.99999999999994</ele><time>2026-04-07T14:36:42.987Z</time></trkpt><trkpt lat="44.8846467" lon="9.555005"><ele>422.0</ele><time>2026-04-07T14:36:43.991Z</time></trkpt><trkpt lat="44.8846933" lon="9.5550817"><ele>422.0</ele><time>2026-04-07T14:36:44.995Z</time></trkpt><trkpt lat="44.88474" lon="9.5551533"><ele>422.0</ele><time>2026-04-07T14:36:45.995Z</time></trkpt><trkpt lat="44.8847817" lon="9.55523"><ele>422.0</ele><time>2026-04-07T14:36:46.99Z</time></trkpt><trkpt lat="44.884815" lon="9.5553233"><ele>422.0</ele><time>2026-04-07T14:36:47.993Z</time></trkpt><trkpt lat="44.8848317" lon="9.55542"><ele>422.0</ele><time>2026-04-07T14:36:48.995Z</time></trkpt><trkpt lat="44.8848517" lon="9.5555133"><ele>422.0</ele><time>2026-04-07T14:36:49.993Z</time></trkpt><trkpt lat="44.8848783" lon="9.5556017"><ele>422.0</ele><time>2026-04-07T14:36:50.994Z</time></trkpt><trkpt lat="44.8849233" lon="9.5556833"><ele>424.16666666666663</ele><time>2026-04-07T14:36:51.999Z</time></trkpt><trkpt lat="44.8849733" lon="9.5557633"><ele>426.3333333333333</ele><time>2026-04-07T14:36:52.999Z</time></trkpt><trkpt lat="44.8850267" lon="9.5558433"><ele>428.5</ele><time>2026-04-07T14:36:53.993Z</time></trkpt><trkpt lat="44.885085" lon="9.5559183"><ele>430.66666666666663</ele><time>2026-04-07T14:36:55.004Z</time></trkpt><trkpt lat="44.88515" lon="9.5559883"><ele>432.8333333333333</ele><time>2026-04-07T14:36:55.998Z</time></trkpt><trkpt lat="44.8852217" lon="9.55606"><ele>435.0</ele><time>2026-04-07T14:36:56.993Z</time></trkpt><trkpt lat="44.88529" lon="9.5561233"><ele>435.0</ele><time>2026-04-07T14:36:57.993Z</time></trkpt><trkpt lat="44.88536" lon="9.556175"><ele>435.0</ele><time>2026-04-07T14:36:58.994Z</time></trkpt><trkpt lat="44.8854167" lon="9.5562267"><ele>435.0</ele><time>2026-04-07T14:36:59.99Z</time></trkpt><trkpt lat="44.885475" lon="9.5563517"><ele>435.0</ele><time>2026-04-07T14:37:01.991Z</time></trkpt><trkpt lat="44.8854683" lon="9.5564783"><ele>435.0</ele><time>2026-04-07T14:37:03.993Z</time></trkpt><trkpt lat="44.8854217" lon="9.5566367"><ele>430.8</ele><time>2026-04-07T14:37:05.986Z</time></trkpt><trkpt lat="44.88538" lon="9.5568017"><ele>426.6</ele><time>2026-04-07T14:37:07.994Z</time></trkpt><trkpt lat="44.885365" lon="9.5568883"><ele>422.4</ele><time>2026-04-07T14:37:08.997Z</time></trkpt><trkpt lat="44.8853633" lon="9.55706"><ele>418.2</ele><time>2026-04-07T14:37:10.991Z</time></trkpt><trkpt lat="44.8854133" lon="9.55718"><ele>414.0</ele><time>2026-04-07T14:37:12.989Z</time></trkpt><trkpt lat="44.885465" lon="9.5572317"><ele>410.5714285714286</ele><time>2026-04-07T14:37:13.995Z</time></trkpt><trkpt lat="44.8855117" lon="9.5572933"><ele>407.14285714285717</ele><time>2026-04-07T14:37:14.989Z</time></trkpt><trkpt lat="44.8855683" lon="9.55735"><ele>403.7142857142857</ele><time>2026-04-07T14:37:15.991Z</time></trkpt><trkpt lat="44.8856233" lon="9.55742"><ele>400.28571428571433</ele><time>2026-04-07T14:37:16.993Z</time></trkpt><trkpt lat="44.885675" lon="9.55749"><ele>396.85714285714283</ele><time>2026-04-07T14:37:17.99Z</time></trkpt><trkpt lat="44.8857267" lon="9.55757"><ele>393.42857142857144</ele><time>2026-04-07T14:37:18.994Z</time></trkpt><trkpt lat="44.8857783" lon="9.557655"><ele>390.0</ele><time>2026-04-07T14:37:19.989Z</time></trkpt><trkpt lat="44.885825" lon="9.5577483"><ele>390.0</ele><time>2026-04-07T14:37:20.988Z</time></trkpt><trkpt lat="44.8858717" lon="9.55784"><ele>390.0</ele><time>2026-04-07T14:37:21.994Z</time></trkpt><trkpt lat="44.8859167" lon="9.557925"><ele>390.0</ele><time>2026-04-07T14:37:22.99Z</time></trkpt><trkpt lat="44.8859517" lon="9.5580017"><ele>390.0</ele><time>2026-04-07T14:37:23.998Z</time></trkpt><trkpt lat="44.8860517" lon="9.558095"><ele>390.0</ele><time>2026-04-07T14:37:25.991Z</time></trkpt><trkpt lat="44.88617" lon="9.5581233"><ele>386.1666666666667</ele><time>2026-04-07T14:37:27.989Z</time></trkpt><trkpt lat="44.886235" lon="9.55811"><ele>382.3333333333333</ele><time>2026-04-07T14:37:28.997Z</time></trkpt><trkpt lat="44.8863033" lon="9.5580917"><ele>378.5</ele><time>2026-04-07T14:37:29.988Z</time></trkpt><trkpt lat="44.8863717" lon="9.55807"><ele>374.66666666666663</ele><time>2026-04-07T14:37:31.005Z</time></trkpt><trkpt lat="44.8864417" lon="9.558045"><ele>370.8333333333333</ele><time>2026-04-07T14:37:31.995Z</time></trkpt><trkpt lat="44.8865017" lon="9.558015"><ele>367.0</ele><time>2026-04-07T14:37:32.999Z</time></trkpt><trkpt lat="44.886615" lon="9.5579517"><ele>368.40000000000003</ele><time>2026-04-07T14:37:34.987Z</time></trkpt><trkpt lat="44.8867133" lon="9.557845"><ele>369.8</ele><time>2026-04-07T14:37:36.997Z</time></trkpt><trkpt lat="44.8868117" lon="9.5577717"><ele>371.2</ele><time>2026-04-07T14:37:38.997Z</time></trkpt><trkpt lat="44.8869183" lon="9.55774"><ele>372.6</ele><time>2026-04-07T14:37:40.998Z</time></trkpt><trkpt lat="44.8870183" lon="9.55774"><ele>374.0</ele><time>2026-04-07T14:37:42.995Z</time></trkpt><trkpt lat="44.887085" lon="9.557805"><ele>372.6</ele><time>2026-04-07T14:37:44.996Z</time></trkpt><trkpt lat="44.887085" lon="9.5578967"><ele>371.2</ele><time>2026-04-07T14:37:47.003Z</time></trkpt><trkpt lat="44.8870183" lon="9.557935"><ele>369.8</ele><time>2026-04-07T14:37:48.986Z</time></trkpt><trkpt lat="44.8869317" lon="9.55793"><ele>368.40000000000003</ele><time>2026-04-07T14:37:50.989Z</time></trkpt><trkpt lat="44.8868183" lon="9.557965"><ele>367.0</ele><time>2026-04-07T14:37:52.99Z</time></trkpt><trkpt lat="44.886705" lon="9.5580133"><ele>367.0</ele><time>2026-04-07T14:37:54.998Z</time></trkpt><trkpt lat="44.8865933" lon="9.5581017"><ele>367.0</ele><time>2026-04-07T14:37:56.992Z</time></trkpt><trkpt lat="44.88653" lon="9.55816"><ele>367.0</ele><time>2026-04-07T14:37:57.99Z</time></trkpt><trkpt lat="44.8864667" lon="9.5582133"><ele>367.0</ele><time>2026-04-07T14:37:58.991Z</time></trkpt><trkpt lat="44.8864" lon="9.5582717"><ele>367.0</ele><time>2026-04-07T14:37:59.991Z</time></trkpt><trkpt lat="44.8863333" lon="9.5583333"><ele>367.0</ele><time>2026-04-07T14:38:00.996Z</time></trkpt><trkpt lat="44.8862733" lon="9.5583983"><ele>367.0</ele><time>2026-04-07T14:38:01.99Z</time></trkpt><trkpt lat="44.88622" lon="9.558455"><ele>367.0</ele><time>2026-04-07T14:38:02.998Z</time></trkpt><trkpt lat="44.8861133" lon="9.5585267"><ele>367.0</ele><time>2026-04-07T14:38:04.988Z</time></trkpt><trkpt lat="44.8860033" lon="9.5585483"><ele>367.0</ele><time>2026-04-07T14:38:07.002Z</time></trkpt><trkpt lat="44.8859233" lon="9.5585067"><ele>367.0</ele><time>2026-04-07T14:38:08.993Z</time></trkpt><trkpt lat="44.8858583" lon="9.5584567"><ele>365.40000000000003</ele><time>2026-04-07T14:38:10.99Z</time></trkpt><trkpt lat="44.88579" lon="9.5584533"><ele>363.8</ele><time>2026-04-07T14:38:13.994Z</time></trkpt><trkpt lat="44.8858" lon="9.558555"><ele>362.2</ele><time>2026-04-07T14:38:16.994Z</time></trkpt><trkpt lat="44.8858733" lon="9.5586283"><ele>360.6</ele><time>2026-04-07T14:38:18.995Z</time></trkpt><trkpt lat="44.8859667" lon="9.5587183"><ele>359.0</ele><time>2026-04-07T14:38:20.995Z</time></trkpt><trkpt lat="44.8860667" lon="9.558785"><ele>353.75</ele><time>2026-04-07T14:38:23.003Z</time></trkpt><trkpt lat="44.8861633" lon="9.5588017"><ele>348.5</ele><time>2026-04-07T14:38:24.993Z</time></trkpt><trkpt lat="44.8862683" lon="9.5587467"><ele>343.25</ele><time>2026-04-07T14:38:26.995Z</time></trkpt><trkpt lat="44.8863867" lon="9.5587183"><ele>338.0</ele><time>2026-04-07T14:38:28.992Z</time></trkpt><trkpt lat="44.8865083" lon="9.5587567"><ele>338.0</ele><time>2026-04-07T14:38:30.994Z</time></trkpt><trkpt lat="44.8865717" lon="9.5587967"><ele>338.0</ele><time>2026-04-07T14:38:31.985Z</time></trkpt><trkpt lat="44.8866333" lon="9.5588483"><ele>338.0</ele><time>2026-04-07T14:38:33.002Z</time></trkpt><trkpt lat="44.88669" lon="9.5589"><ele>338.0</ele><time>2026-04-07T14:38:33.992Z</time></trkpt><trkpt lat="44.886745" lon="9.55895"><ele>338.0</ele><time>2026-04-07T14:38:34.994Z</time></trkpt><trkpt lat="44.8868567" lon="9.5590117"><ele>338.0</ele><time>2026-04-07T14:38:36.99Z</time></trkpt><trkpt lat="44.8869217" lon="9.5590167"><ele>336.79999999999995</ele><time>2026-04-07T14:38:37.994Z</time></trkpt><trkpt lat="44.88705" lon="9.5589817"><ele>335.6</ele><time>2026-04-07T14:38:39.989Z</time></trkpt><trkpt lat="44.8871233" lon="9.55896"><ele>334.4</ele><time>2026-04-07T14:38:40.994Z</time></trkpt><trkpt lat="44.8872017" lon="9.55894"><ele>333.20000000000005</ele><time>2026-04-07T14:38:41.991Z</time></trkpt><trkpt lat="44.88728" lon="9.5589433"><ele>332.0</ele><time>2026-04-07T14:38:42.988Z</time></trkpt><trkpt lat="44.8873667" lon="9.5589517"><ele>332.0</ele><time>2026-04-07T14:38:43.986Z</time></trkpt><trkpt lat="44.8874533" lon="9.5589667"><ele>332.0</ele><time>2026-04-07T14:38:44.994Z</time></trkpt><trkpt lat="44.88754" lon="9.5589783"><ele>332.0</ele><time>2026-04-07T14:38:45.991Z</time></trkpt><trkpt lat="44.8876217" lon="9.5589933"><ele>332.0</ele><time>2026-04-07T14:38:46.99Z</time></trkpt><trkpt lat="44.8877017" lon="9.55901"><ele>332.0</ele><time>2026-04-07T14:38:47.991Z</time></trkpt><trkpt lat="44.88778" lon="9.5590267"><ele>332.0</ele><time>2026-04-07T14:38:48.995Z</time></trkpt><trkpt lat="44.8878567" lon="9.5590417"><ele>332.0</ele><time>2026-04-07T14:38:49.992Z</time></trkpt><trkpt lat="44.8879267" lon="9.55905"><ele>332.0</ele><time>2026-04-07T14:38:50.995Z</time></trkpt><trkpt lat="44.887995" lon="9.55905"><ele>332.0</ele><time>2026-04-07T14:38:51.992Z</time></trkpt><trkpt lat="44.8880567" lon="9.559025"><ele>332.0</ele><time>2026-04-07T14:38:52.995Z</time></trkpt><trkpt lat="44.88812" lon="9.55899"><ele>332.0</ele><time>2026-04-07T14:38:53.99Z</time></trkpt><trkpt lat="44.8881833" lon="9.5589633"><ele>332.0</ele><time>2026-04-07T14:38:54.989Z</time></trkpt><trkpt lat="44.88825" lon="9.55895"><ele>332.0</ele><time>2026-04-07T14:38:55.996Z</time></trkpt><trkpt lat="44.888315" lon="9.5589583"><ele>332.0</ele><time>2026-04-07T14:38:56.992Z</time></trkpt><trkpt lat="44.8883783" lon="9.559015"><ele>332.0</ele><time>2026-04-07T14:38:57.989Z</time></trkpt><trkpt lat="44.88844" lon="9.5590817"><ele>332.0</ele><time>2026-04-07T14:38:58.992Z</time></trkpt><trkpt lat="44.8884933" lon="9.55915"><ele>332.0</ele><time>2026-04-07T14:38:59.987Z</time></trkpt><trkpt lat="44.8885583" lon="9.559215"><ele>332.0</ele><time>2026-04-07T14:39:00.992Z</time></trkpt><trkpt lat="44.8886317" lon="9.55926"><ele>332.0</ele><time>2026-04-07T14:39:01.991Z</time></trkpt><trkpt lat="44.888705" lon="9.5592733"><ele>331.83333333333337</ele><time>2026-04-07T14:39:02.993Z</time></trkpt><trkpt lat="44.8887817" lon="9.55927"><ele>331.6666666666667</ele><time>2026-04-07T14:39:03.987Z</time></trkpt><trkpt lat="44.888855" lon="9.55926"><ele>331.5</ele><time>2026-04-07T14:39:04.999Z</time></trkpt><trkpt lat="44.88892" lon="9.5592583"><ele>331.3333333333333</ele><time>2026-04-07T14:39:05.988Z</time></trkpt><trkpt lat="44.8890383" lon="9.5593183"><ele>331.16666666666663</ele><time>2026-04-07T14:39:07.986Z</time></trkpt><trkpt lat="44.8890967" lon="9.5593633"><ele>331.0</ele><time>2026-04-07T14:39:08.989Z</time></trkpt><trkpt lat="44.8892117" lon="9.5594133"><ele>330.66666666666663</ele><time>2026-04-07T14:39:10.991Z</time></trkpt><trkpt lat="44.8893333" lon="9.5594117"><ele>330.3333333333333</ele><time>2026-04-07T14:39:12.991Z</time></trkpt><trkpt lat="44.8894017" lon="9.5593967"><ele>330.0</ele><time>2026-04-07T14:39:13.992Z</time></trkpt><trkpt lat="44.8894783" lon="9.5593983"><ele>329.6666666666667</ele><time>2026-04-07T14:39:14.989Z</time></trkpt><trkpt lat="44.88957" lon="9.5594117"><ele>329.33333333333337</ele><time>2026-04-07T14:39:15.992Z</time></trkpt><trkpt lat="44.8896517" lon="9.5594367"><ele>329.0</ele><time>2026-04-07T14:39:17.003Z</time></trkpt><trkpt lat="44.8897367" lon="9.559485"><ele>329.0</ele><time>2026-04-07T14:39:17.996Z</time></trkpt><trkpt lat="44.8898083" lon="9.55953"><ele>329.0</ele><time>2026-04-07T14:39:18.991Z</time></trkpt><trkpt lat="44.88988" lon="9.5595583"><ele>329.0</ele><time>2026-04-07T14:39:19.99Z</time></trkpt><trkpt lat="44.8899633" lon="9.5595783"><ele>329.0</ele><time>2026-04-07T14:39:20.995Z</time></trkpt><trkpt lat="44.8900417" lon="9.5595917"><ele>329.0</ele><time>2026-04-07T14:39:21.992Z</time></trkpt><trkpt lat="44.89012" lon="9.5596133"><ele>329.0</ele><time>2026-04-07T14:39:22.991Z</time></trkpt><trkpt lat="44.8901883" lon="9.5596517"><ele>324.83333333333337</ele><time>2026-04-07T14:39:23.993Z</time></trkpt><trkpt lat="44.8902583" lon="9.5597083"><ele>320.6666666666667</ele><time>2026-04-07T14:39:24.999Z</time></trkpt><trkpt lat="44.8903167" lon="9.559785"><ele>316.5</ele><time>2026-04-07T14:39:25.989Z</time></trkpt><trkpt lat="44.8903633" lon="9.5598683"><ele>312.3333333333333</ele><time>2026-04-07T14:39:26.999Z</time></trkpt><trkpt lat="44.8904117" lon="9.559945"><ele>308.16666666666663</ele><time>2026-04-07T14:39:27.992Z</time></trkpt><trkpt lat="44.8904683" lon="9.56001"><ele>304.0</ele><time>2026-04-07T14:39:28.991Z</time></trkpt><trkpt lat="44.8905317" lon="9.5600633"><ele>304.0</ele><time>2026-04-07T14:39:29.994Z</time></trkpt><trkpt lat="44.8905917" lon="9.5600983"><ele>304.0</ele><time>2026-04-07T14:39:30.995Z</time></trkpt><trkpt lat="44.8906533" lon="9.5601167"><ele>304.0</ele><time>2026-04-07T14:39:31.99Z</time></trkpt><trkpt lat="44.8907383" lon="9.5600867"><ele>304.0</ele><time>2026-04-07T14:39:32.987Z</time></trkpt><trkpt lat="44.89082" lon="9.560065"><ele>304.0</ele><time>2026-04-07T14:39:33.991Z</time></trkpt><trkpt lat="44.8908983" lon="9.56003"><ele>304.0</ele><time>2026-04-07T14:39:34.992Z</time></trkpt><trkpt lat="44.890965" lon="9.5599717"><ele>305.2</ele><time>2026-04-07T14:39:35.991Z</time></trkpt><trkpt lat="44.8910233" lon="9.5599017"><ele>306.4</ele><time>2026-04-07T14:39:36.991Z</time></trkpt><trkpt lat="44.8910783" lon="9.5598383"><ele>307.6</ele><time>2026-04-07T14:39:37.99Z</time></trkpt><trkpt lat="44.891135" lon="9.5597833"><ele>308.8</ele><time>2026-04-07T14:39:39.005Z</time></trkpt><trkpt lat="44.891255" lon="9.5597467"><ele>310.0</ele><time>2026-04-07T14:39:40.997Z</time></trkpt><trkpt lat="44.89137" lon="9.5598167"><ele>310.0</ele><time>2026-04-07T14:39:42.992Z</time></trkpt><trkpt lat="44.8914283" lon="9.559875"><ele>310.0</ele><time>2026-04-07T14:39:43.988Z</time></trkpt><trkpt lat="44.891485" lon="9.5599433"><ele>310.0</ele><time>2026-04-07T14:39:44.99Z</time></trkpt><trkpt lat="44.89154" lon="9.5600283"><ele>310.0</ele><time>2026-04-07T14:39:45.986Z</time></trkpt><trkpt lat="44.891585" lon="9.5601233"><ele>310.0</ele><time>2026-04-07T14:39:46.994Z</time></trkpt><trkpt lat="44.89163" lon="9.5602117"><ele>310.0</ele><time>2026-04-07T14:39:47.991Z</time></trkpt><trkpt lat="44.8916683" lon="9.5602883"><ele>309.6</ele><time>2026-04-07T14:39:48.997Z</time></trkpt><trkpt lat="44.8917533" lon="9.5604183"><ele>309.2</ele><time>2026-04-07T14:39:51.003Z</time></trkpt><trkpt lat="44.89182" lon="9.5605333"><ele>308.8</ele><time>2026-04-07T14:39:52.998Z</time></trkpt><trkpt lat="44.8918333" lon="9.56067"><ele>308.4</ele><time>2026-04-07T14:39:54.988Z</time></trkpt><trkpt lat="44.891835" lon="9.5608217"><ele>308.0</ele><time>2026-04-07T14:39:56.999Z</time></trkpt><trkpt lat="44.8918317" lon="9.560935"><ele>308.0</ele><time>2026-04-07T14:39:58.994Z</time></trkpt><trkpt lat="44.8917667" lon="9.5610083"><ele>308.0</ele><time>2026-04-07T14:40:01.993Z</time></trkpt><trkpt lat="44.89171" lon="9.5609417"><ele>308.0</ele><time>2026-04-07T14:40:03.993Z</time></trkpt><trkpt lat="44.8916617" lon="9.56084"><ele>308.0</ele><time>2026-04-07T14:40:05.996Z</time></trkpt><trkpt lat="44.891595" lon="9.5607333"><ele>308.0</ele><time>2026-04-07T14:40:07.988Z</time></trkpt><trkpt lat="44.8915167" lon="9.560635"><ele>308.0</ele><time>2026-04-07T14:40:09.998Z</time></trkpt><trkpt lat="44.8914" lon="9.5605783"><ele>304.83333333333337</ele><time>2026-04-07T14:40:11.986Z</time></trkpt><trkpt lat="44.891325" lon="9.560575"><ele>301.6666666666667</ele><time>2026-04-07T14:40:12.993Z</time></trkpt><trkpt lat="44.89125" lon="9.5605733"><ele>298.5</ele><time>2026-04-07T14:40:13.994Z</time></trkpt><trkpt lat="44.89117" lon="9.5606083"><ele>295.3333333333333</ele><time>2026-04-07T14:40:14.992Z</time></trkpt><trkpt lat="44.8910933" lon="9.5606417"><ele>292.16666666666663</ele><time>2026-04-07T14:40:15.994Z</time></trkpt><trkpt lat="44.8910183" lon="9.5606733"><ele>289.0</ele><time>2026-04-07T14:40:16.995Z</time></trkpt><trkpt lat="44.8909467" lon="9.5607067"><ele>287.5</ele><time>2026-04-07T14:40:17.989Z</time></trkpt><trkpt lat="44.89088" lon="9.5607483"><ele>286.0</ele><time>2026-04-07T14:40:18.991Z</time></trkpt><trkpt lat="44.8908217" lon="9.560805"><ele>284.5</ele><time>2026-04-07T14:40:19.99Z</time></trkpt><trkpt lat="44.89077" lon="9.5608683"><ele>283.0</ele><time>2026-04-07T14:40:20.993Z</time></trkpt><trkpt lat="44.890685" lon="9.5609783"><ele>281.5</ele><time>2026-04-07T14:40:22.99Z</time></trkpt><trkpt lat="44.89059" lon="9.56105"><ele>280.0</ele><time>2026-04-07T14:40:25.001Z</time></trkpt><trkpt lat="44.89048" lon="9.5610933"><ele>280.0</ele><time>2026-04-07T14:40:27Z</time></trkpt><trkpt lat="44.8903533" lon="9.5610817"><ele>280.0</ele><time>2026-04-07T14:40:28.988Z</time></trkpt><trkpt lat="44.8902867" lon="9.5610617"><ele>280.0</ele><time>2026-04-07T14:40:29.99Z</time></trkpt><trkpt lat="44.8902217" lon="9.5610317"><ele>280.0</ele><time>2026-04-07T14:40:31.005Z</time></trkpt><trkpt lat="44.8901583" lon="9.5610067"><ele>280.0</ele><time>2026-04-07T14:40:31.993Z</time></trkpt><trkpt lat="44.8900967" lon="9.5609717"><ele>280.0</ele><time>2026-04-07T14:40:32.993Z</time></trkpt><trkpt lat="44.8900317" lon="9.5609417"><ele>279.3333333333333</ele><time>2026-04-07T14:40:33.99Z</time></trkpt><trkpt lat="44.88996" lon="9.5609167"><ele>278.66666666666663</ele><time>2026-04-07T14:40:34.995Z</time></trkpt><trkpt lat="44.889885" lon="9.5608883"><ele>278.0</ele><time>2026-04-07T14:40:35.992Z</time></trkpt><trkpt lat="44.8898117" lon="9.5608667"><ele>277.3333333333333</ele><time>2026-04-07T14:40:37.001Z</time></trkpt><trkpt lat="44.8897333" lon="9.5608617"><ele>276.6666666666667</ele><time>2026-04-07T14:40:37.989Z</time></trkpt><trkpt lat="44.8896567" lon="9.560865"><ele>276.0</ele><time>2026-04-07T14:40:38.993Z</time></trkpt><trkpt lat="44.889575" lon="9.5608917"><ele>276.0</ele><time>2026-04-07T14:40:39.991Z</time></trkpt><trkpt lat="44.8894983" lon="9.5609217"><ele>276.0</ele><time>2026-04-07T14:40:40.996Z</time></trkpt><trkpt lat="44.8894283" lon="9.5609633"><ele>276.0</ele><time>2026-04-07T14:40:41.99Z</time></trkpt><trkpt lat="44.8893633" lon="9.5610133"><ele>276.0</ele><time>2026-04-07T14:40:42.993Z</time></trkpt><trkpt lat="44.8893083" lon="9.5610633"><ele>276.0</ele><time>2026-04-07T14:40:43.996Z</time></trkpt><trkpt lat="44.8892133" lon="9.561095"><ele>276.0</ele><time>2026-04-07T14:40:45.991Z</time></trkpt><trkpt lat="44.889135" lon="9.5610283"><ele>275.5</ele><time>2026-04-07T14:40:47.99Z</time></trkpt><trkpt lat="44.88907" lon="9.5610033"><ele>275.0</ele><time>2026-04-07T14:40:49.991Z</time></trkpt><trkpt lat="44.8890417" lon="9.5610967"><ele>274.5</ele><time>2026-04-07T14:40:51.991Z</time></trkpt><trkpt lat="44.8890633" lon="9.5612167"><ele>274.0</ele><time>2026-04-07T14:40:53.996Z</time></trkpt><trkpt lat="44.8891367" lon="9.5613083"><ele>273.5</ele><time>2026-04-07T14:40:55.993Z</time></trkpt><trkpt lat="44.889235" lon="9.5613317"><ele>273.0</ele><time>2026-04-07T14:40:57.989Z</time></trkpt><trkpt lat="44.8893233" lon="9.5613283"><ele>269.5</ele><time>2026-04-07T14:40:59.995Z</time></trkpt><trkpt lat="44.889435" lon="9.5613217"><ele>266.0</ele><time>2026-04-07T14:41:01.991Z</time></trkpt><trkpt lat="44.8894933" lon="9.5613567"><ele>262.5</ele><time>2026-04-07T14:41:02.992Z</time></trkpt><trkpt lat="44.8895617" lon="9.561505"><ele>259.0</ele><time>2026-04-07T14:41:04.992Z</time></trkpt><trkpt lat="44.889595" lon="9.5615983"><ele>255.5</ele><time>2026-04-07T14:41:05.994Z</time></trkpt><trkpt lat="44.8896367" lon="9.561685"><ele>252.0</ele><time>2026-04-07T14:41:06.993Z</time></trkpt><trkpt lat="44.8896783" lon="9.561775"><ele>252.0</ele><time>2026-04-07T14:41:08.001Z</time></trkpt><trkpt lat="44.889725" lon="9.561855"><ele>252.0</ele><time>2026-04-07T14:41:08.998Z</time></trkpt><trkpt lat="44.8897667" lon="9.56193"><ele>252.0</ele><time>2026-04-07T14:41:09.991Z</time></trkpt><trkpt lat="44.8898233" lon="9.5620683"><ele>252.0</ele><time>2026-04-07T14:41:11.994Z</time></trkpt><trkpt lat="44.889825" lon="9.5622133"><ele>252.0</ele><time>2026-04-07T14:41:13.991Z</time></trkpt><trkpt lat="44.8897717" lon="9.5623517"><ele>248.6</ele><time>2026-04-07T14:41:15.989Z</time></trkpt><trkpt lat="44.8896933" lon="9.5624633"><ele>245.2</ele><time>2026-04-07T14:41:17.993Z</time></trkpt><trkpt lat="44.889605" lon="9.56253"><ele>241.8</ele><time>2026-04-07T14:41:19.991Z</time></trkpt><trkpt lat="44.8894967" lon="9.5625417"><ele>238.4</ele><time>2026-04-07T14:41:21.992Z</time></trkpt><trkpt lat="44.8893817" lon="9.5624933"><ele>235.0</ele><time>2026-04-07T14:41:23.992Z</time></trkpt><trkpt lat="44.88927" lon="9.562435"><ele>234.2</ele><time>2026-04-07T14:41:25.991Z</time></trkpt><trkpt lat="44.8891667" lon="9.5623583"><ele>233.4</ele><time>2026-04-07T14:41:27.988Z</time></trkpt><trkpt lat="44.8890833" lon="9.5622667"><ele>232.60000000000002</ele><time>2026-04-07T14:41:29.989Z</time></trkpt><trkpt lat="44.889045" lon="9.5621533"><ele>231.8</ele><time>2026-04-07T14:41:31.996Z</time></trkpt><trkpt lat="44.8890417" lon="9.56202"><ele>231.0</ele><time>2026-04-07T14:41:33.988Z</time></trkpt><trkpt lat="44.88901" lon="9.56191"><ele>231.0</ele><time>2026-04-07T14:41:35.992Z</time></trkpt><trkpt lat="44.8889583" lon="9.5618483"><ele>231.00000000000003</ele><time>2026-04-07T14:41:37.988Z</time></trkpt><trkpt lat="44.88888" lon="9.5619033"><ele>231.00000000000003</ele><time>2026-04-07T14:41:39.992Z</time></trkpt><trkpt lat="44.888855" lon="9.562065"><ele>231.0</ele><time>2026-04-07T14:41:41.993Z</time></trkpt><trkpt lat="44.88888" lon="9.5622267"><ele>231.0</ele><time>2026-04-07T14:41:43.988Z</time></trkpt><trkpt lat="44.8888983" lon="9.56237"><ele>231.0</ele><time>2026-04-07T14:41:45.996Z</time></trkpt><trkpt lat="44.8889467" lon="9.5625017"><ele>231.0</ele><time>2026-04-07T14:41:47.994Z</time></trkpt><trkpt lat="44.8890183" lon="9.5626417"><ele>231.0</ele><time>2026-04-07T14:41:49.992Z</time></trkpt><trkpt lat="44.8890683" lon="9.5627083"><ele>231.0</ele><time>2026-04-07T14:41:50.992Z</time></trkpt><trkpt lat="44.8891233" lon="9.56278"><ele>231.0</ele><time>2026-04-07T14:41:51.991Z</time></trkpt><trkpt lat="44.8891733" lon="9.562845"><ele>231.0</ele><time>2026-04-07T14:41:52.994Z</time></trkpt><trkpt lat="44.8892283" lon="9.5629033"><ele>229.16666666666666</ele><time>2026-04-07T14:41:53.997Z</time></trkpt><trkpt lat="44.889285" lon="9.5629483"><ele>227.33333333333331</ele><time>2026-04-07T14:41:54.988Z</time></trkpt><trkpt lat="44.889355" lon="9.562985"><ele>225.5</ele><time>2026-04-07T14:41:55.998Z</time></trkpt><trkpt lat="44.8894317" lon="9.5630133"><ele>223.66666666666666</ele><time>2026-04-07T14:41:56.998Z</time></trkpt><trkpt lat="44.889505" lon="9.5630417"><ele>221.83333333333331</ele><time>2026-04-07T14:41:57.992Z</time></trkpt><trkpt lat="44.8895817" lon="9.5630733"><ele>220.0</ele><time>2026-04-07T14:41:58.987Z</time></trkpt><trkpt lat="44.8896617" lon="9.5631083"><ele>219.99999999999997</ele><time>2026-04-07T14:41:59.994Z</time></trkpt><trkpt lat="44.8897317" lon="9.5631483"><ele>220.0</ele><time>2026-04-07T14:42:00.99Z</time></trkpt><trkpt lat="44.8897983" lon="9.5631867"><ele>220.0</ele><time>2026-04-07T14:42:01.994Z</time></trkpt><trkpt lat="44.889865" lon="9.56322"><ele>220.0</ele><time>2026-04-07T14:42:03.003Z</time></trkpt><trkpt lat="44.8899317" lon="9.5632517"><ele>219.99999999999997</ele><time>2026-04-07T14:42:03.99Z</time></trkpt><trkpt lat="44.8899933" lon="9.56328"><ele>220.0</ele><time>2026-04-07T14:42:04.991Z</time></trkpt><trkpt lat="44.8900883" lon="9.56335"><ele>220.0</ele><time>2026-04-07T14:42:06.994Z</time></trkpt><trkpt lat="44.8900867" lon="9.5634883"><ele>220.0</ele><time>2026-04-07T14:42:08.998Z</time></trkpt><trkpt lat="44.8899933" lon="9.563615"><ele>220.0</ele><time>2026-04-07T14:42:10.996Z</time></trkpt><trkpt lat="44.88993" lon="9.563675"><ele>220.0</ele><time>2026-04-07T14:42:11.991Z</time></trkpt><trkpt lat="44.8898617" lon="9.56374"><ele>220.0</ele><time>2026-04-07T14:42:12.992Z</time></trkpt><trkpt lat="44.8897917" lon="9.5638067"><ele>218.66666666666666</ele><time>2026-04-07T14:42:13.99Z</time></trkpt><trkpt lat="44.889725" lon="9.5638783"><ele>217.33333333333331</ele><time>2026-04-07T14:42:14.995Z</time></trkpt><trkpt lat="44.8896567" lon="9.56395"><ele>216.0</ele><time>2026-04-07T14:42:15.992Z</time></trkpt><trkpt lat="44.88958" lon="9.5640233"><ele>214.66666666666669</ele><time>2026-04-07T14:42:16.999Z</time></trkpt><trkpt lat="44.8895" lon="9.5640917"><ele>213.33333333333334</ele><time>2026-04-07T14:42:17.997Z</time></trkpt><trkpt lat="44.8894233" lon="9.56416"><ele>212.0</ele><time>2026-04-07T14:42:18.991Z</time></trkpt><trkpt lat="44.8893417" lon="9.5642183"><ele>212.00000000000003</ele><time>2026-04-07T14:42:19.992Z</time></trkpt><trkpt lat="44.88926" lon="9.564275"><ele>212.0</ele><time>2026-04-07T14:42:20.99Z</time></trkpt><trkpt lat="44.88918" lon="9.56433"><ele>212.0</ele><time>2026-04-07T14:42:21.986Z</time></trkpt><trkpt lat="44.8891033" lon="9.5643867"><ele>212.0</ele><time>2026-04-07T14:42:22.993Z</time></trkpt><trkpt lat="44.88903" lon="9.5644517"><ele>212.00000000000003</ele><time>2026-04-07T14:42:23.991Z</time></trkpt><trkpt lat="44.888965" lon="9.5645333"><ele>212.0</ele><time>2026-04-07T14:42:24.991Z</time></trkpt><trkpt lat="44.8889067" lon="9.5646217"><ele>210.00000000000003</ele><time>2026-04-07T14:42:25.988Z</time></trkpt><trkpt lat="44.8888567" lon="9.5647233"><ele>208.0</ele><time>2026-04-07T14:42:26.991Z</time></trkpt><trkpt lat="44.8888067" lon="9.56483"><ele>206.0</ele><time>2026-04-07T14:42:27.993Z</time></trkpt><trkpt lat="44.88876" lon="9.5649367"><ele>204.0</ele><time>2026-04-07T14:42:28.997Z</time></trkpt><trkpt lat="44.88872" lon="9.56503"><ele>202.00000000000003</ele><time>2026-04-07T14:42:29.997Z</time></trkpt><trkpt lat="44.8886833" lon="9.565115"><ele>200.0</ele><time>2026-04-07T14:42:30.992Z</time></trkpt><trkpt lat="44.8886483" lon="9.5651917"><ele>200.00000000000003</ele><time>2026-04-07T14:42:31.995Z</time></trkpt><trkpt lat="44.8885783" lon="9.5653067"><ele>200.0</ele><time>2026-04-07T14:42:33.988Z</time></trkpt><trkpt lat="44.8885283" lon="9.5653933"><ele>200.0</ele><time>2026-04-07T14:42:35.992Z</time></trkpt><trkpt lat="44.8885317" lon="9.5654933"><ele>200.0</ele><time>2026-04-07T14:42:39.008Z</time></trkpt><trkpt lat="44.88857" lon="9.565575"><ele>200.00000000000003</ele><time>2026-04-07T14:42:40.996Z</time></trkpt><trkpt lat="44.8886417" lon="9.5656233"><ele>200.0</ele><time>2026-04-07T14:42:42.993Z</time></trkpt><trkpt lat="44.88873" lon="9.5656683"><ele>199.0</ele><time>2026-04-07T14:42:45.003Z</time></trkpt><trkpt lat="44.8888167" lon="9.5657117"><ele>198.0</ele><time>2026-04-07T14:42:46.994Z</time></trkpt><trkpt lat="44.888905" lon="9.5657517"><ele>197.0</ele><time>2026-04-07T14:42:48.99Z</time></trkpt><trkpt lat="44.888995" lon="9.5657967"><ele>196.0</ele><time>2026-04-07T14:42:50.997Z</time></trkpt><trkpt lat="44.8890967" lon="9.5658433"><ele>195.0</ele><time>2026-04-07T14:42:52.998Z</time></trkpt><trkpt lat="44.8892033" lon="9.5658883"><ele>196.0</ele><time>2026-04-07T14:42:54.993Z</time></trkpt><trkpt lat="44.88932" lon="9.5659333"><ele>197.0</ele><time>2026-04-07T14:42:56.995Z</time></trkpt><trkpt lat="44.8893817" lon="9.5659633"><ele>198.0</ele><time>2026-04-07T14:42:57.995Z</time></trkpt><trkpt lat="44.8894433" lon="9.5659867"><ele>199.0</ele><time>2026-04-07T14:42:59.006Z</time></trkpt><trkpt lat="44.8895067" lon="9.56601"><ele>200.0</ele><time>2026-04-07T14:42:59.99Z</time></trkpt><trkpt lat="44.8895683" lon="9.5660367"><ele>201.0</ele><time>2026-04-07T14:43:00.992Z</time></trkpt><trkpt lat="44.8896333" lon="9.566055"><ele>202.0</ele><time>2026-04-07T14:43:01.99Z</time></trkpt><trkpt lat="44.88975" lon="9.5661233"><ele>201.99999999999997</ele><time>2026-04-07T14:43:03.994Z</time></trkpt><trkpt lat="44.889805" lon="9.5661717"><ele>202.0</ele><time>2026-04-07T14:43:04.994Z</time></trkpt><trkpt lat="44.8898817" lon="9.5663167"><ele>202.0</ele><time>2026-04-07T14:43:06.999Z</time></trkpt><trkpt lat="44.8899133" lon="9.5663983"><ele>202.0</ele><time>2026-04-07T14:43:07.992Z</time></trkpt><trkpt lat="44.889935" lon="9.56649"><ele>201.99999999999997</ele><time>2026-04-07T14:43:08.99Z</time></trkpt><trkpt lat="44.88995" lon="9.5665867"><ele>202.0</ele><time>2026-04-07T14:43:09.993Z</time></trkpt><trkpt lat="44.8899567" lon="9.566685"><ele>201.85714285714286</ele><time>2026-04-07T14:43:10.993Z</time></trkpt><trkpt lat="44.8899567" lon="9.5667867"><ele>201.71428571428572</ele><time>2026-04-07T14:43:11.996Z</time></trkpt><trkpt lat="44.8899567" lon="9.5668867"><ele>201.57142857142856</ele><time>2026-04-07T14:43:12.993Z</time></trkpt><trkpt lat="44.889955" lon="9.5669867"><ele>201.42857142857144</ele><time>2026-04-07T14:43:13.993Z</time></trkpt><trkpt lat="44.889955" lon="9.5670867"><ele>201.2857142857143</ele><time>2026-04-07T14:43:14.993Z</time></trkpt><trkpt lat="44.8899517" lon="9.5671817"><ele>201.14285714285714</ele><time>2026-04-07T14:43:15.992Z</time></trkpt><trkpt lat="44.8899517" lon="9.56728"><ele>201.0</ele><time>2026-04-07T14:43:17.004Z</time></trkpt><trkpt lat="44.8899567" lon="9.5673783"><ele>200.57142857142856</ele><time>2026-04-07T14:43:17.987Z</time></trkpt><trkpt lat="44.88997" lon="9.5674733"><ele>200.14285714285717</ele><time>2026-04-07T14:43:19.003Z</time></trkpt><trkpt lat="44.8899817" lon="9.5675667"><ele>199.71428571428572</ele><time>2026-04-07T14:43:19.991Z</time></trkpt><trkpt lat="44.8899967" lon="9.5676633"><ele>199.28571428571428</ele><time>2026-04-07T14:43:20.991Z</time></trkpt><trkpt lat="44.8900083" lon="9.567765"><ele>198.85714285714283</ele><time>2026-04-07T14:43:21.992Z</time></trkpt><trkpt lat="44.8900217" lon="9.56787"><ele>198.42857142857144</ele><time>2026-04-07T14:43:22.993Z</time></trkpt><trkpt lat="44.8900233" lon="9.5679767"><ele>198.0</ele><time>2026-04-07T14:43:23.987Z</time></trkpt><trkpt lat="44.89002" lon="9.5680833"><ele>196.83333333333334</ele><time>2026-04-07T14:43:25.001Z</time></trkpt><trkpt lat="44.8900117" lon="9.5681933"><ele>195.66666666666666</ele><time>2026-04-07T14:43:25.995Z</time></trkpt><trkpt lat="44.89" lon="9.5683033"><ele>194.5</ele><time>2026-04-07T14:43:26.999Z</time></trkpt><trkpt lat="44.88999" lon="9.5684167"><ele>193.33333333333331</ele><time>2026-04-07T14:43:27.99Z</time></trkpt><trkpt lat="44.8899867" lon="9.5685317"><ele>192.16666666666666</ele><time>2026-04-07T14:43:28.989Z</time></trkpt><trkpt lat="44.8899883" lon="9.568645"><ele>191.0</ele><time>2026-04-07T14:43:29.995Z</time></trkpt><trkpt lat="44.889985" lon="9.5687633"><ele>191.0</ele><time>2026-04-07T14:43:30.989Z</time></trkpt><trkpt lat="44.8899783" lon="9.5688883"><ele>191.0</ele><time>2026-04-07T14:43:31.991Z</time></trkpt><trkpt lat="44.8899683" lon="9.5690067"><ele>191.0</ele><time>2026-04-07T14:43:32.997Z</time></trkpt><trkpt lat="44.88995" lon="9.5691217"><ele>191.0</ele><time>2026-04-07T14:43:33.99Z</time></trkpt><trkpt lat="44.889905" lon="9.56922"><ele>191.0</ele><time>2026-04-07T14:43:34.996Z</time></trkpt><trkpt lat="44.8898483" lon="9.5693067"><ele>191.0</ele><time>2026-04-07T14:43:35.988Z</time></trkpt><trkpt lat="44.8897917" lon="9.569385"><ele>191.0</ele><time>2026-04-07T14:43:36.99Z</time></trkpt><trkpt lat="44.8897367" lon="9.5694683"><ele>191.0</ele><time>2026-04-07T14:43:37.993Z</time></trkpt><trkpt lat="44.8896783" lon="9.56955"><ele>191.0</ele><time>2026-04-07T14:43:38.991Z</time></trkpt><trkpt lat="44.8896283" lon="9.5696383"><ele>191.0</ele><time>2026-04-07T14:43:39.99Z</time></trkpt><trkpt lat="44.88959" lon="9.5697433"><ele>191.0</ele><time>2026-04-07T14:43:40.991Z</time></trkpt><trkpt lat="44.8895667" lon="9.569855"><ele>191.0</ele><time>2026-04-07T14:43:41.996Z</time></trkpt><trkpt lat="44.8895583" lon="9.569975"><ele>191.0</ele><time>2026-04-07T14:43:42.995Z</time></trkpt><trkpt lat="44.8895667" lon="9.57009"><ele>191.0</ele><time>2026-04-07T14:43:43.994Z</time></trkpt><trkpt lat="44.8895867" lon="9.570195"><ele>191.0</ele><time>2026-04-07T14:43:44.988Z</time></trkpt><trkpt lat="44.8896217" lon="9.5702917"><ele>191.0</ele><time>2026-04-07T14:43:45.995Z</time></trkpt><trkpt lat="44.8896717" lon="9.570375"><ele>191.0</ele><time>2026-04-07T14:43:46.996Z</time></trkpt><trkpt lat="44.8897267" lon="9.5704517"><ele>191.0</ele><time>2026-04-07T14:43:47.993Z</time></trkpt><trkpt lat="44.8897833" lon="9.5705233"><ele>192.16666666666666</ele><time>2026-04-07T14:43:48.999Z</time></trkpt><trkpt lat="44.889845" lon="9.5705867"><ele>193.33333333333331</ele><time>2026-04-07T14:43:49.991Z</time></trkpt><trkpt lat="44.889905" lon="9.5706533"><ele>194.5</ele><time>2026-04-07T14:43:50.998Z</time></trkpt><trkpt lat="44.8899683" lon="9.5707167"><ele>195.66666666666666</ele><time>2026-04-07T14:43:51.997Z</time></trkpt><trkpt lat="44.890035" lon="9.57078"><ele>196.83333333333334</ele><time>2026-04-07T14:43:52.993Z</time></trkpt><trkpt lat="44.8900967" lon="9.57083"><ele>198.0</ele><time>2026-04-07T14:43:53.994Z</time></trkpt><trkpt lat="44.8901667" lon="9.5708633"><ele>198.0</ele><time>2026-04-07T14:43:54.992Z</time></trkpt><trkpt lat="44.890235" lon="9.570895"><ele>198.0</ele><time>2026-04-07T14:43:55.997Z</time></trkpt><trkpt lat="44.8902967" lon="9.5709267"><ele>198.0</ele><time>2026-04-07T14:43:56.993Z</time></trkpt><trkpt lat="44.8904167" lon="9.5709967"><ele>198.0</ele><time>2026-04-07T14:43:58.99Z</time></trkpt><trkpt lat="44.8904733" lon="9.5710383"><ele>198.0</ele><time>2026-04-07T14:43:59.987Z</time></trkpt><trkpt lat="44.8905233" lon="9.571095"><ele>198.0</ele><time>2026-04-07T14:44:00.998Z</time></trkpt><trkpt lat="44.890575" lon="9.571155"><ele>199.0</ele><time>2026-04-07T14:44:01.993Z</time></trkpt><trkpt lat="44.8906267" lon="9.57122"><ele>200.0</ele><time>2026-04-07T14:44:02.993Z</time></trkpt><trkpt lat="44.8906733" lon="9.5712883"><ele>201.0</ele><time>2026-04-07T14:44:03.993Z</time></trkpt><trkpt lat="44.8907233" lon="9.57135"><ele>202.0</ele><time>2026-04-07T14:44:04.99Z</time></trkpt><trkpt lat="44.8908133" lon="9.57147"><ele>203.0</ele><time>2026-04-07T14:44:06.999Z</time></trkpt><trkpt lat="44.8909033" lon="9.5715817"><ele>204.0</ele><time>2026-04-07T14:44:08.998Z</time></trkpt><trkpt lat="44.8909833" lon="9.5717033"><ele>204.0</ele><time>2026-04-07T14:44:10.995Z</time></trkpt><trkpt lat="44.8910717" lon="9.5718167"><ele>204.0</ele><time>2026-04-07T14:44:12.992Z</time></trkpt><trkpt lat="44.8911583" lon="9.57194"><ele>204.0</ele><time>2026-04-07T14:44:14.992Z</time></trkpt><trkpt lat="44.8912433" lon="9.5720483"><ele>204.0</ele><time>2026-04-07T14:44:16.994Z</time></trkpt><trkpt lat="44.891325" lon="9.572145"><ele>200.5</ele><time>2026-04-07T14:44:18.995Z</time></trkpt><trkpt lat="44.8914283" lon="9.572225"><ele>197.0</ele><time>2026-04-07T14:44:20.992Z</time></trkpt><trkpt lat="44.8914833" lon="9.5722683"><ele>193.5</ele><time>2026-04-07T14:44:21.99Z</time></trkpt><trkpt lat="44.8915383" lon="9.572315"><ele>190.0</ele><time>2026-04-07T14:44:22.989Z</time></trkpt><trkpt lat="44.8915933" lon="9.5723633"><ele>186.5</ele><time>2026-04-07T14:44:23.991Z</time></trkpt><trkpt lat="44.89169" lon="9.57248"><ele>183.0</ele><time>2026-04-07T14:44:25.992Z</time></trkpt><trkpt lat="44.8917367" lon="9.5725467"><ele>182.16666666666666</ele><time>2026-04-07T14:44:26.989Z</time></trkpt><trkpt lat="44.8917817" lon="9.572615"><ele>181.33333333333334</ele><time>2026-04-07T14:44:27.993Z</time></trkpt><trkpt lat="44.8918233" lon="9.5726817"><ele>180.5</ele><time>2026-04-07T14:44:28.996Z</time></trkpt><trkpt lat="44.891865" lon="9.57275"><ele>179.66666666666669</ele><time>2026-04-07T14:44:29.991Z</time></trkpt><trkpt lat="44.8919083" lon="9.57282"><ele>178.83333333333334</ele><time>2026-04-07T14:44:30.995Z</time></trkpt><trkpt lat="44.89195" lon="9.5728883"><ele>178.0</ele><time>2026-04-07T14:44:31.991Z</time></trkpt><trkpt lat="44.8920417" lon="9.5730133"><ele>178.0</ele><time>2026-04-07T14:44:33.993Z</time></trkpt><trkpt lat="44.89209" lon="9.5730733"><ele>178.0</ele><time>2026-04-07T14:44:34.995Z</time></trkpt><trkpt lat="44.89218" lon="9.573185"><ele>178.0</ele><time>2026-04-07T14:44:36.999Z</time></trkpt><trkpt lat="44.8922833" lon="9.5732867"><ele>178.0</ele><time>2026-04-07T14:44:38.995Z</time></trkpt><trkpt lat="44.8923383" lon="9.5733383"><ele>178.0</ele><time>2026-04-07T14:44:39.991Z</time></trkpt><trkpt lat="44.8924383" lon="9.57344"><ele>178.0</ele><time>2026-04-07T14:44:41.99Z</time></trkpt><trkpt lat="44.892535" lon="9.5735517"><ele>178.0</ele><time>2026-04-07T14:44:43.991Z</time></trkpt><trkpt lat="44.8926283" lon="9.5736667"><ele>178.0</ele><time>2026-04-07T14:44:45.989Z</time></trkpt><trkpt lat="44.89267" lon="9.5737333"><ele>178.0</ele><time>2026-04-07T14:44:47Z</time></trkpt><trkpt lat="44.892715" lon="9.5737983"><ele>178.0</ele><time>2026-04-07T14:44:47.989Z</time></trkpt><trkpt lat="44.892795" lon="9.5739283"><ele>177.0</ele><time>2026-04-07T14:44:49.993Z</time></trkpt><trkpt lat="44.8928783" lon="9.5740517"><ele>176.0</ele><time>2026-04-07T14:44:51.994Z</time></trkpt><trkpt lat="44.89293" lon="9.5741033"><ele>175.0</ele><time>2026-04-07T14:44:52.999Z</time></trkpt><trkpt lat="44.8930433" lon="9.5741883"><ele>174.0</ele><time>2026-04-07T14:44:54.992Z</time></trkpt><trkpt lat="44.8931567" lon="9.574265"><ele>173.0</ele><time>2026-04-07T14:44:56.999Z</time></trkpt><trkpt lat="44.893275" lon="9.5743267"><ele>173.0</ele><time>2026-04-07T14:44:59.005Z</time></trkpt><trkpt lat="44.8933867" lon="9.5743883"><ele>173.0</ele><time>2026-04-07T14:45:00.996Z</time></trkpt><trkpt lat="44.8934967" lon="9.5744483"><ele>173.0</ele><time>2026-04-07T14:45:02.99Z</time></trkpt><trkpt lat="44.89361" lon="9.5745083"><ele>173.0</ele><time>2026-04-07T14:45:04.995Z</time></trkpt><trkpt lat="44.8937217" lon="9.57457"><ele>172.5</ele><time>2026-04-07T14:45:06.991Z</time></trkpt><trkpt lat="44.893835" lon="9.5746317"><ele>172.0</ele><time>2026-04-07T14:45:08.994Z</time></trkpt><trkpt lat="44.8939483" lon="9.5746967"><ele>171.5</ele><time>2026-04-07T14:45:10.989Z</time></trkpt><trkpt lat="44.89406" lon="9.574765"><ele>171.0</ele><time>2026-04-07T14:45:12.991Z</time></trkpt><trkpt lat="44.89417" lon="9.5748467"><ele>170.99999999999997</ele><time>2026-04-07T14:45:14.987Z</time></trkpt><trkpt lat="44.8942283" lon="9.5748867"><ele>171.0</ele><time>2026-04-07T14:45:15.991Z</time></trkpt><trkpt lat="44.8942867" lon="9.5749283"><ele>171.0</ele><time>2026-04-07T14:45:16.993Z</time></trkpt><trkpt lat="44.8943433" lon="9.57497"><ele>171.0</ele><time>2026-04-07T14:45:17.992Z</time></trkpt><trkpt lat="44.894455" lon="9.5750533"><ele>171.0</ele><time>2026-04-07T14:45:19.987Z</time></trkpt><trkpt lat="44.89451" lon="9.5751"><ele>170.99999999999997</ele><time>2026-04-07T14:45:20.999Z</time></trkpt><trkpt lat="44.8945633" lon="9.57515"><ele>171.0</ele><time>2026-04-07T14:45:21.989Z</time></trkpt><trkpt lat="44.8946183" lon="9.5752"><ele>171.16666666666666</ele><time>2026-04-07T14:45:22.993Z</time></trkpt><trkpt lat="44.8947183" lon="9.5753017"><ele>171.33333333333334</ele><time>2026-04-07T14:45:24.989Z</time></trkpt><trkpt lat="44.8947733" lon="9.5753517"><ele>171.5</ele><time>2026-04-07T14:45:25.99Z</time></trkpt><trkpt lat="44.8948283" lon="9.5754"><ele>171.66666666666669</ele><time>2026-04-07T14:45:26.996Z</time></trkpt><trkpt lat="44.8948817" lon="9.5754517"><ele>171.83333333333334</ele><time>2026-04-07T14:45:27.992Z</time></trkpt><trkpt lat="44.8949783" lon="9.575555"><ele>172.0</ele><time>2026-04-07T14:45:29.994Z</time></trkpt><trkpt lat="44.8950333" lon="9.575605"><ele>170.8</ele><time>2026-04-07T14:45:30.993Z</time></trkpt><trkpt lat="44.8950867" lon="9.575655"><ele>169.6</ele><time>2026-04-07T14:45:31.993Z</time></trkpt><trkpt lat="44.8951417" lon="9.5757"><ele>168.4</ele><time>2026-04-07T14:45:32.997Z</time></trkpt><trkpt lat="44.8952483" lon="9.5757833"><ele>167.20000000000002</ele><time>2026-04-07T14:45:34.992Z</time></trkpt><trkpt lat="44.8953417" lon="9.57587"><ele>166.0</ele><time>2026-04-07T14:45:36.993Z</time></trkpt><trkpt lat="44.8954467" lon="9.5759667"><ele>166.0</ele><time>2026-04-07T14:45:39.001Z</time></trkpt><trkpt lat="44.89555" lon="9.5760667"><ele>166.0</ele><time>2026-04-07T14:45:40.995Z</time></trkpt><trkpt lat="44.8956583" lon="9.5761667"><ele>166.0</ele><time>2026-04-07T14:45:42.987Z</time></trkpt><trkpt lat="44.8957167" lon="9.5762117"><ele>166.0</ele><time>2026-04-07T14:45:43.988Z</time></trkpt><trkpt lat="44.8957733" lon="9.5762567"><ele>166.0</ele><time>2026-04-07T14:45:44.993Z</time></trkpt><trkpt lat="44.8958783" lon="9.5763517"><ele>166.4</ele><time>2026-04-07T14:45:46.996Z</time></trkpt><trkpt lat="44.895935" lon="9.5764"><ele>166.8</ele><time>2026-04-07T14:45:47.993Z</time></trkpt><trkpt lat="44.89604" lon="9.576495"><ele>167.20000000000002</ele><time>2026-04-07T14:45:49.99Z</time></trkpt><trkpt lat="44.8961383" lon="9.5765933"><ele>167.60000000000002</ele><time>2026-04-07T14:45:51.989Z</time></trkpt><trkpt lat="44.8962433" lon="9.5766933"><ele>168.0</ele><time>2026-04-07T14:45:53.994Z</time></trkpt><trkpt lat="44.8963417" lon="9.5767967"><ele>168.0</ele><time>2026-04-07T14:45:55.994Z</time></trkpt><trkpt lat="44.8964483" lon="9.5768917"><ele>168.0</ele><time>2026-04-07T14:45:57.992Z</time></trkpt><trkpt lat="44.8965" lon="9.5769433"><ele>168.0</ele><time>2026-04-07T14:45:58.997Z</time></trkpt><trkpt lat="44.8966033" lon="9.5770383"><ele>168.0</ele><time>2026-04-07T14:46:01Z</time></trkpt><trkpt lat="44.8966983" lon="9.5771233"><ele>168.0</ele><time>2026-04-07T14:46:02.993Z</time></trkpt><trkpt lat="44.896795" lon="9.5771883"><ele>167.5</ele><time>2026-04-07T14:46:04.998Z</time></trkpt><trkpt lat="44.8969017" lon="9.5772483"><ele>167.0</ele><time>2026-04-07T14:46:06.991Z</time></trkpt><trkpt lat="44.89702" lon="9.57729"><ele>166.5</ele><time>2026-04-07T14:46:08.993Z</time></trkpt><trkpt lat="44.8971367" lon="9.5773233"><ele>166.0</ele><time>2026-04-07T14:46:10.989Z</time></trkpt><trkpt lat="44.897255" lon="9.5773383"><ele>166.0</ele><time>2026-04-07T14:46:12.993Z</time></trkpt><trkpt lat="44.8973683" lon="9.5773367"><ele>166.0</ele><time>2026-04-07T14:46:15.005Z</time></trkpt><trkpt lat="44.8974783" lon="9.5773783"><ele>166.0</ele><time>2026-04-07T14:46:16.994Z</time></trkpt><trkpt lat="44.8975867" lon="9.57742"><ele>166.0</ele><time>2026-04-07T14:46:18.992Z</time></trkpt><trkpt lat="44.897695" lon="9.5774617"><ele>167.75</ele><time>2026-04-07T14:46:20.988Z</time></trkpt><trkpt lat="44.8978033" lon="9.57751"><ele>169.5</ele><time>2026-04-07T14:46:22.992Z</time></trkpt><trkpt lat="44.897905" lon="9.5775833"><ele>171.25</ele><time>2026-04-07T14:46:24.989Z</time></trkpt><trkpt lat="44.897995" lon="9.577675"><ele>173.0</ele><time>2026-04-07T14:46:26.999Z</time></trkpt><trkpt lat="44.89809" lon="9.577765"><ele>172.0</ele><time>2026-04-07T14:46:29.004Z</time></trkpt><trkpt lat="44.8981783" lon="9.577855"><ele>171.0</ele><time>2026-04-07T14:46:30.992Z</time></trkpt><trkpt lat="44.898265" lon="9.57795"><ele>170.0</ele><time>2026-04-07T14:46:32.988Z</time></trkpt><trkpt lat="44.8983533" lon="9.57806"><ele>169.0</ele><time>2026-04-07T14:46:34.991Z</time></trkpt><trkpt lat="44.89845" lon="9.57816"><ele>169.0</ele><time>2026-04-07T14:46:37Z</time></trkpt><trkpt lat="44.8985467" lon="9.57825"><ele>169.0</ele><time>2026-04-07T14:46:38.994Z</time></trkpt><trkpt lat="44.8986517" lon="9.5783133"><ele>169.0</ele><time>2026-04-07T14:46:40.994Z</time></trkpt><trkpt lat="44.8987617" lon="9.5783683"><ele>169.0</ele><time>2026-04-07T14:46:43.005Z</time></trkpt><trkpt lat="44.8988667" lon="9.5784217"><ele>169.0</ele><time>2026-04-07T14:46:44.996Z</time></trkpt><trkpt lat="44.8989717" lon="9.5784767"><ele>169.0</ele><time>2026-04-07T14:46:46.992Z</time></trkpt><trkpt lat="44.8990833" lon="9.578535"><ele>169.0</ele><time>2026-04-07T14:46:48.993Z</time></trkpt><trkpt lat="44.899195" lon="9.5785917"><ele>169.0</ele><time>2026-04-07T14:46:50.996Z</time></trkpt><trkpt lat="44.8993017" lon="9.5786483"><ele>168.25</ele><time>2026-04-07T14:46:52.988Z</time></trkpt><trkpt lat="44.8994067" lon="9.5787067"><ele>167.5</ele><time>2026-04-07T14:46:54.99Z</time></trkpt><trkpt lat="44.8995117" lon="9.578755"><ele>166.75</ele><time>2026-04-07T14:46:57.004Z</time></trkpt><trkpt lat="44.8996267" lon="9.5787767"><ele>166.0</ele><time>2026-04-07T14:46:58.987Z</time></trkpt><trkpt lat="44.8997433" lon="9.578775"><ele>166.0</ele><time>2026-04-07T14:47:00.99Z</time></trkpt><trkpt lat="44.899855" lon="9.57878"><ele>166.0</ele><time>2026-04-07T14:47:02.991Z</time></trkpt><trkpt lat="44.8999617" lon="9.57879"><ele>166.0</ele><time>2026-04-07T14:47:04.995Z</time></trkpt><trkpt lat="44.90007" lon="9.5788083"><ele>166.0</ele><time>2026-04-07T14:47:06.996Z</time></trkpt><trkpt lat="44.9001717" lon="9.5788667"><ele>166.0</ele><time>2026-04-07T14:47:09.002Z</time></trkpt><trkpt lat="44.9002683" lon="9.578935"><ele>166.20000000000002</ele><time>2026-04-07T14:47:10.999Z</time></trkpt><trkpt lat="44.90036" lon="9.578995"><ele>166.4</ele><time>2026-04-07T14:47:13.001Z</time></trkpt><trkpt lat="44.9004583" lon="9.5790467"><ele>166.6</ele><time>2026-04-07T14:47:14.994Z</time></trkpt><trkpt lat="44.9005617" lon="9.5790967"><ele>166.8</ele><time>2026-04-07T14:47:16.996Z</time></trkpt><trkpt lat="44.9006567" lon="9.5791167"><ele>167.0</ele><time>2026-04-07T14:47:18.999Z</time></trkpt><trkpt lat="44.9007617" lon="9.5790867"><ele>167.0</ele><time>2026-04-07T14:47:20.992Z</time></trkpt><trkpt lat="44.9008633" lon="9.5790117"><ele>167.0</ele><time>2026-04-07T14:47:22.994Z</time></trkpt><trkpt lat="44.9009517" lon="9.578915"><ele>167.0</ele><time>2026-04-07T14:47:24.998Z</time></trkpt><trkpt lat="44.9010367" lon="9.5788167"><ele>167.0</ele><time>2026-04-07T14:47:26.996Z</time></trkpt><trkpt lat="44.9011267" lon="9.5787167"><ele>168.2</ele><time>2026-04-07T14:47:28.992Z</time></trkpt><trkpt lat="44.9012133" lon="9.5786133"><ele>169.39999999999998</ele><time>2026-04-07T14:47:30.996Z</time></trkpt><trkpt lat="44.9013" lon="9.57853"><ele>170.60000000000002</ele><time>2026-04-07T14:47:32.993Z</time></trkpt><trkpt lat="44.901385" lon="9.57845"><ele>171.8</ele><time>2026-04-07T14:47:34.998Z</time></trkpt><trkpt lat="44.9014733" lon="9.5783867"><ele>173.0</ele><time>2026-04-07T14:47:36.995Z</time></trkpt><trkpt lat="44.901565" lon="9.57834"><ele>173.0</ele><time>2026-04-07T14:47:38.994Z</time></trkpt><trkpt lat="44.9016633" lon="9.5783"><ele>173.0</ele><time>2026-04-07T14:47:41.002Z</time></trkpt><trkpt lat="44.9017733" lon="9.5782667"><ele>173.0</ele><time>2026-04-07T14:47:42.994Z</time></trkpt><trkpt lat="44.9018783" lon="9.5782517"><ele>173.0</ele><time>2026-04-07T14:47:44.995Z</time></trkpt><trkpt lat="44.9019833" lon="9.5782583"><ele>173.0</ele><time>2026-04-07T14:47:46.994Z</time></trkpt><trkpt lat="44.9020883" lon="9.578275"><ele>172.8</ele><time>2026-04-07T14:47:48.994Z</time></trkpt><trkpt lat="44.9021917" lon="9.5783067"><ele>172.60000000000002</ele><time>2026-04-07T14:47:50.994Z</time></trkpt><trkpt lat="44.9022917" lon="9.57833"><ele>172.39999999999998</ele><time>2026-04-07T14:47:52.992Z</time></trkpt><trkpt lat="44.9023833" lon="9.5783517"><ele>172.2</ele><time>2026-04-07T14:47:54.997Z</time></trkpt><trkpt lat="44.9024717" lon="9.578385"><ele>172.0</ele><time>2026-04-07T14:47:56.992Z</time></trkpt><trkpt lat="44.9025583" lon="9.5784317"><ele>172.2</ele><time>2026-04-07T14:47:58.995Z</time></trkpt><trkpt lat="44.902645" lon="9.5784767"><ele>172.39999999999998</ele><time>2026-04-07T14:48:00.994Z</time></trkpt><trkpt lat="44.9027333" lon="9.5785267"><ele>172.60000000000002</ele><time>2026-04-07T14:48:02.994Z</time></trkpt><trkpt lat="44.9028233" lon="9.5785717"><ele>172.8</ele><time>2026-04-07T14:48:05Z</time></trkpt><trkpt lat="44.9029167" lon="9.5786233"><ele>173.0</ele><time>2026-04-07T14:48:07.002Z</time></trkpt><trkpt lat="44.9030083" lon="9.5786767"><ele>173.2</ele><time>2026-04-07T14:48:08.997Z</time></trkpt><trkpt lat="44.9031083" lon="9.5787233"><ele>173.4</ele><time>2026-04-07T14:48:10.991Z</time></trkpt><trkpt lat="44.9031867" lon="9.578765"><ele>173.6</ele><time>2026-04-07T14:48:12.994Z</time></trkpt><trkpt lat="44.9032683" lon="9.578815"><ele>173.79999999999998</ele><time>2026-04-07T14:48:15.002Z</time></trkpt><trkpt lat="44.9033517" lon="9.578865"><ele>174.0</ele><time>2026-04-07T14:48:16.994Z</time></trkpt><trkpt lat="44.9034467" lon="9.578915"><ele>174.0</ele><time>2026-04-07T14:48:18.992Z</time></trkpt><trkpt lat="44.9035383" lon="9.578965"><ele>174.0</ele><time>2026-04-07T14:48:20.991Z</time></trkpt><trkpt lat="44.9036217" lon="9.5790133"><ele>174.0</ele><time>2026-04-07T14:48:22.991Z</time></trkpt><trkpt lat="44.9037017" lon="9.579075"><ele>174.0</ele><time>2026-04-07T14:48:24.997Z</time></trkpt><trkpt lat="44.9037867" lon="9.579145"><ele>174.0</ele><time>2026-04-07T14:48:26.997Z</time></trkpt><trkpt lat="44.9038817" lon="9.5792133"><ele>174.0</ele><time>2026-04-07T14:48:29.002Z</time></trkpt><trkpt lat="44.9039733" lon="9.5792833"><ele>174.0</ele><time>2026-04-07T14:48:30.992Z</time></trkpt><trkpt lat="44.9040633" lon="9.5793433"><ele>174.0</ele><time>2026-04-07T14:48:32.996Z</time></trkpt><trkpt lat="44.9041467" lon="9.5794067"><ele>174.0</ele><time>2026-04-07T14:48:34.993Z</time></trkpt><trkpt lat="44.9042333" lon="9.57947"><ele>174.0</ele><time>2026-04-07T14:48:36.987Z</time></trkpt><trkpt lat="44.904315" lon="9.5795283"><ele>173.39999999999998</ele><time>2026-04-07T14:48:38.996Z</time></trkpt><trkpt lat="44.9043933" lon="9.5795833"><ele>172.8</ele><time>2026-04-07T14:48:41.002Z</time></trkpt><trkpt lat="44.9044767" lon="9.5796433"><ele>172.2</ele><time>2026-04-07T14:48:42.991Z</time></trkpt><trkpt lat="44.9045583" lon="9.5796983"><ele>171.60000000000002</ele><time>2026-04-07T14:48:44.994Z</time></trkpt><trkpt lat="44.9046417" lon="9.5797417"><ele>171.0</ele><time>2026-04-07T14:48:46.993Z</time></trkpt><trkpt lat="44.9047333" lon="9.5797683"><ele>171.0</ele><time>2026-04-07T14:48:48.991Z</time></trkpt><trkpt lat="44.90483" lon="9.5797917"><ele>171.0</ele><time>2026-04-07T14:48:50.995Z</time></trkpt><trkpt lat="44.90492" lon="9.5798267"><ele>171.0</ele><time>2026-04-07T14:48:52.997Z</time></trkpt><trkpt lat="44.90501" lon="9.57984"><ele>171.0</ele><time>2026-04-07T14:48:55.002Z</time></trkpt><trkpt lat="44.905095" lon="9.5798633"><ele>171.0</ele><time>2026-04-07T14:48:56.995Z</time></trkpt><trkpt lat="44.9051867" lon="9.5798867"><ele>171.8</ele><time>2026-04-07T14:48:58.992Z</time></trkpt><trkpt lat="44.9052767" lon="9.5799033"><ele>172.60000000000002</ele><time>2026-04-07T14:49:01.003Z</time></trkpt><trkpt lat="44.9053667" lon="9.57993"><ele>173.4</ele><time>2026-04-07T14:49:02.994Z</time></trkpt><trkpt lat="44.9054533" lon="9.579965"><ele>174.2</ele><time>2026-04-07T14:49:04.992Z</time></trkpt><trkpt lat="44.9055517" lon="9.5799933"><ele>175.0</ele><time>2026-04-07T14:49:06.991Z</time></trkpt><trkpt lat="44.9056433" lon="9.580025"><ele>175.0</ele><time>2026-04-07T14:49:08.997Z</time></trkpt><trkpt lat="44.9057333" lon="9.580055"><ele>175.0</ele><time>2026-04-07T14:49:10.995Z</time></trkpt><trkpt lat="44.9058233" lon="9.5800833"><ele>175.0</ele><time>2026-04-07T14:49:12.994Z</time></trkpt><trkpt lat="44.905915" lon="9.580115"><ele>175.0</ele><time>2026-04-07T14:49:14.997Z</time></trkpt><trkpt lat="44.9060033" lon="9.58015"><ele>175.0</ele><time>2026-04-07T14:49:16.993Z</time></trkpt><trkpt lat="44.9060917" lon="9.5801783"><ele>174.16666666666669</ele><time>2026-04-07T14:49:18.993Z</time></trkpt><trkpt lat="44.9061783" lon="9.5802117"><ele>173.33333333333334</ele><time>2026-04-07T14:49:20.993Z</time></trkpt><trkpt lat="44.9062667" lon="9.580245"><ele>172.5</ele><time>2026-04-07T14:49:22.998Z</time></trkpt><trkpt lat="44.9063517" lon="9.5802733"><ele>171.66666666666666</ele><time>2026-04-07T14:49:24.99Z</time></trkpt><trkpt lat="44.9064367" lon="9.5802983"><ele>170.83333333333331</ele><time>2026-04-07T14:49:26.994Z</time></trkpt><trkpt lat="44.9065233" lon="9.580325"><ele>170.0</ele><time>2026-04-07T14:49:29.003Z</time></trkpt><trkpt lat="44.9066067" lon="9.5803533"><ele>170.0</ele><time>2026-04-07T14:49:30.99Z</time></trkpt><trkpt lat="44.906685" lon="9.58039"><ele>170.0</ele><time>2026-04-07T14:49:32.998Z</time></trkpt><trkpt lat="44.9067617" lon="9.5804267"><ele>170.0</ele><time>2026-04-07T14:49:34.996Z</time></trkpt><trkpt lat="44.9068417" lon="9.5804683"><ele>170.0</ele><time>2026-04-07T14:49:36.996Z</time></trkpt><trkpt lat="44.9069233" lon="9.5805167"><ele>170.0</ele><time>2026-04-07T14:49:38.993Z</time></trkpt><trkpt lat="44.9070083" lon="9.5805633"><ele>170.0</ele><time>2026-04-07T14:49:40.991Z</time></trkpt><trkpt lat="44.9070933" lon="9.5806017"><ele>171.66666666666666</ele><time>2026-04-07T14:49:42.996Z</time></trkpt><trkpt lat="44.9071783" lon="9.5806333"><ele>173.33333333333331</ele><time>2026-04-07T14:49:45.002Z</time></trkpt><trkpt lat="44.9072567" lon="9.5806483"><ele>175.0</ele><time>2026-04-07T14:49:46.993Z</time></trkpt><trkpt lat="44.9073417" lon="9.580655"><ele>176.66666666666666</ele><time>2026-04-07T14:49:48.993Z</time></trkpt><trkpt lat="44.9074267" lon="9.5806567"><ele>178.33333333333334</ele><time>2026-04-07T14:49:50.998Z</time></trkpt><trkpt lat="44.907525" lon="9.58067"><ele>180.0</ele><time>2026-04-07T14:49:52.995Z</time></trkpt><trkpt lat="44.90762" lon="9.5807083"><ele>181.2</ele><time>2026-04-07T14:49:54.994Z</time></trkpt><trkpt lat="44.9077" lon="9.58077"><ele>182.4</ele><time>2026-04-07T14:49:56.993Z</time></trkpt><trkpt lat="44.9077717" lon="9.58085"><ele>183.60000000000002</ele><time>2026-04-07T14:49:58.998Z</time></trkpt><trkpt lat="44.9078483" lon="9.5809233"><ele>184.8</ele><time>2026-04-07T14:50:00.999Z</time></trkpt><trkpt lat="44.907925" lon="9.5809983"><ele>186.0</ele><time>2026-04-07T14:50:02.996Z</time></trkpt><trkpt lat="44.9080083" lon="9.5810733"><ele>186.0</ele><time>2026-04-07T14:50:04.989Z</time></trkpt><trkpt lat="44.908085" lon="9.5811617"><ele>186.0</ele><time>2026-04-07T14:50:06.993Z</time></trkpt><trkpt lat="44.9081533" lon="9.58126"><ele>186.0</ele><time>2026-04-07T14:50:08.996Z</time></trkpt><trkpt lat="44.908225" lon="9.58135"><ele>186.0</ele><time>2026-04-07T14:50:10.997Z</time></trkpt><trkpt lat="44.9082917" lon="9.581455"><ele>186.0</ele><time>2026-04-07T14:50:12.997Z</time></trkpt><trkpt lat="44.9083517" lon="9.58157"><ele>185.60000000000002</ele><time>2026-04-07T14:50:14.994Z</time></trkpt><trkpt lat="44.908405" lon="9.5816883"><ele>185.2</ele><time>2026-04-07T14:50:16.992Z</time></trkpt><trkpt lat="44.90845" lon="9.581815"><ele>184.8</ele><time>2026-04-07T14:50:18.997Z</time></trkpt><trkpt lat="44.9084967" lon="9.58194"><ele>184.39999999999998</ele><time>2026-04-07T14:50:20.993Z</time></trkpt><trkpt lat="44.9085517" lon="9.582065"><ele>184.0</ele><time>2026-04-07T14:50:22.991Z</time></trkpt><trkpt lat="44.9086017" lon="9.582215"><ele>184.0</ele><time>2026-04-07T14:50:24.998Z</time></trkpt><trkpt lat="44.9086317" lon="9.5822933"><ele>184.0</ele><time>2026-04-07T14:50:25.99Z</time></trkpt><trkpt lat="44.9086633" lon="9.5823733"><ele>184.0</ele><time>2026-04-07T14:50:26.988Z</time></trkpt><trkpt lat="44.908695" lon="9.5824567"><ele>184.0</ele><time>2026-04-07T14:50:27.992Z</time></trkpt><trkpt lat="44.9087233" lon="9.5825367"><ele>184.0</ele><time>2026-04-07T14:50:28.999Z</time></trkpt><trkpt lat="44.90875" lon="9.5826233"><ele>184.0</ele><time>2026-04-07T14:50:29.996Z</time></trkpt><trkpt lat="44.9087783" lon="9.582705"><ele>184.0</ele><time>2026-04-07T14:50:30.987Z</time></trkpt><trkpt lat="44.9088033" lon="9.58279"><ele>183.0</ele><time>2026-04-07T14:50:31.992Z</time></trkpt><trkpt lat="44.908825" lon="9.5828767"><ele>182.0</ele><time>2026-04-07T14:50:32.994Z</time></trkpt><trkpt lat="44.908875" lon="9.583035"><ele>181.0</ele><time>2026-04-07T14:50:34.992Z</time></trkpt><trkpt lat="44.908945" lon="9.5831817"><ele>180.0</ele><time>2026-04-07T14:50:36.995Z</time></trkpt><trkpt lat="44.908995" lon="9.5832417"><ele>179.0</ele><time>2026-04-07T14:50:37.989Z</time></trkpt><trkpt lat="44.9090517" lon="9.5832917"><ele>178.0</ele><time>2026-04-07T14:50:38.998Z</time></trkpt><trkpt lat="44.9091133" lon="9.5833317"><ele>177.99999999999997</ele><time>2026-04-07T14:50:39.991Z</time></trkpt><trkpt lat="44.9091767" lon="9.5833617"><ele>178.0</ele><time>2026-04-07T14:50:40.992Z</time></trkpt><trkpt lat="44.909245" lon="9.5833867"><ele>178.0</ele><time>2026-04-07T14:50:41.993Z</time></trkpt><trkpt lat="44.9093183" lon="9.5834083"><ele>178.0</ele><time>2026-04-07T14:50:42.989Z</time></trkpt><trkpt lat="44.9093917" lon="9.5834333"><ele>178.0</ele><time>2026-04-07T14:50:43.997Z</time></trkpt><trkpt lat="44.909465" lon="9.5834567"><ele>177.99999999999997</ele><time>2026-04-07T14:50:44.987Z</time></trkpt><trkpt lat="44.9095417" lon="9.5834783"><ele>178.0</ele><time>2026-04-07T14:50:45.992Z</time></trkpt><trkpt lat="44.9096167" lon="9.5835"><ele>177.33333333333334</ele><time>2026-04-07T14:50:46.992Z</time></trkpt><trkpt lat="44.9096933" lon="9.5835167"><ele>176.66666666666669</ele><time>2026-04-07T14:50:47.991Z</time></trkpt><trkpt lat="44.9097767" lon="9.5835267"><ele>176.0</ele><time>2026-04-07T14:50:48.999Z</time></trkpt><trkpt lat="44.9098567" lon="9.5835317"><ele>175.33333333333334</ele><time>2026-04-07T14:50:49.992Z</time></trkpt><trkpt lat="44.9099383" lon="9.583535"><ele>174.66666666666666</ele><time>2026-04-07T14:50:50.993Z</time></trkpt><trkpt lat="44.9100217" lon="9.5835417"><ele>174.0</ele><time>2026-04-07T14:50:51.991Z</time></trkpt><trkpt lat="44.9101067" lon="9.5835517"><ele>173.0</ele><time>2026-04-07T14:50:52.992Z</time></trkpt><trkpt lat="44.9101933" lon="9.5835617"><ele>172.0</ele><time>2026-04-07T14:50:53.99Z</time></trkpt><trkpt lat="44.9102817" lon="9.5835667"><ele>171.0</ele><time>2026-04-07T14:50:54.996Z</time></trkpt><trkpt lat="44.9103717" lon="9.5835717"><ele>170.0</ele><time>2026-04-07T14:50:55.989Z</time></trkpt><trkpt lat="44.9104667" lon="9.5835833"><ele>169.0</ele><time>2026-04-07T14:50:56.996Z</time></trkpt><trkpt lat="44.9105667" lon="9.58359"><ele>169.0</ele><time>2026-04-07T14:50:57.99Z</time></trkpt><trkpt lat="44.910665" lon="9.5835983"><ele>169.0</ele><time>2026-04-07T14:50:58.99Z</time></trkpt><trkpt lat="44.9107633" lon="9.5836083"><ele>169.0</ele><time>2026-04-07T14:50:59.99Z</time></trkpt><trkpt lat="44.9108617" lon="9.583615"><ele>169.0</ele><time>2026-04-07T14:51:01Z</time></trkpt><trkpt lat="44.9109633" lon="9.5836233"><ele>169.0</ele><time>2026-04-07T14:51:01.989Z</time></trkpt><trkpt lat="44.911065" lon="9.5836317"><ele>168.39999999999998</ele><time>2026-04-07T14:51:02.994Z</time></trkpt><trkpt lat="44.9111617" lon="9.5836417"><ele>167.8</ele><time>2026-04-07T14:51:03.996Z</time></trkpt><trkpt lat="44.9112567" lon="9.58366"><ele>167.2</ele><time>2026-04-07T14:51:04.992Z</time></trkpt><trkpt lat="44.9113483" lon="9.5836867"><ele>166.60000000000002</ele><time>2026-04-07T14:51:05.994Z</time></trkpt><trkpt lat="44.911435" lon="9.58373"><ele>166.0</ele><time>2026-04-07T14:51:06.997Z</time></trkpt><trkpt lat="44.9115167" lon="9.5837867"><ele>165.66666666666669</ele><time>2026-04-07T14:51:07.989Z</time></trkpt><trkpt lat="44.9115867" lon="9.583855"><ele>165.33333333333334</ele><time>2026-04-07T14:51:08.992Z</time></trkpt><trkpt lat="44.91165" lon="9.5839283"><ele>165.0</ele><time>2026-04-07T14:51:09.989Z</time></trkpt><trkpt lat="44.91171" lon="9.5840017"><ele>164.66666666666666</ele><time>2026-04-07T14:51:10.994Z</time></trkpt><trkpt lat="44.9117667" lon="9.5840717"><ele>164.33333333333331</ele><time>2026-04-07T14:51:11.99Z</time></trkpt><trkpt lat="44.9118267" lon="9.5841283"><ele>164.0</ele><time>2026-04-07T14:51:13.003Z</time></trkpt><trkpt lat="44.911895" lon="9.58417"><ele>163.7142857142857</ele><time>2026-04-07T14:51:13.988Z</time></trkpt><trkpt lat="44.9119617" lon="9.5842033"><ele>163.42857142857142</ele><time>2026-04-07T14:51:14.994Z</time></trkpt><trkpt lat="44.9120333" lon="9.584225"><ele>163.14285714285714</ele><time>2026-04-07T14:51:15.986Z</time></trkpt><trkpt lat="44.9121067" lon="9.584235"><ele>162.85714285714283</ele><time>2026-04-07T14:51:16.987Z</time></trkpt><trkpt lat="44.9121783" lon="9.5842333"><ele>162.57142857142856</ele><time>2026-04-07T14:51:17.991Z</time></trkpt><trkpt lat="44.9122517" lon="9.5842267"><ele>162.28571428571428</ele><time>2026-04-07T14:51:18.997Z</time></trkpt><trkpt lat="44.91233" lon="9.5842133"><ele>162.0</ele><time>2026-04-07T14:51:19.992Z</time></trkpt><trkpt lat="44.9124067" lon="9.5841983"><ele>162.0</ele><time>2026-04-07T14:51:20.993Z</time></trkpt><trkpt lat="44.9124867" lon="9.58418"><ele>162.0</ele><time>2026-04-07T14:51:21.994Z</time></trkpt><trkpt lat="44.9125617" lon="9.5841533"><ele>162.0</ele><time>2026-04-07T14:51:22.992Z</time></trkpt><trkpt lat="44.9126383" lon="9.58411"><ele>162.0</ele><time>2026-04-07T14:51:23.99Z</time></trkpt><trkpt lat="44.9127083" lon="9.58407"><ele>162.0</ele><time>2026-04-07T14:51:24.999Z</time></trkpt><trkpt lat="44.9127783" lon="9.5840167"><ele>162.0</ele><time>2026-04-07T14:51:25.992Z</time></trkpt><trkpt lat="44.9128467" lon="9.5839533"><ele>161.66666666666666</ele><time>2026-04-07T14:51:26.993Z</time></trkpt><trkpt lat="44.91292" lon="9.58389"><ele>161.33333333333334</ele><time>2026-04-07T14:51:27.996Z</time></trkpt><trkpt lat="44.9129917" lon="9.5838267"><ele>161.0</ele><time>2026-04-07T14:51:28.992Z</time></trkpt><trkpt lat="44.913065" lon="9.5837583"><ele>160.66666666666669</ele><time>2026-04-07T14:51:29.99Z</time></trkpt><trkpt lat="44.9131383" lon="9.583695"><ele>160.33333333333334</ele><time>2026-04-07T14:51:30.995Z</time></trkpt><trkpt lat="44.913215" lon="9.5836383"><ele>160.0</ele><time>2026-04-07T14:51:31.987Z</time></trkpt><trkpt lat="44.9132933" lon="9.58359"><ele>160.0</ele><time>2026-04-07T14:51:32.996Z</time></trkpt><trkpt lat="44.9133733" lon="9.58355"><ele>160.0</ele><time>2026-04-07T14:51:33.992Z</time></trkpt><trkpt lat="44.9134533" lon="9.58351"><ele>160.0</ele><time>2026-04-07T14:51:34.993Z</time></trkpt><trkpt lat="44.9135333" lon="9.5834717"><ele>160.0</ele><time>2026-04-07T14:51:35.988Z</time></trkpt><trkpt lat="44.9136117" lon="9.5834367"><ele>160.0</ele><time>2026-04-07T14:51:36.991Z</time></trkpt><trkpt lat="44.91369" lon="9.5834017"><ele>160.0</ele><time>2026-04-07T14:51:37.993Z</time></trkpt><trkpt lat="44.9137667" lon="9.5833733"><ele>159.66666666666669</ele><time>2026-04-07T14:51:39.004Z</time></trkpt><trkpt lat="44.9138467" lon="9.5833583"><ele>159.33333333333334</ele><time>2026-04-07T14:51:39.995Z</time></trkpt><trkpt lat="44.9139283" lon="9.5833667"><ele>159.0</ele><time>2026-04-07T14:51:40.994Z</time></trkpt><trkpt lat="44.9140033" lon="9.5834067"><ele>158.66666666666666</ele><time>2026-04-07T14:51:41.99Z</time></trkpt><trkpt lat="44.9140767" lon="9.5834583"><ele>158.33333333333331</ele><time>2026-04-07T14:51:42.992Z</time></trkpt><trkpt lat="44.9141467" lon="9.5835183"><ele>158.0</ele><time>2026-04-07T14:51:43.99Z</time></trkpt><trkpt lat="44.914215" lon="9.583575"><ele>157.16666666666666</ele><time>2026-04-07T14:51:44.997Z</time></trkpt><trkpt lat="44.914285" lon="9.58362"><ele>156.33333333333331</ele><time>2026-04-07T14:51:45.99Z</time></trkpt><trkpt lat="44.914355" lon="9.5836517"><ele>155.5</ele><time>2026-04-07T14:51:46.993Z</time></trkpt><trkpt lat="44.9144283" lon="9.5836717"><ele>154.66666666666666</ele><time>2026-04-07T14:51:47.991Z</time></trkpt><trkpt lat="44.9145067" lon="9.5836833"><ele>153.83333333333334</ele><time>2026-04-07T14:51:48.993Z</time></trkpt><trkpt lat="44.91458" lon="9.583685"><ele>153.0</ele><time>2026-04-07T14:51:50.001Z</time></trkpt><trkpt lat="44.9146567" lon="9.5836717"><ele>153.0</ele><time>2026-04-07T14:51:51.015Z</time></trkpt><trkpt lat="44.9147383" lon="9.5836467"><ele>153.0</ele><time>2026-04-07T14:51:51.993Z</time></trkpt><trkpt lat="44.914815" lon="9.5836183"><ele>153.0</ele><time>2026-04-07T14:51:52.995Z</time></trkpt><trkpt lat="44.9148917" lon="9.5835883"><ele>153.0</ele><time>2026-04-07T14:51:53.995Z</time></trkpt><trkpt lat="44.9149667" lon="9.5835583"><ele>153.0</ele><time>2026-04-07T14:51:54.995Z</time></trkpt><trkpt lat="44.91504" lon="9.5835267"><ele>153.0</ele><time>2026-04-07T14:51:55.989Z</time></trkpt><trkpt lat="44.915115" lon="9.5834967"><ele>152.0</ele><time>2026-04-07T14:51:56.99Z</time></trkpt><trkpt lat="44.9151883" lon="9.5834683"><ele>151.0</ele><time>2026-04-07T14:51:57.994Z</time></trkpt><trkpt lat="44.91526" lon="9.58344"><ele>150.0</ele><time>2026-04-07T14:51:58.997Z</time></trkpt><trkpt lat="44.9153317" lon="9.5834117"><ele>149.0</ele><time>2026-04-07T14:51:59.99Z</time></trkpt><trkpt lat="44.9154033" lon="9.583385"><ele>148.0</ele><time>2026-04-07T14:52:00.989Z</time></trkpt><trkpt lat="44.9154733" lon="9.5833633"><ele>147.0</ele><time>2026-04-07T14:52:01.997Z</time></trkpt><trkpt lat="44.915545" lon="9.5833417"><ele>146.0</ele><time>2026-04-07T14:52:02.998Z</time></trkpt><trkpt lat="44.9156133" lon="9.5833183"><ele>146.0</ele><time>2026-04-07T14:52:03.988Z</time></trkpt><trkpt lat="44.9156817" lon="9.5832883"><ele>146.0</ele><time>2026-04-07T14:52:04.997Z</time></trkpt><trkpt lat="44.9157483" lon="9.5832633"><ele>146.0</ele><time>2026-04-07T14:52:05.994Z</time></trkpt><trkpt lat="44.9158167" lon="9.5832333"><ele>146.0</ele><time>2026-04-07T14:52:06.995Z</time></trkpt><trkpt lat="44.9158833" lon="9.5832017"><ele>146.0</ele><time>2026-04-07T14:52:07.991Z</time></trkpt><trkpt lat="44.9159533" lon="9.58317"><ele>146.0</ele><time>2026-04-07T14:52:08.991Z</time></trkpt><trkpt lat="44.9160217" lon="9.5831367"><ele>146.0</ele><time>2026-04-07T14:52:09.99Z</time></trkpt><trkpt lat="44.9160917" lon="9.5831067"><ele>145.42857142857142</ele><time>2026-04-07T14:52:11.004Z</time></trkpt><trkpt lat="44.9161567" lon="9.5830767"><ele>144.85714285714286</ele><time>2026-04-07T14:52:11.992Z</time></trkpt><trkpt lat="44.9162217" lon="9.58304"><ele>144.28571428571428</ele><time>2026-04-07T14:52:13.002Z</time></trkpt><trkpt lat="44.9162833" lon="9.5830033"><ele>143.71428571428572</ele><time>2026-04-07T14:52:13.991Z</time></trkpt><trkpt lat="44.91634" lon="9.5829633"><ele>143.14285714285714</ele><time>2026-04-07T14:52:14.998Z</time></trkpt><trkpt lat="44.916395" lon="9.5829167"><ele>142.57142857142856</ele><time>2026-04-07T14:52:15.99Z</time></trkpt><trkpt lat="44.9164517" lon="9.5828683"><ele>142.0</ele><time>2026-04-07T14:52:16.993Z</time></trkpt><trkpt lat="44.9165067" lon="9.5828183"><ele>143.28571428571428</ele><time>2026-04-07T14:52:17.991Z</time></trkpt><trkpt lat="44.9165633" lon="9.582765"><ele>144.57142857142856</ele><time>2026-04-07T14:52:18.992Z</time></trkpt><trkpt lat="44.91662" lon="9.5827133"><ele>145.85714285714286</ele><time>2026-04-07T14:52:19.996Z</time></trkpt><trkpt lat="44.916675" lon="9.5826617"><ele>147.14285714285714</ele><time>2026-04-07T14:52:20.996Z</time></trkpt><trkpt lat="44.9167317" lon="9.5826133"><ele>148.42857142857144</ele><time>2026-04-07T14:52:21.987Z</time></trkpt><trkpt lat="44.91679" lon="9.58257"><ele>149.71428571428572</ele><time>2026-04-07T14:52:23Z</time></trkpt><trkpt lat="44.9168533" lon="9.5825317"><ele>151.0</ele><time>2026-04-07T14:52:23.994Z</time></trkpt><trkpt lat="44.9169217" lon="9.5825067"><ele>151.0</ele><time>2026-04-07T14:52:25Z</time></trkpt><trkpt lat="44.91699" lon="9.58249"><ele>151.0</ele><time>2026-04-07T14:52:25.992Z</time></trkpt><trkpt lat="44.9170567" lon="9.582485"><ele>151.0</ele><time>2026-04-07T14:52:27.001Z</time></trkpt><trkpt lat="44.9171767" lon="9.58251"><ele>151.0</ele><time>2026-04-07T14:52:28.996Z</time></trkpt><trkpt lat="44.9172883" lon="9.5825467"><ele>151.0</ele><time>2026-04-07T14:52:30.99Z</time></trkpt><trkpt lat="44.9174017" lon="9.5825917"><ele>151.0</ele><time>2026-04-07T14:52:32.997Z</time></trkpt><trkpt lat="44.917515" lon="9.58264"><ele>151.0</ele><time>2026-04-07T14:52:35.001Z</time></trkpt><trkpt lat="44.91762" lon="9.582675"><ele>151.0</ele><time>2026-04-07T14:52:36.994Z</time></trkpt><trkpt lat="44.917725" lon="9.5827067"><ele>151.0</ele><time>2026-04-07T14:52:38.994Z</time></trkpt><trkpt lat="44.9178383" lon="9.5827467"><ele>151.5</ele><time>2026-04-07T14:52:40.994Z</time></trkpt><trkpt lat="44.9179533" lon="9.582795"><ele>152.0</ele><time>2026-04-07T14:52:42.988Z</time></trkpt><trkpt lat="44.9180683" lon="9.582855"><ele>152.5</ele><time>2026-04-07T14:52:44.994Z</time></trkpt><trkpt lat="44.9181783" lon="9.582915"><ele>153.0</ele><time>2026-04-07T14:52:47.003Z</time></trkpt><trkpt lat="44.9182883" lon="9.5829767"><ele>153.0</ele><time>2026-04-07T14:52:48.999Z</time></trkpt><trkpt lat="44.9183983" lon="9.5830283"><ele>153.0</ele><time>2026-04-07T14:52:50.997Z</time></trkpt><trkpt lat="44.9185117" lon="9.583075"><ele>153.0</ele><time>2026-04-07T14:52:52.989Z</time></trkpt><trkpt lat="44.918625" lon="9.5831133"><ele>153.0</ele><time>2026-04-07T14:52:54.993Z</time></trkpt><trkpt lat="44.918745" lon="9.5831533"><ele>153.0</ele><time>2026-04-07T14:52:56.99Z</time></trkpt><trkpt lat="44.9188633" lon="9.5832"><ele>153.0</ele><time>2026-04-07T14:52:58.997Z</time></trkpt><trkpt lat="44.9189833" lon="9.58324"><ele>153.0</ele><time>2026-04-07T14:53:01.002Z</time></trkpt><trkpt lat="44.919045" lon="9.5832583"><ele>153.0</ele><time>2026-04-07T14:53:01.995Z</time></trkpt><trkpt lat="44.9191067" lon="9.5832767"><ele>153.0</ele><time>2026-04-07T14:53:02.995Z</time></trkpt><trkpt lat="44.9192283" lon="9.5833133"><ele>152.5</ele><time>2026-04-07T14:53:04.995Z</time></trkpt><trkpt lat="44.9193467" lon="9.58334"><ele>152.0</ele><time>2026-04-07T14:53:06.999Z</time></trkpt><trkpt lat="44.9194633" lon="9.5833583"><ele>151.5</ele><time>2026-04-07T14:53:08.998Z</time></trkpt><trkpt lat="44.91958" lon="9.5833617"><ele>151.0</ele><time>2026-04-07T14:53:10.998Z</time></trkpt><trkpt lat="44.9196967" lon="9.58336"><ele>151.0</ele><time>2026-04-07T14:53:12.991Z</time></trkpt><trkpt lat="44.919815" lon="9.5833383"><ele>151.0</ele><time>2026-04-07T14:53:14.992Z</time></trkpt><trkpt lat="44.9199267" lon="9.583305"><ele>151.0</ele><time>2026-04-07T14:53:17.002Z</time></trkpt><trkpt lat="44.9200467" lon="9.583275"><ele>151.0</ele><time>2026-04-07T14:53:18.996Z</time></trkpt><trkpt lat="44.9201717" lon="9.583245"><ele>150.5</ele><time>2026-04-07T14:53:21.001Z</time></trkpt><trkpt lat="44.9202367" lon="9.5832283"><ele>150.0</ele><time>2026-04-07T14:53:21.992Z</time></trkpt><trkpt lat="44.9203033" lon="9.5832083"><ele>149.5</ele><time>2026-04-07T14:53:22.998Z</time></trkpt><trkpt lat="44.92037" lon="9.5831933"><ele>149.0</ele><time>2026-04-07T14:53:23.99Z</time></trkpt><trkpt lat="44.9204333" lon="9.5831767"><ele>148.5</ele><time>2026-04-07T14:53:24.999Z</time></trkpt><trkpt lat="44.9204967" lon="9.5831583"><ele>148.0</ele><time>2026-04-07T14:53:25.992Z</time></trkpt><trkpt lat="44.92062" lon="9.5831283"><ele>148.0</ele><time>2026-04-07T14:53:27.992Z</time></trkpt><trkpt lat="44.920745" lon="9.5830933"><ele>148.0</ele><time>2026-04-07T14:53:29.992Z</time></trkpt><trkpt lat="44.9208067" lon="9.5830733"><ele>148.0</ele><time>2026-04-07T14:53:30.993Z</time></trkpt><trkpt lat="44.9209283" lon="9.5830383"><ele>148.0</ele><time>2026-04-07T14:53:32.992Z</time></trkpt><trkpt lat="44.9210433" lon="9.5829967"><ele>148.0</ele><time>2026-04-07T14:53:34.998Z</time></trkpt><trkpt lat="44.92115" lon="9.5829533"><ele>148.20000000000002</ele><time>2026-04-07T14:53:36.991Z</time></trkpt><trkpt lat="44.9212667" lon="9.5829117"><ele>148.4</ele><time>2026-04-07T14:53:38.99Z</time></trkpt><trkpt lat="44.9213717" lon="9.582885"><ele>148.60000000000002</ele><time>2026-04-07T14:53:40.997Z</time></trkpt><trkpt lat="44.9214717" lon="9.58286"><ele>148.8</ele><time>2026-04-07T14:53:43.001Z</time></trkpt><trkpt lat="44.9215717" lon="9.5828267"><ele>149.0</ele><time>2026-04-07T14:53:44.996Z</time></trkpt><trkpt lat="44.9216683" lon="9.5827883"><ele>150.2</ele><time>2026-04-07T14:53:46.992Z</time></trkpt><trkpt lat="44.9217667" lon="9.582745"><ele>151.4</ele><time>2026-04-07T14:53:49.001Z</time></trkpt><trkpt lat="44.9218683" lon="9.5827133"><ele>152.6</ele><time>2026-04-07T14:53:50.991Z</time></trkpt><trkpt lat="44.9219733" lon="9.5826967"><ele>153.8</ele><time>2026-04-07T14:53:52.992Z</time></trkpt><trkpt lat="44.9220783" lon="9.5826933"><ele>155.0</ele><time>2026-04-07T14:53:55.002Z</time></trkpt><trkpt lat="44.92219" lon="9.5827083"><ele>155.0</ele><time>2026-04-07T14:53:56.988Z</time></trkpt><trkpt lat="44.9222983" lon="9.5827383"><ele>155.0</ele><time>2026-04-07T14:53:58.992Z</time></trkpt><trkpt lat="44.922415" lon="9.582765"><ele>155.0</ele><time>2026-04-07T14:54:01.002Z</time></trkpt><trkpt lat="44.9225167" lon="9.5827983"><ele>155.0</ele><time>2026-04-07T14:54:03Z</time></trkpt><trkpt lat="44.9226233" lon="9.5828217"><ele>155.0</ele><time>2026-04-07T14:54:04.996Z</time></trkpt><trkpt lat="44.9227283" lon="9.582845"><ele>152.75</ele><time>2026-04-07T14:54:06.996Z</time></trkpt><trkpt lat="44.9228283" lon="9.5828833"><ele>150.5</ele><time>2026-04-07T14:54:08.997Z</time></trkpt><trkpt lat="44.92294" lon="9.582915"><ele>148.25</ele><time>2026-04-07T14:54:10.996Z</time></trkpt><trkpt lat="44.92305" lon="9.5829483"><ele>146.0</ele><time>2026-04-07T14:54:12.999Z</time></trkpt><trkpt lat="44.92317" lon="9.5829817"><ele>146.0</ele><time>2026-04-07T14:54:14.993Z</time></trkpt><trkpt lat="44.9232383" lon="9.5829983"><ele>146.0</ele><time>2026-04-07T14:54:15.993Z</time></trkpt><trkpt lat="44.9233067" lon="9.583015"><ele>146.0</ele><time>2026-04-07T14:54:16.996Z</time></trkpt><trkpt lat="44.9233733" lon="9.5830283"><ele>146.0</ele><time>2026-04-07T14:54:17.989Z</time></trkpt><trkpt lat="44.9234367" lon="9.5830383"><ele>146.0</ele><time>2026-04-07T14:54:18.994Z</time></trkpt><trkpt lat="44.923505" lon="9.58304"><ele>146.0</ele><time>2026-04-07T14:54:19.988Z</time></trkpt><trkpt lat="44.923575" lon="9.58305"><ele>146.0</ele><time>2026-04-07T14:54:20.999Z</time></trkpt><trkpt lat="44.9236433" lon="9.5830633"><ele>146.14285714285714</ele><time>2026-04-07T14:54:21.992Z</time></trkpt><trkpt lat="44.9237117" lon="9.5830817"><ele>146.28571428571428</ele><time>2026-04-07T14:54:22.992Z</time></trkpt><trkpt lat="44.9237833" lon="9.5831017"><ele>146.42857142857144</ele><time>2026-04-07T14:54:23.991Z</time></trkpt><trkpt lat="44.9238533" lon="9.5831283"><ele>146.57142857142856</ele><time>2026-04-07T14:54:24.99Z</time></trkpt><trkpt lat="44.9239217" lon="9.583165"><ele>146.71428571428572</ele><time>2026-04-07T14:54:25.991Z</time></trkpt><trkpt lat="44.9239933" lon="9.5832017"><ele>146.85714285714286</ele><time>2026-04-07T14:54:26.993Z</time></trkpt><trkpt lat="44.9240633" lon="9.5832383"><ele>147.0</ele><time>2026-04-07T14:54:27.99Z</time></trkpt><trkpt lat="44.9241317" lon="9.58328"><ele>147.0</ele><time>2026-04-07T14:54:28.992Z</time></trkpt><trkpt lat="44.9241983" lon="9.5833217"><ele>147.0</ele><time>2026-04-07T14:54:29.991Z</time></trkpt><trkpt lat="44.9242717" lon="9.5833683"><ele>147.0</ele><time>2026-04-07T14:54:31.005Z</time></trkpt><trkpt lat="44.9243417" lon="9.58342"><ele>147.0</ele><time>2026-04-07T14:54:31.989Z</time></trkpt><trkpt lat="44.9244183" lon="9.5834617"><ele>147.0</ele><time>2026-04-07T14:54:32.993Z</time></trkpt><trkpt lat="44.92449" lon="9.5835017"><ele>147.0</ele><time>2026-04-07T14:54:33.992Z</time></trkpt><trkpt lat="44.92456" lon="9.5835483"><ele>146.0</ele><time>2026-04-07T14:54:34.991Z</time></trkpt><trkpt lat="44.9246283" lon="9.5835933"><ele>145.0</ele><time>2026-04-07T14:54:35.994Z</time></trkpt><trkpt lat="44.9246917" lon="9.5836417"><ele>144.0</ele><time>2026-04-07T14:54:36.991Z</time></trkpt><trkpt lat="44.924765" lon="9.5836833"><ele>143.0</ele><time>2026-04-07T14:54:37.989Z</time></trkpt><trkpt lat="44.92483" lon="9.5837283"><ele>142.0</ele><time>2026-04-07T14:54:38.989Z</time></trkpt><trkpt lat="44.924905" lon="9.583775"><ele>141.0</ele><time>2026-04-07T14:54:39.991Z</time></trkpt><trkpt lat="44.9249767" lon="9.583815"><ele>140.5</ele><time>2026-04-07T14:54:40.998Z</time></trkpt><trkpt lat="44.9250417" lon="9.5838567"><ele>140.0</ele><time>2026-04-07T14:54:41.992Z</time></trkpt><trkpt lat="44.9251167" lon="9.5839033"><ele>139.5</ele><time>2026-04-07T14:54:42.994Z</time></trkpt><trkpt lat="44.925185" lon="9.5839433"><ele>139.0</ele><time>2026-04-07T14:54:43.99Z</time></trkpt><trkpt lat="44.925255" lon="9.58399"><ele>138.5</ele><time>2026-04-07T14:54:44.995Z</time></trkpt><trkpt lat="44.925325" lon="9.5840317"><ele>138.0</ele><time>2026-04-07T14:54:45.99Z</time></trkpt><trkpt lat="44.9254" lon="9.5840683"><ele>137.85714285714286</ele><time>2026-04-07T14:54:46.995Z</time></trkpt><trkpt lat="44.9254717" lon="9.5841067"><ele>137.71428571428572</ele><time>2026-04-07T14:54:47.989Z</time></trkpt><trkpt lat="44.9255433" lon="9.584145"><ele>137.57142857142858</ele><time>2026-04-07T14:54:49.001Z</time></trkpt><trkpt lat="44.9256117" lon="9.5841833"><ele>137.42857142857144</ele><time>2026-04-07T14:54:49.995Z</time></trkpt><trkpt lat="44.92568" lon="9.5842233"><ele>137.28571428571428</ele><time>2026-04-07T14:54:50.997Z</time></trkpt><trkpt lat="44.92575" lon="9.584265"><ele>137.14285714285717</ele><time>2026-04-07T14:54:51.991Z</time></trkpt><trkpt lat="44.925815" lon="9.5843083"><ele>137.0</ele><time>2026-04-07T14:54:52.992Z</time></trkpt><trkpt lat="44.92588" lon="9.5843467"><ele>136.85714285714286</ele><time>2026-04-07T14:54:53.99Z</time></trkpt><trkpt lat="44.9259417" lon="9.5843867"><ele>136.71428571428572</ele><time>2026-04-07T14:54:54.997Z</time></trkpt><trkpt lat="44.926005" lon="9.58443"><ele>136.57142857142856</ele><time>2026-04-07T14:54:55.993Z</time></trkpt><trkpt lat="44.926065" lon="9.584475"><ele>136.42857142857144</ele><time>2026-04-07T14:54:56.995Z</time></trkpt><trkpt lat="44.9261267" lon="9.5845133"><ele>136.28571428571428</ele><time>2026-04-07T14:54:57.993Z</time></trkpt><trkpt lat="44.9261833" lon="9.5845567"><ele>136.14285714285714</ele><time>2026-04-07T14:54:58.994Z</time></trkpt><trkpt lat="44.9262417" lon="9.584595"><ele>136.0</ele><time>2026-04-07T14:54:59.991Z</time></trkpt><trkpt lat="44.9263" lon="9.58463"><ele>135.5</ele><time>2026-04-07T14:55:01Z</time></trkpt><trkpt lat="44.9264117" lon="9.5847"><ele>135.0</ele><time>2026-04-07T14:55:02.997Z</time></trkpt><trkpt lat="44.9265133" lon="9.5847817"><ele>134.5</ele><time>2026-04-07T14:55:04.991Z</time></trkpt><trkpt lat="44.9266183" lon="9.5848433"><ele>134.0</ele><time>2026-04-07T14:55:06.997Z</time></trkpt><trkpt lat="44.92673" lon="9.5849"><ele>134.0</ele><time>2026-04-07T14:55:08.997Z</time></trkpt><trkpt lat="44.9267883" lon="9.584935"><ele>134.0</ele><time>2026-04-07T14:55:09.993Z</time></trkpt><trkpt lat="44.9268467" lon="9.5849683"><ele>134.0</ele><time>2026-04-07T14:55:10.994Z</time></trkpt><trkpt lat="44.926905" lon="9.585005"><ele>134.0</ele><time>2026-04-07T14:55:11.999Z</time></trkpt><trkpt lat="44.9270117" lon="9.5850883"><ele>134.0</ele><time>2026-04-07T14:55:13.999Z</time></trkpt><trkpt lat="44.9270683" lon="9.5851283"><ele>134.0</ele><time>2026-04-07T14:55:14.996Z</time></trkpt><trkpt lat="44.927175" lon="9.5852133"><ele>134.0</ele><time>2026-04-07T14:55:17.005Z</time></trkpt><trkpt lat="44.9272883" lon="9.5852883"><ele>134.0</ele><time>2026-04-07T14:55:18.995Z</time></trkpt><trkpt lat="44.9273483" lon="9.58532"><ele>134.0</ele><time>2026-04-07T14:55:19.996Z</time></trkpt><trkpt lat="44.92746" lon="9.5853917"><ele>134.0</ele><time>2026-04-07T14:55:21.991Z</time></trkpt><trkpt lat="44.9275183" lon="9.5854267"><ele>134.0</ele><time>2026-04-07T14:55:22.993Z</time></trkpt><trkpt lat="44.9276283" lon="9.5854933"><ele>134.16666666666666</ele><time>2026-04-07T14:55:24.994Z</time></trkpt><trkpt lat="44.9276867" lon="9.5855267"><ele>134.33333333333331</ele><time>2026-04-07T14:55:25.993Z</time></trkpt><trkpt lat="44.927745" lon="9.585565"><ele>134.5</ele><time>2026-04-07T14:55:26.992Z</time></trkpt><trkpt lat="44.9278617" lon="9.5856317"><ele>134.66666666666666</ele><time>2026-04-07T14:55:28.991Z</time></trkpt><trkpt lat="44.9279217" lon="9.5856633"><ele>134.83333333333334</ele><time>2026-04-07T14:55:29.992Z</time></trkpt><trkpt lat="44.9279833" lon="9.5856933"><ele>135.0</ele><time>2026-04-07T14:55:30.991Z</time></trkpt><trkpt lat="44.9280967" lon="9.5857533"><ele>135.0</ele><time>2026-04-07T14:55:33Z</time></trkpt><trkpt lat="44.928195" lon="9.5858217"><ele>135.0</ele><time>2026-04-07T14:55:35.002Z</time></trkpt><trkpt lat="44.92829" lon="9.5858783"><ele>135.0</ele><time>2026-04-07T14:55:36.989Z</time></trkpt><trkpt lat="44.928395" lon="9.585935"><ele>135.0</ele><time>2026-04-07T14:55:38.995Z</time></trkpt><trkpt lat="44.928505" lon="9.5859967"><ele>135.0</ele><time>2026-04-07T14:55:40.994Z</time></trkpt><trkpt lat="44.9286183" lon="9.5860617"><ele>135.0</ele><time>2026-04-07T14:55:42.994Z</time></trkpt><trkpt lat="44.9287283" lon="9.5861233"><ele>135.0</ele><time>2026-04-07T14:55:44.996Z</time></trkpt><trkpt lat="44.9288367" lon="9.5861867"><ele>135.0</ele><time>2026-04-07T14:55:47Z</time></trkpt><trkpt lat="44.928945" lon="9.58625"><ele>135.0</ele><time>2026-04-07T14:55:48.986Z</time></trkpt><trkpt lat="44.9290533" lon="9.586315"><ele>135.0</ele><time>2026-04-07T14:55:50.99Z</time></trkpt><trkpt lat="44.929165" lon="9.5863833"><ele>135.0</ele><time>2026-04-07T14:55:52.993Z</time></trkpt><trkpt lat="44.9292767" lon="9.5864467"><ele>135.0</ele><time>2026-04-07T14:55:55.001Z</time></trkpt><trkpt lat="44.9293867" lon="9.58652"><ele>135.0</ele><time>2026-04-07T14:55:57Z</time></trkpt><trkpt lat="44.9294983" lon="9.5865917"><ele>135.0</ele><time>2026-04-07T14:55:58.99Z</time></trkpt><trkpt lat="44.9295567" lon="9.586625"><ele>135.0</ele><time>2026-04-07T14:55:59.998Z</time></trkpt><trkpt lat="44.9296667" lon="9.5866917"><ele>135.0</ele><time>2026-04-07T14:56:01.993Z</time></trkpt><trkpt lat="44.929775" lon="9.5867483"><ele>135.0</ele><time>2026-04-07T14:56:03.993Z</time></trkpt><trkpt lat="44.9298817" lon="9.586815"><ele>135.0</ele><time>2026-04-07T14:56:05.989Z</time></trkpt><trkpt lat="44.9299933" lon="9.586885"><ele>135.5</ele><time>2026-04-07T14:56:08.004Z</time></trkpt><trkpt lat="44.93011" lon="9.5869533"><ele>136.0</ele><time>2026-04-07T14:56:10.002Z</time></trkpt><trkpt lat="44.93017" lon="9.5869867"><ele>136.5</ele><time>2026-04-07T14:56:11.001Z</time></trkpt><trkpt lat="44.93029" lon="9.5870533"><ele>137.0</ele><time>2026-04-07T14:56:13.001Z</time></trkpt><trkpt lat="44.93035" lon="9.587085"><ele>137.5</ele><time>2026-04-07T14:56:13.991Z</time></trkpt><trkpt lat="44.9304083" lon="9.58712"><ele>138.0</ele><time>2026-04-07T14:56:14.995Z</time></trkpt><trkpt lat="44.9304667" lon="9.587155"><ele>138.0</ele><time>2026-04-07T14:56:15.995Z</time></trkpt><trkpt lat="44.930525" lon="9.58719"><ele>138.0</ele><time>2026-04-07T14:56:16.992Z</time></trkpt><trkpt lat="44.9306383" lon="9.5872583"><ele>138.0</ele><time>2026-04-07T14:56:18.99Z</time></trkpt><trkpt lat="44.9307517" lon="9.587325"><ele>138.0</ele><time>2026-04-07T14:56:20.992Z</time></trkpt><trkpt lat="44.93081" lon="9.5873633"><ele>138.0</ele><time>2026-04-07T14:56:21.989Z</time></trkpt><trkpt lat="44.93092" lon="9.58744"><ele>140.5</ele><time>2026-04-07T14:56:23.988Z</time></trkpt><trkpt lat="44.931035" lon="9.5875117"><ele>143.0</ele><time>2026-04-07T14:56:25.991Z</time></trkpt><trkpt lat="44.931145" lon="9.5875817"><ele>145.5</ele><time>2026-04-07T14:56:27.988Z</time></trkpt><trkpt lat="44.9312533" lon="9.587645"><ele>148.0</ele><time>2026-04-07T14:56:29.986Z</time></trkpt><trkpt lat="44.9313683" lon="9.5877117"><ele>148.0</ele><time>2026-04-07T14:56:31.992Z</time></trkpt><trkpt lat="44.9314783" lon="9.5877867"><ele>148.0</ele><time>2026-04-07T14:56:33.99Z</time></trkpt><trkpt lat="44.9315367" lon="9.5878217"><ele>148.0</ele><time>2026-04-07T14:56:34.989Z</time></trkpt><trkpt lat="44.931595" lon="9.5878567"><ele>148.0</ele><time>2026-04-07T14:56:35.989Z</time></trkpt><trkpt lat="44.9317083" lon="9.5879183"><ele>148.0</ele><time>2026-04-07T14:56:37.993Z</time></trkpt><trkpt lat="44.9317667" lon="9.5879517"><ele>148.0</ele><time>2026-04-07T14:56:39.006Z</time></trkpt><trkpt lat="44.93183" lon="9.5879817"><ele>147.20000000000002</ele><time>2026-04-07T14:56:39.989Z</time></trkpt><trkpt lat="44.9318917" lon="9.5880133"><ele>146.4</ele><time>2026-04-07T14:56:41Z</time></trkpt><trkpt lat="44.9320067" lon="9.58807"><ele>145.60000000000002</ele><time>2026-04-07T14:56:43Z</time></trkpt><trkpt lat="44.9321217" lon="9.58813"><ele>144.8</ele><time>2026-04-07T14:56:44.995Z</time></trkpt><trkpt lat="44.9322317" lon="9.5881917"><ele>144.0</ele><time>2026-04-07T14:56:46.999Z</time></trkpt><trkpt lat="44.9323417" lon="9.5882517"><ele>144.0</ele><time>2026-04-07T14:56:48.997Z</time></trkpt><trkpt lat="44.9324433" lon="9.5883167"><ele>144.0</ele><time>2026-04-07T14:56:51.004Z</time></trkpt><trkpt lat="44.9325533" lon="9.5883917"><ele>144.0</ele><time>2026-04-07T14:56:53.009Z</time></trkpt><trkpt lat="44.9326617" lon="9.5884583"><ele>144.0</ele><time>2026-04-07T14:56:54.996Z</time></trkpt><trkpt lat="44.9327183" lon="9.5885"><ele>144.0</ele><time>2026-04-07T14:56:55.992Z</time></trkpt><trkpt lat="44.9328267" lon="9.5885833"><ele>142.8</ele><time>2026-04-07T14:56:57.994Z</time></trkpt><trkpt lat="44.93293" lon="9.5886633"><ele>141.60000000000002</ele><time>2026-04-07T14:56:59.998Z</time></trkpt><trkpt lat="44.93299" lon="9.5886967"><ele>140.4</ele><time>2026-04-07T14:57:00.994Z</time></trkpt><trkpt lat="44.9330883" lon="9.5887833"><ele>139.20000000000002</ele><time>2026-04-07T14:57:02.996Z</time></trkpt><trkpt lat="44.933195" lon="9.5888567"><ele>138.0</ele><time>2026-04-07T14:57:05Z</time></trkpt><trkpt lat="44.9332967" lon="9.5889367"><ele>140.75</ele><time>2026-04-07T14:57:06.992Z</time></trkpt><trkpt lat="44.9334" lon="9.5890083"><ele>143.5</ele><time>2026-04-07T14:57:08.993Z</time></trkpt><trkpt lat="44.9335" lon="9.5890783"><ele>146.25</ele><time>2026-04-07T14:57:10.993Z</time></trkpt><trkpt lat="44.9336133" lon="9.5891483"><ele>149.0</ele><time>2026-04-07T14:57:12.999Z</time></trkpt><trkpt lat="44.9337283" lon="9.5892117"><ele>149.0</ele><time>2026-04-07T14:57:14.998Z</time></trkpt><trkpt lat="44.933845" lon="9.5892717"><ele>149.0</ele><time>2026-04-07T14:57:16.988Z</time></trkpt><trkpt lat="44.9339533" lon="9.589345"><ele>149.0</ele><time>2026-04-07T14:57:18.993Z</time></trkpt><trkpt lat="44.934065" lon="9.589415"><ele>149.0</ele><time>2026-04-07T14:57:21.001Z</time></trkpt><trkpt lat="44.9341217" lon="9.589455"><ele>149.0</ele><time>2026-04-07T14:57:21.99Z</time></trkpt><trkpt lat="44.9341817" lon="9.5894917"><ele>147.28571428571428</ele><time>2026-04-07T14:57:22.994Z</time></trkpt><trkpt lat="44.9342417" lon="9.58953"><ele>145.57142857142856</ele><time>2026-04-07T14:57:23.987Z</time></trkpt><trkpt lat="44.9343033" lon="9.58957"><ele>143.85714285714286</ele><time>2026-04-07T14:57:24.994Z</time></trkpt><trkpt lat="44.9343633" lon="9.58961"><ele>142.14285714285714</ele><time>2026-04-07T14:57:25.999Z</time></trkpt><trkpt lat="44.9344233" lon="9.5896483"><ele>140.42857142857144</ele><time>2026-04-07T14:57:27.003Z</time></trkpt><trkpt lat="44.9344833" lon="9.5896883"><ele>138.71428571428572</ele><time>2026-04-07T14:57:27.993Z</time></trkpt><trkpt lat="44.934545" lon="9.5897233"><ele>137.0</ele><time>2026-04-07T14:57:28.99Z</time></trkpt><trkpt lat="44.934605" lon="9.5897583"><ele>137.0</ele><time>2026-04-07T14:57:29.989Z</time></trkpt><trkpt lat="44.9346683" lon="9.5897917"><ele>137.0</ele><time>2026-04-07T14:57:30.992Z</time></trkpt><trkpt lat="44.93478" lon="9.5898567"><ele>137.0</ele><time>2026-04-07T14:57:33.007Z</time></trkpt><trkpt lat="44.93489" lon="9.5899233"><ele>137.0</ele><time>2026-04-07T14:57:34.991Z</time></trkpt><trkpt lat="44.9350033" lon="9.58999"><ele>137.0</ele><time>2026-04-07T14:57:36.996Z</time></trkpt><trkpt lat="44.9350617" lon="9.590025"><ele>138.5</ele><time>2026-04-07T14:57:37.988Z</time></trkpt><trkpt lat="44.9351733" lon="9.590095"><ele>140.0</ele><time>2026-04-07T14:57:39.988Z</time></trkpt><trkpt lat="44.9352333" lon="9.5901317"><ele>141.5</ele><time>2026-04-07T14:57:40.995Z</time></trkpt><trkpt lat="44.9352917" lon="9.590165"><ele>143.0</ele><time>2026-04-07T14:57:41.988Z</time></trkpt><trkpt lat="44.9353583" lon="9.5901933"><ele>144.5</ele><time>2026-04-07T14:57:42.992Z</time></trkpt><trkpt lat="44.9354167" lon="9.5902283"><ele>146.0</ele><time>2026-04-07T14:57:43.986Z</time></trkpt><trkpt lat="44.93548" lon="9.5902583"><ele>146.0</ele><time>2026-04-07T14:57:45.002Z</time></trkpt><trkpt lat="44.9355933" lon="9.590325"><ele>146.0</ele><time>2026-04-07T14:57:46.995Z</time></trkpt><trkpt lat="44.935705" lon="9.5903867"><ele>146.0</ele><time>2026-04-07T14:57:48.993Z</time></trkpt><trkpt lat="44.9358117" lon="9.5904467"><ele>146.0</ele><time>2026-04-07T14:57:50.998Z</time></trkpt><trkpt lat="44.9358983" lon="9.5905117"><ele>145.0</ele><time>2026-04-07T14:57:53.002Z</time></trkpt><trkpt lat="44.9359933" lon="9.590575"><ele>144.0</ele><time>2026-04-07T14:57:54.994Z</time></trkpt><trkpt lat="44.9360983" lon="9.59064"><ele>143.0</ele><time>2026-04-07T14:57:56.993Z</time></trkpt><trkpt lat="44.936205" lon="9.590705"><ele>142.0</ele><time>2026-04-07T14:57:58.99Z</time></trkpt><trkpt lat="44.9363117" lon="9.5907733"><ele>142.0</ele><time>2026-04-07T14:58:00.994Z</time></trkpt><trkpt lat="44.9364117" lon="9.5908283"><ele>142.0</ele><time>2026-04-07T14:58:03.004Z</time></trkpt><trkpt lat="44.936515" lon="9.59089"><ele>142.0</ele><time>2026-04-07T14:58:04.993Z</time></trkpt><trkpt lat="44.9366217" lon="9.5909533"><ele>142.0</ele><time>2026-04-07T14:58:06.99Z</time></trkpt><trkpt lat="44.9367317" lon="9.5909917"><ele>142.0</ele><time>2026-04-07T14:58:09.006Z</time></trkpt><trkpt lat="44.9368417" lon="9.5910267"><ele>141.75</ele><time>2026-04-07T14:58:11.001Z</time></trkpt><trkpt lat="44.936965" lon="9.5910267"><ele>141.5</ele><time>2026-04-07T14:58:12.989Z</time></trkpt><trkpt lat="44.9370833" lon="9.5910133"><ele>141.25</ele><time>2026-04-07T14:58:14.996Z</time></trkpt><trkpt lat="44.9372033" lon="9.5909883"><ele>141.0</ele><time>2026-04-07T14:58:17.002Z</time></trkpt><trkpt lat="44.9373233" lon="9.5909783"><ele>141.0</ele><time>2026-04-07T14:58:18.991Z</time></trkpt><trkpt lat="44.9373867" lon="9.5909667"><ele>141.0</ele><time>2026-04-07T14:58:19.993Z</time></trkpt><trkpt lat="44.937505" lon="9.59096"><ele>141.0</ele><time>2026-04-07T14:58:21.99Z</time></trkpt><trkpt lat="44.93757" lon="9.5909583"><ele>141.0</ele><time>2026-04-07T14:58:22.991Z</time></trkpt><trkpt lat="44.9376967" lon="9.5909517"><ele>141.0</ele><time>2026-04-07T14:58:24.997Z</time></trkpt><trkpt lat="44.9377617" lon="9.5909483"><ele>141.0</ele><time>2026-04-07T14:58:25.994Z</time></trkpt><trkpt lat="44.9378267" lon="9.5909433"><ele>139.0</ele><time>2026-04-07T14:58:27Z</time></trkpt><trkpt lat="44.93789" lon="9.5909383"><ele>137.0</ele><time>2026-04-07T14:58:27.991Z</time></trkpt><trkpt lat="44.937955" lon="9.5909383"><ele>135.0</ele><time>2026-04-07T14:58:28.994Z</time></trkpt><trkpt lat="44.93802" lon="9.590925"><ele>133.0</ele><time>2026-04-07T14:58:29.987Z</time></trkpt><trkpt lat="44.938145" lon="9.5909133"><ele>131.0</ele><time>2026-04-07T14:58:31.99Z</time></trkpt><trkpt lat="44.9382117" lon="9.5909083"><ele>129.0</ele><time>2026-04-07T14:58:33.002Z</time></trkpt><trkpt lat="44.9382817" lon="9.5908917"><ele>128.99999999999997</ele><time>2026-04-07T14:58:33.993Z</time></trkpt><trkpt lat="44.9383467" lon="9.5908817"><ele>129.0</ele><time>2026-04-07T14:58:35Z</time></trkpt><trkpt lat="44.9384167" lon="9.590875"><ele>129.0</ele><time>2026-04-07T14:58:35.995Z</time></trkpt><trkpt lat="44.9384867" lon="9.59087"><ele>129.0</ele><time>2026-04-07T14:58:36.993Z</time></trkpt><trkpt lat="44.9385567" lon="9.5908583"><ele>129.0</ele><time>2026-04-07T14:58:37.992Z</time></trkpt><trkpt lat="44.938625" lon="9.5908467"><ele>128.99999999999997</ele><time>2026-04-07T14:58:38.997Z</time></trkpt><trkpt lat="44.93869" lon="9.5908417"><ele>129.0</ele><time>2026-04-07T14:58:39.99Z</time></trkpt><trkpt lat="44.9387567" lon="9.5908333"><ele>128.42857142857142</ele><time>2026-04-07T14:58:41.007Z</time></trkpt><trkpt lat="44.9388233" lon="9.5908233"><ele>127.85714285714286</ele><time>2026-04-07T14:58:41.993Z</time></trkpt><trkpt lat="44.9388917" lon="9.5908133"><ele>127.28571428571428</ele><time>2026-04-07T14:58:43Z</time></trkpt><trkpt lat="44.93896" lon="9.5908017"><ele>126.71428571428571</ele><time>2026-04-07T14:58:43.99Z</time></trkpt><trkpt lat="44.9390267" lon="9.5907917"><ele>126.14285714285714</ele><time>2026-04-07T14:58:44.993Z</time></trkpt><trkpt lat="44.9390967" lon="9.5907833"><ele>125.57142857142857</ele><time>2026-04-07T14:58:45.993Z</time></trkpt><trkpt lat="44.9391617" lon="9.590775"><ele>125.0</ele><time>2026-04-07T14:58:46.998Z</time></trkpt><trkpt lat="44.939225" lon="9.590765"><ele>124.99999999999999</ele><time>2026-04-07T14:58:47.994Z</time></trkpt><trkpt lat="44.9392917" lon="9.5907567"><ele>125.0</ele><time>2026-04-07T14:58:48.999Z</time></trkpt><trkpt lat="44.9393567" lon="9.5907483"><ele>125.0</ele><time>2026-04-07T14:58:49.993Z</time></trkpt><trkpt lat="44.939475" lon="9.59074"><ele>125.0</ele><time>2026-04-07T14:58:51.988Z</time></trkpt><trkpt lat="44.9395983" lon="9.59073"><ele>124.99999999999999</ele><time>2026-04-07T14:58:53.992Z</time></trkpt><trkpt lat="44.9396617" lon="9.5907233"><ele>125.0</ele><time>2026-04-07T14:58:54.994Z</time></trkpt><trkpt lat="44.9397817" lon="9.59071"><ele>124.99999999999999</ele><time>2026-04-07T14:58:56.997Z</time></trkpt><trkpt lat="44.9398483" lon="9.5906967"><ele>125.0</ele><time>2026-04-07T14:58:57.989Z</time></trkpt><trkpt lat="44.9399117" lon="9.59069"><ele>125.0</ele><time>2026-04-07T14:58:58.992Z</time></trkpt><trkpt lat="44.939975" lon="9.59068"><ele>125.0</ele><time>2026-04-07T14:58:59.989Z</time></trkpt><trkpt lat="44.9400917" lon="9.5906767"><ele>124.99999999999999</ele><time>2026-04-07T14:59:01.995Z</time></trkpt><trkpt lat="44.94021" lon="9.59067"><ele>125.0</ele><time>2026-04-07T14:59:03.992Z</time></trkpt><trkpt lat="44.94028" lon="9.5906583"><ele>125.0</ele><time>2026-04-07T14:59:04.994Z</time></trkpt><trkpt lat="44.9403433" lon="9.5906483"><ele>125.0</ele><time>2026-04-07T14:59:05.992Z</time></trkpt><trkpt lat="44.9404583" lon="9.5906383"><ele>125.0</ele><time>2026-04-07T14:59:07.992Z</time></trkpt><trkpt lat="44.9405717" lon="9.5906133"><ele>125.0</ele><time>2026-04-07T14:59:09.991Z</time></trkpt><trkpt lat="44.9406883" lon="9.590605"><ele>125.0</ele><time>2026-04-07T14:59:11.991Z</time></trkpt><trkpt lat="44.94081" lon="9.5905933"><ele>124.0</ele><time>2026-04-07T14:59:13.993Z</time></trkpt><trkpt lat="44.9409283" lon="9.5905683"><ele>123.0</ele><time>2026-04-07T14:59:15.989Z</time></trkpt><trkpt lat="44.9410433" lon="9.5905417"><ele>122.0</ele><time>2026-04-07T14:59:17.991Z</time></trkpt><trkpt lat="44.9411517" lon="9.5905167"><ele>121.0</ele><time>2026-04-07T14:59:19.99Z</time></trkpt><trkpt lat="44.941275" lon="9.5904717"><ele>121.00000000000001</ele><time>2026-04-07T14:59:21.988Z</time></trkpt><trkpt lat="44.9413383" lon="9.5904433"><ele>121.0</ele><time>2026-04-07T14:59:23.004Z</time></trkpt><trkpt lat="44.9414" lon="9.5904183"><ele>121.0</ele><time>2026-04-07T14:59:23.99Z</time></trkpt><trkpt lat="44.9414617" lon="9.590395"><ele>121.0</ele><time>2026-04-07T14:59:25.003Z</time></trkpt><trkpt lat="44.941575" lon="9.590335"><ele>121.00000000000001</ele><time>2026-04-07T14:59:26.994Z</time></trkpt><trkpt lat="44.9416783" lon="9.5902633"><ele>121.0</ele><time>2026-04-07T14:59:28.993Z</time></trkpt><trkpt lat="44.9417717" lon="9.5902067"><ele>122.8</ele><time>2026-04-07T14:59:30.994Z</time></trkpt><trkpt lat="44.9418583" lon="9.5901633"><ele>124.6</ele><time>2026-04-07T14:59:32.995Z</time></trkpt><trkpt lat="44.9419533" lon="9.5901167"><ele>126.4</ele><time>2026-04-07T14:59:34.999Z</time></trkpt><trkpt lat="44.9420583" lon="9.5900667"><ele>128.2</ele><time>2026-04-07T14:59:36.992Z</time></trkpt><trkpt lat="44.9421617" lon="9.5900167"><ele>130.0</ele><time>2026-04-07T14:59:38.993Z</time></trkpt><trkpt lat="44.9422617" lon="9.589965"><ele>130.0</ele><time>2026-04-07T14:59:40.994Z</time></trkpt><trkpt lat="44.9423633" lon="9.5899167"><ele>130.0</ele><time>2026-04-07T14:59:43Z</time></trkpt><trkpt lat="44.9424617" lon="9.5898683"><ele>130.0</ele><time>2026-04-07T14:59:44.993Z</time></trkpt><trkpt lat="44.942555" lon="9.58983"><ele>130.0</ele><time>2026-04-07T14:59:46.99Z</time></trkpt><trkpt lat="44.9426483" lon="9.58979"><ele>130.0</ele><time>2026-04-07T14:59:49.004Z</time></trkpt><trkpt lat="44.942745" lon="9.589745"><ele>129.0</ele><time>2026-04-07T14:59:50.991Z</time></trkpt><trkpt lat="44.9428417" lon="9.5896933"><ele>128.0</ele><time>2026-04-07T14:59:52.995Z</time></trkpt><trkpt lat="44.9429317" lon="9.58964"><ele>127.0</ele><time>2026-04-07T14:59:54.996Z</time></trkpt><trkpt lat="44.9430217" lon="9.5895883"><ele>126.0</ele><time>2026-04-07T14:59:56.995Z</time></trkpt><trkpt lat="44.94311" lon="9.58954"><ele>125.0</ele><time>2026-04-07T14:59:58.991Z</time></trkpt><trkpt lat="44.9432" lon="9.589495"><ele>127.4</ele><time>2026-04-07T15:00:00.998Z</time></trkpt><trkpt lat="44.9432883" lon="9.589455"><ele>129.8</ele><time>2026-04-07T15:00:03Z</time></trkpt><trkpt lat="44.943375" lon="9.589415"><ele>132.2</ele><time>2026-04-07T15:00:04.993Z</time></trkpt><trkpt lat="44.94346" lon="9.5893733"><ele>134.6</ele><time>2026-04-07T15:00:06.99Z</time></trkpt><trkpt lat="44.9435467" lon="9.5893467"><ele>137.0</ele><time>2026-04-07T15:00:08.993Z</time></trkpt><trkpt lat="44.9436417" lon="9.5893283"><ele>137.0</ele><time>2026-04-07T15:00:10.997Z</time></trkpt><trkpt lat="44.943735" lon="9.5893017"><ele>137.0</ele><time>2026-04-07T15:00:12.998Z</time></trkpt><trkpt lat="44.9438283" lon="9.58929"><ele>137.0</ele><time>2026-04-07T15:00:14.993Z</time></trkpt><trkpt lat="44.9439283" lon="9.5892817"><ele>137.0</ele><time>2026-04-07T15:00:16.992Z</time></trkpt><trkpt lat="44.9440267" lon="9.5892667"><ele>137.0</ele><time>2026-04-07T15:00:19.008Z</time></trkpt><trkpt lat="44.94413" lon="9.589265"><ele>136.6</ele><time>2026-04-07T15:00:20.988Z</time></trkpt><trkpt lat="44.94423" lon="9.5892583"><ele>136.2</ele><time>2026-04-07T15:00:22.989Z</time></trkpt><trkpt lat="44.9443233" lon="9.5892533"><ele>135.8</ele><time>2026-04-07T15:00:24.99Z</time></trkpt><trkpt lat="44.9444233" lon="9.58925"><ele>135.4</ele><time>2026-04-07T15:00:26.997Z</time></trkpt><trkpt lat="44.9445217" lon="9.58924"><ele>135.0</ele><time>2026-04-07T15:00:28.996Z</time></trkpt><trkpt lat="44.9446083" lon="9.58924"><ele>135.0</ele><time>2026-04-07T15:00:31.002Z</time></trkpt><trkpt lat="44.9446867" lon="9.5892333"><ele>135.0</ele><time>2026-04-07T15:00:33.002Z</time></trkpt><trkpt lat="44.9447867" lon="9.5892267"><ele>135.0</ele><time>2026-04-07T15:00:34.988Z</time></trkpt><trkpt lat="44.9448983" lon="9.5892183"><ele>135.0</ele><time>2026-04-07T15:00:36.996Z</time></trkpt><trkpt lat="44.94501" lon="9.589205"><ele>135.0</ele><time>2026-04-07T15:00:39.005Z</time></trkpt><trkpt lat="44.9451183" lon="9.58919"><ele>135.0</ele><time>2026-04-07T15:00:41Z</time></trkpt><trkpt lat="44.9452283" lon="9.5891783"><ele>135.0</ele><time>2026-04-07T15:00:42.993Z</time></trkpt><trkpt lat="44.94534" lon="9.5891733"><ele>135.0</ele><time>2026-04-07T15:00:44.996Z</time></trkpt><trkpt lat="44.94545" lon="9.5891717"><ele>135.0</ele><time>2026-04-07T15:00:46.991Z</time></trkpt><trkpt lat="44.9455483" lon="9.5891667"><ele>135.0</ele><time>2026-04-07T15:00:48.998Z</time></trkpt><trkpt lat="44.945635" lon="9.58916"><ele>135.0</ele><time>2026-04-07T15:00:51.003Z</time></trkpt><trkpt lat="44.945735" lon="9.589155"><ele>135.0</ele><time>2026-04-07T15:00:52.996Z</time></trkpt><trkpt lat="44.94584" lon="9.5891517"><ele>135.0</ele><time>2026-04-07T15:00:54.997Z</time></trkpt><trkpt lat="44.9459517" lon="9.5891483"><ele>135.0</ele><time>2026-04-07T15:00:57.001Z</time></trkpt><trkpt lat="44.9460567" lon="9.58915"><ele>135.0</ele><time>2026-04-07T15:00:58.991Z</time></trkpt><trkpt lat="44.9461617" lon="9.58915"><ele>134.8</ele><time>2026-04-07T15:01:00.994Z</time></trkpt><trkpt lat="44.946265" lon="9.58916"><ele>134.6</ele><time>2026-04-07T15:01:02.993Z</time></trkpt><trkpt lat="44.9463767" lon="9.58918"><ele>134.4</ele><time>2026-04-07T15:01:04.994Z</time></trkpt><trkpt lat="44.94649" lon="9.5892083"><ele>134.2</ele><time>2026-04-07T15:01:06.996Z</time></trkpt><trkpt lat="44.946605" lon="9.589245"><ele>134.0</ele><time>2026-04-07T15:01:08.994Z</time></trkpt><trkpt lat="44.946715" lon="9.58929"><ele>133.5</ele><time>2026-04-07T15:01:10.998Z</time></trkpt><trkpt lat="44.9468317" lon="9.5893317"><ele>133.0</ele><time>2026-04-07T15:01:12.993Z</time></trkpt><trkpt lat="44.9469333" lon="9.589375"><ele>132.5</ele><time>2026-04-07T15:01:14.997Z</time></trkpt><trkpt lat="44.94704" lon="9.5894217"><ele>132.0</ele><time>2026-04-07T15:01:16.998Z</time></trkpt><trkpt lat="44.9471467" lon="9.5894717"><ele>131.4</ele><time>2026-04-07T15:01:18.999Z</time></trkpt><trkpt lat="44.9472517" lon="9.5895183"><ele>130.79999999999998</ele><time>2026-04-07T15:01:20.997Z</time></trkpt><trkpt lat="44.947355" lon="9.5895633"><ele>130.2</ele><time>2026-04-07T15:01:23.001Z</time></trkpt><trkpt lat="44.9474583" lon="9.5896117"><ele>129.6</ele><time>2026-04-07T15:01:24.991Z</time></trkpt><trkpt lat="44.9475583" lon="9.5896567"><ele>129.0</ele><time>2026-04-07T15:01:26.992Z</time></trkpt><trkpt lat="44.947655" lon="9.589705"><ele>129.0</ele><time>2026-04-07T15:01:28.987Z</time></trkpt><trkpt lat="44.9477617" lon="9.5897533"><ele>129.0</ele><time>2026-04-07T15:01:30.999Z</time></trkpt><trkpt lat="44.9478667" lon="9.5898"><ele>129.0</ele><time>2026-04-07T15:01:32.995Z</time></trkpt><trkpt lat="44.9479817" lon="9.58985"><ele>129.0</ele><time>2026-04-07T15:01:34.993Z</time></trkpt><trkpt lat="44.9480983" lon="9.5899067"><ele>129.0</ele><time>2026-04-07T15:01:36.998Z</time></trkpt><trkpt lat="44.9482167" lon="9.589965"><ele>129.0</ele><time>2026-04-07T15:01:39.003Z</time></trkpt><trkpt lat="44.9482767" lon="9.589995"><ele>129.0</ele><time>2026-04-07T15:01:39.992Z</time></trkpt><trkpt lat="44.9483383" lon="9.5900233"><ele>129.0</ele><time>2026-04-07T15:01:40.996Z</time></trkpt><trkpt lat="44.9484517" lon="9.5900817"><ele>129.0</ele><time>2026-04-07T15:01:42.993Z</time></trkpt><trkpt lat="44.9485667" lon="9.5901267"><ele>129.66666666666666</ele><time>2026-04-07T15:01:45.005Z</time></trkpt><trkpt lat="44.9486867" lon="9.5901467"><ele>130.33333333333334</ele><time>2026-04-07T15:01:46.993Z</time></trkpt><trkpt lat="44.9488017" lon="9.5901517"><ele>131.0</ele><time>2026-04-07T15:01:48.994Z</time></trkpt><trkpt lat="44.948865" lon="9.590145"><ele>131.66666666666669</ele><time>2026-04-07T15:01:49.991Z</time></trkpt><trkpt lat="44.9489317" lon="9.5901317"><ele>132.33333333333334</ele><time>2026-04-07T15:01:50.994Z</time></trkpt><trkpt lat="44.9490017" lon="9.5901117"><ele>133.0</ele><time>2026-04-07T15:01:51.991Z</time></trkpt><trkpt lat="44.9490733" lon="9.590085"><ele>133.0</ele><time>2026-04-07T15:01:52.99Z</time></trkpt><trkpt lat="44.9491433" lon="9.5900567"><ele>133.0</ele><time>2026-04-07T15:01:53.992Z</time></trkpt><trkpt lat="44.949215" lon="9.5900217"><ele>133.0</ele><time>2026-04-07T15:01:54.998Z</time></trkpt><trkpt lat="44.9492867" lon="9.5899767"><ele>133.0</ele><time>2026-04-07T15:01:55.994Z</time></trkpt><trkpt lat="44.9493583" lon="9.5899233"><ele>133.0</ele><time>2026-04-07T15:01:56.993Z</time></trkpt><trkpt lat="44.9494283" lon="9.589865"><ele>133.0</ele><time>2026-04-07T15:01:57.992Z</time></trkpt><trkpt lat="44.9494967" lon="9.5898133"><ele>133.16666666666669</ele><time>2026-04-07T15:01:58.995Z</time></trkpt><trkpt lat="44.9495583" lon="9.589765"><ele>133.33333333333334</ele><time>2026-04-07T15:01:59.987Z</time></trkpt><trkpt lat="44.9496183" lon="9.5897183"><ele>133.5</ele><time>2026-04-07T15:02:00.993Z</time></trkpt><trkpt lat="44.9496767" lon="9.58968"><ele>133.66666666666666</ele><time>2026-04-07T15:02:01.995Z</time></trkpt><trkpt lat="44.9497883" lon="9.5896133"><ele>133.83333333333331</ele><time>2026-04-07T15:02:03.992Z</time></trkpt><trkpt lat="44.9498433" lon="9.58957"><ele>134.0</ele><time>2026-04-07T15:02:04.998Z</time></trkpt><trkpt lat="44.9499483" lon="9.5894867"><ele>133.25</ele><time>2026-04-07T15:02:06.999Z</time></trkpt><trkpt lat="44.9500483" lon="9.58939"><ele>132.5</ele><time>2026-04-07T15:02:08.997Z</time></trkpt><trkpt lat="44.9501533" lon="9.5893133"><ele>131.75</ele><time>2026-04-07T15:02:10.996Z</time></trkpt><trkpt lat="44.9502583" lon="9.58924"><ele>131.0</ele><time>2026-04-07T15:02:12.991Z</time></trkpt><trkpt lat="44.95036" lon="9.58917"><ele>131.0</ele><time>2026-04-07T15:02:15.003Z</time></trkpt><trkpt lat="44.9504583" lon="9.589105"><ele>131.0</ele><time>2026-04-07T15:02:16.994Z</time></trkpt><trkpt lat="44.9505533" lon="9.5890367"><ele>131.0</ele><time>2026-04-07T15:02:18.986Z</time></trkpt><trkpt lat="44.9506483" lon="9.58896"><ele>131.0</ele><time>2026-04-07T15:02:20.991Z</time></trkpt><trkpt lat="44.950745" lon="9.5888683"><ele>131.0</ele><time>2026-04-07T15:02:22.989Z</time></trkpt><trkpt lat="44.9508367" lon="9.5887817"><ele>131.2</ele><time>2026-04-07T15:02:24.998Z</time></trkpt><trkpt lat="44.9509217" lon="9.5886833"><ele>131.39999999999998</ele><time>2026-04-07T15:02:26.988Z</time></trkpt><trkpt lat="44.9510083" lon="9.5885833"><ele>131.6</ele><time>2026-04-07T15:02:28.996Z</time></trkpt><trkpt lat="44.9510967" lon="9.588485"><ele>131.79999999999998</ele><time>2026-04-07T15:02:30.996Z</time></trkpt><trkpt lat="44.951185" lon="9.5883883"><ele>132.0</ele><time>2026-04-07T15:02:33.002Z</time></trkpt><trkpt lat="44.9512733" lon="9.5882983"><ele>132.2</ele><time>2026-04-07T15:02:34.995Z</time></trkpt><trkpt lat="44.9513533" lon="9.58821"><ele>132.39999999999998</ele><time>2026-04-07T15:02:36.99Z</time></trkpt><trkpt lat="44.9514317" lon="9.5881233"><ele>132.60000000000002</ele><time>2026-04-07T15:02:38.995Z</time></trkpt><trkpt lat="44.9515067" lon="9.5880333"><ele>132.8</ele><time>2026-04-07T15:02:40.993Z</time></trkpt><trkpt lat="44.9515833" lon="9.587935"><ele>133.0</ele><time>2026-04-07T15:02:42.996Z</time></trkpt><trkpt lat="44.95167" lon="9.5878383"><ele>133.20000000000002</ele><time>2026-04-07T15:02:44.991Z</time></trkpt><trkpt lat="44.95176" lon="9.5877567"><ele>133.4</ele><time>2026-04-07T15:02:46.994Z</time></trkpt><trkpt lat="44.9518517" lon="9.587685"><ele>133.60000000000002</ele><time>2026-04-07T15:02:48.994Z</time></trkpt><trkpt lat="44.9519517" lon="9.5876233"><ele>133.8</ele><time>2026-04-07T15:02:50.991Z</time></trkpt><trkpt lat="44.9520567" lon="9.5875617"><ele>134.0</ele><time>2026-04-07T15:02:53.005Z</time></trkpt><trkpt lat="44.9521683" lon="9.587495"><ele>134.0</ele><time>2026-04-07T15:02:55.001Z</time></trkpt><trkpt lat="44.9522817" lon="9.5874333"><ele>134.0</ele><time>2026-04-07T15:02:56.99Z</time></trkpt><trkpt lat="44.9523983" lon="9.5873617"><ele>134.0</ele><time>2026-04-07T15:02:58.99Z</time></trkpt><trkpt lat="44.9524583" lon="9.5873217"><ele>134.0</ele><time>2026-04-07T15:02:59.99Z</time></trkpt><trkpt lat="44.9525183" lon="9.5872833"><ele>134.0</ele><time>2026-04-07T15:03:00.993Z</time></trkpt><trkpt lat="44.9525783" lon="9.5872517"><ele>134.0</ele><time>2026-04-07T15:03:01.998Z</time></trkpt><trkpt lat="44.95264" lon="9.5872167"><ele>133.33333333333331</ele><time>2026-04-07T15:03:02.99Z</time></trkpt><trkpt lat="44.9527" lon="9.5871833"><ele>132.66666666666666</ele><time>2026-04-07T15:03:03.992Z</time></trkpt><trkpt lat="44.95276" lon="9.5871517"><ele>132.0</ele><time>2026-04-07T15:03:04.995Z</time></trkpt><trkpt lat="44.95282" lon="9.5871167"><ele>131.33333333333334</ele><time>2026-04-07T15:03:05.987Z</time></trkpt><trkpt lat="44.9528817" lon="9.5870867"><ele>130.66666666666669</ele><time>2026-04-07T15:03:06.991Z</time></trkpt><trkpt lat="44.953005" lon="9.5870417"><ele>130.0</ele><time>2026-04-07T15:03:08.997Z</time></trkpt><trkpt lat="44.95307" lon="9.5870267"><ele>130.0</ele><time>2026-04-07T15:03:09.992Z</time></trkpt><trkpt lat="44.9531333" lon="9.5870217"><ele>130.0</ele><time>2026-04-07T15:03:10.995Z</time></trkpt><trkpt lat="44.9532567" lon="9.5870233"><ele>130.0</ele><time>2026-04-07T15:03:13.003Z</time></trkpt><trkpt lat="44.9533733" lon="9.587045"><ele>130.0</ele><time>2026-04-07T15:03:15.002Z</time></trkpt><trkpt lat="44.9534883" lon="9.5870817"><ele>130.0</ele><time>2026-04-07T15:03:16.992Z</time></trkpt><trkpt lat="44.9536133" lon="9.5871283"><ele>130.0</ele><time>2026-04-07T15:03:18.994Z</time></trkpt><trkpt lat="44.9536767" lon="9.5871517"><ele>130.0</ele><time>2026-04-07T15:03:19.99Z</time></trkpt><trkpt lat="44.95374" lon="9.5871783"><ele>130.0</ele><time>2026-04-07T15:03:20.993Z</time></trkpt><trkpt lat="44.9538033" lon="9.587205"><ele>130.0</ele><time>2026-04-07T15:03:21.996Z</time></trkpt><trkpt lat="44.9539217" lon="9.5872633"><ele>130.0</ele><time>2026-04-07T15:03:23.993Z</time></trkpt><trkpt lat="44.9539833" lon="9.58729"><ele>130.0</ele><time>2026-04-07T15:03:25.005Z</time></trkpt><trkpt lat="44.954045" lon="9.587315"><ele>130.0</ele><time>2026-04-07T15:03:25.996Z</time></trkpt><trkpt lat="44.9541067" lon="9.58734"><ele>130.0</ele><time>2026-04-07T15:03:26.993Z</time></trkpt><trkpt lat="44.9542267" lon="9.5873917"><ele>130.0</ele><time>2026-04-07T15:03:28.995Z</time></trkpt><trkpt lat="44.95429" lon="9.58742"><ele>130.0</ele><time>2026-04-07T15:03:29.996Z</time></trkpt><trkpt lat="44.9543517" lon="9.5874467"><ele>130.0</ele><time>2026-04-07T15:03:30.999Z</time></trkpt><trkpt lat="44.9544133" lon="9.5874733"><ele>130.0</ele><time>2026-04-07T15:03:31.994Z</time></trkpt><trkpt lat="44.9545317" lon="9.5875217"><ele>130.0</ele><time>2026-04-07T15:03:33.995Z</time></trkpt><trkpt lat="44.9545933" lon="9.5875483"><ele>130.0</ele><time>2026-04-07T15:03:35.005Z</time></trkpt><trkpt lat="44.9547117" lon="9.5875983"><ele>130.0</ele><time>2026-04-07T15:03:36.992Z</time></trkpt><trkpt lat="44.9548333" lon="9.5876517"><ele>130.0</ele><time>2026-04-07T15:03:38.994Z</time></trkpt><trkpt lat="44.9549483" lon="9.5876967"><ele>130.0</ele><time>2026-04-07T15:03:40.995Z</time></trkpt><trkpt lat="44.9550667" lon="9.5877333"><ele>129.5</ele><time>2026-04-07T15:03:42.993Z</time></trkpt><trkpt lat="44.95519" lon="9.5877567"><ele>129.0</ele><time>2026-04-07T15:03:44.997Z</time></trkpt><trkpt lat="44.9553083" lon="9.5877617"><ele>128.5</ele><time>2026-04-07T15:03:46.997Z</time></trkpt><trkpt lat="44.9554217" lon="9.5877567"><ele>128.0</ele><time>2026-04-07T15:03:48.995Z</time></trkpt><trkpt lat="44.9555417" lon="9.5877433"><ele>128.0</ele><time>2026-04-07T15:03:50.995Z</time></trkpt><trkpt lat="44.955665" lon="9.5877133"><ele>128.0</ele><time>2026-04-07T15:03:52.99Z</time></trkpt><trkpt lat="44.9557933" lon="9.5876783"><ele>128.0</ele><time>2026-04-07T15:03:54.994Z</time></trkpt><trkpt lat="44.9558583" lon="9.587665"><ele>128.0</ele><time>2026-04-07T15:03:55.999Z</time></trkpt><trkpt lat="44.9559233" lon="9.58765"><ele>128.0</ele><time>2026-04-07T15:03:57.002Z</time></trkpt><trkpt lat="44.9559867" lon="9.58763"><ele>128.0</ele><time>2026-04-07T15:03:57.99Z</time></trkpt><trkpt lat="44.95605" lon="9.5876117"><ele>127.99999999999999</ele><time>2026-04-07T15:03:58.998Z</time></trkpt><trkpt lat="44.956115" lon="9.587595"><ele>128.0</ele><time>2026-04-07T15:03:59.993Z</time></trkpt><trkpt lat="44.9561783" lon="9.5875767"><ele>128.0</ele><time>2026-04-07T15:04:00.99Z</time></trkpt><trkpt lat="44.9562433" lon="9.5875567"><ele>127.99999999999999</ele><time>2026-04-07T15:04:01.994Z</time></trkpt><trkpt lat="44.9563067" lon="9.5875383"><ele>128.0</ele><time>2026-04-07T15:04:02.995Z</time></trkpt><trkpt lat="44.95637" lon="9.587525"><ele>128.0</ele><time>2026-04-07T15:04:03.994Z</time></trkpt><trkpt lat="44.956435" lon="9.5875083"><ele>128.0</ele><time>2026-04-07T15:04:04.992Z</time></trkpt><trkpt lat="44.9564983" lon="9.5874933"><ele>128.0</ele><time>2026-04-07T15:04:05.989Z</time></trkpt><trkpt lat="44.9565617" lon="9.587485"><ele>128.0</ele><time>2026-04-07T15:04:07.007Z</time></trkpt><trkpt lat="44.956625" lon="9.587475"><ele>128.0</ele><time>2026-04-07T15:04:07.993Z</time></trkpt><trkpt lat="44.95669" lon="9.5874717"><ele>128.0</ele><time>2026-04-07T15:04:08.996Z</time></trkpt><trkpt lat="44.9567533" lon="9.5874733"><ele>128.0</ele><time>2026-04-07T15:04:09.992Z</time></trkpt><trkpt lat="44.9568167" lon="9.58748"><ele>128.0</ele><time>2026-04-07T15:04:10.994Z</time></trkpt><trkpt lat="44.95688" lon="9.5874917"><ele>128.0</ele><time>2026-04-07T15:04:11.992Z</time></trkpt><trkpt lat="44.957005" lon="9.587515"><ele>127.71428571428571</ele><time>2026-04-07T15:04:13.988Z</time></trkpt><trkpt lat="44.9570667" lon="9.587535"><ele>127.42857142857142</ele><time>2026-04-07T15:04:14.986Z</time></trkpt><trkpt lat="44.95713" lon="9.5875567"><ele>127.14285714285714</ele><time>2026-04-07T15:04:15.99Z</time></trkpt><trkpt lat="44.9571917" lon="9.587575"><ele>126.85714285714286</ele><time>2026-04-07T15:04:17.019Z</time></trkpt><trkpt lat="44.9572567" lon="9.5875933"><ele>126.57142857142857</ele><time>2026-04-07T15:04:17.986Z</time></trkpt><trkpt lat="44.95732" lon="9.5876117"><ele>126.28571428571428</ele><time>2026-04-07T15:04:18.991Z</time></trkpt><trkpt lat="44.9573833" lon="9.5876283"><ele>126.0</ele><time>2026-04-07T15:04:19.994Z</time></trkpt><trkpt lat="44.9574467" lon="9.5876433"><ele>126.0</ele><time>2026-04-07T15:04:20.998Z</time></trkpt><trkpt lat="44.95757" lon="9.5876733"><ele>126.0</ele><time>2026-04-07T15:04:22.993Z</time></trkpt><trkpt lat="44.95769" lon="9.5877"><ele>126.0</ele><time>2026-04-07T15:04:24.997Z</time></trkpt><trkpt lat="44.9578133" lon="9.5877233"><ele>126.0</ele><time>2026-04-07T15:04:26.996Z</time></trkpt><trkpt lat="44.9578767" lon="9.587735"><ele>126.0</ele><time>2026-04-07T15:04:27.989Z</time></trkpt><trkpt lat="44.95794" lon="9.5877433"><ele>126.0</ele><time>2026-04-07T15:04:28.992Z</time></trkpt><trkpt lat="44.9580033" lon="9.58775"><ele>126.0</ele><time>2026-04-07T15:04:29.986Z</time></trkpt><trkpt lat="44.9580667" lon="9.5877533"><ele>126.0</ele><time>2026-04-07T15:04:30.999Z</time></trkpt><trkpt lat="44.9581317" lon="9.5877533"><ele>126.0</ele><time>2026-04-07T15:04:31.995Z</time></trkpt><trkpt lat="44.958195" lon="9.58775"><ele>126.0</ele><time>2026-04-07T15:04:32.993Z</time></trkpt><trkpt lat="44.9583183" lon="9.5877267"><ele>126.0</ele><time>2026-04-07T15:04:34.999Z</time></trkpt><trkpt lat="44.958435" lon="9.5876917"><ele>125.6</ele><time>2026-04-07T15:04:36.994Z</time></trkpt><trkpt lat="44.9585417" lon="9.58765"><ele>125.19999999999999</ele><time>2026-04-07T15:04:38.993Z</time></trkpt><trkpt lat="44.958645" lon="9.58761"><ele>124.80000000000001</ele><time>2026-04-07T15:04:40.999Z</time></trkpt><trkpt lat="44.9587417" lon="9.5875717"><ele>124.4</ele><time>2026-04-07T15:04:42.993Z</time></trkpt><trkpt lat="44.958835" lon="9.587535"><ele>124.0</ele><time>2026-04-07T15:04:44.993Z</time></trkpt><trkpt lat="44.95894" lon="9.587495"><ele>124.0</ele><time>2026-04-07T15:04:46.986Z</time></trkpt><trkpt lat="44.959055" lon="9.5874483"><ele>124.0</ele><time>2026-04-07T15:04:48.996Z</time></trkpt><trkpt lat="44.9591733" lon="9.5873967"><ele>124.0</ele><time>2026-04-07T15:04:51.004Z</time></trkpt><trkpt lat="44.9592933" lon="9.5873483"><ele>124.0</ele><time>2026-04-07T15:04:52.988Z</time></trkpt><trkpt lat="44.959415" lon="9.5872967"><ele>123.83333333333334</ele><time>2026-04-07T15:04:54.993Z</time></trkpt><trkpt lat="44.9595367" lon="9.58725"><ele>123.66666666666667</ele><time>2026-04-07T15:04:56.997Z</time></trkpt><trkpt lat="44.9595983" lon="9.5872267"><ele>123.5</ele><time>2026-04-07T15:04:57.989Z</time></trkpt><trkpt lat="44.95966" lon="9.5872"><ele>123.33333333333334</ele><time>2026-04-07T15:04:58.992Z</time></trkpt><trkpt lat="44.9597217" lon="9.5871733"><ele>123.16666666666667</ele><time>2026-04-07T15:05:00.023Z</time></trkpt><trkpt lat="44.9598433" lon="9.5871267"><ele>123.0</ele><time>2026-04-07T15:05:01.99Z</time></trkpt><trkpt lat="44.9599083" lon="9.58711"><ele>123.0</ele><time>2026-04-07T15:05:02.998Z</time></trkpt><trkpt lat="44.9599717" lon="9.5870967"><ele>123.0</ele><time>2026-04-07T15:05:03.993Z</time></trkpt><trkpt lat="44.9600367" lon="9.58708"><ele>123.0</ele><time>2026-04-07T15:05:04.994Z</time></trkpt><trkpt lat="44.9601" lon="9.5870617"><ele>123.0</ele><time>2026-04-07T15:05:05.992Z</time></trkpt><trkpt lat="44.960165" lon="9.5870417"><ele>123.0</ele><time>2026-04-07T15:05:07Z</time></trkpt><trkpt lat="44.9602883" lon="9.5870083"><ele>123.0</ele><time>2026-04-07T15:05:08.991Z</time></trkpt><trkpt lat="44.9604067" lon="9.5869733"><ele>122.80000000000001</ele><time>2026-04-07T15:05:10.99Z</time></trkpt><trkpt lat="44.9605267" lon="9.58694"><ele>122.60000000000001</ele><time>2026-04-07T15:05:12.995Z</time></trkpt><trkpt lat="44.9606517" lon="9.586905"><ele>122.39999999999999</ele><time>2026-04-07T15:05:14.991Z</time></trkpt><trkpt lat="44.960775" lon="9.5868667"><ele>122.19999999999999</ele><time>2026-04-07T15:05:16.993Z</time></trkpt><trkpt lat="44.9608367" lon="9.5868467"><ele>122.0</ele><time>2026-04-07T15:05:17.995Z</time></trkpt><trkpt lat="44.96096" lon="9.5868117"><ele>121.99999999999999</ele><time>2026-04-07T15:05:19.995Z</time></trkpt><trkpt lat="44.9610233" lon="9.586795"><ele>122.0</ele><time>2026-04-07T15:05:21.006Z</time></trkpt><trkpt lat="44.9610867" lon="9.5867767"><ele>121.99999999999999</ele><time>2026-04-07T15:05:21.998Z</time></trkpt><trkpt lat="44.96115" lon="9.5867567"><ele>121.99999999999999</ele><time>2026-04-07T15:05:22.994Z</time></trkpt><trkpt lat="44.9612117" lon="9.5867383"><ele>122.0</ele><time>2026-04-07T15:05:23.999Z</time></trkpt><trkpt lat="44.961275" lon="9.5867217"><ele>121.99999999999999</ele><time>2026-04-07T15:05:24.991Z</time></trkpt><trkpt lat="44.9613383" lon="9.5867067"><ele>121.99999999999999</ele><time>2026-04-07T15:05:25.988Z</time></trkpt><trkpt lat="44.9614017" lon="9.58669"><ele>121.99999999999999</ele><time>2026-04-07T15:05:26.989Z</time></trkpt><trkpt lat="44.9614667" lon="9.58667"><ele>122.0</ele><time>2026-04-07T15:05:27.989Z</time></trkpt><trkpt lat="44.96153" lon="9.58665"><ele>122.0</ele><time>2026-04-07T15:05:28.991Z</time></trkpt><trkpt lat="44.9615933" lon="9.58663"><ele>122.0</ele><time>2026-04-07T15:05:29.988Z</time></trkpt><trkpt lat="44.9617167" lon="9.5865967"><ele>121.99999999999999</ele><time>2026-04-07T15:05:31.991Z</time></trkpt><trkpt lat="44.9618383" lon="9.5865567"><ele>122.0</ele><time>2026-04-07T15:05:33.989Z</time></trkpt><trkpt lat="44.9619" lon="9.586535"><ele>121.6</ele><time>2026-04-07T15:05:35.002Z</time></trkpt><trkpt lat="44.962015" lon="9.5864967"><ele>121.19999999999999</ele><time>2026-04-07T15:05:36.993Z</time></trkpt><trkpt lat="44.962125" lon="9.5864583"><ele>120.8</ele><time>2026-04-07T15:05:38.992Z</time></trkpt><trkpt lat="44.9622383" lon="9.5864233"><ele>120.4</ele><time>2026-04-07T15:05:40.989Z</time></trkpt><trkpt lat="44.9623017" lon="9.5864067"><ele>120.0</ele><time>2026-04-07T15:05:41.99Z</time></trkpt><trkpt lat="44.9623667" lon="9.5863883"><ele>120.0</ele><time>2026-04-07T15:05:42.999Z</time></trkpt><trkpt lat="44.9624283" lon="9.5863683"><ele>120.0</ele><time>2026-04-07T15:05:43.991Z</time></trkpt><trkpt lat="44.96249" lon="9.5863483"><ele>120.0</ele><time>2026-04-07T15:05:44.999Z</time></trkpt><trkpt lat="44.9625517" lon="9.5863283"><ele>120.0</ele><time>2026-04-07T15:05:45.99Z</time></trkpt><trkpt lat="44.962615" lon="9.58631"><ele>120.0</ele><time>2026-04-07T15:05:46.998Z</time></trkpt><trkpt lat="44.9626767" lon="9.5862917"><ele>120.0</ele><time>2026-04-07T15:05:47.991Z</time></trkpt><trkpt lat="44.9627383" lon="9.5862683"><ele>120.0</ele><time>2026-04-07T15:05:48.993Z</time></trkpt><trkpt lat="44.9628017" lon="9.58625"><ele>120.0</ele><time>2026-04-07T15:05:49.987Z</time></trkpt><trkpt lat="44.962865" lon="9.5862333"><ele>119.71428571428572</ele><time>2026-04-07T15:05:51Z</time></trkpt><trkpt lat="44.9629283" lon="9.5862133"><ele>119.42857142857142</ele><time>2026-04-07T15:05:51.993Z</time></trkpt><trkpt lat="44.962995" lon="9.5862"><ele>119.14285714285714</ele><time>2026-04-07T15:05:52.995Z</time></trkpt><trkpt lat="44.9630583" lon="9.5861817"><ele>118.85714285714286</ele><time>2026-04-07T15:05:53.992Z</time></trkpt><trkpt lat="44.9631233" lon="9.5861617"><ele>118.57142857142858</ele><time>2026-04-07T15:05:54.993Z</time></trkpt><trkpt lat="44.9631883" lon="9.5861433"><ele>118.28571428571428</ele><time>2026-04-07T15:05:55.988Z</time></trkpt><trkpt lat="44.963255" lon="9.5861233"><ele>118.0</ele><time>2026-04-07T15:05:56.998Z</time></trkpt><trkpt lat="44.9633183" lon="9.5861067"><ele>117.50000000000001</ele><time>2026-04-07T15:05:57.989Z</time></trkpt><trkpt lat="44.963385" lon="9.5860883"><ele>117.0</ele><time>2026-04-07T15:05:58.988Z</time></trkpt><trkpt lat="44.9634517" lon="9.5860717"><ele>116.5</ele><time>2026-04-07T15:05:59.994Z</time></trkpt><trkpt lat="44.9635167" lon="9.586055"><ele>116.0</ele><time>2026-04-07T15:06:00.997Z</time></trkpt><trkpt lat="44.9635817" lon="9.5860333"><ele>115.50000000000001</ele><time>2026-04-07T15:06:01.989Z</time></trkpt><trkpt lat="44.96371" lon="9.585995"><ele>115.0</ele><time>2026-04-07T15:06:03.99Z</time></trkpt><trkpt lat="44.963775" lon="9.5859767"><ele>114.99999999999999</ele><time>2026-04-07T15:06:04.988Z</time></trkpt><trkpt lat="44.9638417" lon="9.5859567"><ele>115.0</ele><time>2026-04-07T15:06:05.99Z</time></trkpt><trkpt lat="44.9639083" lon="9.5859383"><ele>114.99999999999999</ele><time>2026-04-07T15:06:06.991Z</time></trkpt><trkpt lat="44.9639767" lon="9.5859233"><ele>114.99999999999999</ele><time>2026-04-07T15:06:07.99Z</time></trkpt><trkpt lat="44.964045" lon="9.585905"><ele>115.0</ele><time>2026-04-07T15:06:09.003Z</time></trkpt><trkpt lat="44.96411" lon="9.5858867"><ele>114.99999999999999</ele><time>2026-04-07T15:06:09.99Z</time></trkpt><trkpt lat="44.964175" lon="9.5858667"><ele>114.99999999999999</ele><time>2026-04-07T15:06:10.99Z</time></trkpt><trkpt lat="44.9642433" lon="9.585845"><ele>114.57142857142856</ele><time>2026-04-07T15:06:11.996Z</time></trkpt><trkpt lat="44.96431" lon="9.5858367"><ele>114.14285714285714</ele><time>2026-04-07T15:06:12.992Z</time></trkpt><trkpt lat="44.9643783" lon="9.5858517"><ele>113.71428571428571</ele><time>2026-04-07T15:06:13.991Z</time></trkpt><trkpt lat="44.964435" lon="9.5859083"><ele>113.28571428571428</ele><time>2026-04-07T15:06:15.004Z</time></trkpt><trkpt lat="44.9644717" lon="9.585995"><ele>112.85714285714286</ele><time>2026-04-07T15:06:15.994Z</time></trkpt><trkpt lat="44.964485" lon="9.5860917"><ele>112.42857142857143</ele><time>2026-04-07T15:06:16.988Z</time></trkpt><trkpt lat="44.9644817" lon="9.586195"><ele>112.0</ele><time>2026-04-07T15:06:17.987Z</time></trkpt><trkpt lat="44.9644717" lon="9.586295"><ele>112.0</ele><time>2026-04-07T15:06:18.999Z</time></trkpt><trkpt lat="44.9644667" lon="9.5863917"><ele>112.0</ele><time>2026-04-07T15:06:19.994Z</time></trkpt><trkpt lat="44.9644617" lon="9.5864867"><ele>112.0</ele><time>2026-04-07T15:06:21.005Z</time></trkpt><trkpt lat="44.964455" lon="9.5865783"><ele>112.0</ele><time>2026-04-07T15:06:21.992Z</time></trkpt><trkpt lat="44.9644483" lon="9.5866717"><ele>112.0</ele><time>2026-04-07T15:06:22.995Z</time></trkpt><trkpt lat="44.9644417" lon="9.5867633"><ele>112.0</ele><time>2026-04-07T15:06:23.994Z</time></trkpt><trkpt lat="44.9644367" lon="9.5868533"><ele>112.0</ele><time>2026-04-07T15:06:24.991Z</time></trkpt><trkpt lat="44.9644317" lon="9.586945"><ele>111.42857142857143</ele><time>2026-04-07T15:06:25.992Z</time></trkpt><trkpt lat="44.964425" lon="9.5870383"><ele>110.85714285714286</ele><time>2026-04-07T15:06:27Z</time></trkpt><trkpt lat="44.9644183" lon="9.5871333"><ele>110.28571428571428</ele><time>2026-04-07T15:06:27.991Z</time></trkpt><trkpt lat="44.9644117" lon="9.587225"><ele>109.71428571428572</ele><time>2026-04-07T15:06:28.989Z</time></trkpt><trkpt lat="44.964405" lon="9.5873183"><ele>109.14285714285714</ele><time>2026-04-07T15:06:29.994Z</time></trkpt><trkpt lat="44.9644" lon="9.5874117"><ele>108.57142857142857</ele><time>2026-04-07T15:06:30.994Z</time></trkpt><trkpt lat="44.9643933" lon="9.5875033"><ele>108.0</ele><time>2026-04-07T15:06:31.999Z</time></trkpt><trkpt lat="44.9643867" lon="9.587595"><ele>108.0</ele><time>2026-04-07T15:06:33.002Z</time></trkpt><trkpt lat="44.96438" lon="9.5876867"><ele>108.0</ele><time>2026-04-07T15:06:33.992Z</time></trkpt><trkpt lat="44.964375" lon="9.5877783"><ele>108.0</ele><time>2026-04-07T15:06:35.026Z</time></trkpt><trkpt lat="44.9643683" lon="9.5878717"><ele>108.0</ele><time>2026-04-07T15:06:35.991Z</time></trkpt><trkpt lat="44.9643617" lon="9.5879667"><ele>108.0</ele><time>2026-04-07T15:06:36.998Z</time></trkpt><trkpt lat="44.9643567" lon="9.5880617"><ele>108.0</ele><time>2026-04-07T15:06:37.993Z</time></trkpt><trkpt lat="44.9643517" lon="9.5881567"><ele>108.0</ele><time>2026-04-07T15:06:38.991Z</time></trkpt><trkpt lat="44.9643483" lon="9.5882517"><ele>107.66666666666667</ele><time>2026-04-07T15:06:39.994Z</time></trkpt><trkpt lat="44.9643433" lon="9.588345"><ele>107.33333333333334</ele><time>2026-04-07T15:06:40.996Z</time></trkpt><trkpt lat="44.9643367" lon="9.5884383"><ele>107.0</ele><time>2026-04-07T15:06:41.992Z</time></trkpt><trkpt lat="44.96433" lon="9.5885333"><ele>106.66666666666667</ele><time>2026-04-07T15:06:42.997Z</time></trkpt><trkpt lat="44.9643233" lon="9.5886267"><ele>106.33333333333334</ele><time>2026-04-07T15:06:43.989Z</time></trkpt><trkpt lat="44.9643183" lon="9.5887167"><ele>106.0</ele><time>2026-04-07T15:06:44.994Z</time></trkpt><trkpt lat="44.9643067" lon="9.5888917"><ele>105.6</ele><time>2026-04-07T15:06:46.993Z</time></trkpt><trkpt lat="44.9643017" lon="9.5889817"><ele>105.19999999999999</ele><time>2026-04-07T15:06:47.988Z</time></trkpt><trkpt lat="44.9642933" lon="9.5891583"><ele>104.80000000000001</ele><time>2026-04-07T15:06:49.999Z</time></trkpt><trkpt lat="44.96428" lon="9.5893367"><ele>104.4</ele><time>2026-04-07T15:06:51.989Z</time></trkpt><trkpt lat="44.9642667" lon="9.5895117"><ele>104.0</ele><time>2026-04-07T15:06:53.993Z</time></trkpt><trkpt lat="44.9642517" lon="9.5896833"><ele>103.5</ele><time>2026-04-07T15:06:55.99Z</time></trkpt><trkpt lat="44.96424" lon="9.5898517"><ele>103.0</ele><time>2026-04-07T15:06:57.994Z</time></trkpt><trkpt lat="44.9642283" lon="9.5900267"><ele>102.5</ele><time>2026-04-07T15:06:59.995Z</time></trkpt><trkpt lat="44.9642167" lon="9.5902033"><ele>102.0</ele><time>2026-04-07T15:07:01.992Z</time></trkpt><trkpt lat="44.964205" lon="9.5903783"><ele>102.0</ele><time>2026-04-07T15:07:03.997Z</time></trkpt><trkpt lat="44.9641933" lon="9.59055"><ele>102.0</ele><time>2026-04-07T15:07:05.992Z</time></trkpt><trkpt lat="44.964185" lon="9.59071"><ele>102.0</ele><time>2026-04-07T15:07:07.994Z</time></trkpt><trkpt lat="44.964175" lon="9.5908617"><ele>102.0</ele><time>2026-04-07T15:07:09.997Z</time></trkpt><trkpt lat="44.9641633" lon="9.5910133"><ele>102.0</ele><time>2026-04-07T15:07:11.989Z</time></trkpt><trkpt lat="44.964155" lon="9.5911733"><ele>102.0</ele><time>2026-04-07T15:07:13.991Z</time></trkpt><trkpt lat="44.964145" lon="9.59134"><ele>102.0</ele><time>2026-04-07T15:07:15.991Z</time></trkpt><trkpt lat="44.9641333" lon="9.5915067"><ele>102.0</ele><time>2026-04-07T15:07:17.991Z</time></trkpt><trkpt lat="44.9641233" lon="9.5916733"><ele>101.75</ele><time>2026-04-07T15:07:19.991Z</time></trkpt><trkpt lat="44.96411" lon="9.59184"><ele>101.5</ele><time>2026-04-07T15:07:21.993Z</time></trkpt><trkpt lat="44.9641017" lon="9.5920083"><ele>101.25</ele><time>2026-04-07T15:07:23.995Z</time></trkpt><trkpt lat="44.96409" lon="9.5921783"><ele>101.0</ele><time>2026-04-07T15:07:25.996Z</time></trkpt><trkpt lat="44.9640767" lon="9.59235"><ele>101.0</ele><time>2026-04-07T15:07:27.986Z</time></trkpt><trkpt lat="44.9640617" lon="9.5925233"><ele>101.0</ele><time>2026-04-07T15:07:29.993Z</time></trkpt><trkpt lat="44.9640483" lon="9.5927017"><ele>101.0</ele><time>2026-04-07T15:07:31.988Z</time></trkpt><trkpt lat="44.9640383" lon="9.5928733"><ele>101.0</ele><time>2026-04-07T15:07:33.993Z</time></trkpt><trkpt lat="44.964025" lon="9.5930367"><ele>101.0</ele><time>2026-04-07T15:07:35.992Z</time></trkpt><trkpt lat="44.9640183" lon="9.593185"><ele>101.0</ele><time>2026-04-07T15:07:37.993Z</time></trkpt><trkpt lat="44.96401" lon="9.59334"><ele>101.0</ele><time>2026-04-07T15:07:39.989Z</time></trkpt><trkpt lat="44.9640017" lon="9.5935"><ele>101.0</ele><time>2026-04-07T15:07:41.99Z</time></trkpt><trkpt lat="44.9639917" lon="9.5936617"><ele>101.0</ele><time>2026-04-07T15:07:43.99Z</time></trkpt><trkpt lat="44.96398" lon="9.5938283"><ele>100.83333333333333</ele><time>2026-04-07T15:07:45.999Z</time></trkpt><trkpt lat="44.963965" lon="9.5940017"><ele>100.66666666666666</ele><time>2026-04-07T15:07:47.99Z</time></trkpt><trkpt lat="44.9639517" lon="9.594175"><ele>100.5</ele><time>2026-04-07T15:07:49.989Z</time></trkpt><trkpt lat="44.9639467" lon="9.594265"><ele>100.33333333333334</ele><time>2026-04-07T15:07:50.997Z</time></trkpt><trkpt lat="44.96394" lon="9.5943567"><ele>100.16666666666667</ele><time>2026-04-07T15:07:51.989Z</time></trkpt><trkpt lat="44.9639367" lon="9.5944467"><ele>100.0</ele><time>2026-04-07T15:07:52.99Z</time></trkpt><trkpt lat="44.9639267" lon="9.5946167"><ele>100.0</ele><time>2026-04-07T15:07:55.001Z</time></trkpt><trkpt lat="44.963915" lon="9.594775"><ele>100.0</ele><time>2026-04-07T15:07:57.003Z</time></trkpt><trkpt lat="44.963905" lon="9.594925"><ele>100.0</ele><time>2026-04-07T15:07:58.995Z</time></trkpt><trkpt lat="44.963895" lon="9.595085"><ele>100.0</ele><time>2026-04-07T15:08:00.997Z</time></trkpt><trkpt lat="44.9638833" lon="9.5952533"><ele>100.0</ele><time>2026-04-07T15:08:03.002Z</time></trkpt><trkpt lat="44.963875" lon="9.5954267"><ele>100.0</ele><time>2026-04-07T15:08:04.996Z</time></trkpt><trkpt lat="44.963865" lon="9.5955983"><ele>100.0</ele><time>2026-04-07T15:08:06.994Z</time></trkpt><trkpt lat="44.9638583" lon="9.59577"><ele>100.0</ele><time>2026-04-07T15:08:08.989Z</time></trkpt><trkpt lat="44.963845" lon="9.59594"><ele>100.0</ele><time>2026-04-07T15:08:10.993Z</time></trkpt><trkpt lat="44.9638333" lon="9.5961083"><ele>100.0</ele><time>2026-04-07T15:08:12.997Z</time></trkpt><trkpt lat="44.9638233" lon="9.5962683"><ele>100.0</ele><time>2026-04-07T15:08:14.995Z</time></trkpt><trkpt lat="44.9638167" lon="9.5964267"><ele>100.0</ele><time>2026-04-07T15:08:16.993Z</time></trkpt><trkpt lat="44.9638033" lon="9.5965933"><ele>100.25</ele><time>2026-04-07T15:08:18.99Z</time></trkpt><trkpt lat="44.96379" lon="9.59676"><ele>100.5</ele><time>2026-04-07T15:08:20.996Z</time></trkpt><trkpt lat="44.96378" lon="9.5969283"><ele>100.75</ele><time>2026-04-07T15:08:22.999Z</time></trkpt><trkpt lat="44.96377" lon="9.59709"><ele>101.0</ele><time>2026-04-07T15:08:24.994Z</time></trkpt><trkpt lat="44.9637567" lon="9.5972383"><ele>101.0</ele><time>2026-04-07T15:08:26.993Z</time></trkpt><trkpt lat="44.9637467" lon="9.59739"><ele>101.0</ele><time>2026-04-07T15:08:28.991Z</time></trkpt><trkpt lat="44.963735" lon="9.59755"><ele>101.0</ele><time>2026-04-07T15:08:30.989Z</time></trkpt><trkpt lat="44.963725" lon="9.5977183"><ele>101.0</ele><time>2026-04-07T15:08:32.995Z</time></trkpt><trkpt lat="44.9637133" lon="9.597885"><ele>101.4</ele><time>2026-04-07T15:08:34.991Z</time></trkpt><trkpt lat="44.963705" lon="9.5980433"><ele>101.8</ele><time>2026-04-07T15:08:37.003Z</time></trkpt><trkpt lat="44.963695" lon="9.59819"><ele>102.2</ele><time>2026-04-07T15:08:38.996Z</time></trkpt><trkpt lat="44.9636917" lon="9.59834"><ele>102.60000000000001</ele><time>2026-04-07T15:08:40.994Z</time></trkpt><trkpt lat="44.9636817" lon="9.5985067"><ele>103.0</ele><time>2026-04-07T15:08:42.991Z</time></trkpt><trkpt lat="44.9636717" lon="9.5986767"><ele>103.5</ele><time>2026-04-07T15:08:44.998Z</time></trkpt><trkpt lat="44.9636617" lon="9.5988483"><ele>104.0</ele><time>2026-04-07T15:08:46.994Z</time></trkpt><trkpt lat="44.9636483" lon="9.5990217"><ele>104.5</ele><time>2026-04-07T15:08:48.99Z</time></trkpt><trkpt lat="44.9636367" lon="9.599195"><ele>105.0</ele><time>2026-04-07T15:08:50.993Z</time></trkpt><trkpt lat="44.9636233" lon="9.5993683"><ele>104.8</ele><time>2026-04-07T15:08:52.991Z</time></trkpt><trkpt lat="44.9636133" lon="9.5995417"><ele>104.6</ele><time>2026-04-07T15:08:54.992Z</time></trkpt><trkpt lat="44.9636017" lon="9.5997167"><ele>104.4</ele><time>2026-04-07T15:08:57.009Z</time></trkpt><trkpt lat="44.9635933" lon="9.5998067"><ele>104.2</ele><time>2026-04-07T15:08:57.991Z</time></trkpt><trkpt lat="44.9635833" lon="9.5999767"><ele>104.0</ele><time>2026-04-07T15:08:59.996Z</time></trkpt><trkpt lat="44.963575" lon="9.6001383"><ele>104.0</ele><time>2026-04-07T15:09:01.993Z</time></trkpt><trkpt lat="44.9635683" lon="9.6003067"><ele>104.0</ele><time>2026-04-07T15:09:03.992Z</time></trkpt><trkpt lat="44.9635583" lon="9.6004817"><ele>104.0</ele><time>2026-04-07T15:09:05.989Z</time></trkpt><trkpt lat="44.963555" lon="9.6005717"><ele>104.0</ele><time>2026-04-07T15:09:06.991Z</time></trkpt><trkpt lat="44.96355" lon="9.6007483"><ele>104.0</ele><time>2026-04-07T15:09:08.995Z</time></trkpt><trkpt lat="44.9635483" lon="9.60092"><ele>104.0</ele><time>2026-04-07T15:09:10.994Z</time></trkpt><trkpt lat="44.963555" lon="9.6010817"><ele>104.0</ele><time>2026-04-07T15:09:12.993Z</time></trkpt><trkpt lat="44.96356" lon="9.6012517"><ele>104.0</ele><time>2026-04-07T15:09:14.999Z</time></trkpt><trkpt lat="44.9635683" lon="9.6014283"><ele>104.0</ele><time>2026-04-07T15:09:16.999Z</time></trkpt><trkpt lat="44.9635767" lon="9.6015167"><ele>104.0</ele><time>2026-04-07T15:09:17.99Z</time></trkpt><trkpt lat="44.9635917" lon="9.601605"><ele>103.80000000000001</ele><time>2026-04-07T15:09:18.994Z</time></trkpt><trkpt lat="44.963605" lon="9.6016933"><ele>103.60000000000001</ele><time>2026-04-07T15:09:19.991Z</time></trkpt><trkpt lat="44.9636367" lon="9.6018633"><ele>103.4</ele><time>2026-04-07T15:09:21.989Z</time></trkpt><trkpt lat="44.9636733" lon="9.6020233"><ele>103.2</ele><time>2026-04-07T15:09:23.988Z</time></trkpt><trkpt lat="44.963715" lon="9.6021783"><ele>103.0</ele><time>2026-04-07T15:09:25.995Z</time></trkpt><trkpt lat="44.9637683" lon="9.6023267"><ele>103.28571428571428</ele><time>2026-04-07T15:09:27.989Z</time></trkpt><trkpt lat="44.96383" lon="9.6024833"><ele>103.57142857142857</ele><time>2026-04-07T15:09:29.995Z</time></trkpt><trkpt lat="44.963865" lon="9.60256"><ele>103.85714285714286</ele><time>2026-04-07T15:09:30.995Z</time></trkpt><trkpt lat="44.9638983" lon="9.6026367"><ele>104.14285714285714</ele><time>2026-04-07T15:09:32.004Z</time></trkpt><trkpt lat="44.9639367" lon="9.60271"><ele>104.42857142857143</ele><time>2026-04-07T15:09:32.999Z</time></trkpt><trkpt lat="44.9639767" lon="9.6027833"><ele>104.71428571428571</ele><time>2026-04-07T15:09:33.993Z</time></trkpt><trkpt lat="44.9640167" lon="9.6028533"><ele>105.0</ele><time>2026-04-07T15:09:34.993Z</time></trkpt><trkpt lat="44.964095" lon="9.6029817"><ele>105.0</ele><time>2026-04-07T15:09:36.997Z</time></trkpt><trkpt lat="44.96419" lon="9.6031017"><ele>105.0</ele><time>2026-04-07T15:09:38.995Z</time></trkpt><trkpt lat="44.9642383" lon="9.60316"><ele>105.0</ele><time>2026-04-07T15:09:39.999Z</time></trkpt><trkpt lat="44.9642883" lon="9.6032167"><ele>105.0</ele><time>2026-04-07T15:09:40.991Z</time></trkpt><trkpt lat="44.9643417" lon="9.60327"><ele>105.0</ele><time>2026-04-07T15:09:41.994Z</time></trkpt><trkpt lat="44.9644433" lon="9.6033617"><ele>105.0</ele><time>2026-04-07T15:09:43.993Z</time></trkpt><trkpt lat="44.9645467" lon="9.6034383"><ele>105.0</ele><time>2026-04-07T15:09:45.986Z</time></trkpt><trkpt lat="44.964645" lon="9.60351"><ele>105.0</ele><time>2026-04-07T15:09:47.994Z</time></trkpt><trkpt lat="44.9647483" lon="9.603575"><ele>105.0</ele><time>2026-04-07T15:09:49.992Z</time></trkpt><trkpt lat="44.9648567" lon="9.603635"><ele>105.0</ele><time>2026-04-07T15:09:51.996Z</time></trkpt><trkpt lat="44.96497" lon="9.6036867"><ele>105.0</ele><time>2026-04-07T15:09:53.992Z</time></trkpt><trkpt lat="44.9650867" lon="9.6037183"><ele>105.0</ele><time>2026-04-07T15:09:55.993Z</time></trkpt><trkpt lat="44.9652017" lon="9.6037483"><ele>105.0</ele><time>2026-04-07T15:09:57.991Z</time></trkpt><trkpt lat="44.96532" lon="9.6037717"><ele>105.0</ele><time>2026-04-07T15:09:59.988Z</time></trkpt><trkpt lat="44.9653833" lon="9.6037783"><ele>105.0</ele><time>2026-04-07T15:10:01.002Z</time></trkpt><trkpt lat="44.9655067" lon="9.6037767"><ele>105.0</ele><time>2026-04-07T15:10:02.995Z</time></trkpt><trkpt lat="44.9656233" lon="9.6037733"><ele>105.0</ele><time>2026-04-07T15:10:04.993Z</time></trkpt><trkpt lat="44.9656867" lon="9.6037667"><ele>105.0</ele><time>2026-04-07T15:10:05.987Z</time></trkpt><trkpt lat="44.96575" lon="9.603765"><ele>105.0</ele><time>2026-04-07T15:10:06.995Z</time></trkpt><trkpt lat="44.9658133" lon="9.6037617"><ele>105.0</ele><time>2026-04-07T15:10:07.991Z</time></trkpt><trkpt lat="44.965935" lon="9.6037467"><ele>105.0</ele><time>2026-04-07T15:10:09.992Z</time></trkpt><trkpt lat="44.9660567" lon="9.6037267"><ele>104.85714285714286</ele><time>2026-04-07T15:10:11.991Z</time></trkpt><trkpt lat="44.9661767" lon="9.6037033"><ele>104.71428571428572</ele><time>2026-04-07T15:10:13.993Z</time></trkpt><trkpt lat="44.9662417" lon="9.6036933"><ele>104.57142857142857</ele><time>2026-04-07T15:10:15Z</time></trkpt><trkpt lat="44.9663067" lon="9.6036867"><ele>104.42857142857143</ele><time>2026-04-07T15:10:15.991Z</time></trkpt><trkpt lat="44.9663717" lon="9.6036783"><ele>104.28571428571429</ele><time>2026-04-07T15:10:16.999Z</time></trkpt><trkpt lat="44.966435" lon="9.60367"><ele>104.14285714285714</ele><time>2026-04-07T15:10:17.991Z</time></trkpt><trkpt lat="44.9665" lon="9.6036617"><ele>104.0</ele><time>2026-04-07T15:10:18.998Z</time></trkpt><trkpt lat="44.966565" lon="9.60365"><ele>104.16666666666666</ele><time>2026-04-07T15:10:19.989Z</time></trkpt><trkpt lat="44.96663" lon="9.6036383"><ele>104.33333333333333</ele><time>2026-04-07T15:10:20.998Z</time></trkpt><trkpt lat="44.966695" lon="9.6036283"><ele>104.5</ele><time>2026-04-07T15:10:22.006Z</time></trkpt><trkpt lat="44.9668217" lon="9.603615"><ele>104.66666666666666</ele><time>2026-04-07T15:10:23.996Z</time></trkpt><trkpt lat="44.9669483" lon="9.6036083"><ele>104.83333333333333</ele><time>2026-04-07T15:10:25.989Z</time></trkpt><trkpt lat="44.9670117" lon="9.603605"><ele>105.0</ele><time>2026-04-07T15:10:26.993Z</time></trkpt><trkpt lat="44.9671317" lon="9.6036"><ele>105.0</ele><time>2026-04-07T15:10:28.998Z</time></trkpt><trkpt lat="44.9672517" lon="9.6036"><ele>105.0</ele><time>2026-04-07T15:10:30.995Z</time></trkpt><trkpt lat="44.9673717" lon="9.60361"><ele>105.0</ele><time>2026-04-07T15:10:32.993Z</time></trkpt><trkpt lat="44.967435" lon="9.6036117"><ele>105.0</ele><time>2026-04-07T15:10:34.001Z</time></trkpt><trkpt lat="44.9675517" lon="9.6036283"><ele>105.0</ele><time>2026-04-07T15:10:35.992Z</time></trkpt><trkpt lat="44.9676733" lon="9.60365"><ele>104.83333333333333</ele><time>2026-04-07T15:10:37.995Z</time></trkpt><trkpt lat="44.9678" lon="9.603675"><ele>104.66666666666666</ele><time>2026-04-07T15:10:39.989Z</time></trkpt><trkpt lat="44.9678633" lon="9.6036917"><ele>104.5</ele><time>2026-04-07T15:10:40.992Z</time></trkpt><trkpt lat="44.9679267" lon="9.603705"><ele>104.33333333333333</ele><time>2026-04-07T15:10:41.993Z</time></trkpt><trkpt lat="44.96799" lon="9.6037217"><ele>104.16666666666666</ele><time>2026-04-07T15:10:42.999Z</time></trkpt><trkpt lat="44.9680533" lon="9.6037417"><ele>104.0</ele><time>2026-04-07T15:10:43.99Z</time></trkpt><trkpt lat="44.968115" lon="9.603765"><ele>104.0</ele><time>2026-04-07T15:10:44.991Z</time></trkpt><trkpt lat="44.9682333" lon="9.6038133"><ele>104.0</ele><time>2026-04-07T15:10:46.992Z</time></trkpt><trkpt lat="44.9683433" lon="9.6038567"><ele>104.0</ele><time>2026-04-07T15:10:48.992Z</time></trkpt><trkpt lat="44.9684533" lon="9.6039083"><ele>104.0</ele><time>2026-04-07T15:10:50.994Z</time></trkpt><trkpt lat="44.9685567" lon="9.6039683"><ele>104.4</ele><time>2026-04-07T15:10:52.998Z</time></trkpt><trkpt lat="44.9686683" lon="9.6040317"><ele>104.80000000000001</ele><time>2026-04-07T15:10:54.992Z</time></trkpt><trkpt lat="44.9687833" lon="9.6041033"><ele>105.19999999999999</ele><time>2026-04-07T15:10:56.986Z</time></trkpt><trkpt lat="44.9688933" lon="9.6041833"><ele>105.6</ele><time>2026-04-07T15:10:58.993Z</time></trkpt><trkpt lat="44.9689483" lon="9.6042267"><ele>106.0</ele><time>2026-04-07T15:10:59.987Z</time></trkpt><trkpt lat="44.9690033" lon="9.6042717"><ele>106.0</ele><time>2026-04-07T15:11:00.999Z</time></trkpt><trkpt lat="44.9691067" lon="9.6043633"><ele>106.0</ele><time>2026-04-07T15:11:02.995Z</time></trkpt><trkpt lat="44.96921" lon="9.6044517"><ele>106.0</ele><time>2026-04-07T15:11:04.994Z</time></trkpt><trkpt lat="44.969305" lon="9.6045433"><ele>106.0</ele><time>2026-04-07T15:11:07.002Z</time></trkpt><trkpt lat="44.9694" lon="9.60465"><ele>105.5</ele><time>2026-04-07T15:11:09Z</time></trkpt><trkpt lat="44.9694967" lon="9.604755"><ele>105.0</ele><time>2026-04-07T15:11:10.991Z</time></trkpt><trkpt lat="44.9695917" lon="9.60486"><ele>104.5</ele><time>2026-04-07T15:11:12.989Z</time></trkpt><trkpt lat="44.96968" lon="9.60496"><ele>104.0</ele><time>2026-04-07T15:11:15.003Z</time></trkpt><trkpt lat="44.9697583" lon="9.6050617"><ele>104.0</ele><time>2026-04-07T15:11:16.996Z</time></trkpt><trkpt lat="44.9698367" lon="9.6051667"><ele>104.0</ele><time>2026-04-07T15:11:18.994Z</time></trkpt><trkpt lat="44.9699083" lon="9.60527"><ele>104.0</ele><time>2026-04-07T15:11:20.992Z</time></trkpt><trkpt lat="44.9699867" lon="9.6053717"><ele>104.0</ele><time>2026-04-07T15:11:22.997Z</time></trkpt><trkpt lat="44.9700617" lon="9.6054733"><ele>104.0</ele><time>2026-04-07T15:11:24.998Z</time></trkpt><trkpt lat="44.97014" lon="9.6055483"><ele>103.49999999999999</ele><time>2026-04-07T15:11:26.993Z</time></trkpt><trkpt lat="44.9701917" lon="9.605605"><ele>103.0</ele><time>2026-04-07T15:11:28.99Z</time></trkpt><trkpt lat="44.9702633" lon="9.605625"><ele>102.5</ele><time>2026-04-07T15:11:33.99Z</time></trkpt><trkpt lat="44.9703183" lon="9.6055817"><ele>102.0</ele><time>2026-04-07T15:11:35.99Z</time></trkpt><trkpt lat="44.9703983" lon="9.60556"><ele>101.49999999999999</ele><time>2026-04-07T15:11:37.99Z</time></trkpt><trkpt lat="44.9704867" lon="9.6055217"><ele>101.0</ele><time>2026-04-07T15:11:39.99Z</time></trkpt><trkpt lat="44.9705783" lon="9.6054617"><ele>101.0</ele><time>2026-04-07T15:11:41.986Z</time></trkpt><trkpt lat="44.9706633" lon="9.6054117"><ele>101.0</ele><time>2026-04-07T15:11:43.991Z</time></trkpt><trkpt lat="44.97075" lon="9.6053717"><ele>101.0</ele><time>2026-04-07T15:11:45.991Z</time></trkpt><trkpt lat="44.9708417" lon="9.605335"><ele>101.0</ele><time>2026-04-07T15:11:47.993Z</time></trkpt><trkpt lat="44.9709317" lon="9.6053033"><ele>101.0</ele><time>2026-04-07T15:11:49.996Z</time></trkpt><trkpt lat="44.97102" lon="9.605285"><ele>100.99999999999999</ele><time>2026-04-07T15:11:52.001Z</time></trkpt><trkpt lat="44.9711" lon="9.605285"><ele>101.0</ele><time>2026-04-07T15:11:53.99Z</time></trkpt><trkpt lat="44.97118" lon="9.60529"><ele>101.0</ele><time>2026-04-07T15:11:55.988Z</time></trkpt><trkpt lat="44.9712617" lon="9.6052933"><ele>101.0</ele><time>2026-04-07T15:11:57.996Z</time></trkpt><trkpt lat="44.9713433" lon="9.6053017"><ele>100.99999999999999</ele><time>2026-04-07T15:11:59.989Z</time></trkpt><trkpt lat="44.9714217" lon="9.6053167"><ele>101.0</ele><time>2026-04-07T15:12:01.989Z</time></trkpt><trkpt lat="44.9714917" lon="9.605335"><ele>101.0</ele><time>2026-04-07T15:12:03.99Z</time></trkpt><trkpt lat="44.9715717" lon="9.6053583"><ele>101.0</ele><time>2026-04-07T15:12:06.989Z</time></trkpt><trkpt lat="44.9716417" lon="9.60536"><ele>101.0</ele><time>2026-04-07T15:12:10.987Z</time></trkpt><trkpt lat="44.9716633" lon="9.60527"><ele>101.0</ele><time>2026-04-07T15:12:13.988Z</time></trkpt><trkpt lat="44.9717167" lon="9.6052033"><ele>101.0</ele><time>2026-04-07T15:12:16.992Z</time></trkpt><trkpt lat="44.9717817" lon="9.6052133"><ele>101.0</ele><time>2026-04-07T15:12:18.997Z</time></trkpt><trkpt lat="44.9718483" lon="9.6052367"><ele>101.0</ele><time>2026-04-07T15:12:21.006Z</time></trkpt><trkpt lat="44.97193" lon="9.6052617"><ele>100.8</ele><time>2026-04-07T15:12:22.994Z</time></trkpt><trkpt lat="44.97202" lon="9.605295"><ele>100.6</ele><time>2026-04-07T15:12:24.988Z</time></trkpt><trkpt lat="44.97212" lon="9.6053233"><ele>100.4</ele><time>2026-04-07T15:12:26.996Z</time></trkpt><trkpt lat="44.9722233" lon="9.6053483"><ele>100.2</ele><time>2026-04-07T15:12:28.991Z</time></trkpt><trkpt lat="44.9723317" lon="9.6053717"><ele>100.0</ele><time>2026-04-07T15:12:30.994Z</time></trkpt><trkpt lat="44.972435" lon="9.605395"><ele>100.0</ele><time>2026-04-07T15:12:32.998Z</time></trkpt><trkpt lat="44.9725333" lon="9.605415"><ele>100.0</ele><time>2026-04-07T15:12:35.001Z</time></trkpt><trkpt lat="44.9726283" lon="9.6054333"><ele>100.0</ele><time>2026-04-07T15:12:36.988Z</time></trkpt><trkpt lat="44.9727233" lon="9.605445"><ele>100.0</ele><time>2026-04-07T15:12:38.993Z</time></trkpt><trkpt lat="44.972825" lon="9.6054383"><ele>100.0</ele><time>2026-04-07T15:12:40.996Z</time></trkpt><trkpt lat="44.972915" lon="9.605395"><ele>100.0</ele><time>2026-04-07T15:12:43.001Z</time></trkpt><trkpt lat="44.9730167" lon="9.6054067"><ele>100.0</ele><time>2026-04-07T15:12:45.001Z</time></trkpt><trkpt lat="44.9731133" lon="9.6054483"><ele>100.0</ele><time>2026-04-07T15:12:46.995Z</time></trkpt><trkpt lat="44.9732233" lon="9.6054733"><ele>100.0</ele><time>2026-04-07T15:12:48.992Z</time></trkpt><trkpt lat="44.9733283" lon="9.6054867"><ele>100.0</ele><time>2026-04-07T15:12:50.999Z</time></trkpt><trkpt lat="44.9734317" lon="9.6054933"><ele>100.2</ele><time>2026-04-07T15:12:52.991Z</time></trkpt><trkpt lat="44.973525" lon="9.605495"><ele>100.4</ele><time>2026-04-07T15:12:54.995Z</time></trkpt><trkpt lat="44.9736267" lon="9.6054933"><ele>100.6</ele><time>2026-04-07T15:12:56.999Z</time></trkpt><trkpt lat="44.9737333" lon="9.60549"><ele>100.8</ele><time>2026-04-07T15:12:58.994Z</time></trkpt><trkpt lat="44.9738417" lon="9.6054917"><ele>101.0</ele><time>2026-04-07T15:13:00.993Z</time></trkpt><trkpt lat="44.9739517" lon="9.6054983"><ele>101.0</ele><time>2026-04-07T15:13:03.002Z</time></trkpt><trkpt lat="44.9740533" lon="9.6055017"><ele>101.0</ele><time>2026-04-07T15:13:04.997Z</time></trkpt><trkpt lat="44.9741467" lon="9.605505"><ele>101.0</ele><time>2026-04-07T15:13:06.991Z</time></trkpt><trkpt lat="44.9742467" lon="9.6055133"><ele>101.0</ele><time>2026-04-07T15:13:08.992Z</time></trkpt><trkpt lat="44.9743517" lon="9.60552"><ele>101.0</ele><time>2026-04-07T15:13:10.996Z</time></trkpt><trkpt lat="44.974465" lon="9.6055217"><ele>101.0</ele><time>2026-04-07T15:13:12.993Z</time></trkpt><trkpt lat="44.9745667" lon="9.6055217"><ele>101.0</ele><time>2026-04-07T15:13:15.004Z</time></trkpt><trkpt lat="44.9746617" lon="9.605515"><ele>101.0</ele><time>2026-04-07T15:13:16.99Z</time></trkpt><trkpt lat="44.97475" lon="9.60551"><ele>101.0</ele><time>2026-04-07T15:13:18.992Z</time></trkpt><trkpt lat="44.9748483" lon="9.6055067"><ele>101.0</ele><time>2026-04-07T15:13:20.994Z</time></trkpt><trkpt lat="44.9749517" lon="9.60549"><ele>100.19999999999999</ele><time>2026-04-07T15:13:22.99Z</time></trkpt><trkpt lat="44.975055" lon="9.6054583"><ele>99.39999999999999</ele><time>2026-04-07T15:13:24.99Z</time></trkpt><trkpt lat="44.9751567" lon="9.605425"><ele>98.6</ele><time>2026-04-07T15:13:26.99Z</time></trkpt><trkpt lat="44.9752583" lon="9.6054183"><ele>97.8</ele><time>2026-04-07T15:13:28.991Z</time></trkpt><trkpt lat="44.975365" lon="9.6054367"><ele>97.0</ele><time>2026-04-07T15:13:30.996Z</time></trkpt><trkpt lat="44.9754683" lon="9.60548"><ele>97.0</ele><time>2026-04-07T15:13:32.994Z</time></trkpt><trkpt lat="44.9755717" lon="9.6055467"><ele>97.0</ele><time>2026-04-07T15:13:34.989Z</time></trkpt><trkpt lat="44.975665" lon="9.6056183"><ele>97.0</ele><time>2026-04-07T15:13:36.992Z</time></trkpt><trkpt lat="44.975755" lon="9.6056883"><ele>97.0</ele><time>2026-04-07T15:13:38.997Z</time></trkpt><trkpt lat="44.9758533" lon="9.6057483"><ele>97.0</ele><time>2026-04-07T15:13:41.003Z</time></trkpt><trkpt lat="44.9759583" lon="9.605785"><ele>97.19999999999999</ele><time>2026-04-07T15:13:42.995Z</time></trkpt><trkpt lat="44.9760583" lon="9.60581"><ele>97.4</ele><time>2026-04-07T15:13:44.99Z</time></trkpt><trkpt lat="44.9761617" lon="9.605825"><ele>97.6</ele><time>2026-04-07T15:13:46.992Z</time></trkpt><trkpt lat="44.9762667" lon="9.6058267"><ele>97.80000000000001</ele><time>2026-04-07T15:13:48.989Z</time></trkpt><trkpt lat="44.976375" lon="9.60584"><ele>98.0</ele><time>2026-04-07T15:13:50.988Z</time></trkpt><trkpt lat="44.9764833" lon="9.6058583"><ele>98.0</ele><time>2026-04-07T15:13:52.994Z</time></trkpt><trkpt lat="44.9765883" lon="9.6058833"><ele>98.0</ele><time>2026-04-07T15:13:54.995Z</time></trkpt><trkpt lat="44.9766867" lon="9.6059133"><ele>98.0</ele><time>2026-04-07T15:13:56.988Z</time></trkpt><trkpt lat="44.9767983" lon="9.6059317"><ele>98.0</ele><time>2026-04-07T15:13:58.991Z</time></trkpt><trkpt lat="44.9768983" lon="9.6059433"><ele>98.0</ele><time>2026-04-07T15:14:01.001Z</time></trkpt><trkpt lat="44.976995" lon="9.60596"><ele>97.80000000000001</ele><time>2026-04-07T15:14:02.996Z</time></trkpt><trkpt lat="44.9770917" lon="9.6059733"><ele>97.6</ele><time>2026-04-07T15:14:04.993Z</time></trkpt><trkpt lat="44.9771917" lon="9.605995"><ele>97.4</ele><time>2026-04-07T15:14:06.995Z</time></trkpt><trkpt lat="44.9772983" lon="9.6060133"><ele>97.19999999999999</ele><time>2026-04-07T15:14:09Z</time></trkpt><trkpt lat="44.9774017" lon="9.6060283"><ele>97.0</ele><time>2026-04-07T15:14:10.991Z</time></trkpt><trkpt lat="44.9775017" lon="9.6060483"><ele>96.8</ele><time>2026-04-07T15:14:12.996Z</time></trkpt><trkpt lat="44.9776017" lon="9.6060733"><ele>96.6</ele><time>2026-04-07T15:14:14.998Z</time></trkpt><trkpt lat="44.977705" lon="9.60611"><ele>96.39999999999999</ele><time>2026-04-07T15:14:16.991Z</time></trkpt><trkpt lat="44.9778083" lon="9.60613"><ele>96.19999999999999</ele><time>2026-04-07T15:14:18.995Z</time></trkpt><trkpt lat="44.97791" lon="9.60616"><ele>96.0</ele><time>2026-04-07T15:14:21.001Z</time></trkpt><trkpt lat="44.9780083" lon="9.606185"><ele>95.8</ele><time>2026-04-07T15:14:22.993Z</time></trkpt><trkpt lat="44.978105" lon="9.6062183"><ele>95.6</ele><time>2026-04-07T15:14:24.992Z</time></trkpt><trkpt lat="44.9782067" lon="9.6062483"><ele>95.4</ele><time>2026-04-07T15:14:26.996Z</time></trkpt><trkpt lat="44.9783083" lon="9.6062683"><ele>95.2</ele><time>2026-04-07T15:14:28.997Z</time></trkpt><trkpt lat="44.9784017" lon="9.6062983"><ele>95.0</ele><time>2026-04-07T15:14:30.989Z</time></trkpt><trkpt lat="44.978495" lon="9.6063267"><ele>95.0</ele><time>2026-04-07T15:14:32.992Z</time></trkpt><trkpt lat="44.9785917" lon="9.6063567"><ele>95.0</ele><time>2026-04-07T15:14:34.995Z</time></trkpt><trkpt lat="44.97869" lon="9.6063767"><ele>95.0</ele><time>2026-04-07T15:14:37.003Z</time></trkpt><trkpt lat="44.97878" lon="9.6063967"><ele>95.0</ele><time>2026-04-07T15:14:38.992Z</time></trkpt><trkpt lat="44.9788583" lon="9.60642"><ele>95.0</ele><time>2026-04-07T15:14:40.993Z</time></trkpt><trkpt lat="44.9789417" lon="9.606425"><ele>95.0</ele><time>2026-04-07T15:14:42.997Z</time></trkpt><trkpt lat="44.97902" lon="9.606405"><ele>95.0</ele><time>2026-04-07T15:14:44.988Z</time></trkpt><trkpt lat="44.9790833" lon="9.6063067"><ele>95.0</ele><time>2026-04-07T15:14:47.989Z</time></trkpt><trkpt lat="44.9791033" lon="9.6061767"><ele>95.0</ele><time>2026-04-07T15:14:49.994Z</time></trkpt><trkpt lat="44.9791217" lon="9.60604"><ele>95.0</ele><time>2026-04-07T15:14:51.99Z</time></trkpt><trkpt lat="44.979145" lon="9.6059033"><ele>95.0</ele><time>2026-04-07T15:14:53.989Z</time></trkpt><trkpt lat="44.9791667" lon="9.6057617"><ele>95.0</ele><time>2026-04-07T15:14:55.991Z</time></trkpt><trkpt lat="44.9791833" lon="9.6056083"><ele>95.0</ele><time>2026-04-07T15:14:57.994Z</time></trkpt><trkpt lat="44.9791983" lon="9.6054483"><ele>95.0</ele><time>2026-04-07T15:14:59.992Z</time></trkpt><trkpt lat="44.9792133" lon="9.60529"><ele>95.0</ele><time>2026-04-07T15:15:01.995Z</time></trkpt><trkpt lat="44.9792233" lon="9.6051367"><ele>95.0</ele><time>2026-04-07T15:15:03.994Z</time></trkpt><trkpt lat="44.9792117" lon="9.60498"><ele>95.0</ele><time>2026-04-07T15:15:05.993Z</time></trkpt><trkpt lat="44.97918" lon="9.60482"><ele>95.0</ele><time>2026-04-07T15:15:07.991Z</time></trkpt><trkpt lat="44.97914" lon="9.6046617"><ele>95.0</ele><time>2026-04-07T15:15:09.997Z</time></trkpt><trkpt lat="44.9791117" lon="9.6045033"><ele>95.2</ele><time>2026-04-07T15:15:11.993Z</time></trkpt><trkpt lat="44.9791117" lon="9.6043467"><ele>95.4</ele><time>2026-04-07T15:15:13.99Z</time></trkpt><trkpt lat="44.9791233" lon="9.6041967"><ele>95.6</ele><time>2026-04-07T15:15:15.989Z</time></trkpt><trkpt lat="44.97914" lon="9.60405"><ele>95.8</ele><time>2026-04-07T15:15:17.99Z</time></trkpt><trkpt lat="44.979155" lon="9.6039083"><ele>96.0</ele><time>2026-04-07T15:15:19.989Z</time></trkpt><trkpt lat="44.9791733" lon="9.6037717"><ele>96.0</ele><time>2026-04-07T15:15:21.991Z</time></trkpt><trkpt lat="44.979195" lon="9.6036333"><ele>96.0</ele><time>2026-04-07T15:15:23.992Z</time></trkpt><trkpt lat="44.9792183" lon="9.6034917"><ele>96.0</ele><time>2026-04-07T15:15:25.994Z</time></trkpt><trkpt lat="44.97924" lon="9.6033433"><ele>96.0</ele><time>2026-04-07T15:15:27.992Z</time></trkpt><trkpt lat="44.9792633" lon="9.6031967"><ele>96.0</ele><time>2026-04-07T15:15:29.987Z</time></trkpt><trkpt lat="44.9792833" lon="9.60305"><ele>96.0</ele><time>2026-04-07T15:15:31.992Z</time></trkpt><trkpt lat="44.9792967" lon="9.6029133"><ele>96.0</ele><time>2026-04-07T15:15:33.991Z</time></trkpt><trkpt lat="44.979295" lon="9.60277"><ele>96.0</ele><time>2026-04-07T15:15:35.991Z</time></trkpt><trkpt lat="44.9792833" lon="9.602625"><ele>96.0</ele><time>2026-04-07T15:15:37.991Z</time></trkpt><trkpt lat="44.9792567" lon="9.6024917"><ele>96.0</ele><time>2026-04-07T15:15:39.991Z</time></trkpt><trkpt lat="44.979225" lon="9.6023667"><ele>95.6</ele><time>2026-04-07T15:15:41.99Z</time></trkpt><trkpt lat="44.97919" lon="9.6022483"><ele>95.19999999999999</ele><time>2026-04-07T15:15:43.991Z</time></trkpt><trkpt lat="44.9791317" lon="9.6021267"><ele>94.80000000000001</ele><time>2026-04-07T15:15:46Z</time></trkpt><trkpt lat="44.9790667" lon="9.60201"><ele>94.4</ele><time>2026-04-07T15:15:47.988Z</time></trkpt><trkpt lat="44.9790083" lon="9.601905"><ele>94.0</ele><time>2026-04-07T15:15:49.99Z</time></trkpt><trkpt lat="44.9789483" lon="9.6018233"><ele>94.0</ele><time>2026-04-07T15:15:51.991Z</time></trkpt><trkpt lat="44.9788917" lon="9.6017333"><ele>94.0</ele><time>2026-04-07T15:15:53.991Z</time></trkpt><trkpt lat="44.978855" lon="9.6016167"><ele>94.0</ele><time>2026-04-07T15:15:55.989Z</time></trkpt><trkpt lat="44.9788383" lon="9.6014783"><ele>94.0</ele><time>2026-04-07T15:15:57.991Z</time></trkpt><trkpt lat="44.97883" lon="9.601345"><ele>94.0</ele><time>2026-04-07T15:15:59.986Z</time></trkpt><trkpt lat="44.978825" lon="9.6012233"><ele>93.83333333333333</ele><time>2026-04-07T15:16:01.994Z</time></trkpt><trkpt lat="44.978815" lon="9.6011017"><ele>93.66666666666666</ele><time>2026-04-07T15:16:03.989Z</time></trkpt><trkpt lat="44.978815" lon="9.6009733"><ele>93.5</ele><time>2026-04-07T15:16:05.996Z</time></trkpt><trkpt lat="44.9788117" lon="9.60085"><ele>93.33333333333333</ele><time>2026-04-07T15:16:07.99Z</time></trkpt><trkpt lat="44.9788233" lon="9.6007567"><ele>93.16666666666667</ele><time>2026-04-07T15:16:09.99Z</time></trkpt><trkpt lat="44.9788267" lon="9.6006517"><ele>93.0</ele><time>2026-04-07T15:16:12.988Z</time></trkpt><trkpt lat="44.978805" lon="9.600565"><ele>93.0</ele><time>2026-04-07T15:16:14.997Z</time></trkpt><trkpt lat="44.978805" lon="9.60045"><ele>93.0</ele><time>2026-04-07T15:16:16.996Z</time></trkpt><trkpt lat="44.9788067" lon="9.6003183"><ele>93.0</ele><time>2026-04-07T15:16:18.996Z</time></trkpt><trkpt lat="44.97881" lon="9.6001833"><ele>93.0</ele><time>2026-04-07T15:16:20.997Z</time></trkpt><trkpt lat="44.9788133" lon="9.6000567"><ele>93.0</ele><time>2026-04-07T15:16:22.995Z</time></trkpt><trkpt lat="44.9788167" lon="9.5999333"><ele>93.0</ele><time>2026-04-07T15:16:25.002Z</time></trkpt><trkpt lat="44.978815" lon="9.5998233"><ele>93.0</ele><time>2026-04-07T15:16:27.012Z</time></trkpt><trkpt lat="44.97881" lon="9.5996983"><ele>93.0</ele><time>2026-04-07T15:16:28.992Z</time></trkpt><trkpt lat="44.9788" lon="9.5995533"><ele>93.0</ele><time>2026-04-07T15:16:30.992Z</time></trkpt><trkpt lat="44.978795" lon="9.599405"><ele>93.0</ele><time>2026-04-07T15:16:32.994Z</time></trkpt><trkpt lat="44.9787917" lon="9.5992583"><ele>93.0</ele><time>2026-04-07T15:16:35.001Z</time></trkpt><trkpt lat="44.9787767" lon="9.599105"><ele>93.0</ele><time>2026-04-07T15:16:36.994Z</time></trkpt><trkpt lat="44.9787683" lon="9.5989533"><ele>93.0</ele><time>2026-04-07T15:16:38.996Z</time></trkpt><trkpt lat="44.9787617" lon="9.598795"><ele>93.0</ele><time>2026-04-07T15:16:40.996Z</time></trkpt><trkpt lat="44.9787467" lon="9.5986433"><ele>93.0</ele><time>2026-04-07T15:16:42.988Z</time></trkpt><trkpt lat="44.9787383" lon="9.5985"><ele>93.0</ele><time>2026-04-07T15:16:44.994Z</time></trkpt><trkpt lat="44.9787233" lon="9.59836"><ele>93.0</ele><time>2026-04-07T15:16:47.001Z</time></trkpt><trkpt lat="44.978705" lon="9.5982167"><ele>93.0</ele><time>2026-04-07T15:16:48.993Z</time></trkpt><trkpt lat="44.97867" lon="9.5980833"><ele>93.0</ele><time>2026-04-07T15:16:50.991Z</time></trkpt><trkpt lat="44.978605" lon="9.5979667"><ele>93.0</ele><time>2026-04-07T15:16:52.998Z</time></trkpt><trkpt lat="44.9785317" lon="9.5978767"><ele>93.0</ele><time>2026-04-07T15:16:54.99Z</time></trkpt><trkpt lat="44.9784633" lon="9.5977933"><ele>93.2</ele><time>2026-04-07T15:16:56.996Z</time></trkpt><trkpt lat="44.9783917" lon="9.5977033"><ele>93.4</ele><time>2026-04-07T15:16:58.99Z</time></trkpt><trkpt lat="44.9783083" lon="9.5976117"><ele>93.60000000000001</ele><time>2026-04-07T15:17:00.986Z</time></trkpt><trkpt lat="44.97823" lon="9.5975167"><ele>93.80000000000001</ele><time>2026-04-07T15:17:02.989Z</time></trkpt><trkpt lat="44.978155" lon="9.5974117"><ele>94.0</ele><time>2026-04-07T15:17:04.987Z</time></trkpt><trkpt lat="44.9780767" lon="9.5973133"><ele>94.0</ele><time>2026-04-07T15:17:07.001Z</time></trkpt><trkpt lat="44.97799" lon="9.597235"><ele>94.0</ele><time>2026-04-07T15:17:09Z</time></trkpt><trkpt lat="44.97791" lon="9.59718"><ele>94.0</ele><time>2026-04-07T15:17:10.993Z</time></trkpt><trkpt lat="44.9778217" lon="9.597125"><ele>94.0</ele><time>2026-04-07T15:17:12.995Z</time></trkpt><trkpt lat="44.97772" lon="9.5970883"><ele>94.0</ele><time>2026-04-07T15:17:15.001Z</time></trkpt><trkpt lat="44.9776167" lon="9.59705"><ele>94.0</ele><time>2026-04-07T15:17:16.99Z</time></trkpt><trkpt lat="44.9775183" lon="9.597005"><ele>94.0</ele><time>2026-04-07T15:17:18.994Z</time></trkpt><trkpt lat="44.9774317" lon="9.5969617"><ele>94.0</ele><time>2026-04-07T15:17:21.002Z</time></trkpt><trkpt lat="44.9773567" lon="9.596935"><ele>94.0</ele><time>2026-04-07T15:17:23.001Z</time></trkpt><trkpt lat="44.9772783" lon="9.5969017"><ele>94.0</ele><time>2026-04-07T15:17:24.993Z</time></trkpt><trkpt lat="44.9772017" lon="9.59687"><ele>94.0</ele><time>2026-04-07T15:17:26.994Z</time></trkpt><trkpt lat="44.9771367" lon="9.5968317"><ele>94.0</ele><time>2026-04-07T15:17:28.992Z</time></trkpt><trkpt lat="44.9771267" lon="9.5967333"><ele>94.0</ele><time>2026-04-07T15:17:31.993Z</time></trkpt><trkpt lat="44.9771867" lon="9.5966983"><ele>94.0</ele><time>2026-04-07T15:17:34.991Z</time></trkpt><trkpt lat="44.9772467" lon="9.5967283"><ele>94.0</ele><time>2026-04-07T15:17:36.989Z</time></trkpt><trkpt lat="44.977325" lon="9.5967633"><ele>94.0</ele><time>2026-04-07T15:17:39.009Z</time></trkpt><trkpt lat="44.9774133" lon="9.5967883"><ele>94.0</ele><time>2026-04-07T15:17:40.993Z</time></trkpt><trkpt lat="44.9775083" lon="9.5968233"><ele>94.2</ele><time>2026-04-07T15:17:42.988Z</time></trkpt><trkpt lat="44.977605" lon="9.5968467"><ele>94.4</ele><time>2026-04-07T15:17:44.994Z</time></trkpt><trkpt lat="44.9777017" lon="9.596875"><ele>94.6</ele><time>2026-04-07T15:17:46.996Z</time></trkpt><trkpt lat="44.9777933" lon="9.59689"><ele>94.8</ele><time>2026-04-07T15:17:48.993Z</time></trkpt><trkpt lat="44.97789" lon="9.5968983"><ele>95.0</ele><time>2026-04-07T15:17:51.002Z</time></trkpt><trkpt lat="44.9779933" lon="9.59691"><ele>95.0</ele><time>2026-04-07T15:17:52.993Z</time></trkpt><trkpt lat="44.978095" lon="9.59692"><ele>95.0</ele><time>2026-04-07T15:17:54.996Z</time></trkpt><trkpt lat="44.97819" lon="9.59693"><ele>95.0</ele><time>2026-04-07T15:17:56.994Z</time></trkpt><trkpt lat="44.97828" lon="9.5969367"><ele>95.0</ele><time>2026-04-07T15:17:58.992Z</time></trkpt><trkpt lat="44.978355" lon="9.59694"><ele>95.0</ele><time>2026-04-07T15:18:01.004Z</time></trkpt><trkpt lat="44.978425" lon="9.5969433"><ele>95.0</ele><time>2026-04-07T15:18:02.999Z</time></trkpt><trkpt lat="44.9785467" lon="9.596955"><ele>95.0</ele><time>2026-04-07T15:20:29.991Z</time></trkpt><trkpt lat="44.9786133" lon="9.5969717"><ele>95.0</ele><time>2026-04-07T15:20:31.987Z</time></trkpt><trkpt lat="44.9787017" lon="9.5969933"><ele>95.0</ele><time>2026-04-07T15:20:34.991Z</time></trkpt><trkpt lat="44.9787767" lon="9.597"><ele>95.0</ele><time>2026-04-07T15:20:37.99Z</time></trkpt><trkpt lat="44.9788617" lon="9.5970083"><ele>95.0</ele><time>2026-04-07T15:20:40.99Z</time></trkpt><trkpt lat="44.9789467" lon="9.5970433"><ele>95.0</ele><time>2026-04-07T15:20:43.997Z</time></trkpt><trkpt lat="44.979025" lon="9.5970783"><ele>95.0</ele><time>2026-04-07T15:20:45.992Z</time></trkpt><trkpt lat="44.9791183" lon="9.5971"><ele>95.0</ele><time>2026-04-07T15:20:47.991Z</time></trkpt><trkpt lat="44.9792233" lon="9.59712"><ele>95.0</ele><time>2026-04-07T15:20:49.99Z</time></trkpt><trkpt lat="44.9793333" lon="9.5971383"><ele>95.0</ele><time>2026-04-07T15:20:51.989Z</time></trkpt><trkpt lat="44.9794467" lon="9.5971583"><ele>95.0</ele><time>2026-04-07T15:20:53.992Z</time></trkpt><trkpt lat="44.979565" lon="9.5971817"><ele>94.6</ele><time>2026-04-07T15:20:55.99Z</time></trkpt><trkpt lat="44.9796833" lon="9.5971983"><ele>94.2</ele><time>2026-04-07T15:20:57.987Z</time></trkpt><trkpt lat="44.9798033" lon="9.597225"><ele>93.80000000000001</ele><time>2026-04-07T15:20:59.993Z</time></trkpt><trkpt lat="44.9798667" lon="9.597245"><ele>93.4</ele><time>2026-04-07T15:21:00.993Z</time></trkpt><trkpt lat="44.9799917" lon="9.5972817"><ele>93.0</ele><time>2026-04-07T15:21:02.995Z</time></trkpt><trkpt lat="44.9801117" lon="9.5973133"><ele>92.60000000000001</ele><time>2026-04-07T15:21:04.99Z</time></trkpt><trkpt lat="44.9802367" lon="9.5973383"><ele>92.2</ele><time>2026-04-07T15:21:06.995Z</time></trkpt><trkpt lat="44.9803033" lon="9.59735"><ele>91.8</ele><time>2026-04-07T15:21:07.996Z</time></trkpt><trkpt lat="44.9803667" lon="9.5973633"><ele>91.4</ele><time>2026-04-07T15:21:09.003Z</time></trkpt><trkpt lat="44.98049" lon="9.5973883"><ele>91.0</ele><time>2026-04-07T15:21:10.997Z</time></trkpt><trkpt lat="44.9806133" lon="9.5974067"><ele>91.0</ele><time>2026-04-07T15:21:12.995Z</time></trkpt><trkpt lat="44.9807383" lon="9.5974317"><ele>91.0</ele><time>2026-04-07T15:21:14.989Z</time></trkpt><trkpt lat="44.9808633" lon="9.5974483"><ele>91.0</ele><time>2026-04-07T15:21:16.99Z</time></trkpt><trkpt lat="44.9809833" lon="9.5974517"><ele>91.0</ele><time>2026-04-07T15:21:19.001Z</time></trkpt><trkpt lat="44.9811017" lon="9.5974683"><ele>91.0</ele><time>2026-04-07T15:21:20.995Z</time></trkpt><trkpt lat="44.9812267" lon="9.5974883"><ele>91.0</ele><time>2026-04-07T15:21:22.987Z</time></trkpt><trkpt lat="44.98135" lon="9.5975117"><ele>91.0</ele><time>2026-04-07T15:21:24.994Z</time></trkpt><trkpt lat="44.981415" lon="9.5975167"><ele>91.0</ele><time>2026-04-07T15:21:25.988Z</time></trkpt><trkpt lat="44.98148" lon="9.5975167"><ele>91.0</ele><time>2026-04-07T15:21:27.003Z</time></trkpt><trkpt lat="44.9816067" lon="9.5975167"><ele>91.0</ele><time>2026-04-07T15:21:28.987Z</time></trkpt><trkpt lat="44.9816717" lon="9.5975133"><ele>91.0</ele><time>2026-04-07T15:21:29.998Z</time></trkpt><trkpt lat="44.9817917" lon="9.59752"><ele>91.0</ele><time>2026-04-07T15:21:31.99Z</time></trkpt><trkpt lat="44.98191" lon="9.597515"><ele>91.0</ele><time>2026-04-07T15:21:33.991Z</time></trkpt><trkpt lat="44.9820217" lon="9.59751"><ele>91.0</ele><time>2026-04-07T15:21:35.992Z</time></trkpt><trkpt lat="44.9821433" lon="9.59749"><ele>90.71428571428571</ele><time>2026-04-07T15:21:37.99Z</time></trkpt><trkpt lat="44.9822083" lon="9.597475"><ele>90.42857142857143</ele><time>2026-04-07T15:21:39.002Z</time></trkpt><trkpt lat="44.982275" lon="9.5974583"><ele>90.14285714285714</ele><time>2026-04-07T15:21:39.994Z</time></trkpt><trkpt lat="44.98234" lon="9.597435"><ele>89.85714285714286</ele><time>2026-04-07T15:21:40.993Z</time></trkpt><trkpt lat="44.9824033" lon="9.597405"><ele>89.57142857142857</ele><time>2026-04-07T15:21:41.987Z</time></trkpt><trkpt lat="44.982465" lon="9.5973717"><ele>89.28571428571428</ele><time>2026-04-07T15:21:42.988Z</time></trkpt><trkpt lat="44.982525" lon="9.5973433"><ele>89.0</ele><time>2026-04-07T15:21:43.99Z</time></trkpt><trkpt lat="44.9825883" lon="9.59732"><ele>89.0</ele><time>2026-04-07T15:21:44.996Z</time></trkpt><trkpt lat="44.9826533" lon="9.597295"><ele>89.0</ele><time>2026-04-07T15:21:45.994Z</time></trkpt><trkpt lat="44.982715" lon="9.597265"><ele>89.0</ele><time>2026-04-07T15:21:46.991Z</time></trkpt><trkpt lat="44.982835" lon="9.5972033"><ele>89.0</ele><time>2026-04-07T15:21:48.99Z</time></trkpt><trkpt lat="44.9828933" lon="9.5971683"><ele>89.0</ele><time>2026-04-07T15:21:49.991Z</time></trkpt><trkpt lat="44.98295" lon="9.5971283"><ele>89.0</ele><time>2026-04-07T15:21:51.002Z</time></trkpt><trkpt lat="44.98301" lon="9.5970983"><ele>89.0</ele><time>2026-04-07T15:21:51.992Z</time></trkpt><trkpt lat="44.9830733" lon="9.59707"><ele>89.0</ele><time>2026-04-07T15:21:52.988Z</time></trkpt><trkpt lat="44.9831933" lon="9.59702"><ele>89.0</ele><time>2026-04-07T15:21:54.989Z</time></trkpt><trkpt lat="44.983255" lon="9.5969983"><ele>89.0</ele><time>2026-04-07T15:21:55.99Z</time></trkpt><trkpt lat="44.9833817" lon="9.5969717"><ele>89.0</ele><time>2026-04-07T15:21:57.991Z</time></trkpt><trkpt lat="44.983505" lon="9.5969467"><ele>89.16666666666667</ele><time>2026-04-07T15:21:59.989Z</time></trkpt><trkpt lat="44.9835717" lon="9.5969433"><ele>89.33333333333334</ele><time>2026-04-07T15:22:01.002Z</time></trkpt><trkpt lat="44.9836383" lon="9.5969433"><ele>89.5</ele><time>2026-04-07T15:22:01.994Z</time></trkpt><trkpt lat="44.9837033" lon="9.59695"><ele>89.66666666666667</ele><time>2026-04-07T15:22:02.994Z</time></trkpt><trkpt lat="44.9838233" lon="9.5969917"><ele>89.83333333333333</ele><time>2026-04-07T15:22:04.988Z</time></trkpt><trkpt lat="44.983885" lon="9.5970183"><ele>90.0</ele><time>2026-04-07T15:22:05.988Z</time></trkpt><trkpt lat="44.9839467" lon="9.5970433"><ele>90.0</ele><time>2026-04-07T15:22:06.995Z</time></trkpt><trkpt lat="44.9840117" lon="9.5970733"><ele>90.0</ele><time>2026-04-07T15:22:07.994Z</time></trkpt><trkpt lat="44.98413" lon="9.597125"><ele>90.0</ele><time>2026-04-07T15:22:09.993Z</time></trkpt><trkpt lat="44.9842483" lon="9.5971683"><ele>90.0</ele><time>2026-04-07T15:22:11.99Z</time></trkpt><trkpt lat="44.9843667" lon="9.59721"><ele>90.0</ele><time>2026-04-07T15:22:13.989Z</time></trkpt><trkpt lat="44.9844833" lon="9.5972683"><ele>90.0</ele><time>2026-04-07T15:22:15.988Z</time></trkpt><trkpt lat="44.984595" lon="9.5973267"><ele>90.0</ele><time>2026-04-07T15:22:17.989Z</time></trkpt><trkpt lat="44.9847067" lon="9.5973783"><ele>90.0</ele><time>2026-04-07T15:22:19.997Z</time></trkpt><trkpt lat="44.9848133" lon="9.597425"><ele>90.0</ele><time>2026-04-07T15:22:21.988Z</time></trkpt><trkpt lat="44.984935" lon="9.5974617"><ele>89.75</ele><time>2026-04-07T15:22:23.988Z</time></trkpt><trkpt lat="44.9850567" lon="9.5974883"><ele>89.5</ele><time>2026-04-07T15:22:25.987Z</time></trkpt><trkpt lat="44.9851767" lon="9.5975017"><ele>89.25</ele><time>2026-04-07T15:22:27.99Z</time></trkpt><trkpt lat="44.9852967" lon="9.5975017"><ele>89.0</ele><time>2026-04-07T15:22:29.986Z</time></trkpt><trkpt lat="44.98542" lon="9.5975117"><ele>89.0</ele><time>2026-04-07T15:22:31.988Z</time></trkpt><trkpt lat="44.98554" lon="9.5975283"><ele>89.0</ele><time>2026-04-07T15:22:33.986Z</time></trkpt><trkpt lat="44.985665" lon="9.597525"><ele>89.0</ele><time>2026-04-07T15:22:35.993Z</time></trkpt><trkpt lat="44.9857833" lon="9.5975233"><ele>89.0</ele><time>2026-04-07T15:22:37.993Z</time></trkpt><trkpt lat="44.985905" lon="9.5975017"><ele>88.83333333333334</ele><time>2026-04-07T15:22:39.988Z</time></trkpt><trkpt lat="44.98597" lon="9.597475"><ele>88.66666666666667</ele><time>2026-04-07T15:22:40.99Z</time></trkpt><trkpt lat="44.9860333" lon="9.5974517"><ele>88.5</ele><time>2026-04-07T15:22:41.989Z</time></trkpt><trkpt lat="44.986095" lon="9.5974333"><ele>88.33333333333333</ele><time>2026-04-07T15:22:42.996Z</time></trkpt><trkpt lat="44.9861567" lon="9.5974133"><ele>88.16666666666666</ele><time>2026-04-07T15:22:43.993Z</time></trkpt><trkpt lat="44.9862733" lon="9.5973817"><ele>88.0</ele><time>2026-04-07T15:22:45.99Z</time></trkpt><trkpt lat="44.9863483" lon="9.5974033"><ele>88.0</ele><time>2026-04-07T15:22:47.993Z</time></trkpt><trkpt lat="44.9864317" lon="9.5975017"><ele>88.0</ele><time>2026-04-07T15:22:50.993Z</time></trkpt><trkpt lat="44.9865133" lon="9.59763"><ele>88.0</ele><time>2026-04-07T15:22:52.988Z</time></trkpt><trkpt lat="44.9865867" lon="9.5977683"><ele>88.0</ele><time>2026-04-07T15:22:54.991Z</time></trkpt><trkpt lat="44.9866583" lon="9.5979033"><ele>88.2</ele><time>2026-04-07T15:22:57.003Z</time></trkpt><trkpt lat="44.9867217" lon="9.59804"><ele>88.4</ele><time>2026-04-07T15:22:58.996Z</time></trkpt><trkpt lat="44.9867867" lon="9.5981717"><ele>88.60000000000001</ele><time>2026-04-07T15:23:00.993Z</time></trkpt><trkpt lat="44.9868583" lon="9.5982817"><ele>88.80000000000001</ele><time>2026-04-07T15:23:02.995Z</time></trkpt><trkpt lat="44.9868917" lon="9.5984"><ele>89.0</ele><time>2026-04-07T15:23:04.99Z</time></trkpt><trkpt lat="44.986905" lon="9.5985083"><ele>89.0</ele><time>2026-04-07T15:23:06.991Z</time></trkpt><trkpt lat="44.9869283" lon="9.5985917"><ele>89.0</ele><time>2026-04-07T15:23:09.004Z</time></trkpt><trkpt lat="44.9869517" lon="9.5987033"><ele>89.0</ele><time>2026-04-07T15:23:10.993Z</time></trkpt><trkpt lat="44.9869483" lon="9.598845"><ele>89.0</ele><time>2026-04-07T15:23:13.001Z</time></trkpt><trkpt lat="44.9869333" lon="9.598995"><ele>89.0</ele><time>2026-04-07T15:23:14.99Z</time></trkpt><trkpt lat="44.9869083" lon="9.5991417"><ele>89.0</ele><time>2026-04-07T15:23:16.991Z</time></trkpt><trkpt lat="44.986865" lon="9.59927"><ele>89.0</ele><time>2026-04-07T15:23:18.998Z</time></trkpt><trkpt lat="44.98681" lon="9.5993817"><ele>89.0</ele><time>2026-04-07T15:23:21.005Z</time></trkpt><trkpt lat="44.9867917" lon="9.5994817"><ele>89.0</ele><time>2026-04-07T15:23:22.991Z</time></trkpt><trkpt lat="44.9868383" lon="9.59958"><ele>89.0</ele><time>2026-04-07T15:23:25.989Z</time></trkpt><trkpt lat="44.98684" lon="9.5996917"><ele>89.0</ele><time>2026-04-07T15:23:27.99Z</time></trkpt><trkpt lat="44.98681" lon="9.5998333"><ele>89.0</ele><time>2026-04-07T15:23:29.989Z</time></trkpt><trkpt lat="44.98678" lon="9.5999817"><ele>89.0</ele><time>2026-04-07T15:23:31.989Z</time></trkpt><trkpt lat="44.9867517" lon="9.6001367"><ele>89.0</ele><time>2026-04-07T15:23:33.993Z</time></trkpt><trkpt lat="44.9867217" lon="9.6002917"><ele>89.0</ele><time>2026-04-07T15:23:35.988Z</time></trkpt><trkpt lat="44.9867033" lon="9.6004367"><ele>89.0</ele><time>2026-04-07T15:23:37.993Z</time></trkpt><trkpt lat="44.9866833" lon="9.6005633"><ele>89.4</ele><time>2026-04-07T15:23:39.994Z</time></trkpt><trkpt lat="44.98664" lon="9.6006583"><ele>89.80000000000001</ele><time>2026-04-07T15:23:41.992Z</time></trkpt><trkpt lat="44.986545" lon="9.60067"><ele>90.19999999999999</ele><time>2026-04-07T15:23:43.992Z</time></trkpt><trkpt lat="44.98644" lon="9.600675"><ele>90.6</ele><time>2026-04-07T15:23:45.991Z</time></trkpt><trkpt lat="44.9863217" lon="9.600675"><ele>91.0</ele><time>2026-04-07T15:23:47.991Z</time></trkpt><trkpt lat="44.9862583" lon="9.6006783"><ele>91.0</ele><time>2026-04-07T15:23:48.997Z</time></trkpt><trkpt lat="44.986195" lon="9.60068"><ele>91.0</ele><time>2026-04-07T15:23:49.99Z</time></trkpt><trkpt lat="44.9860683" lon="9.60068"><ele>91.0</ele><time>2026-04-07T15:23:51.997Z</time></trkpt><trkpt lat="44.9860033" lon="9.6006783"><ele>91.0</ele><time>2026-04-07T15:23:52.996Z</time></trkpt><trkpt lat="44.9858867" lon="9.6006917"><ele>91.0</ele><time>2026-04-07T15:23:54.994Z</time></trkpt><trkpt lat="44.9858" lon="9.600775"><ele>91.0</ele><time>2026-04-07T15:23:56.999Z</time></trkpt><trkpt lat="44.985765" lon="9.60093"><ele>91.0</ele><time>2026-04-07T15:23:58.993Z</time></trkpt><trkpt lat="44.985755" lon="9.60102"><ele>91.0</ele><time>2026-04-07T15:23:59.991Z</time></trkpt><trkpt lat="44.985735" lon="9.6011883"><ele>91.0</ele><time>2026-04-07T15:24:01.987Z</time></trkpt><trkpt lat="44.9857267" lon="9.6012767"><ele>91.0</ele><time>2026-04-07T15:24:02.991Z</time></trkpt><trkpt lat="44.9857033" lon="9.6014517"><ele>91.0</ele><time>2026-04-07T15:24:04.998Z</time></trkpt><trkpt lat="44.9856933" lon="9.6016217"><ele>91.0</ele><time>2026-04-07T15:24:06.999Z</time></trkpt><trkpt lat="44.9856817" lon="9.6017917"><ele>91.0</ele><time>2026-04-07T15:24:08.99Z</time></trkpt><trkpt lat="44.9856733" lon="9.6018817"><ele>91.0</ele><time>2026-04-07T15:24:09.995Z</time></trkpt><trkpt lat="44.985665" lon="9.6019717"><ele>91.0</ele><time>2026-04-07T15:24:10.995Z</time></trkpt><trkpt lat="44.9856567" lon="9.6020617"><ele>91.0</ele><time>2026-04-07T15:24:11.988Z</time></trkpt><trkpt lat="44.9856483" lon="9.6021533"><ele>91.19999999999999</ele><time>2026-04-07T15:24:12.995Z</time></trkpt><trkpt lat="44.98564" lon="9.602245"><ele>91.39999999999999</ele><time>2026-04-07T15:24:13.989Z</time></trkpt><trkpt lat="44.9856167" lon="9.60242"><ele>91.6</ele><time>2026-04-07T15:24:15.993Z</time></trkpt><trkpt lat="44.985605" lon="9.60251"><ele>91.8</ele><time>2026-04-07T15:24:16.989Z</time></trkpt><trkpt lat="44.985595" lon="9.6026817"><ele>92.0</ele><time>2026-04-07T15:24:18.991Z</time></trkpt><trkpt lat="44.9855783" lon="9.6028333"><ele>92.0</ele><time>2026-04-07T15:24:21.001Z</time></trkpt><trkpt lat="44.985565" lon="9.6029717"><ele>92.0</ele><time>2026-04-07T15:24:22.994Z</time></trkpt><trkpt lat="44.98558" lon="9.60311"><ele>92.0</ele><time>2026-04-07T15:24:24.991Z</time></trkpt><trkpt lat="44.985635" lon="9.6032083"><ele>92.0</ele><time>2026-04-07T15:24:26.988Z</time></trkpt><trkpt lat="44.9857233" lon="9.6032367"><ele>92.0</ele><time>2026-04-07T15:24:28.99Z</time></trkpt><trkpt lat="44.9858017" lon="9.6032483"><ele>91.66666666666667</ele><time>2026-04-07T15:24:31.993Z</time></trkpt><trkpt lat="44.9858683" lon="9.6032383"><ele>91.33333333333334</ele><time>2026-04-07T15:24:36.999Z</time></trkpt><trkpt lat="44.9859417" lon="9.6032283"><ele>91.0</ele><time>2026-04-07T15:24:45.986Z</time></trkpt><trkpt lat="44.9860217" lon="9.6032483"><ele>90.66666666666667</ele><time>2026-04-07T15:24:47.99Z</time></trkpt><trkpt lat="44.9861083" lon="9.6032833"><ele>90.33333333333333</ele><time>2026-04-07T15:24:49.993Z</time></trkpt><trkpt lat="44.9861567" lon="9.603375"><ele>90.0</ele><time>2026-04-07T15:24:51.993Z</time></trkpt><trkpt lat="44.9861483" lon="9.6035083"><ele>90.0</ele><time>2026-04-07T15:24:53.994Z</time></trkpt><trkpt lat="44.9861233" lon="9.603655"><ele>90.0</ele><time>2026-04-07T15:24:55.989Z</time></trkpt><trkpt lat="44.9860983" lon="9.6038117"><ele>90.0</ele><time>2026-04-07T15:24:57.993Z</time></trkpt><trkpt lat="44.986075" lon="9.6039683"><ele>90.0</ele><time>2026-04-07T15:24:59.991Z</time></trkpt><trkpt lat="44.9860467" lon="9.604135"><ele>90.16666666666667</ele><time>2026-04-07T15:25:01.991Z</time></trkpt><trkpt lat="44.986025" lon="9.6042833"><ele>90.33333333333333</ele><time>2026-04-07T15:25:03.991Z</time></trkpt><trkpt lat="44.98599" lon="9.6044217"><ele>90.5</ele><time>2026-04-07T15:25:05.991Z</time></trkpt><trkpt lat="44.9859717" lon="9.604545"><ele>90.66666666666666</ele><time>2026-04-07T15:25:07.991Z</time></trkpt><trkpt lat="44.985995" lon="9.6046283"><ele>90.83333333333333</ele><time>2026-04-07T15:25:09.989Z</time></trkpt><trkpt lat="44.986055" lon="9.6046617"><ele>91.0</ele><time>2026-04-07T15:25:11.994Z</time></trkpt><trkpt lat="44.9861433" lon="9.6046133"><ele>91.0</ele><time>2026-04-07T15:25:13.989Z</time></trkpt><trkpt lat="44.9862533" lon="9.6045783"><ele>91.0</ele><time>2026-04-07T15:25:15.99Z</time></trkpt><trkpt lat="44.986315" lon="9.60456"><ele>91.0</ele><time>2026-04-07T15:25:16.996Z</time></trkpt><trkpt lat="44.986435" lon="9.6045333"><ele>91.0</ele><time>2026-04-07T15:25:19Z</time></trkpt><trkpt lat="44.9865583" lon="9.6045117"><ele>91.0</ele><time>2026-04-07T15:25:21Z</time></trkpt><trkpt lat="44.9866217" lon="9.604505"><ele>91.0</ele><time>2026-04-07T15:25:21.994Z</time></trkpt><trkpt lat="44.9867467" lon="9.6044817"><ele>91.0</ele><time>2026-04-07T15:25:23.996Z</time></trkpt><trkpt lat="44.986875" lon="9.6044667"><ele>91.0</ele><time>2026-04-07T15:25:25.995Z</time></trkpt><trkpt lat="44.9869983" lon="9.60445"><ele>91.0</ele><time>2026-04-07T15:25:27.992Z</time></trkpt><trkpt lat="44.98712" lon="9.60443"><ele>91.0</ele><time>2026-04-07T15:25:29.994Z</time></trkpt><trkpt lat="44.9872317" lon="9.6044117"><ele>91.0</ele><time>2026-04-07T15:25:31.993Z</time></trkpt><trkpt lat="44.9873433" lon="9.604395"><ele>91.0</ele><time>2026-04-07T15:25:33.986Z</time></trkpt><trkpt lat="44.9874667" lon="9.6043883"><ele>91.0</ele><time>2026-04-07T15:25:35.998Z</time></trkpt><trkpt lat="44.98753" lon="9.60438"><ele>91.0</ele><time>2026-04-07T15:25:36.991Z</time></trkpt><trkpt lat="44.9876483" lon="9.60437"><ele>90.8</ele><time>2026-04-07T15:25:38.996Z</time></trkpt><trkpt lat="44.98777" lon="9.6043667"><ele>90.6</ele><time>2026-04-07T15:25:40.993Z</time></trkpt><trkpt lat="44.9878333" lon="9.6043633"><ele>90.4</ele><time>2026-04-07T15:25:41.989Z</time></trkpt><trkpt lat="44.987955" lon="9.6043617"><ele>90.2</ele><time>2026-04-07T15:25:43.993Z</time></trkpt><trkpt lat="44.9880783" lon="9.6043767"><ele>90.0</ele><time>2026-04-07T15:25:45.993Z</time></trkpt><trkpt lat="44.9881967" lon="9.6043833"><ele>90.0</ele><time>2026-04-07T15:25:47.99Z</time></trkpt><trkpt lat="44.9883083" lon="9.6043933"><ele>90.0</ele><time>2026-04-07T15:25:49.996Z</time></trkpt><trkpt lat="44.9884167" lon="9.6044033"><ele>90.0</ele><time>2026-04-07T15:25:51.991Z</time></trkpt><trkpt lat="44.9885183" lon="9.60441"><ele>90.0</ele><time>2026-04-07T15:25:53.988Z</time></trkpt><trkpt lat="44.98863" lon="9.60442"><ele>90.0</ele><time>2026-04-07T15:25:55.987Z</time></trkpt><trkpt lat="44.98875" lon="9.604415"><ele>89.75</ele><time>2026-04-07T15:25:57.989Z</time></trkpt><trkpt lat="44.9888767" lon="9.6044067"><ele>89.5</ele><time>2026-04-07T15:25:59.987Z</time></trkpt><trkpt lat="44.9889933" lon="9.6044067"><ele>89.25</ele><time>2026-04-07T15:26:01.991Z</time></trkpt><trkpt lat="44.9891067" lon="9.6043983"><ele>89.0</ele><time>2026-04-07T15:26:03.99Z</time></trkpt><trkpt lat="44.9892333" lon="9.6044067"><ele>88.85714285714285</ele><time>2026-04-07T15:26:05.991Z</time></trkpt><trkpt lat="44.9892983" lon="9.6044083"><ele>88.71428571428571</ele><time>2026-04-07T15:26:06.991Z</time></trkpt><trkpt lat="44.989365" lon="9.6044117"><ele>88.57142857142857</ele><time>2026-04-07T15:26:07.986Z</time></trkpt><trkpt lat="44.98943" lon="9.6044133"><ele>88.42857142857142</ele><time>2026-04-07T15:26:08.998Z</time></trkpt><trkpt lat="44.9894967" lon="9.6044117"><ele>88.28571428571428</ele><time>2026-04-07T15:26:09.988Z</time></trkpt><trkpt lat="44.98956" lon="9.6044167"><ele>88.14285714285714</ele><time>2026-04-07T15:26:10.99Z</time></trkpt><trkpt lat="44.9896817" lon="9.6044283"><ele>88.0</ele><time>2026-04-07T15:26:12.991Z</time></trkpt><trkpt lat="44.989745" lon="9.6044333"><ele>88.0</ele><time>2026-04-07T15:26:14Z</time></trkpt><trkpt lat="44.9898083" lon="9.6044417"><ele>88.0</ele><time>2026-04-07T15:26:14.992Z</time></trkpt><trkpt lat="44.9898733" lon="9.6044517"><ele>88.0</ele><time>2026-04-07T15:26:15.989Z</time></trkpt><trkpt lat="44.9899383" lon="9.60446"><ele>88.0</ele><time>2026-04-07T15:26:16.994Z</time></trkpt><trkpt lat="44.9900633" lon="9.6044783"><ele>88.0</ele><time>2026-04-07T15:26:18.986Z</time></trkpt><trkpt lat="44.9901283" lon="9.6044883"><ele>88.0</ele><time>2026-04-07T15:26:19.99Z</time></trkpt><trkpt lat="44.990245" lon="9.6044967"><ele>88.25</ele><time>2026-04-07T15:26:21.993Z</time></trkpt><trkpt lat="44.9903533" lon="9.6045117"><ele>88.5</ele><time>2026-04-07T15:26:23.989Z</time></trkpt><trkpt lat="44.9904633" lon="9.6045283"><ele>88.75</ele><time>2026-04-07T15:26:25.989Z</time></trkpt><trkpt lat="44.9905817" lon="9.6045217"><ele>89.0</ele><time>2026-04-07T15:26:27.988Z</time></trkpt><trkpt lat="44.9907017" lon="9.6045267"><ele>89.0</ele><time>2026-04-07T15:26:29.991Z</time></trkpt><trkpt lat="44.990825" lon="9.6045617"><ele>89.0</ele><time>2026-04-07T15:26:31.99Z</time></trkpt><trkpt lat="44.9909467" lon="9.6045883"><ele>89.0</ele><time>2026-04-07T15:26:33.99Z</time></trkpt><trkpt lat="44.9910633" lon="9.604615"><ele>89.0</ele><time>2026-04-07T15:26:35.991Z</time></trkpt><trkpt lat="44.9911733" lon="9.6046467"><ele>88.75</ele><time>2026-04-07T15:26:37.99Z</time></trkpt><trkpt lat="44.9912867" lon="9.6046567"><ele>88.5</ele><time>2026-04-07T15:26:39.991Z</time></trkpt><trkpt lat="44.9914" lon="9.6046967"><ele>88.25</ele><time>2026-04-07T15:26:41.995Z</time></trkpt><trkpt lat="44.9915133" lon="9.6047133"><ele>88.0</ele><time>2026-04-07T15:26:43.993Z</time></trkpt><trkpt lat="44.99163" lon="9.60471"><ele>87.80000000000001</ele><time>2026-04-07T15:26:45.99Z</time></trkpt><trkpt lat="44.9917433" lon="9.604725"><ele>87.6</ele><time>2026-04-07T15:26:47.99Z</time></trkpt><trkpt lat="44.9918533" lon="9.604775"><ele>87.4</ele><time>2026-04-07T15:26:49.992Z</time></trkpt><trkpt lat="44.9919717" lon="9.6047767"><ele>87.19999999999999</ele><time>2026-04-07T15:26:51.989Z</time></trkpt><trkpt lat="44.992035" lon="9.604775"><ele>87.0</ele><time>2026-04-07T15:26:52.989Z</time></trkpt><trkpt lat="44.9921533" lon="9.6048017"><ele>87.0</ele><time>2026-04-07T15:26:54.99Z</time></trkpt><trkpt lat="44.9922717" lon="9.6048"><ele>87.0</ele><time>2026-04-07T15:26:56.997Z</time></trkpt><trkpt lat="44.9923833" lon="9.6048033"><ele>87.0</ele><time>2026-04-07T15:26:58.992Z</time></trkpt><trkpt lat="44.9924883" lon="9.6048083"><ele>87.0</ele><time>2026-04-07T15:27:00.989Z</time></trkpt><trkpt lat="44.9925883" lon="9.604805"><ele>87.0</ele><time>2026-04-07T15:27:02.992Z</time></trkpt><trkpt lat="44.992685" lon="9.6047983"><ele>87.33333333333333</ele><time>2026-04-07T15:27:04.994Z</time></trkpt><trkpt lat="44.99279" lon="9.604795"><ele>87.66666666666667</ele><time>2026-04-07T15:27:06.997Z</time></trkpt><trkpt lat="44.9929117" lon="9.6047967"><ele>88.0</ele><time>2026-04-07T15:27:08.99Z</time></trkpt><trkpt lat="44.9929767" lon="9.60479"><ele>88.33333333333334</ele><time>2026-04-07T15:27:09.993Z</time></trkpt><trkpt lat="44.99304" lon="9.6047833"><ele>88.66666666666667</ele><time>2026-04-07T15:27:10.986Z</time></trkpt><trkpt lat="44.993105" lon="9.6047867"><ele>89.0</ele><time>2026-04-07T15:27:11.991Z</time></trkpt><trkpt lat="44.9931667" lon="9.604805"><ele>89.0</ele><time>2026-04-07T15:27:12.989Z</time></trkpt><trkpt lat="44.9932883" lon="9.6048217"><ele>89.0</ele><time>2026-04-07T15:27:15.006Z</time></trkpt><trkpt lat="44.9934067" lon="9.604785"><ele>89.0</ele><time>2026-04-07T15:27:16.994Z</time></trkpt><trkpt lat="44.9935217" lon="9.6047533"><ele>89.0</ele><time>2026-04-07T15:27:18.992Z</time></trkpt><trkpt lat="44.9936467" lon="9.6047333"><ele>88.0</ele><time>2026-04-07T15:27:20.992Z</time></trkpt><trkpt lat="44.99371" lon="9.6047167"><ele>87.0</ele><time>2026-04-07T15:27:21.996Z</time></trkpt><trkpt lat="44.9937717" lon="9.604695"><ele>86.0</ele><time>2026-04-07T15:27:22.992Z</time></trkpt><trkpt lat="44.9938917" lon="9.60465"><ele>85.0</ele><time>2026-04-07T15:27:24.99Z</time></trkpt><trkpt lat="44.99401" lon="9.6046083"><ele>84.0</ele><time>2026-04-07T15:27:26.993Z</time></trkpt><trkpt lat="44.9941367" lon="9.6045783"><ele>84.2</ele><time>2026-04-07T15:27:28.991Z</time></trkpt><trkpt lat="44.9942533" lon="9.604555"><ele>84.4</ele><time>2026-04-07T15:27:30.994Z</time></trkpt><trkpt lat="44.9943617" lon="9.6045217"><ele>84.6</ele><time>2026-04-07T15:27:32.989Z</time></trkpt><trkpt lat="44.9944867" lon="9.604495"><ele>84.8</ele><time>2026-04-07T15:27:34.998Z</time></trkpt><trkpt lat="44.9945517" lon="9.60448"><ele>85.0</ele><time>2026-04-07T15:27:35.996Z</time></trkpt><trkpt lat="44.9946183" lon="9.6044633"><ele>85.0</ele><time>2026-04-07T15:27:36.995Z</time></trkpt><trkpt lat="44.9946817" lon="9.60445"><ele>85.0</ele><time>2026-04-07T15:27:37.991Z</time></trkpt><trkpt lat="44.9948033" lon="9.6044267"><ele>85.0</ele><time>2026-04-07T15:27:39.992Z</time></trkpt><trkpt lat="44.99492" lon="9.6044033"><ele>85.0</ele><time>2026-04-07T15:27:41.996Z</time></trkpt><trkpt lat="44.99504" lon="9.6043867"><ele>85.0</ele><time>2026-04-07T15:27:43.989Z</time></trkpt><trkpt lat="44.9951033" lon="9.6043817"><ele>85.2</ele><time>2026-04-07T15:27:44.991Z</time></trkpt><trkpt lat="44.995225" lon="9.604405"><ele>85.4</ele><time>2026-04-07T15:27:46.99Z</time></trkpt><trkpt lat="44.9952883" lon="9.6044167"><ele>85.6</ele><time>2026-04-07T15:27:47.99Z</time></trkpt><trkpt lat="44.9954067" lon="9.6044467"><ele>85.8</ele><time>2026-04-07T15:27:49.992Z</time></trkpt><trkpt lat="44.995525" lon="9.6044483"><ele>86.0</ele><time>2026-04-07T15:27:51.998Z</time></trkpt><trkpt lat="44.9956467" lon="9.6044383"><ele>86.0</ele><time>2026-04-07T15:27:53.993Z</time></trkpt><trkpt lat="44.9957683" lon="9.6044717"><ele>86.0</ele><time>2026-04-07T15:27:55.99Z</time></trkpt><trkpt lat="44.99586" lon="9.60458"><ele>86.0</ele><time>2026-04-07T15:27:57.992Z</time></trkpt><trkpt lat="44.995905" lon="9.604645"><ele>86.0</ele><time>2026-04-07T15:27:58.993Z</time></trkpt><trkpt lat="44.9959833" lon="9.60478"><ele>86.0</ele><time>2026-04-07T15:28:00.998Z</time></trkpt><trkpt lat="44.9960567" lon="9.6049217"><ele>86.16666666666667</ele><time>2026-04-07T15:28:03.002Z</time></trkpt><trkpt lat="44.996135" lon="9.6050517"><ele>86.33333333333334</ele><time>2026-04-07T15:28:04.992Z</time></trkpt><trkpt lat="44.9961767" lon="9.6051217"><ele>86.5</ele><time>2026-04-07T15:28:05.99Z</time></trkpt><trkpt lat="44.9962133" lon="9.605195"><ele>86.66666666666667</ele><time>2026-04-07T15:28:06.991Z</time></trkpt><trkpt lat="44.9962533" lon="9.605265"><ele>86.83333333333333</ele><time>2026-04-07T15:28:07.995Z</time></trkpt><trkpt lat="44.996325" lon="9.6053983"><ele>87.0</ele><time>2026-04-07T15:28:09.992Z</time></trkpt><trkpt lat="44.9963883" lon="9.6055167"><ele>87.19999999999999</ele><time>2026-04-07T15:28:11.991Z</time></trkpt><trkpt lat="44.99645" lon="9.60564"><ele>87.4</ele><time>2026-04-07T15:28:13.993Z</time></trkpt><trkpt lat="44.996515" lon="9.6057733"><ele>87.6</ele><time>2026-04-07T15:28:15.994Z</time></trkpt><trkpt lat="44.996575" lon="9.6059017"><ele>87.80000000000001</ele><time>2026-04-07T15:28:17.992Z</time></trkpt><trkpt lat="44.9966333" lon="9.6060383"><ele>88.0</ele><time>2026-04-07T15:28:19.99Z</time></trkpt><trkpt lat="44.99669" lon="9.6061783"><ele>87.4</ele><time>2026-04-07T15:28:21.994Z</time></trkpt><trkpt lat="44.996745" lon="9.606315"><ele>86.80000000000001</ele><time>2026-04-07T15:28:23.994Z</time></trkpt><trkpt lat="44.9968017" lon="9.6064483"><ele>86.2</ele><time>2026-04-07T15:28:25.994Z</time></trkpt><trkpt lat="44.9968483" lon="9.6065767"><ele>85.6</ele><time>2026-04-07T15:28:27.989Z</time></trkpt><trkpt lat="44.9969033" lon="9.6067083"><ele>85.0</ele><time>2026-04-07T15:28:29.993Z</time></trkpt><trkpt lat="44.9969617" lon="9.6068483"><ele>85.25</ele><time>2026-04-07T15:28:31.99Z</time></trkpt><trkpt lat="44.997015" lon="9.606995"><ele>85.5</ele><time>2026-04-07T15:28:33.992Z</time></trkpt><trkpt lat="44.99707" lon="9.6071417"><ele>85.75</ele><time>2026-04-07T15:28:35.989Z</time></trkpt><trkpt lat="44.9971267" lon="9.6072933"><ele>86.0</ele><time>2026-04-07T15:28:37.993Z</time></trkpt><trkpt lat="44.9971867" lon="9.6074417"><ele>86.0</ele><time>2026-04-07T15:28:39.99Z</time></trkpt><trkpt lat="44.9972517" lon="9.60759"><ele>86.0</ele><time>2026-04-07T15:28:41.995Z</time></trkpt><trkpt lat="44.9973117" lon="9.6077433"><ele>86.0</ele><time>2026-04-07T15:28:43.989Z</time></trkpt><trkpt lat="44.9973717" lon="9.6078967"><ele>86.0</ele><time>2026-04-07T15:28:45.997Z</time></trkpt><trkpt lat="44.9974033" lon="9.607975"><ele>86.0</ele><time>2026-04-07T15:28:47.001Z</time></trkpt><trkpt lat="44.9974583" lon="9.6081267"><ele>86.25</ele><time>2026-04-07T15:28:48.993Z</time></trkpt><trkpt lat="44.9975033" lon="9.6082683"><ele>86.5</ele><time>2026-04-07T15:28:50.992Z</time></trkpt><trkpt lat="44.9975567" lon="9.6084"><ele>86.75</ele><time>2026-04-07T15:28:52.99Z</time></trkpt><trkpt lat="44.9976233" lon="9.608545"><ele>87.0</ele><time>2026-04-07T15:28:54.995Z</time></trkpt><trkpt lat="44.9976933" lon="9.6086933"><ele>87.0</ele><time>2026-04-07T15:28:56.996Z</time></trkpt><trkpt lat="44.9977283" lon="9.6087683"><ele>87.0</ele><time>2026-04-07T15:28:57.99Z</time></trkpt><trkpt lat="44.9977667" lon="9.608845"><ele>87.0</ele><time>2026-04-07T15:28:58.994Z</time></trkpt><trkpt lat="44.9978" lon="9.6089233"><ele>87.0</ele><time>2026-04-07T15:28:59.988Z</time></trkpt><trkpt lat="44.997835" lon="9.6090017"><ele>87.0</ele><time>2026-04-07T15:29:00.99Z</time></trkpt><trkpt lat="44.9978717" lon="9.6090783"><ele>87.0</ele><time>2026-04-07T15:29:01.991Z</time></trkpt><trkpt lat="44.99794" lon="9.6092283"><ele>87.0</ele><time>2026-04-07T15:29:03.986Z</time></trkpt><trkpt lat="44.9980017" lon="9.6093717"><ele>87.0</ele><time>2026-04-07T15:29:05.99Z</time></trkpt><trkpt lat="44.998055" lon="9.6095017"><ele>87.0</ele><time>2026-04-07T15:29:07.992Z</time></trkpt><trkpt lat="44.9981283" lon="9.6096367"><ele>87.0</ele><time>2026-04-07T15:29:09.991Z</time></trkpt><trkpt lat="44.9981933" lon="9.6097833"><ele>86.8</ele><time>2026-04-07T15:29:11.988Z</time></trkpt><trkpt lat="44.9982283" lon="9.60986"><ele>86.6</ele><time>2026-04-07T15:29:12.994Z</time></trkpt><trkpt lat="44.998295" lon="9.6100083"><ele>86.39999999999999</ele><time>2026-04-07T15:29:14.994Z</time></trkpt><trkpt lat="44.99833" lon="9.6100833"><ele>86.19999999999999</ele><time>2026-04-07T15:29:15.99Z</time></trkpt><trkpt lat="44.9983983" lon="9.6102317"><ele>86.0</ele><time>2026-04-07T15:29:17.99Z</time></trkpt><trkpt lat="44.99846" lon="9.6103733"><ele>85.6</ele><time>2026-04-07T15:29:19.991Z</time></trkpt><trkpt lat="44.9985083" lon="9.6105133"><ele>85.19999999999999</ele><time>2026-04-07T15:29:21.994Z</time></trkpt><trkpt lat="44.9985567" lon="9.6106333"><ele>84.80000000000001</ele><time>2026-04-07T15:29:23.989Z</time></trkpt><trkpt lat="44.9986083" lon="9.610755"><ele>84.4</ele><time>2026-04-07T15:29:25.989Z</time></trkpt><trkpt lat="44.9986583" lon="9.6108783"><ele>84.0</ele><time>2026-04-07T15:29:27.99Z</time></trkpt><trkpt lat="44.9987183" lon="9.611005"><ele>84.0</ele><time>2026-04-07T15:29:29.989Z</time></trkpt><trkpt lat="44.998785" lon="9.61115"><ele>84.0</ele><time>2026-04-07T15:29:31.99Z</time></trkpt><trkpt lat="44.9988533" lon="9.6112967"><ele>84.0</ele><time>2026-04-07T15:29:33.991Z</time></trkpt><trkpt lat="44.9989133" lon="9.6114467"><ele>84.0</ele><time>2026-04-07T15:29:35.99Z</time></trkpt><trkpt lat="44.9989683" lon="9.6115867"><ele>84.2</ele><time>2026-04-07T15:29:37.985Z</time></trkpt><trkpt lat="44.999025" lon="9.6117133"><ele>84.4</ele><time>2026-04-07T15:29:39.992Z</time></trkpt><trkpt lat="44.999075" lon="9.6118383"><ele>84.6</ele><time>2026-04-07T15:29:41.988Z</time></trkpt><trkpt lat="44.9991267" lon="9.6119467"><ele>84.8</ele><time>2026-04-07T15:29:43.992Z</time></trkpt><trkpt lat="44.999225" lon="9.61198"><ele>85.0</ele><time>2026-04-07T15:29:46.991Z</time></trkpt><trkpt lat="44.999325" lon="9.6119867"><ele>85.0</ele><time>2026-04-07T15:29:49Z</time></trkpt><trkpt lat="44.9994483" lon="9.6119683"><ele>85.0</ele><time>2026-04-07T15:29:51Z</time></trkpt><trkpt lat="44.9995683" lon="9.6119683"><ele>85.0</ele><time>2026-04-07T15:29:52.99Z</time></trkpt><trkpt lat="44.9996333" lon="9.6119683"><ele>85.0</ele><time>2026-04-07T15:29:53.99Z</time></trkpt><trkpt lat="44.9996967" lon="9.6119717"><ele>85.0</ele><time>2026-04-07T15:29:54.992Z</time></trkpt><trkpt lat="44.9998133" lon="9.611975"><ele>85.0</ele><time>2026-04-07T15:29:57.002Z</time></trkpt><trkpt lat="44.9999333" lon="9.6119783"><ele>85.0</ele><time>2026-04-07T15:29:58.989Z</time></trkpt><trkpt lat="45.0000583" lon="9.6119783"><ele>85.0</ele><time>2026-04-07T15:30:00.992Z</time></trkpt><trkpt lat="45.0001833" lon="9.6119767"><ele>85.0</ele><time>2026-04-07T15:30:02.993Z</time></trkpt><trkpt lat="45.0002467" lon="9.611975"><ele>85.0</ele><time>2026-04-07T15:30:03.991Z</time></trkpt><trkpt lat="45.00031" lon="9.6119683"><ele>85.0</ele><time>2026-04-07T15:30:04.995Z</time></trkpt><trkpt lat="45.0004283" lon="9.611965"><ele>85.0</ele><time>2026-04-07T15:30:06.987Z</time></trkpt><trkpt lat="45.00054" lon="9.61195"><ele>85.0</ele><time>2026-04-07T15:30:09Z</time></trkpt><trkpt lat="45.0006517" lon="9.6119317"><ele>85.0</ele><time>2026-04-07T15:30:10.999Z</time></trkpt><trkpt lat="45.00076" lon="9.6119067"><ele>85.0</ele><time>2026-04-07T15:30:12.99Z</time></trkpt><trkpt lat="45.00088" lon="9.6118817"><ele>85.0</ele><time>2026-04-07T15:30:14.999Z</time></trkpt><trkpt lat="45.0010017" lon="9.6118633"><ele>85.0</ele><time>2026-04-07T15:30:17.001Z</time></trkpt><trkpt lat="45.001115" lon="9.6118667"><ele>85.0</ele><time>2026-04-07T15:30:18.997Z</time></trkpt><trkpt lat="45.00122" lon="9.6118833"><ele>85.0</ele><time>2026-04-07T15:30:20.991Z</time></trkpt><trkpt lat="45.001315" lon="9.6119017"><ele>85.0</ele><time>2026-04-07T15:30:22.993Z</time></trkpt><trkpt lat="45.0014033" lon="9.61193"><ele>85.0</ele><time>2026-04-07T15:30:24.994Z</time></trkpt><trkpt lat="45.001495" lon="9.6119483"><ele>85.0</ele><time>2026-04-07T15:30:26.991Z</time></trkpt><trkpt lat="45.0015933" lon="9.6119683"><ele>85.0</ele><time>2026-04-07T15:30:28.991Z</time></trkpt><trkpt lat="45.0016967" lon="9.611985"><ele>84.6</ele><time>2026-04-07T15:30:30.992Z</time></trkpt><trkpt lat="45.0018017" lon="9.6120067"><ele>84.2</ele><time>2026-04-07T15:30:32.999Z</time></trkpt><trkpt lat="45.0019133" lon="9.6120167"><ele>83.80000000000001</ele><time>2026-04-07T15:30:34.997Z</time></trkpt><trkpt lat="45.0020217" lon="9.6120433"><ele>83.4</ele><time>2026-04-07T15:30:36.997Z</time></trkpt><trkpt lat="45.002125" lon="9.6120517"><ele>83.0</ele><time>2026-04-07T15:30:38.998Z</time></trkpt><trkpt lat="45.00223" lon="9.6120633"><ele>83.0</ele><time>2026-04-07T15:30:40.993Z</time></trkpt><trkpt lat="45.0023383" lon="9.6120717"><ele>83.0</ele><time>2026-04-07T15:30:42.99Z</time></trkpt><trkpt lat="45.0024367" lon="9.6120833"><ele>83.0</ele><time>2026-04-07T15:30:44.993Z</time></trkpt><trkpt lat="45.00253" lon="9.6120967"><ele>83.0</ele><time>2026-04-07T15:30:46.999Z</time></trkpt><trkpt lat="45.0026183" lon="9.6121133"><ele>83.0</ele><time>2026-04-07T15:30:48.992Z</time></trkpt><trkpt lat="45.0027017" lon="9.6121333"><ele>83.0</ele><time>2026-04-07T15:30:50.994Z</time></trkpt><trkpt lat="45.0027767" lon="9.6121517"><ele>83.0</ele><time>2026-04-07T15:30:52.992Z</time></trkpt><trkpt lat="45.0028417" lon="9.612165"><ele>83.0</ele><time>2026-04-07T15:30:54.99Z</time></trkpt><trkpt lat="45.002905" lon="9.6122067"><ele>83.0</ele><time>2026-04-07T15:30:56.988Z</time></trkpt><trkpt lat="45.00291" lon="9.612335"><ele>83.0</ele><time>2026-04-07T15:30:59.991Z</time></trkpt><trkpt lat="45.0029133" lon="9.612485"><ele>83.0</ele><time>2026-04-07T15:31:01.99Z</time></trkpt><trkpt lat="45.0029283" lon="9.6126383"><ele>83.0</ele><time>2026-04-07T15:31:03.994Z</time></trkpt><trkpt lat="45.00296" lon="9.6127617"><ele>83.0</ele><time>2026-04-07T15:31:05.991Z</time></trkpt><trkpt lat="45.0030283" lon="9.6128133"><ele>83.0</ele><time>2026-04-07T15:31:07.991Z</time></trkpt></trkseg></trk></gpx>